# Wetter Temperatur Luftdruck Luftfeuchtigkeit Sichtweite Windgeschwindigkeit Windrichtung Zeit
1 Drizzle 17 1013 100 1200 4.6 40 19:59 17.10.2019
2 Drizzle 18 1013 100 1200 4.6 40 19:59 17.10.2019
3 Drizzle 18 1013 100 1200 4.6 40 19:40 17.10.2019
4 Drizzle 17 1013 100 1600 4.6 70 19:20 17.10.2019
5 Drizzle 17 1013 100 1000 4.6 50 18:58 17.10.2019
6 Drizzle 17 1013 93 1300 5.1 70 18:38 17.10.2019
7 Drizzle 17 1013 93 1300 5.1 70 18:20 17.10.2019
8 Drizzle 17 1013 100 800 4.6 60 17:42 17.10.2019
9 Drizzle 17 1013 93 1200 5.7 70 17:23 17.10.2019
10 Drizzle 17 1013 100 1000 5.1 70 16:57 17.10.2019
11 Drizzle 17 1013 100 1000 5.1 70 16:39 17.10.2019
12 Drizzle 16 1014 100 1000 6.7 70 16:18 17.10.2019
13 Clouds 16 1014 100 1000 5.7 70 15:56 17.10.2019
14 Drizzle 16 1014 100 1600 5.1 70 15:37 17.10.2019
15 Drizzle 16 1014 100 1600 5.1 70 15:19 17.10.2019
16 Drizzle 16 1014 93 800 6.2 70 14:43 17.10.2019
17 Drizzle 16 1014 93 4000 7.7 70 14:24 17.10.2019
18 Drizzle 16 1014 93 4000 7.7 70 14:24 17.10.2019
19 -273 0 0 0 0 0 14:24 17.10.2019
20 Drizzle 16 1014 93 1600 7.7 70 13:57 17.10.2019
21 Drizzle 16 1014 93 1600 7.7 70 13:39 17.10.2019
22 Drizzle 16 1015 93 8000 5.7 90 13:19 17.10.2019
23 Drizzle 16 1014 100 5000 5.7 70 12:41 17.10.2019
24 Drizzle 16 1014 100 5000 5.7 70 12:41 17.10.2019
25 Drizzle 16 1015 93 3000 6.2 10 12:21 17.10.2019
26 Drizzle 16 1015 82 2500 6.7 50 11:59 17.10.2019
27 Drizzle 16 1015 82 2500 6.7 50 11:59 17.10.2019
28 Drizzle 16 1015 82 2500 6.7 50 11:59 17.10.2019
29 Clouds 15 1015 87 10000 6.7 90 11:40 17.10.2019
30 Clouds 15 1015 87 10000 6.7 90 11:19 17.10.2019
31 Clouds 15 1015 87 10000 6.7 90 11:19 17.10.2019
32 Clouds 16 1016 87 10000 6.7 90 10:55 17.10.2019
33 Clouds 15 1016 87 10000 6.7 90 10:37 17.10.2019
34 Clouds 16 1016 87 10000 6.7 90 10:18 17.10.2019
35 Clouds 16 1016 87 10000 8.7 100 09:42 17.10.2019
36 Clouds 16 1016 87 10000 8.7 100 09:23 17.10.2019
37 Clouds 16 1016 87 10000 8.7 100 09:23 17.10.2019
38 Clouds 16 1018 87 10000 8.2 100 08:59 17.10.2019
39 Clouds 16 1018 87 10000 8.2 100 08:41 17.10.2019
40 Clouds 16 1018 87 10000 8.2 100 08:21 17.10.2019
41 Clouds 15 1019 87 10000 8.2 110 07:56 17.10.2019
42 Clouds 16 1019 87 10000 8.2 110 07:37 17.10.2019
43 Clouds 16 1019 87 10000 8.2 110 07:18 17.10.2019
44 Clouds 16 1019 87 10000 6.7 90 06:40 17.10.2019
45 Clouds 16 1019 87 10000 6.7 90 06:21 17.10.2019
46 Clouds 16 1019 87 10000 8.7 90 05:52 17.10.2019
47 Clouds 16 1019 87 10000 8.7 90 05:32 17.10.2019
48 Clouds 16 1019 93 0 7.7 80 04:53 17.10.2019
49 Clouds 16 1020 93 10000 7.2 120 03:55 17.10.2019
50 Clouds 15 1020 87 10000 7.7 120 02:36 17.10.2019
51 Drizzle 16 1019 82 7000 7.2 90 00:57 17.10.2019
52 Drizzle 16 1019 82 7000 7.2 90 00:38 17.10.2019
53 Clouds 16 1020 87 10000 8.2 110 00:18 17.10.2019
54 Clouds 16 1019 87 10000 9.3 120 23:42 16.10.2019
55 Clouds 16 1019 87 10000 9.3 120 23:21 16.10.2019
56 Clouds 16 1019 87 10000 9.3 120 23:21 16.10.2019
57 Clouds 16 1019 87 10000 9.3 120 23:21 16.10.2019
58 Clouds 16 1020 87 10000 7.7 110 22:56 16.10.2019
59 Clouds 16 1020 87 10000 7.7 110 22:36 16.10.2019
60 Clouds 16 1020 87 10000 7.7 110 22:36 16.10.2019
61 Clouds 16 1020 87 10000 7.7 110 22:18 16.10.2019
62 Clouds 17 1020 87 10000 7.2 110 21:56 16.10.2019
63 Clouds 16 1020 87 10000 7.2 110 21:37 16.10.2019
64 Clouds 17 1020 87 10000 7.2 110 21:18 16.10.2019
65 Clouds 17 1021 82 10000 7.7 110 20:56 16.10.2019
66 Clouds 17 1021 82 10000 7.7 110 20:56 16.10.2019
67 Clouds 17 1021 82 10000 7.7 110 20:56 16.10.2019
68 Clouds 17 1021 82 10000 7.7 110 20:38 16.10.2019
69 Clouds 17 1021 82 10000 7.7 110 20:20 16.10.2019
70 Clouds 17 1022 82 10000 8.2 110 19:56 16.10.2019
71 Clouds 17 1022 82 10000 8.2 110 19:38 16.10.2019
72 Clouds 17 1022 82 10000 8.2 110 19:19 16.10.2019
73 Clouds 17 1022 93 10000 5.7 90 18:39 16.10.2019
74 Drizzle 16 1022 93 5000 5.1 90 18:19 16.10.2019
75 Drizzle 16 1023 87 5000 7.7 110 17:56 16.10.2019
76 Drizzle 16 1023 87 5000 7.7 110 17:38 16.10.2019
77 Drizzle 16 1023 87 5000 7.7 110 17:38 16.10.2019
78 Clouds 16 1023 87 10000 8.7 100 17:19 16.10.2019
79 Clouds 16 1023 87 10000 8.7 100 17:19 16.10.2019
80 Clouds 15 1024 82 10000 9.3 100 16:58 16.10.2019
81 Clouds 15 1024 82 10000 9.3 100 16:38 16.10.2019
82 Clouds 15 1024 82 10000 9.3 100 16:20 16.10.2019
83 Drizzle 14 1024 93 2000 6.2 90 15:55 16.10.2019
84 Drizzle 14 1024 93 2000 6.2 90 15:55 16.10.2019
85 Drizzle 14 1024 93 2000 6.2 90 15:54 16.10.2019
86 Drizzle 14 1024 93 2000 6.2 90 15:54 16.10.2019
87 Clouds 14 1023 95 0 0.89 90 15:36 16.10.2019
88 Drizzle 14 1024 100 1600 9.3 100 15:18 16.10.2019
89 Drizzle 14 1024 100 1600 9.3 100 15:18 16.10.2019
90 Drizzle 14 1024 100 1600 9.3 100 14:55 16.10.2019
91 Drizzle 14 1024 100 1600 9.3 100 14:36 16.10.2019
92 Drizzle 13 1024 100 1600 9.3 100 14:18 16.10.2019
93 Drizzle 13 1024 93 2500 9.3 110 13:42 16.10.2019
94 Drizzle 13 1024 93 1600 7.7 110 13:23 16.10.2019
95 Drizzle 12 1024 93 3000 7.7 110 12:44 16.10.2019
96 Drizzle 12 1024 93 3000 7.7 110 12:20 16.10.2019
97 Drizzle 12 1024 100 2000 4.6 110 11:59 16.10.2019
98 Drizzle 12 1024 100 2000 4.6 110 11:41 16.10.2019
99 Drizzle 12 1024 100 5000 5.7 120 11:18 16.10.2019
100 Drizzle 12 1024 100 2500 6.7 120 10:37 16.10.2019
101 Drizzle 12 1024 100 2500 6.7 120 10:19 16.10.2019
102 Drizzle 12 1024 100 1500 7.2 120 09:41 16.10.2019
103 Drizzle 12 1024 93 2500 5.1 90 09:22 16.10.2019
104 Clouds 12 1025 100 10000 3.1 150 08:58 16.10.2019
105 Clouds 12 1025 100 10000 3.1 150 08:40 16.10.2019
106 Clouds 12 1025 87 10000 6.2 110 08:21 16.10.2019
107 Drizzle 12 1025 93 4000 4.6 90 07:43 16.10.2019
108 Clouds 12 1026 82 10000 5.1 100 07:24 16.10.2019
109 Rain 12 1026 87 7000 6.2 90 06:55 16.10.2019
110 Rain 12 1026 87 7000 6.2 90 06:31 16.10.2019
111 Rain 12 1026 100 9000 2.1 150 05:22 16.10.2019
112 Rain 12 1027 100 5000 6.7 110 02:53 16.10.2019
113 Drizzle 12 1027 87 8000 6.2 110 01:38 16.10.2019
114 Rain 12 1027 82 9000 8.7 130 01:18 16.10.2019
115 Rain 12 1027 93 6000 4.6 140 00:42 16.10.2019
116 Rain 12 1027 82 9000 9.3 120 23:59 15.10.2019
117 Rain 12 1027 93 6000 4.1 130 23:39 15.10.2019
118 Rain 12 1027 87 5000 4.6 140 23:21 15.10.2019
119 Rain 12 1027 87 9000 8.2 120 22:55 15.10.2019
120 Rain 12 1027 87 9000 8.2 120 22:37 15.10.2019
121 Rain 12 1027 87 9000 8.2 120 22:19 15.10.2019
122 Rain 12 1027 87 3400 4.6 120 21:55 15.10.2019
123 Rain 12 1027 87 3400 4.6 120 21:55 15.10.2019
124 Rain 12 1027 87 5000 8.2 120 21:36 15.10.2019
125 Rain 12 1027 87 5000 8.2 120 21:36 15.10.2019
126 Rain 12 1027 87 5000 8.2 120 21:36 15.10.2019
127 Rain 12 1027 87 5000 8.2 120 21:36 15.10.2019
128 Rain 12 1027 87 3800 6.7 130 21:18 15.10.2019
129 Rain 12 1027 87 4500 6.2 140 20:55 15.10.2019
130 Rain 12 1028 82 8000 5.1 130 20:55 15.10.2019
131 Rain 12 1028 82 8000 5.1 130 20:37 15.10.2019
132 Rain 12 1027 87 7000 7.2 130 20:19 15.10.2019
133 Rain 12 1028 82 4200 7.7 130 19:55 15.10.2019
134 Rain 12 1028 82 4200 7.7 130 19:36 15.10.2019
135 Rain 12 1028 82 4200 7.7 130 19:36 15.10.2019
136 Clouds 12 1029 76 10000 6.2 130 19:18 15.10.2019
137 Clouds 12 1029 71 10000 6.7 130 18:42 15.10.2019
138 Clouds 12 1029 71 10000 6.7 130 18:23 15.10.2019
139 Clouds 13 1029 62 10000 8.2 100 17:54 15.10.2019
140 Clouds 13 1029 62 10000 8.2 100 17:36 15.10.2019
141 Clouds 13 1029 62 10000 8.2 100 17:18 15.10.2019
142 Rain 12 1030 62 9000 9.3 100 16:42 15.10.2019
143 Rain 12 1030 62 9000 9.3 100 16:21 15.10.2019
144 Clouds 12 1030 66 10000 9.3 100 15:56 15.10.2019
145 Clouds 12 1030 66 10000 9.3 100 15:38 15.10.2019
146 Clouds 12 1030 66 10000 9.3 100 15:19 15.10.2019
147 Clouds 11 1031 76 10000 3.6 150 14:55 15.10.2019
148 Clouds 11 1031 76 10000 3.6 150 14:36 15.10.2019
149 Clouds 11 1031 76 10000 3.6 150 14:18 15.10.2019
150 Clouds 10 1031 71 10000 2.6 170 13:43 15.10.2019
151 Clouds 10 1031 71 10000 2.6 170 13:43 15.10.2019
152 Clouds 10 1031 71 10000 2.6 170 13:20 15.10.2019
153 Clouds 9 1030 76 10000 2.6 170 12:56 15.10.2019
154 Clouds 9 1030 76 10000 2.6 170 12:37 15.10.2019
155 Clouds 9 1030 76 10000 2.6 170 12:18 15.10.2019
156 Clouds 9 1030 76 10000 3.1 150 11:42 15.10.2019
157 Clouds 9 1030 76 10000 3.1 150 11:20 15.10.2019
158 Clouds 8 1030 76 10000 2.6 150 10:55 15.10.2019
159 Clouds 8 1030 76 10000 2.6 150 10:37 15.10.2019
160 Clouds 9 1030 76 10000 2.6 150 10:18 15.10.2019
161 Clouds 9 1030 66 10000 3.1 150 09:40 15.10.2019
162 Clouds 9 1030 66 10000 3.1 150 09:21 15.10.2019
163 Clouds 9 1030 76 10000 4.1 140 08:58 15.10.2019
164 Clouds 9 1030 76 10000 4.1 140 08:39 15.10.2019
165 Clouds 9 1030 76 10000 4.1 140 08:20 15.10.2019
166 Clouds 9 1031 71 10000 3.6 110 07:43 15.10.2019
167 Clouds 9 1031 71 10000 3.6 110 07:23 15.10.2019
168 Clouds 9 1031 71 10000 5.7 130 06:57 15.10.2019
169 Clouds 9 1031 71 10000 5.7 130 06:39 15.10.2019
170 Clouds 9 1031 66 10000 4.1 140 05:56 15.10.2019
171 Clouds 9 1031 70 10000 5.1 100 05:36 15.10.2019
172 Clouds 9 1031 66 10000 4.6 130 04:48 15.10.2019
173 Clouds 9 1031 66 10000 4.6 130 04:18 15.10.2019
174 Clouds 9 1031 66 10000 5.7 140 03:35 15.10.2019
175 Clouds 10 1030 66 10000 7.7 130 01:52 15.10.2019
176 Clouds 10 1030 66 10000 7.7 130 01:52 15.10.2019
177 Clouds 10 1030 66 10000 7.7 130 01:31 15.10.2019
178 Clouds 10 1030 62 10000 7.7 90 00:59 15.10.2019
179 Clouds 10 1030 57 10000 9.3 120 00:25 15.10.2019
180 Clouds 11 1029 62 10000 9.8 110 23:57 14.10.2019
181 Clouds 11 1029 62 10000 9.8 110 23:37 14.10.2019
182 Clouds 11 1029 62 10000 9.8 110 23:18 14.10.2019
183 Clouds 12 1029 62 10000 8.7 130 22:39 14.10.2019
184 Clouds 12 1029 62 10000 8.7 130 22:20 14.10.2019
185 Clouds 12 1029 58 10000 9.8 120 21:57 14.10.2019
186 Clouds 12 1029 58 10000 9.8 120 21:39 14.10.2019
187 Clouds 13 1029 58 10000 9.8 120 21:20 14.10.2019
188 Clouds 13 1029 58 10000 9.8 130 20:56 14.10.2019
189 Clouds 13 1029 58 10000 9.8 130 20:37 14.10.2019
190 Clouds 13 1029 58 10000 9.8 130 20:18 14.10.2019
191 Clouds 13 1029 54 10000 9.3 130 19:43 14.10.2019
192 Clouds 13 1029 54 10000 9.3 130 19:25 14.10.2019
193 Clouds 13 1029 54 10000 9.3 130 19:25 14.10.2019
194 Clouds 13 1029 58 10000 8.7 140 18:59 14.10.2019
195 Clouds 13 1029 58 10000 8.7 140 18:59 14.10.2019
196 Clouds 13 1029 58 10000 8.7 140 18:39 14.10.2019
197 Clouds 13 1029 58 10000 8.7 140 18:39 14.10.2019
198 Clouds 12 1029 58 10000 8.7 140 18:20 14.10.2019
199 Clouds 12 1029 58 10000 8.7 140 18:20 14.10.2019
200 Clouds 12 1029 58 10000 8.7 140 18:20 14.10.2019
201 Clouds 12 1030 58 10000 8.7 130 17:57 14.10.2019
202 Clouds 12 1030 54 10000 8.2 140 17:39 14.10.2019
203 Clouds 12 1030 54 10000 8.2 140 17:20 14.10.2019
204 Clouds 12 1031 57 10000 6.2 150 16:44 14.10.2019
205 Clouds 11 1031 57 10000 6.2 150 16:21 14.10.2019
206 Clouds 11 1031 57 10000 5.7 150 15:44 14.10.2019
207 Clouds 10 1031 57 10000 5.7 150 15:26 14.10.2019
208 Clear 10 1030 61 10000 7.2 150 14:58 14.10.2019
209 Clear 10 1030 61 10000 7.2 150 14:39 14.10.2019
210 Clear 10 1030 61 10000 7.2 150 14:20 14.10.2019
211 Clear 9 1030 61 10000 5.7 160 13:44 14.10.2019
212 Clear 9 1030 61 10000 5.7 160 13:22 14.10.2019
213 Clear 8 1029 61 10000 6.2 150 12:56 14.10.2019
214 Clear 8 1029 61 10000 6.2 150 12:37 14.10.2019
215 Clear 8 1029 61 10000 6.2 150 12:18 14.10.2019
216 Clear 8 1029 66 10000 7.2 150 11:45 14.10.2019
217 Clear 8 1029 66 10000 7.2 150 11:26 14.10.2019
218 Clear 8 1028 57 10000 5.7 160 10:57 14.10.2019
219 Clear 8 1028 57 10000 5.7 160 10:38 14.10.2019
220 Clear 9 1028 57 10000 5.7 160 10:19 14.10.2019
221 Clear 9 1028 53 10000 5.1 160 09:42 14.10.2019
222 Clear 9 1028 53 10000 5.1 160 09:21 14.10.2019
223 Clouds 9 1028 50 10000 4.6 130 08:51 14.10.2019
224 Clouds 10 1028 50 10000 4.6 130 08:23 14.10.2019
225 Clear 10 1028 50 10000 5.1 140 07:59 14.10.2019
226 Clear 10 1028 50 10000 5.1 140 07:39 14.10.2019
227 Clear 10 1028 50 10000 5.1 140 07:18 14.10.2019
228 Clear 10 1027 53 10000 7.2 140 06:29 14.10.2019
229 Clouds 10 1026 57 10000 7.2 140 05:57 14.10.2019
230 Clouds 10 1026 57 10000 7.2 140 05:29 14.10.2019
231 Clouds 11 1024 58 10000 9.3 140 04:34 14.10.2019
232 Clouds 12 1024 62 10000 10.3 130 03:27 14.10.2019
233 Clouds 13 1024 71 10000 9.8 130 02:34 14.10.2019
234 Clouds 15 1023 72 10000 9.8 110 01:22 14.10.2019
235 Clouds 15 1022 72 10000 8.7 110 00:45 14.10.2019
236 Clouds 16 1022 72 10000 8.7 110 00:19 14.10.2019
237 Clouds 17 1020 52 10000 6.7 120 23:44 13.10.2019
238 Clouds 18 1020 52 10000 6.7 120 23:20 13.10.2019
239 Clear 18 1020 48 10000 6.7 140 22:58 13.10.2019
240 Clear 18 1020 48 10000 6.7 140 22:58 13.10.2019
241 Clear 18 1020 48 10000 6.7 140 22:58 13.10.2019
242 Clear 18 1020 48 10000 6.7 140 22:40 13.10.2019
243 Clear 18 1020 48 10000 6.7 140 22:21 13.10.2019
244 Clouds 18 1019 52 10000 7.2 130 21:57 13.10.2019
245 Clouds 19 1019 52 10000 7.2 130 21:37 13.10.2019
246 Clouds 19 1019 52 10000 7.2 130 21:37 13.10.2019
247 Clouds 19 1019 52 10000 7.2 130 21:18 13.10.2019
248 Clear 18 1018 48 10000 7.7 130 20:57 13.10.2019
249 Clear 18 1018 48 10000 7.7 130 20:37 13.10.2019
250 Clear 18 1018 48 10000 7.7 130 20:19 13.10.2019
251 -273 0 0 0 0 0 19:56 13.10.2019
252 Clear 18 1018 52 10000 5.1 160 19:56 13.10.2019
253 Clear 18 1018 52 10000 5.1 160 19:56 13.10.2019
254 -273 0 0 0 0 0 19:56 13.10.2019
255 Clear 18 1018 52 10000 5.1 160 19:37 13.10.2019
256 Clear 18 1018 52 10000 5.1 160 19:37 13.10.2019
257 Clear 18 1018 52 10000 5.1 160 19:19 13.10.2019
258 -273 0 0 0 0 0 18:55 13.10.2019
259 -273 0 0 0 0 0 18:54 13.10.2019
260 Clear 18 1017 52 10000 7.2 150 18:36 13.10.2019
261 Clear 17 1017 52 10000 7.2 150 18:18 13.10.2019
262 Clear 18 1017 55 10000 7.2 130 17:42 13.10.2019
263 Clear 18 1017 55 10000 7.2 130 17:42 13.10.2019
264 Clear 18 1017 55 10000 7.2 130 17:42 13.10.2019
265 Clear 18 1017 55 10000 7.2 130 17:24 13.10.2019
266 Clouds 17 1017 77 10000 6.2 160 16:45 13.10.2019
267 Clouds 17 1017 77 10000 6.2 160 16:45 13.10.2019
268 Clouds 16 1017 77 10000 5.1 170 16:20 13.10.2019
269 Clouds 16 1016 82 10000 3.1 170 15:59 13.10.2019
270 Clouds 16 1016 82 10000 3.1 170 15:39 13.10.2019
271 Clouds 16 1016 82 10000 3.1 170 15:21 13.10.2019
272 Clouds 16 1015 82 10000 1.5 180 14:59 13.10.2019
273 Clouds 17 1015 82 10000 1.5 180 14:40 13.10.2019
274 Clouds 17 1015 82 10000 1.5 180 14:21 13.10.2019
275 Mist 18 1014 93 8000 2.6 170 13:58 13.10.2019
276 Mist 18 1013 93 7000 1.5 190 13:37 13.10.2019
277 Mist 17 1012 88 8000 2.6 170 13:19 13.10.2019
278 Mist 17 1011 93 6000 3.1 180 12:56 13.10.2019
279 Mist 17 1011 93 6000 3.1 180 12:37 13.10.2019
280 Mist 17 1011 93 6000 3.1 180 12:18 13.10.2019
281 Mist 16 1012 93 4000 2.6 180 11:55 13.10.2019
282 Mist 16 1011 93 10000 1.5 130 11:37 13.10.2019
283 Mist 16 1011 93 10000 1.5 130 11:18 13.10.2019
284 Mist 16 1011 93 10000 1.5 130 11:18 13.10.2019
285 Mist 16 1012 100 10000 1 0 10:41 13.10.2019
286 Mist 16 1012 100 10000 1 0 10:22 13.10.2019
287 Mist 16 1012 100 10000 1 0 10:22 13.10.2019
288 Rain 17 1010 93 9000 2.6 130 09:41 13.10.2019
289 Rain 17 1010 93 9000 2.6 130 09:21 13.10.2019
290 Mist 16 1010 100 1500 1 0 08:57 13.10.2019
291 Fog 16 1009 100 800 1.5 0 08:38 13.10.2019
292 Fog 16 1009 100 800 1.5 0 08:19 13.10.2019
293 Fog 17 1009 100 5000 1.5 0 07:45 13.10.2019
294 Fog 17 1009 100 5000 1.5 0 07:45 13.10.2019
295 Clear 17 1009 93 10000 2.1 140 06:58 13.10.2019
296 Clear 17 1009 93 10000 2.1 140 06:31 13.10.2019
297 Clear 17 1008 88 10000 3.1 170 05:34 13.10.2019
298 Clear 17 1008 88 10000 3.1 170 05:34 13.10.2019
299 Clear 18 1008 88 10000 2.1 180 04:46 13.10.2019
300 Clear 18 1008 88 10000 2.6 190 03:39 13.10.2019
301 Clear 18 1007 93 10000 2.1 160 02:35 13.10.2019
302 Thunderstorm 19 1005 88 10000 1.5 120 01:51 13.10.2019
303 Thunderstorm 19 1005 88 10000 1.5 120 01:22 13.10.2019
304 Thunderstorm 19 1005 93 10000 1 0 00:44 13.10.2019
305 Clear 19 1005 88 10000 1.5 100 00:20 13.10.2019
306 Clear 19 1003 88 10000 5.1 70 23:54 12.10.2019
307 Clear 19 1003 88 10000 5.1 70 23:54 12.10.2019
308 Clear 19 1003 88 10000 5.1 70 23:36 12.10.2019
309 Clear 20 1003 88 10000 5.1 70 23:36 12.10.2019
310 Clear 20 1003 88 10000 5.1 70 23:18 12.10.2019
311 Clear 19 1004 82 10000 6.2 70 22:54 12.10.2019
312 Clear 19 1004 82 10000 6.2 70 22:36 12.10.2019
313 Clear 19 1004 82 10000 6.2 70 22:18 12.10.2019
314 Clear 19 1005 88 10000 4.1 70 21:41 12.10.2019
315 Thunderstorm 19 1004 82 10000 6.7 100 21:23 12.10.2019
316 Thunderstorm 18 1005 88 10000 7.2 70 20:56 12.10.2019
317 Thunderstorm 18 1006 88 8000 5.7 120 20:37 12.10.2019
318 Thunderstorm 18 1006 88 8000 5.7 120 20:19 12.10.2019
319 Thunderstorm 18 1005 88 10000 6.2 80 19:36 12.10.2019
320 Thunderstorm 18 1005 88 10000 6.2 80 19:18 12.10.2019
321 Thunderstorm 18 1006 93 4500 7.7 90 18:44 12.10.2019
322 Thunderstorm 18 1006 93 4500 7.7 90 18:26 12.10.2019
323 Thunderstorm 18 1007 93 10000 5.1 60 17:46 12.10.2019
324 Thunderstorm 17 1007 93 6000 7.7 90 17:24 12.10.2019
325 Thunderstorm 17 1010 88 500 5.1 180 16:59 12.10.2019
326 Thunderstorm 18 1005 88 10000 12.9 60 16:40 12.10.2019
327 Thunderstorm 18 1005 88 10000 12.9 60 16:40 12.10.2019
328 Thunderstorm 18 1005 88 10000 12.9 60 16:21 12.10.2019
329 Thunderstorm 18 1006 93 10000 11.3 70 15:56 12.10.2019
330 Thunderstorm 17 1006 93 10000 11.3 70 15:37 12.10.2019
331 Thunderstorm 17 1006 93 10000 11.3 70 15:18 12.10.2019
332 Thunderstorm 17 1006 88 10000 10.3 80 14:40 12.10.2019
333 Thunderstorm 17 1007 100 3000 7.7 90 14:20 12.10.2019
334 Thunderstorm 17 1007 100 6000 12.9 100 13:51 12.10.2019
335 Thunderstorm 17 1008 93 3000 7.2 80 13:32 12.10.2019
336 Thunderstorm 17 1005 93 8000 16.5 110 12:55 12.10.2019
337 Thunderstorm 17 1007 93 1000 12.9 90 12:37 12.10.2019
338 Thunderstorm 17 1009 88 1500 13.9 120 12:19 12.10.2019
339 Thunderstorm 17 1009 93 7000 10.8 130 11:43 12.10.2019
340 Thunderstorm 17 1009 93 7000 10.8 130 11:43 12.10.2019
341 Thunderstorm 17 1009 100 8000 2.6 160 11:23 12.10.2019
342 Thunderstorm 18 1008 88 10000 10.3 140 10:58 12.10.2019
343 Thunderstorm 18 1008 93 2500 10.3 230 10:39 12.10.2019
344 Thunderstorm 18 1008 93 2500 10.3 230 10:20 12.10.2019
345 Thunderstorm 18 1010 100 1000 7.2 220 09:57 12.10.2019
346 Thunderstorm 18 1006 93 10000 6.7 100 09:37 12.10.2019
347 Thunderstorm 18 1006 93 10000 6.7 100 09:19 12.10.2019
348 Thunderstorm 18 1005 100 3000 12.9 110 08:43 12.10.2019
349 Thunderstorm 18 1006 93 10000 9.3 110 08:23 12.10.2019
350 Thunderstorm 18 1006 93 3500 9.3 70 07:40 12.10.2019
351 Thunderstorm 18 1006 93 3500 9.3 70 07:22 12.10.2019
352 Thunderstorm 19 1009 82 8000 4.6 90 05:54 12.10.2019
353 Rain 19 1009 82 8000 4.6 90 05:26 12.10.2019
354 Rain 19 1009 82 10000 5.1 130 04:31 12.10.2019
355 Thunderstorm 19 1009 82 6000 4.6 90 03:46 12.10.2019
356 Thunderstorm 20 1009 82 10000 5.1 130 02:37 12.10.2019
357 Clear 20 1009 88 10000 4.1 120 01:30 12.10.2019
358 Clouds 20 1008 88 10000 4.6 110 00:44 12.10.2019
359 Clouds 21 1008 88 10000 4.6 110 00:24 12.10.2019
360 Mist 22 1008 73 10000 3.1 110 23:40 11.10.2019
361 Mist 22 1008 73 10000 3.1 110 23:40 11.10.2019
362 Mist 22 1008 73 10000 3.1 110 23:21 11.10.2019
363 Rain 23 1008 83 10000 1 0 22:56 11.10.2019
364 Rain 23 1008 83 10000 1 0 22:37 11.10.2019
365 Rain 23 1008 83 10000 1 0 22:18 11.10.2019
366 Clear 23 1007 83 10000 2.6 60 21:40 11.10.2019
367 Rain 23 1007 83 10000 2.6 60 21:21 11.10.2019
368 Clear 23 1008 83 10000 2.1 40 20:46 11.10.2019
369 Clear 22 1008 83 10000 2.1 40 20:27 11.10.2019
370 Thunderstorm 21 1009 94 10000 1 50 19:59 11.10.2019
371 Thunderstorm 21 1009 94 10000 1 50 19:39 11.10.2019
372 Thunderstorm 21 1009 94 10000 1 50 19:18 11.10.2019
373 Thunderstorm 21 1009 94 10000 1 50 19:18 11.10.2019
374 Thunderstorm 19 1009 93 9000 2.1 340 18:59 11.10.2019
375 Thunderstorm 19 1009 93 5000 3.1 0 18:38 11.10.2019
376 Thunderstorm 19 1009 93 5000 3.1 0 18:19 11.10.2019
377 Thunderstorm 19 1009 93 1500 1 0 17:59 11.10.2019
378 Thunderstorm 19 1009 93 1500 1 0 17:59 11.10.2019
379 Thunderstorm 19 1009 93 9000 1.5 0 17:38 11.10.2019
380 Thunderstorm 19 1009 93 9000 1.5 0 17:19 11.10.2019
381 Rain 19 1009 100 1500 3.6 20 16:58 11.10.2019
382 Rain 19 1009 93 9000 3.1 50 16:39 11.10.2019
383 Rain 19 1009 93 9000 3.1 50 16:19 11.10.2019
384 Rain 19 1010 93 9000 3.6 330 15:42 11.10.2019
385 Thunderstorm 19 1010 93 3000 3.1 340 15:21 11.10.2019
386 Thunderstorm 19 1010 94 2000 2.6 230 14:59 11.10.2019
387 Thunderstorm 19 1008 93 10000 5.7 50 14:39 11.10.2019
388 Thunderstorm 19 1008 93 10000 5.7 50 14:20 11.10.2019
389 Rain 18 1008 93 9000 6.2 60 13:45 11.10.2019
390 Rain 18 1008 93 9000 6.2 60 13:45 11.10.2019
391 Thunderstorm 19 1008 88 10000 4.1 100 13:25 11.10.2019
392 Thunderstorm 19 1008 93 9000 1.5 30 12:57 11.10.2019
393 Thunderstorm 19 1007 88 10000 5.1 90 12:38 11.10.2019
394 Thunderstorm 19 1007 88 10000 5.1 90 12:20 11.10.2019
395 Thunderstorm 18 1007 93 9000 4.6 130 11:58 11.10.2019
396 Thunderstorm 18 1008 88 9000 2.6 150 11:38 11.10.2019
397 Thunderstorm 18 1008 88 9000 2.6 150 11:20 11.10.2019
398 Thunderstorm 18 1008 100 1500 3.1 260 10:54 11.10.2019
399 -273 0 0 0 0 0 10:54 11.10.2019
400 Thunderstorm 18 1008 93 6000 3.6 150 10:36 11.10.2019
401 Thunderstorm 18 1008 93 6000 3.6 150 10:18 11.10.2019
402 Thunderstorm 18 1007 93 5000 5.1 160 09:41 11.10.2019
403 Thunderstorm 19 1008 93 1300 5.7 170 09:20 11.10.2019
404 Thunderstorm 20 1002 73 8000 12.9 180 08:56 11.10.2019
405 Thunderstorm 20 1002 73 9000 2.1 330 08:38 11.10.2019
406 Thunderstorm 22 1002 73 9000 2.1 330 08:19 11.10.2019
407 Thunderstorm 23 1002 57 8000 4.6 360 07:51 11.10.2019
408 Clouds 23 1002 83 10000 2.6 330 07:33 11.10.2019
409 Clear 23 1003 83 10000 1.5 330 06:49 11.10.2019
410 Rain 24 1003 73 10000 5.1 350 06:24 11.10.2019
411 Clear 24 1003 69 10000 6.2 360 05:41 11.10.2019
412 Clear 24 1003 69 10000 6.2 360 05:23 11.10.2019
413 Clear 23 1004 83 10000 3.1 320 04:38 11.10.2019
414 Clear 24 1006 78 10000 3.1 30 02:47 11.10.2019
415 Clear 24 1007 73 10000 3.1 50 00:52 11.10.2019
416 Clear 25 1007 73 10000 3.1 50 00:30 11.10.2019
417 Clear 25 1007 69 10000 4.1 100 23:48 10.10.2019
418 Clear 25 1007 69 10000 4.1 100 23:23 10.10.2019
419 Clouds 26 1007 65 10000 2.6 70 22:58 10.10.2019
420 Clouds 26 1007 65 10000 2.6 70 22:39 10.10.2019
421 Clouds 26 1007 65 10000 2.6 70 22:21 10.10.2019
422 Clear 26 1008 61 10000 2.1 50 21:58 10.10.2019
423 Clear 26 1008 61 10000 2.1 50 21:39 10.10.2019
424 Clear 26 1008 61 10000 2.1 50 21:21 10.10.2019
425 Rain 25 1009 64 8000 2.1 250 20:43 10.10.2019
426 Rain 25 1009 64 8000 2.1 250 20:22 10.10.2019
427 Rain 24 1010 73 8000 4.1 320 19:59 10.10.2019
428 Rain 24 1010 73 8000 4.1 320 19:41 10.10.2019
429 Rain 24 1009 69 10000 3.1 20 19:21 10.10.2019
430 Rain 25 1010 64 9000 4.6 340 18:59 10.10.2019
431 Clouds 25 1010 73 10000 2.1 50 18:39 10.10.2019
432 Clouds 25 1010 73 10000 2.1 50 18:20 10.10.2019
433 Rain 25 1011 65 9000 5.1 360 17:55 10.10.2019
434 Rain 25 1011 65 9000 5.1 360 17:55 10.10.2019
435 Clear 25 1011 73 10000 3.6 360 17:37 10.10.2019
436 Clear 25 1011 73 10000 3.6 360 17:18 10.10.2019
437 Clear 25 1011 54 10000 7.2 360 16:44 10.10.2019
438 Clear 25 1011 54 10000 7.2 360 16:44 10.10.2019
439 Clear 25 1011 57 10000 7.7 10 16:26 10.10.2019
440 Clear 25 1011 64 10000 6.2 360 15:54 10.10.2019
441 Clear 24 1011 64 10000 6.2 360 15:36 10.10.2019
442 Clear 25 1011 64 10000 6.2 360 15:36 10.10.2019
443 Clear 24 1011 64 10000 6.2 360 15:18 10.10.2019
444 Clear 23 1012 73 10000 2.6 20 14:54 10.10.2019
445 Clear 22 1012 73 10000 2.6 20 14:36 10.10.2019
446 Thunderstorm 20 1012 82 10000 1 200 14:18 10.10.2019
447 Thunderstorm 20 1012 82 10000 1 200 13:41 10.10.2019
448 Thunderstorm 20 1012 82 10000 1 200 13:41 10.10.2019
449 Thunderstorm 19 1012 82 10000 1 200 13:23 10.10.2019
450 Thunderstorm 18 1012 88 9000 1.5 250 12:57 10.10.2019
451 Thunderstorm 17 1012 88 9000 1.5 250 12:39 10.10.2019
452 Thunderstorm 16 1012 100 10000 1.72 322.338 12:19 10.10.2019
453 Thunderstorm 17 1011 88 3000 2.6 200 11:55 10.10.2019
454 Thunderstorm 17 1011 88 8000 1.5 200 11:37 10.10.2019
455 Thunderstorm 17 1011 88 8000 1.5 200 11:18 10.10.2019
456 Clear 17 1010 82 10000 1.5 310 10:44 10.10.2019
457 Clear 17 1010 82 10000 1.5 310 10:25 10.10.2019
458 Clouds 17 1011 82 10000 2.6 310 09:56 10.10.2019
459 Clouds 17 1011 82 10000 2.6 310 09:37 10.10.2019
460 Thunderstorm 17 1011 82 10000 2.6 310 09:19 10.10.2019
461 Thunderstorm 17 1011 88 10000 2.1 310 08:41 10.10.2019
462 Thunderstorm 18 1011 88 9000 1 320 08:23 10.10.2019
463 Thunderstorm 18 1011 82 9000 2.1 20 07:58 10.10.2019
464 Clear 18 1011 82 10000 3.1 330 07:38 10.10.2019
465 Clear 18 1011 82 10000 3.1 330 07:19 10.10.2019
466 Clear 18 1012 82 10000 4.6 320 06:44 10.10.2019
467 Thunderstorm 19 1012 82 10000 3.6 320 05:57 10.10.2019
468 Thunderstorm 18 1012 82 10000 3.6 320 05:22 10.10.2019
469 Thunderstorm 18 1012 82 10000 3.6 320 05:22 10.10.2019
470 Clear 19 1012 77 10000 4.6 320 04:36 10.10.2019
471 Thunderstorm 20 1011 77 10000 4.6 340 02:49 10.10.2019
472 Thunderstorm 20 1011 77 8000 4.6 310 01:39 10.10.2019
473 Thunderstorm 20 1011 77 8000 4.6 310 01:39 10.10.2019
474 Thunderstorm 20 1011 77 8000 4.6 310 01:21 10.10.2019
475 Thunderstorm 20 1012 82 7000 1.5 260 00:41 10.10.2019
476 Thunderstorm 20 1011 77 9000 2.6 20 23:57 09.10.2019
477 Thunderstorm 20 1011 72 10000 3.6 90 23:36 09.10.2019
478 Thunderstorm 20 1011 72 10000 3.6 90 23:18 09.10.2019
479 Thunderstorm 21 1013 69 1000 5.1 310 22:41 09.10.2019
480 Thunderstorm 23 1012 73 9000 3.1 350 22:22 09.10.2019
481 Clear 24 1012 73 10000 4.1 20 21:58 09.10.2019
482 Clouds 26 1012 50 10000 3.6 320 21:39 09.10.2019
483 Clouds 26 1012 50 10000 3.6 320 21:39 09.10.2019
484 Clouds 26 1012 50 10000 3.6 320 21:39 09.10.2019
485 Clouds 26 1012 50 10000 3.6 320 21:19 09.10.2019
486 Clear 27 1012 41 10000 5.1 330 20:55 09.10.2019
487 Clouds 27 1013 47 10000 4.6 290 20:37 09.10.2019
488 Clouds 27 1013 47 10000 4.6 290 20:18 09.10.2019
489 Clouds 27 1014 44 10000 4.6 320 19:44 09.10.2019
490 Clouds 27 1014 44 10000 4.6 320 19:23 09.10.2019
491 Clear 27 1015 36 10000 5.7 340 18:40 09.10.2019
492 Clear 26 1015 36 10000 5.7 340 18:21 09.10.2019
493 Clear 25 1015 38 10000 5.1 340 17:59 09.10.2019
494 Clear 25 1015 38 10000 5.1 340 17:40 09.10.2019
495 Clear 25 1015 38 10000 5.1 340 17:40 09.10.2019
496 Clear 25 1015 38 10000 5.1 340 17:22 09.10.2019
497 Clear 25 1016 41 10000 5.7 340 16:57 09.10.2019
498 Clear 24 1016 41 10000 5.7 340 16:39 09.10.2019
499 Clear 24 1016 41 10000 5.7 340 16:21 09.10.2019
500 Clear 24 1016 41 10000 5.7 340 16:21 09.10.2019
501 Clear 23 1017 46 10000 4.1 340 15:57 09.10.2019
502 Clear 23 1016 40 10000 4.6 340 15:38 09.10.2019
503 Clear 22 1017 68 10000 3.1 10 15:19 09.10.2019
504 Clear 20 1017 77 10000 3.6 350 14:46 09.10.2019
505 Clear 19 1017 77 10000 3.6 350 14:20 09.10.2019
506 Clear 18 1017 55 10000 1 320 14:00 09.10.2019
507 Clear 18 1017 55 10000 1 320 13:38 09.10.2019
508 Clear 18 1017 55 10000 1 320 13:38 09.10.2019
509 Clear 17 1017 55 10000 1 320 13:18 09.10.2019
510 Clear 14 1017 82 10000 3.6 330 12:44 09.10.2019
511 Clear 12 1017 82 10000 3.6 330 12:23 09.10.2019
512 Clear 13 1016 63 10000 2.1 80 11:58 09.10.2019
513 Clear 12 1016 63 10000 2.1 80 11:40 09.10.2019
514 Clear 12 1016 63 10000 2.1 80 11:20 09.10.2019
515 Clear 11 1016 82 10000 1.75 348.529 10:58 09.10.2019
516 Clear 12 1016 82 10000 1.75 348.529 10:40 09.10.2019
517 Clear 12 1016 48 10000 1 140 10:40 09.10.2019
518 Clear 12 1016 48 10000 1 140 10:18 09.10.2019
519 Clear 13 1016 48 10000 1 230 09:43 09.10.2019
520 Clear 13 1016 48 10000 1 230 09:20 09.10.2019
521 Clear 13 1016 87 10000 0.49 340.096 08:57 09.10.2019
522 Clear 14 1016 45 10000 2.6 230 08:37 09.10.2019
523 Clear 14 1016 45 10000 2.6 230 08:18 09.10.2019
524 Clear 15 1017 52 10000 2.1 250 07:46 09.10.2019
525 Clear 15 1017 52 10000 2.1 250 07:24 09.10.2019
526 Clear 15 1017 52 10000 2.1 250 07:24 09.10.2019
527 Clear 15 1017 52 10000 2.1 250 07:24 09.10.2019
528 Clear 16 1017 48 10000 2.6 260 06:54 09.10.2019
529 Clear 16 1017 48 10000 2.6 260 06:25 09.10.2019
530 Clear 16 1017 42 10000 2.6 260 05:47 09.10.2019
531 Clear 16 1017 35 10000 2.1 290 04:41 09.10.2019
532 Clear 18 1017 33 10000 2.1 280 03:24 09.10.2019
533 Clear 20 1016 18 10000 1 240 01:48 09.10.2019
534 Clear 20 1016 18 10000 1 240 01:22 09.10.2019
535 Clear 20 1016 17 10000 2.1 250 00:58 09.10.2019
536 Clear 21 1016 17 10000 2.1 250 00:40 09.10.2019
537 Clear 22 1016 17 10000 2.1 250 00:21 09.10.2019
538 Clear 24 1016 16 10000 3.1 260 23:57 08.10.2019
539 Clear 25 1016 16 10000 3.1 260 23:36 08.10.2019
540 Clear 25 1016 16 10000 3.1 260 23:18 08.10.2019
541 Clear 25 1016 16 10000 3.1 250 22:39 08.10.2019
542 Clear 25 1016 16 10000 3.1 250 22:20 08.10.2019
543 Clear 25 1016 16 10000 3.1 250 22:20 08.10.2019
544 Clear 26 1016 14 10000 3.6 260 21:57 08.10.2019
545 Clear 26 1016 14 10000 3.6 260 21:39 08.10.2019
546 Clear 26 1016 14 10000 3.6 260 21:19 08.10.2019
547 Clear 26 1016 15 10000 3.6 260 20:56 08.10.2019
548 Clear 26 1016 15 10000 3.6 260 20:37 08.10.2019
549 Clear 26 1016 15 10000 3.6 260 20:19 08.10.2019
550 Clear 26 1017 16 10000 4.1 250 19:57 08.10.2019
551 Clear 25 1017 16 10000 4.1 250 19:38 08.10.2019
552 Clear 25 1017 16 10000 4.1 250 19:20 08.10.2019
553 Clear 25 1017 23 10000 6.2 280 18:46 08.10.2019
554 Clear 25 1018 22 10000 4.6 270 18:28 08.10.2019
555 Clear 24 1018 17 10000 2.1 290 17:59 08.10.2019
556 Clear 24 1018 17 10000 2.1 290 17:40 08.10.2019
557 Clear 24 1018 17 10000 2.1 290 17:40 08.10.2019
558 Clear 24 1018 17 10000 2.1 290 17:20 08.10.2019
559 Clear 23 1019 30 10000 4.6 290 16:57 08.10.2019
560 Clear 23 1019 30 10000 4.6 290 16:38 08.10.2019
561 Clear 23 1019 30 10000 4.6 290 16:20 08.10.2019
562 Clear 21 1018 40 10000 3.1 350 15:40 08.10.2019
563 Clear 20 1018 40 10000 3.1 350 15:21 08.10.2019
564 Clear 19 1018 32 10000 1.5 290 14:57 08.10.2019
565 Clear 19 1018 32 10000 1.5 290 14:38 08.10.2019
566 Clear 18 1018 32 10000 1.5 290 14:20 08.10.2019
567 Clear 16 1018 36 10000 1 0 13:56 08.10.2019
568 Clear 16 1018 36 10000 1 0 13:37 08.10.2019
569 Clear 15 1018 36 10000 1 0 13:18 08.10.2019
570 Clear 14 1017 41 10000 1 0 12:41 08.10.2019
571 Clear 13 1017 41 10000 1 0 12:21 08.10.2019
572 Clear 13 1016 41 10000 1 300 11:59 08.10.2019
573 Clear 12 1016 41 10000 1 300 11:40 08.10.2019
574 Clear 12 1016 41 10000 1 300 11:21 08.10.2019
575 Clear 12 1016 47 10000 1 0 10:54 08.10.2019
576 Clear 12 1016 47 10000 1 0 10:54 08.10.2019
577 Clear 12 1016 47 10000 1 0 10:36 08.10.2019
578 Clear 12 1016 47 10000 1 0 10:18 08.10.2019
579 Clear 13 1016 47 10000 1.5 230 09:40 08.10.2019
580 Clear 13 1016 48 10000 1.5 230 09:22 08.10.2019
581 Clear 13 1016 48 10000 2.1 220 08:45 08.10.2019
582 Clear 13 1016 51 10000 2.1 220 08:25 08.10.2019
583 Clouds 14 1016 67 6000 0.5 0 07:58 08.10.2019
584 Clear 14 1016 29 10000 1.5 230 07:40 08.10.2019
585 Clear 15 1016 36 10000 1 230 07:19 08.10.2019
586 Clear 16 1016 36 10000 1 230 06:46 08.10.2019
587 Clear 16 1016 36 10000 1 230 06:23 08.10.2019
588 Clear 15 1015 34 10000 0.5 240 05:43 08.10.2019
589 Clear 15 1015 34 10000 0.5 240 05:43 08.10.2019
590 Clear 15 1015 34 10000 0.5 240 05:19 08.10.2019
591 Clear 16 1015 49 10000 0.5 200 03:32 08.10.2019
592 Clear 18 1014 41 10000 1.5 200 02:43 08.10.2019
593 Clear 18 1014 41 10000 1.5 200 02:25 08.10.2019
594 Clear 17 1014 26 10000 1.5 210 01:41 08.10.2019
595 Clear 21 1013 25 10000 2.1 240 00:56 08.10.2019
596 Clear 21 1013 25 10000 2.1 240 00:25 08.10.2019
597 Clear 22 1013 22 10000 3.6 290 23:56 07.10.2019
598 Clear 23 1013 22 10000 3.6 290 23:37 07.10.2019
599 Clear 24 1013 27 10000 3.1 250 23:19 07.10.2019
600 Clear 24 1013 27 10000 3.1 250 22:54 07.10.2019
601 Clear 24 1013 27 10000 3.1 250 22:54 07.10.2019
602 Clear 24 1013 27 10000 3.1 250 22:36 07.10.2019
603 Clear 24 1013 27 10000 3.1 250 22:18 07.10.2019
604 Clear 24 1012 31 10000 1.5 290 21:54 07.10.2019
605 Clear 25 1012 31 10000 1.5 290 21:36 07.10.2019
606 Clear 24 1013 31 10000 2.1 290 21:18 07.10.2019
607 Clear 24 1012 31 10000 1.5 290 21:18 07.10.2019
608 Clear 24 1013 31 10000 2.1 290 20:54 07.10.2019
609 Clear 24 1013 31 10000 2.1 290 20:36 07.10.2019
610 Clear 24 1013 31 10000 2.1 290 20:18 07.10.2019
611 Clear 24 1014 35 10000 3.6 230 19:41 07.10.2019
612 Clear 24 1014 35 10000 3.6 230 19:20 07.10.2019
613 Clouds 23 1014 43 10000 4.6 250 18:59 07.10.2019
614 Clouds 23 1014 43 10000 4.6 250 18:40 07.10.2019
615 Clouds 22 1014 43 10000 4.6 250 18:19 07.10.2019
616 Clouds 22 1014 43 10000 4.6 250 18:19 07.10.2019
617 Clouds 22 1014 49 10000 5.7 290 17:55 07.10.2019
618 Clouds 22 1014 49 10000 5.7 290 17:37 07.10.2019
619 Clouds 21 1014 49 10000 5.7 290 17:18 07.10.2019
620 Clouds 21 1015 53 10000 7.7 270 16:43 07.10.2019
621 Clear 21 1014 49 10000 5.7 290 16:25 07.10.2019
622 Clear 20 1015 56 10000 5.7 320 15:46 07.10.2019
623 Clear 20 1015 56 10000 5.7 320 15:27 07.10.2019
624 Clear 19 1014 63 10000 4.6 340 14:59 07.10.2019
625 Clear 19 1014 63 10000 4.6 340 14:59 07.10.2019
626 Clear 18 1014 63 10000 4.6 340 14:40 07.10.2019
627 Clear 18 1014 63 10000 4.6 340 14:22 07.10.2019
628 Clear 16 1014 67 10000 4.6 340 13:44 07.10.2019
629 Clear 15 1014 67 10000 4.6 340 13:21 07.10.2019
630 Clear 14 1013 71 10000 7.2 340 12:57 07.10.2019
631 Clear 14 1013 71 10000 7.2 340 12:39 07.10.2019
632 Clear 14 1013 71 10000 7.2 340 12:19 07.10.2019
633 Clear 13 1013 76 10000 6.2 340 11:58 07.10.2019
634 Clear 13 1013 76 10000 6.2 340 11:38 07.10.2019
635 Clear 13 1013 76 10000 6.2 340 11:20 07.10.2019
636 Clear 13 1013 71 10000 6.7 330 10:42 07.10.2019
637 Clear 13 1013 71 10000 6.7 330 10:21 07.10.2019
638 Clear 13 1013 71 10000 5.1 340 09:55 07.10.2019
639 Clear 13 1013 71 10000 5.1 340 09:54 07.10.2019
640 Clear 13 1013 71 10000 5.1 340 09:36 07.10.2019
641 Clear 14 1013 71 10000 5.1 340 09:18 07.10.2019
642 Clear 14 1014 67 10000 7.2 350 08:41 07.10.2019
643 Clear 14 1014 67 10000 7.2 350 08:20 07.10.2019
644 Clear 14 1014 63 10000 8.7 350 07:44 07.10.2019
645 Clear 14 1014 63 10000 8.7 350 07:25 07.10.2019
646 Clear 14 1015 63 10000 6.2 350 06:55 07.10.2019
647 Clear 14 1015 63 10000 6.2 350 06:37 07.10.2019
648 Clear 15 1016 63 10000 6.2 360 05:50 07.10.2019
649 Clear 15 1016 63 10000 6.2 360 05:24 07.10.2019
650 Clear 15 1017 63 10000 6.7 360 04:42 07.10.2019
651 Clear 16 1017 59 10000 5.1 350 03:45 07.10.2019
652 Clear 16 1017 59 10000 5.1 350 03:23 07.10.2019
653 Clear 16 1017 52 10000 5.1 350 02:23 07.10.2019
654 Clear 17 1017 52 10000 5.1 360 01:52 07.10.2019
655 Clear 17 1017 52 10000 5.1 360 01:22 07.10.2019
656 Clear 18 1017 42 10000 5.7 10 00:41 07.10.2019
657 Clear 18 1017 42 10000 5.7 10 00:20 07.10.2019
658 Clear 19 1017 48 10000 4.6 20 23:42 06.10.2019
659 Clear 19 1017 48 10000 4.6 20 23:42 06.10.2019
660 Clear 19 1017 48 10000 4.6 20 23:42 06.10.2019
661 Clear 20 1017 48 10000 4.6 20 23:22 06.10.2019
662 Clear 20 1018 52 10000 4.6 10 22:59 06.10.2019
663 Clear 20 1018 52 10000 4.6 10 22:41 06.10.2019
664 Clear 21 1018 52 10000 4.6 10 22:22 06.10.2019
665 Clear 21 1018 52 10000 4.6 20 21:58 06.10.2019
666 Clear 21 1018 52 10000 4.6 20 21:38 06.10.2019
667 Clear 21 1018 52 10000 4.6 20 21:19 06.10.2019
668 Clear 21 1019 48 10000 4.6 30 20:58 06.10.2019
669 Clear 21 1019 48 10000 4.6 30 20:40 06.10.2019
670 Clear 21 1019 48 10000 4.6 30 20:40 06.10.2019
671 Clear 21 1019 48 10000 4.6 30 20:21 06.10.2019
672 Clear 21 1021 48 10000 4.1 30 19:57 06.10.2019
673 Clouds 21 1020 37 10000 4.1 360 19:37 06.10.2019
674 Clouds 21 1020 37 10000 4.1 360 19:19 06.10.2019
675 Clear 20 1021 59 10000 3.1 10 18:57 06.10.2019
676 Clear 20 1021 59 10000 3.1 10 18:38 06.10.2019
677 Clear 20 1021 59 10000 3.1 10 18:19 06.10.2019
678 Clear 20 1022 55 10000 4.1 360 17:57 06.10.2019
679 Clear 20 1022 55 10000 4.1 360 17:38 06.10.2019
680 Clear 19 1022 55 10000 4.1 360 17:18 06.10.2019
681 Clear 19 1022 55 10000 4.1 360 17:18 06.10.2019
682 Clear 19 1023 52 10000 3.6 340 16:42 06.10.2019
683 Clear 18 1023 67 10000 3.6 360 16:23 06.10.2019
684 Clear 18 1023 55 10000 3.6 320 15:45 06.10.2019
685 Clear 17 1023 67 10000 3.1 340 15:23 06.10.2019
686 Clear 16 1024 71 10000 3.1 330 14:59 06.10.2019
687 Clear 16 1024 71 10000 3.1 330 14:41 06.10.2019
688 Clear 15 1024 71 10000 3.1 330 14:23 06.10.2019
689 Clear 14 1023 71 10000 3.1 320 13:55 06.10.2019
690 Clear 13 1023 71 10000 3.1 320 13:37 06.10.2019
691 Clear 12 1023 71 10000 3.1 320 13:19 06.10.2019
692 Clear 11 1023 81 10000 1 0 12:56 06.10.2019
693 Clear 11 1023 87 10000 1 20 12:37 06.10.2019
694 Clear 10 1023 87 10000 1 20 12:19 06.10.2019
695 Clear 9 1023 76 10000 2.1 340 11:43 06.10.2019
696 Clear 9 1023 76 10000 2.1 340 11:24 06.10.2019
697 Clear 9 1023 76 10000 2.1 340 11:24 06.10.2019
698 Clear 9 1023 76 10000 1.5 320 10:58 06.10.2019
699 Clear 9 1023 76 10000 1.5 320 10:39 06.10.2019
700 Clear 10 1023 76 10000 1.5 320 10:21 06.10.2019
701 Clear 9 1022 71 10000 2.1 320 09:41 06.10.2019
702 Clear 10 1022 71 10000 2.1 320 09:21 06.10.2019
703 Clear 10 1022 66 10000 2.1 320 08:57 06.10.2019
704 Clear 10 1022 66 10000 2.1 320 08:38 06.10.2019
705 Clear 10 1022 66 10000 2.1 320 08:19 06.10.2019
706 Clear 10 1023 66 10000 2.6 320 07:40 06.10.2019
707 Clear 11 1023 62 10000 2.1 320 06:59 06.10.2019
708 Clear 12 1023 62 10000 3.1 320 05:57 06.10.2019
709 Clear 12 1023 71 10000 3.1 320 04:44 06.10.2019
710 Clear 12 1023 71 10000 3.1 320 04:44 06.10.2019
711 Clear 13 1022 63 10000 3.1 340 02:56 06.10.2019
712 Clear 14 1022 63 10000 3.1 340 02:34 06.10.2019
713 Clear 15 1021 59 10000 2.1 340 01:50 06.10.2019
714 Clear 15 1021 59 10000 2.1 340 01:31 06.10.2019
715 Clear 15 1021 59 10000 2.1 340 01:31 06.10.2019
716 Clear 16 1021 63 10000 1.5 20 00:59 06.10.2019
717 Clear 16 1021 63 10000 1.5 20 00:38 06.10.2019
718 Clear 16 1021 63 10000 1.5 20 00:38 06.10.2019
719 Clear 17 1021 63 10000 1.5 20 00:19 06.10.2019
720 Clear 19 1021 55 10000 2.1 20 23:41 05.10.2019
721 Clear 19 1021 55 10000 2.1 20 23:19 05.10.2019
722 Clear 19 1021 59 10000 3.1 10 22:54 05.10.2019
723 Clear 19 1021 59 10000 3.1 10 22:54 05.10.2019
724 Clear 19 1021 59 10000 3.1 10 22:36 05.10.2019
725 Clear 19 1021 59 10000 3.1 10 22:18 05.10.2019
726 Clear 19 1021 59 10000 3.1 10 22:18 05.10.2019
727 Clouds 20 1021 55 10000 3.6 190 21:41 05.10.2019
728 Clear 19 1021 59 10000 4.1 20 21:22 05.10.2019
729 Clear 19 1021 34 10000 2.1 230 20:57 05.10.2019
730 Clear 19 1021 34 10000 2.1 230 20:39 05.10.2019
731 Clear 19 1021 34 10000 2.1 230 20:19 05.10.2019
732 Clear 19 1021 39 10000 2.1 180 19:41 05.10.2019
733 Clear 18 1021 39 10000 2.1 180 19:22 05.10.2019
734 Clear 18 1021 39 10000 2.1 180 19:22 05.10.2019
735 Clouds 18 1021 42 10000 3.1 180 18:58 05.10.2019
736 Clouds 17 1021 42 10000 3.1 180 18:39 05.10.2019
737 Clouds 17 1021 42 10000 3.1 180 18:21 05.10.2019
738 Clouds 17 1021 42 10000 3.1 0 17:59 05.10.2019
739 Clouds 17 1021 42 10000 3.1 0 17:40 05.10.2019
740 Clouds 17 1021 42 10000 3.1 0 17:21 05.10.2019
741 Clear 15 1021 55 10000 2.6 200 16:42 05.10.2019
742 Clear 15 1021 55 10000 2.6 200 16:23 05.10.2019
743 Clear 15 1021 62 10000 2.6 180 15:58 05.10.2019
744 Clear 14 1021 62 10000 2.6 180 15:40 05.10.2019
745 Clear 14 1021 62 10000 2.6 180 15:21 05.10.2019
746 Clouds 13 1020 76 10000 3.1 200 14:58 05.10.2019
747 Clouds 13 1020 76 10000 3.1 200 14:58 05.10.2019
748 Clouds 13 1020 76 10000 3.1 200 14:40 05.10.2019
749 Clouds 13 1020 76 10000 3.1 200 14:20 05.10.2019
750 Clouds 11 1020 81 10000 2.6 210 13:42 05.10.2019
751 Clouds 11 1020 81 10000 2.6 210 13:22 05.10.2019
752 Clouds 11 1019 93 10000 2.1 190 12:46 05.10.2019
753 Clouds 11 1019 93 10000 2.1 190 12:21 05.10.2019
754 Clouds 10 1019 93 10000 2.6 210 11:58 05.10.2019
755 Clouds 11 1019 93 10000 2.6 210 11:37 05.10.2019
756 Clouds 11 1019 93 10000 2.6 210 11:18 05.10.2019
757 Clouds 11 1018 93 10000 1.5 180 10:44 05.10.2019
758 Clouds 11 1018 93 10000 1.5 180 10:25 05.10.2019
759 Drizzle 12 1018 93 5000 2.6 200 09:57 05.10.2019
760 Drizzle 12 1018 93 5000 2.6 200 09:38 05.10.2019
761 Drizzle 12 1018 93 5000 2.6 200 09:20 05.10.2019
762 Drizzle 12 1018 93 9000 3.6 210 08:39 05.10.2019
763 Drizzle 12 1018 93 9000 3.6 210 08:19 05.10.2019
764 -273 0 0 0 0 0 08:19 05.10.2019
765 Drizzle 12 1018 93 8000 3.1 210 07:53 05.10.2019
766 Drizzle 12 1018 93 8000 3.1 210 07:32 05.10.2019
767 Drizzle 12 1018 93 3500 3.1 220 06:57 05.10.2019
768 Drizzle 13 1018 93 9000 2.6 220 06:26 05.10.2019
769 Clouds 13 1017 93 9000 2.1 220 05:40 05.10.2019
770 Drizzle 13 1017 93 6000 2.6 200 03:39 05.10.2019
771 Drizzle 13 1017 93 6000 2.6 200 03:39 05.10.2019
772 Drizzle 13 1017 93 6000 2.6 200 03:21 05.10.2019
773 Drizzle 14 1016 93 10000 2.6 130 01:30 05.10.2019
774 Drizzle 14 1016 93 8000 3.6 120 00:51 05.10.2019
775 Drizzle 14 1016 93 8000 3.6 120 00:51 05.10.2019
776 Drizzle 14 1016 93 8000 3.6 120 00:28 05.10.2019
777 Drizzle 14 1015 100 4500 3.1 130 23:59 04.10.2019
778 Drizzle 14 1015 100 4500 3.1 130 23:41 04.10.2019
779 Drizzle 14 1015 100 3000 3.6 140 23:23 04.10.2019
780 Drizzle 14 1016 100 1700 4.1 150 22:58 04.10.2019
781 Drizzle 14 1016 100 1700 5.1 130 22:38 04.10.2019
782 Drizzle 14 1016 100 1700 5.1 130 22:38 04.10.2019
783 Drizzle 14 1016 100 1700 5.1 130 22:19 04.10.2019
784 Drizzle 14 1016 100 8000 3.6 110 21:55 04.10.2019
785 Drizzle 14 1016 100 1700 3.6 120 21:36 04.10.2019
786 Drizzle 14 1016 100 1700 3.6 120 21:18 04.10.2019
787 Drizzle 14 1017 93 1700 5.7 110 20:41 04.10.2019
788 Drizzle 14 1017 93 1700 5.7 110 20:23 04.10.2019
789 Drizzle 14 1017 100 1500 4.1 110 19:57 04.10.2019
790 Drizzle 14 1017 100 1500 4.1 110 19:57 04.10.2019
791 Drizzle 14 1017 93 3200 6.7 120 19:38 04.10.2019
792 Drizzle 14 1017 93 3200 6.7 120 19:20 04.10.2019
793 Drizzle 14 1018 93 3200 6.2 120 18:55 04.10.2019
794 Drizzle 14 1019 93 1600 6.7 110 18:36 04.10.2019
795 Drizzle 14 1019 93 1600 6.7 110 18:18 04.10.2019
796 Drizzle 14 1019 93 1800 6.7 110 17:40 04.10.2019
797 Drizzle 14 1019 93 1300 6.7 120 17:22 04.10.2019
798 Drizzle 14 1019 93 3500 4.6 90 16:58 04.10.2019
799 Drizzle 14 1019 93 4500 7.7 110 16:39 04.10.2019
800 Drizzle 14 1019 93 4500 7.7 110 16:18 04.10.2019
801 Drizzle 14 1019 93 4500 7.7 110 16:18 04.10.2019
802 Drizzle 13 1020 93 6000 8.7 110 15:56 04.10.2019
803 Drizzle 13 1020 93 3500 8.7 110 15:37 04.10.2019
804 Drizzle 13 1020 93 3500 8.7 110 15:19 04.10.2019
805 Drizzle 13 1020 100 1500 3.6 130 14:55 04.10.2019
806 Drizzle 13 1020 100 1500 3.6 130 14:55 04.10.2019
807 Drizzle 13 1020 93 2000 9.3 110 14:36 04.10.2019
808 Drizzle 13 1020 93 2000 9.3 110 14:18 04.10.2019
809 Rain 13 1021 100 1500 2.6 140 13:43 04.10.2019
810 Rain 12 1020 93 3000 8.2 130 13:21 04.10.2019
811 Rain 12 1020 93 6000 6.2 90 12:47 04.10.2019
812 Rain 12 1020 87 8000 6.7 130 12:29 04.10.2019
813 Thunderstorm 11 1020 93 4500 5.1 90 11:59 04.10.2019
814 Thunderstorm 11 1020 93 4500 5.1 90 11:40 04.10.2019
815 Thunderstorm 11 1020 93 4500 5.1 90 11:40 04.10.2019
816 Thunderstorm 11 1020 93 4500 5.1 90 11:40 04.10.2019
817 Rain 12 1020 87 7000 5.1 140 11:20 04.10.2019
818 Thunderstorm 11 1021 93 3500 5.1 140 10:40 04.10.2019
819 Thunderstorm 12 1021 82 9000 9.3 120 10:21 04.10.2019
820 Drizzle 12 1021 82 5000 10.3 120 09:47 04.10.2019
821 Drizzle 12 1021 82 5000 10.3 120 09:27 04.10.2019
822 Drizzle 12 1021 82 9000 10.3 110 08:56 04.10.2019
823 Drizzle 12 1021 82 9000 10.3 110 08:38 04.10.2019
824 Drizzle 12 1021 82 9000 10.3 110 08:19 04.10.2019
825 Drizzle 13 1022 82 9000 9.3 110 07:43 04.10.2019
826 Drizzle 13 1022 82 9000 9.3 110 07:22 04.10.2019
827 Drizzle 13 1023 76 8000 9.3 110 06:42 04.10.2019
828 Drizzle 13 1023 76 8000 9.3 110 06:24 04.10.2019
829 Drizzle 13 1023 76 8000 9.3 110 06:24 04.10.2019
830 Clouds 13 1023 76 10000 11.8 110 05:24 04.10.2019
831 Rain 13 1024 76 10000 12.9 110 04:56 04.10.2019
832 Drizzle 12 1025 82 9000 10.3 120 03:47 04.10.2019
833 Drizzle 12 1025 82 8000 10.3 120 02:53 04.10.2019
834 Rain 13 1024 76 10000 10.3 120 01:55 04.10.2019
835 Rain 13 1024 76 10000 10.3 120 01:55 04.10.2019
836 Rain 13 1024 76 10000 10.3 120 01:29 04.10.2019
837 Clouds 13 1024 76 10000 11.8 110 00:56 04.10.2019
838 Clouds 13 1023 76 10000 11.3 110 23:55 03.10.2019
839 Clouds 13 1023 76 10000 11.3 110 23:36 03.10.2019
840 Clouds 13 1023 76 10000 11.3 110 23:18 03.10.2019
841 Clouds 13 1023 76 10000 11.8 120 22:54 03.10.2019
842 Clouds 13 1023 76 10000 11.8 120 22:36 03.10.2019
843 Clouds 13 1023 76 10000 11.8 120 22:18 03.10.2019
844 Clouds 13 1024 71 10000 10.8 130 21:41 03.10.2019
845 Clouds 13 1024 66 10000 11.3 130 21:21 03.10.2019
846 Clouds 14 1025 66 10000 10.8 130 20:59 03.10.2019
847 Clouds 14 1025 66 10000 10.8 130 20:41 03.10.2019
848 Clouds 14 1025 66 10000 10.8 130 20:23 03.10.2019
849 Clouds 14 1025 62 10000 9.8 130 19:59 03.10.2019
850 Clouds 14 1025 62 10000 9.8 130 19:41 03.10.2019
851 Clouds 14 1025 62 10000 9.8 130 19:22 03.10.2019
852 Clouds 14 1026 62 10000 9.8 120 18:58 03.10.2019
853 Clouds 14 1026 62 10000 9.8 120 18:38 03.10.2019
854 Clouds 14 1026 62 10000 9.8 120 18:38 03.10.2019
855 Clouds 14 1026 62 10000 9.8 120 18:19 03.10.2019
856 Clouds 13 1027 66 10000 4.6 120 17:43 03.10.2019
857 Clouds 13 1027 66 10000 8.7 120 17:23 03.10.2019
858 Clouds 12 1027 71 10000 9.3 120 16:58 03.10.2019
859 Clouds 12 1027 71 10000 9.3 120 16:40 03.10.2019
860 Clouds 12 1027 71 10000 9.3 120 16:21 03.10.2019
861 -273 0 0 0 0 0 15:54 03.10.2019
862 Clouds 11 1027 81 10000 8.7 120 15:36 03.10.2019
863 Clouds 10 1026 76 10000 9.3 130 15:18 03.10.2019
864 Clouds 11 1026 76 10000 9.3 130 14:39 03.10.2019
865 Clouds 10 1026 76 10000 9.3 130 14:20 03.10.2019
866 Clear 9 1027 71 10000 9.3 140 13:45 03.10.2019
867 Clear 8 1027 71 10000 9.3 140 13:26 03.10.2019
868 Clear 7 1027 70 10000 5.7 160 12:59 03.10.2019
869 Clear 7 1027 70 10000 5.7 160 12:40 03.10.2019
870 Clear 6 1027 70 10000 5.7 160 12:20 03.10.2019
871 Clear 6 1027 70 10000 5.7 160 12:20 03.10.2019
872 Clear 6 1027 75 10000 4.1 160 11:58 03.10.2019
873 Clear 6 1027 75 10000 4.1 160 11:58 03.10.2019
874 Clear 5 1027 75 10000 4.1 160 11:40 03.10.2019
875 Clear 5 1027 75 10000 4.1 160 11:21 03.10.2019
876 Clear 5 1027 87 10000 2.6 140 10:58 03.10.2019
877 Clear 5 1027 87 10000 2.6 140 10:38 03.10.2019
878 Clear 5 1027 87 10000 2.6 140 10:18 03.10.2019
879 Clear 6 1027 70 10000 4.6 150 09:56 03.10.2019
880 Clear 6 1027 70 10000 4.6 150 09:37 03.10.2019
881 Clear 6 1027 70 10000 4.6 150 09:19 03.10.2019
882 Clear 7 1027 66 10000 5.1 140 08:42 03.10.2019
883 Clear 7 1027 76 10000 3.6 140 08:23 03.10.2019
884 Clear 7 1028 93 10000 3.1 160 07:42 03.10.2019
885 Clear 8 1027 66 10000 4.6 150 07:20 03.10.2019
886 Clear 8 1027 71 10000 3.6 140 06:52 03.10.2019
887 Clear 8 1027 57 10000 5.7 140 06:27 03.10.2019
888 Clear 9 1026 62 10000 6.7 140 05:49 03.10.2019
889 Clear 9 1026 62 10000 6.7 140 05:27 03.10.2019
890 Clear 9 1025 62 10000 6.7 140 04:45 03.10.2019
891 Clear 10 1025 66 10000 8.7 140 03:54 03.10.2019
892 Clear 11 1025 62 10000 6.7 130 03:19 03.10.2019
893 Clear 12 1025 62 10000 8.2 130 02:21 03.10.2019
894 Clear 12 1024 58 10000 7.7 130 01:38 03.10.2019
895 Clear 13 1023 58 10000 9.3 130 00:52 03.10.2019
896 Clear 13 1023 58 10000 9.3 130 00:31 03.10.2019
897 Clear 15 1022 51 10000 9.3 120 23:44 02.10.2019
898 Clear 15 1022 51 10000 9.3 120 23:24 02.10.2019
899 Clouds 16 1021 58 10000 9.3 120 22:57 02.10.2019
900 Clouds 16 1021 58 10000 9.3 120 22:38 02.10.2019
901 Clouds 16 1021 58 10000 9.3 120 22:18 02.10.2019
902 Clouds 17 1021 55 10000 6.7 110 21:55 02.10.2019
903 Clouds 17 1021 55 10000 6.7 110 21:55 02.10.2019
904 Clouds 17 1021 55 10000 6.7 110 21:55 02.10.2019
905 Clouds 17 1021 55 10000 6.7 110 21:54 02.10.2019
906 Clouds 17 1021 55 10000 6.7 110 21:54 02.10.2019
907 Clouds 17 1021 55 10000 6.7 110 21:36 02.10.2019
908 Clouds 17 1021 55 10000 6.7 110 21:18 02.10.2019
909 -273 0 0 0 0 0 20:55 02.10.2019
910 Clouds 17 1020 59 10000 8.2 130 20:36 02.10.2019
911 Clouds 17 1020 59 10000 8.2 130 20:18 02.10.2019
912 Clouds 17 1020 59 10000 5.1 140 19:43 02.10.2019
913 Clouds 17 1020 59 10000 5.1 140 19:21 02.10.2019
914 Clouds 17 1020 59 10000 5.7 150 18:57 02.10.2019
915 Clouds 17 1020 59 10000 5.7 150 18:38 02.10.2019
916 Clouds 17 1020 59 10000 5.7 150 18:20 02.10.2019
917 Clouds 16 1020 59 10000 5.1 150 17:56 02.10.2019
918 Clouds 16 1020 59 10000 5.1 150 17:37 02.10.2019
919 Clouds 16 1020 59 10000 5.1 150 17:19 02.10.2019
920 Clouds 16 1019 62 10000 6.2 151 16:42 02.10.2019
921 Clouds 15 1018 62 10000 6.2 140 16:22 02.10.2019
922 Clouds 15 1018 62 10000 6.2 140 15:59 02.10.2019
923 Clouds 14 1018 62 10000 6.2 140 15:38 02.10.2019
924 Clear 14 1018 62 10000 5.7 150 15:20 02.10.2019
925 Clear 13 1018 62 10000 5.7 150 14:57 02.10.2019
926 Clear 13 1018 62 10000 5.7 150 14:39 02.10.2019
927 Clear 13 1018 62 10000 5.7 150 14:20 02.10.2019
928 Clear 13 1018 62 10000 5.7 150 14:20 02.10.2019
929 Clear 11 1017 58 10000 5.1 150 13:43 02.10.2019
930 Clear 11 1017 58 10000 5.1 150 13:24 02.10.2019
931 Clear 11 1016 54 10000 4.6 160 12:57 02.10.2019
932 Clear 11 1016 54 10000 4.6 160 12:37 02.10.2019
933 Clear 11 1014 50 10000 5.1 150 12:18 02.10.2019
934 Clear 11 1014 50 10000 5.1 150 11:43 02.10.2019
935 Clear 11 1014 50 10000 5.1 150 11:23 02.10.2019
936 Clouds 11 1014 45 10000 5.1 150 10:42 02.10.2019
937 Clouds 11 1014 45 10000 5.1 150 10:20 02.10.2019
938 Clear 11 1014 35 10000 5.7 150 09:57 02.10.2019
939 Clear 11 1014 35 10000 5.7 150 09:36 02.10.2019
940 Clear 11 1014 35 10000 5.7 150 09:18 02.10.2019
941 Clear 12 1013 37 10000 5.1 160 08:42 02.10.2019
942 Clear 12 1013 37 10000 5.1 160 08:42 02.10.2019
943 Clear 12 1013 37 10000 5.1 160 08:22 02.10.2019
944 Clear 12 1013 46 10000 5.7 170 07:55 02.10.2019
945 Clear 12 1013 41 10000 5.7 140 07:37 02.10.2019
946 Clear 13 1012 71 10000 5.1 160 07:18 02.10.2019
947 Clear 13 1012 71 10000 5.1 160 06:29 02.10.2019
948 Clear 13 1013 58 10000 4.1 180 05:51 02.10.2019
949 Clear 14 1013 58 10000 4.6 140 05:22 02.10.2019
950 Clear 14 1013 58 10000 4.6 140 04:18 02.10.2019
951 Clear 14 1011 38 10000 5.7 150 03:50 02.10.2019
952 Clear 14 1011 41 10000 6.2 140 02:38 02.10.2019
953 Clear 15 1011 41 10000 6.2 140 02:20 02.10.2019
954 Clear 15 1010 44 10000 5.1 160 00:55 02.10.2019
955 Clear 15 1010 44 10000 5.1 160 00:30 02.10.2019
956 Clear 16 1008 54 10000 4.6 160 23:57 01.10.2019
957 Clear 16 1008 54 10000 4.6 160 23:39 01.10.2019
958 Clear 16 1008 54 10000 4.6 160 23:21 01.10.2019
959 Clouds 16 1008 58 10000 4.1 180 22:58 01.10.2019
960 Clouds 16 1008 58 10000 4.1 180 22:58 01.10.2019
961 Clouds 16 1008 58 10000 4.1 180 22:58 01.10.2019
962 Clouds 16 1008 58 10000 4.1 180 22:38 01.10.2019
963 Clouds 16 1008 58 10000 4.1 180 22:38 01.10.2019
964 Clouds 16 1008 58 10000 4.1 180 22:18 01.10.2019
965 Clouds 16 1008 67 10000 4.1 160 21:43 01.10.2019
966 Clouds 16 1008 67 10000 4.1 160 21:43 01.10.2019
967 Clouds 16 1008 67 10000 4.1 160 21:23 01.10.2019
968 Clouds 16 1008 67 10000 4.1 160 21:23 01.10.2019
969 Thunderstorm 15 1006 76 7000 5.1 160 20:59 01.10.2019
970 Thunderstorm 15 1006 76 7000 5.1 160 20:59 01.10.2019
971 Thunderstorm 15 1006 76 7000 5.1 160 20:39 01.10.2019
972 Thunderstorm 15 1006 76 7000 5.1 160 20:20 01.10.2019
973 Thunderstorm 14 1007 76 8000 5.7 200 19:58 01.10.2019
974 Thunderstorm 14 1007 76 8000 5.7 200 19:39 01.10.2019
975 Thunderstorm 14 1008 71 8000 4.1 180 19:21 01.10.2019
976 Thunderstorm 14 1008 71 8000 4.1 180 18:56 01.10.2019
977 Drizzle 14 1008 82 2000 4.1 180 18:38 01.10.2019
978 Drizzle 14 1008 82 2000 6.2 180 18:19 01.10.2019
979 Drizzle 13 1007 76 4000 4.1 180 17:43 01.10.2019
980 Drizzle 13 1007 76 4000 4.1 180 17:20 01.10.2019
981 Thunderstorm 13 1006 82 9000 5.7 170 16:59 01.10.2019
982 Clouds 13 1007 82 10000 5.1 180 16:40 01.10.2019
983 Clouds 13 1007 82 10000 5.1 180 16:22 01.10.2019
984 Clouds 13 1009 87 10000 3.1 200 15:48 01.10.2019
985 Clouds 13 1009 87 10000 3.1 200 15:24 01.10.2019
986 Clouds 12 1007 87 10000 6.2 190 14:58 01.10.2019
987 Clouds 12 1007 87 10000 6.2 190 14:38 01.10.2019
988 Clouds 12 1007 87 10000 6.2 190 14:19 01.10.2019
989 Thunderstorm 11 1007 93 7000 5.1 200 13:55 01.10.2019
990 Thunderstorm 11 1007 93 7000 5.1 200 13:55 01.10.2019
991 Thunderstorm 11 1007 93 7000 5.1 200 13:55 01.10.2019
992 Thunderstorm 11 1007 93 7000 5.1 200 13:55 01.10.2019
993 Thunderstorm 11 1007 93 7000 5.1 200 13:36 01.10.2019
994 Thunderstorm 11 1006 93 2400 5.1 170 13:18 01.10.2019
995 Thunderstorm 11 1006 93 2000 5.7 160 12:42 01.10.2019
996 Thunderstorm 11 1006 93 2000 5.7 160 12:20 01.10.2019
997 Thunderstorm 11 1007 93 2000 2.1 170 11:58 01.10.2019
998 Thunderstorm 11 1004 93 9000 5.1 140 11:38 01.10.2019
999 Thunderstorm 11 1004 93 9000 5.1 140 11:19 01.10.2019
1000 Thunderstorm 11 1002 87 6000 7.7 140 10:58 01.10.2019
1001 Thunderstorm 12 1002 87 6000 7.7 140 10:40 01.10.2019
1002 Thunderstorm 12 1004 87 10000 6.2 160 10:21 01.10.2019
1003 Thunderstorm 12 1004 87 10000 6.2 160 09:40 01.10.2019
1004 Thunderstorm 11 1004 87 10000 6.2 160 09:21 01.10.2019
1005 Thunderstorm 12 1004 100 8000 5.7 180 08:42 01.10.2019
1006 Thunderstorm 12 1004 100 8000 5.7 180 08:24 01.10.2019
1007 Thunderstorm 12 1004 100 8000 5.7 180 08:24 01.10.2019
1008 Thunderstorm 13 1004 100 8000 5.7 180 07:48 01.10.2019
1009 Thunderstorm 13 1002 93 10000 6.2 160 07:25 01.10.2019
1010 Thunderstorm 14 1002 82 10000 6.2 150 06:48 01.10.2019
1011 Thunderstorm 15 1002 82 10000 6.2 150 06:20 01.10.2019
1012 Thunderstorm 16 1004 87 10000 5.1 180 05:46 01.10.2019
1013 Thunderstorm 16 1004 87 10000 5.1 180 05:18 01.10.2019
1014 Thunderstorm 17 1003 72 10000 6.7 140 04:29 01.10.2019
1015 Clear 20 1003 72 10000 5.7 150 02:28 01.10.2019
1016 Clouds 19 1003 68 10000 6.2 130 01:58 01.10.2019
1017 Clear 20 1001 77 10000 5.1 120 00:53 01.10.2019
1018 Clear 20 1001 77 10000 5.1 120 00:28 01.10.2019
1019 Clear 21 1000 77 10000 5.7 120 23:56 30.09.2019
1020 Clear 21 1000 77 10000 5.7 120 23:38 30.09.2019
1021 Clear 21 1000 77 10000 5.7 120 23:19 30.09.2019
1022 Clear 21 1000 77 10000 5.7 120 23:19 30.09.2019
1023 Clear 22 1000 77 10000 6.7 100 22:42 30.09.2019
1024 Clear 23 1000 50 10000 4.6 140 22:24 30.09.2019
1025 Clear 25 1000 73 10000 5.7 100 21:57 30.09.2019
1026 Clear 25 1000 73 10000 5.7 100 21:38 30.09.2019
1027 Clear 26 1000 73 10000 5.7 100 21:19 30.09.2019
1028 Clear 26 1000 68 10000 5.7 120 20:56 30.09.2019
1029 Clear 26 1000 68 10000 5.7 120 20:38 30.09.2019
1030 Clear 26 1000 68 10000 5.7 120 20:19 30.09.2019
1031 Rain 25 1000 78 10000 4.6 130 19:56 30.09.2019
1032 Rain 25 1000 78 10000 4.6 130 19:38 30.09.2019
1033 Rain 25 1000 60 10000 3.6 160 19:18 30.09.2019
1034 Thunderstorm 25 1001 64 9000 3.1 160 18:54 30.09.2019
1035 Thunderstorm 24 1001 64 9000 3.1 160 18:36 30.09.2019
1036 Thunderstorm 24 1001 64 6000 1.5 190 18:18 30.09.2019
1037 Thunderstorm 23 1001 53 6000 2.1 230 17:40 30.09.2019
1038 Thunderstorm 24 1001 44 9000 2.1 230 17:22 30.09.2019
1039 Thunderstorm 24 1001 44 9000 2.1 230 16:56 30.09.2019
1040 Thunderstorm 24 1001 44 9000 2.1 230 16:56 30.09.2019
1041 Clear 24 1000 64 10000 3.6 340 16:38 30.09.2019
1042 Clear 25 1000 64 10000 3.6 340 16:19 30.09.2019
1043 Clear 25 1000 64 10000 3.6 340 16:19 30.09.2019
1044 Clear 25 1001 60 10000 4.6 360 15:56 30.09.2019
1045 Clear 24 1001 60 10000 4.6 360 15:37 30.09.2019
1046 Clear 24 1001 60 10000 4.6 360 15:18 30.09.2019
1047 Clear 24 1001 49 10000 6.7 340 14:57 30.09.2019
1048 Clear 23 1001 49 10000 6.7 340 14:37 30.09.2019
1049 Clear 23 1001 49 10000 6.7 340 14:18 30.09.2019
1050 Clear 22 1001 64 10000 3.1 350 13:44 30.09.2019
1051 Clear 21 1001 64 10000 3.1 350 13:22 30.09.2019
1052 Clear 20 1001 68 10000 4.6 350 12:58 30.09.2019
1053 Clear 20 1001 68 10000 4.6 350 12:58 30.09.2019
1054 Clear 20 1001 68 10000 4.6 350 12:40 30.09.2019
1055 Clear 20 1001 68 10000 4.6 350 12:20 30.09.2019
1056 Clear 19 1002 72 10000 5.7 360 11:43 30.09.2019
1057 Clear 19 1002 72 10000 5.7 360 11:22 30.09.2019
1058 Clear 20 1002 72 10000 5.7 360 10:59 30.09.2019
1059 Clear 20 1002 72 10000 5.7 360 10:39 30.09.2019
1060 Clear 20 1002 72 10000 5.7 360 10:19 30.09.2019
1061 Clear 20 1002 72 10000 4.1 360 09:58 30.09.2019
1062 Clear 21 1002 72 10000 4.1 360 09:39 30.09.2019
1063 Clear 21 1002 72 10000 4.1 360 09:19 30.09.2019
1064 Clear 21 1003 72 10000 4.1 340 08:46 30.09.2019
1065 Clear 21 1003 72 10000 4.1 340 08:27 30.09.2019
1066 Clear 22 1004 72 10000 3.6 340 07:44 30.09.2019
1067 Clear 22 1004 72 10000 3.6 340 07:44 30.09.2019
1068 Clear 22 1004 72 10000 3.6 340 07:44 30.09.2019
1069 Clear 22 1004 72 10000 3.6 340 07:25 30.09.2019
1070 Clear 22 1004 60 10000 7.7 360 06:50 30.09.2019
1071 Clear 22 1004 60 10000 7.7 360 06:31 30.09.2019
1072 Clear 23 1005 73 10000 4.6 340 05:45 30.09.2019
1073 Clear 24 1006 68 10000 2.6 30 02:55 30.09.2019
1074 Clear 24 1006 68 10000 2.6 30 02:37 30.09.2019
1075 Clear 24 1006 73 10000 2.1 40 01:31 30.09.2019
1076 Clear 25 1006 69 10000 2.6 60 00:38 30.09.2019
1077 Clear 26 1007 64 10000 3.1 80 00:20 30.09.2019
1078 Clear 26 1006 42 10000 5.7 20 23:43 29.09.2019
1079 Clear 27 1006 42 10000 5.7 20 23:21 29.09.2019
1080 Clear 28 1007 35 10000 6.7 20 23:21 29.09.2019
1081 Clear 28 1007 35 10000 6.7 20 22:55 29.09.2019
1082 Clear 28 1007 35 10000 6.7 20 22:36 29.09.2019
1083 Clear 28 1007 35 10000 6.7 20 22:36 29.09.2019
1084 Clear 28 1007 35 10000 6.7 20 22:18 29.09.2019
1085 Clear 28 1007 35 10000 6.7 20 21:56 29.09.2019
1086 Clear 29 1007 35 10000 6.7 20 21:36 29.09.2019
1087 Clear 28 1007 35 10000 6.7 20 21:18 29.09.2019
1088 Clear 28 1008 37 10000 6.7 20 20:43 29.09.2019
1089 Clear 28 1009 39 10000 5.7 20 20:20 29.09.2019
1090 Clear 28 1009 39 10000 5.7 20 19:58 29.09.2019
1091 Clear 28 1009 39 10000 5.7 20 19:37 29.09.2019
1092 Clear 28 1009 39 10000 5.7 20 19:19 29.09.2019
1093 Clear 28 1009 39 10000 5.7 20 19:19 29.09.2019
1094 Clear 28 1011 42 10000 5.7 360 18:55 29.09.2019
1095 Clear 28 1011 42 10000 5.7 360 18:37 29.09.2019
1096 Clear 27 1011 42 10000 5.7 360 18:18 29.09.2019
1097 Clear 26 1012 57 10000 3.6 70 17:55 29.09.2019
1098 Clear 26 1012 57 10000 3.6 70 17:55 29.09.2019
1099 Clear 26 1012 57 10000 3.6 70 17:37 29.09.2019
1100 Clear 26 1012 57 10000 3.6 70 17:19 29.09.2019
1101 Clear 25 1012 64 10000 3.6 70 16:55 29.09.2019
1102 Clear 24 1012 64 10000 3.6 70 16:37 29.09.2019
1103 Clear 24 1012 64 10000 3.6 70 16:18 29.09.2019
1104 Clear 22 1013 64 10000 2.6 50 15:41 29.09.2019
1105 Clear 21 1013 64 10000 2.6 50 15:19 29.09.2019
1106 Clear 20 1013 82 10000 2.6 20 14:59 29.09.2019
1107 Clear 19 1013 82 10000 2.6 20 14:39 29.09.2019
1108 Clear 19 1013 82 10000 2.6 20 14:20 29.09.2019
1109 Clear 18 1013 82 10000 2.6 30 13:57 29.09.2019
1110 Clear 17 1013 82 10000 2.6 30 13:38 29.09.2019
1111 Clear 17 1013 82 10000 2.6 30 13:18 29.09.2019
1112 Clear 15 1015 63 10000 3.1 90 12:57 29.09.2019
1113 Clear 15 1013 82 10000 3.1 30 12:38 29.09.2019
1114 Clear 14 1013 77 10000 3.6 10 12:20 29.09.2019
1115 Clear 14 1013 77 10000 3.6 10 11:41 29.09.2019
1116 Clear 14 1013 77 10000 3.6 10 11:41 29.09.2019
1117 Clear 13 1012 93 10000 2.1 80 11:20 29.09.2019
1118 Clear 14 1012 93 10000 2.1 80 10:59 29.09.2019
1119 Clear 14 1012 93 10000 2.1 80 10:40 29.09.2019
1120 Clear 14 1012 93 10000 2.1 80 10:21 29.09.2019
1121 Clear 14 1013 77 10000 3.6 10 09:59 29.09.2019
1122 Clear 14 1013 77 10000 3.6 10 09:41 29.09.2019
1123 Clear 15 1013 77 10000 3.6 10 09:19 29.09.2019
1124 Clear 15 1013 68 10000 5.1 360 08:43 29.09.2019
1125 Clear 15 1013 68 10000 5.1 360 08:22 29.09.2019
1126 Clear 15 1013 68 10000 5.1 360 08:22 29.09.2019
1127 Clear 15 1013 72 10000 3.1 20 07:45 29.09.2019
1128 Clear 15 1013 72 10000 3.1 20 07:27 29.09.2019
1129 Clear 15 1014 72 10000 3.1 20 06:50 29.09.2019
1130 Clear 15 1014 72 10000 3.1 20 06:22 29.09.2019
1131 Clear 16 1014 82 10000 2.1 70 04:52 29.09.2019
1132 Clear 16 1014 82 10000 2.1 70 04:24 29.09.2019
1133 Clear 16 1014 93 10000 3.1 110 03:42 29.09.2019
1134 Clear 17 1014 88 10000 4.6 120 02:19 29.09.2019
1135 Clear 17 1014 88 10000 4.6 120 02:19 29.09.2019
1136 Clear 18 1014 77 10000 4.1 120 01:45 29.09.2019
1137 Clear 18 1014 77 10000 4.1 120 01:19 29.09.2019
1138 Clear 19 1014 72 10000 4.1 120 00:40 29.09.2019
1139 Clear 19 1014 72 10000 4.1 120 00:19 29.09.2019
1140 Clear 21 1014 72 10000 5.1 110 23:38 28.09.2019
1141 Clear 21 1014 72 10000 5.1 110 23:19 28.09.2019
1142 Clear 22 1014 60 10000 4.1 110 22:40 28.09.2019
1143 Clear 22 1014 60 10000 4.1 110 22:21 28.09.2019
1144 Clear 23 1015 49 10000 5.1 70 21:58 28.09.2019
1145 Clear 23 1015 49 10000 5.1 70 21:40 28.09.2019
1146 Clear 23 1015 49 10000 5.1 70 21:21 28.09.2019
1147 Clear 23 1015 53 10000 5.1 70 20:57 28.09.2019
1148 Clear 23 1015 53 10000 5.1 70 20:39 28.09.2019
1149 Clear 23 1015 53 10000 5.1 70 20:19 28.09.2019
1150 Clear 23 1015 53 10000 5.1 70 20:19 28.09.2019
1151 Clear 22 1016 59 10000 3.6 50 19:56 28.09.2019
1152 Clear 22 1016 59 10000 3.6 50 19:38 28.09.2019
1153 Clear 22 1017 63 10000 3.1 20 19:20 28.09.2019
1154 Clear 21 1017 63 10000 3.1 20 18:55 28.09.2019
1155 Clear 21 1017 63 10000 3.1 20 18:37 28.09.2019
1156 Clear 21 1017 63 10000 3.1 20 18:18 28.09.2019
1157 Clear 20 1018 63 10000 4.1 20 17:54 28.09.2019
1158 Clear 20 1018 63 10000 4.1 20 17:36 28.09.2019
1159 Clear 19 1019 67 10000 5.1 20 17:18 28.09.2019
1160 Clear 19 1019 67 10000 5.1 20 16:41 28.09.2019
1161 Clear 18 1019 67 10000 5.1 20 16:22 28.09.2019
1162 Clouds 17 1019 72 10000 6.2 50 15:41 28.09.2019
1163 Clouds 17 1019 72 10000 6.2 50 15:23 28.09.2019
1164 Clouds 16 1020 82 10000 5.7 30 14:56 28.09.2019
1165 Clouds 15 1020 82 10000 5.7 30 14:38 28.09.2019
1166 Clouds 15 1020 82 10000 5.7 30 14:19 28.09.2019
1167 Clouds 14 1020 82 10000 5.1 50 13:56 28.09.2019
1168 Clouds 14 1020 82 10000 5.1 50 13:37 28.09.2019
1169 Clouds 14 1020 82 10000 5.1 50 13:19 28.09.2019
1170 Clouds 14 1020 82 10000 5.1 50 12:40 28.09.2019
1171 Clouds 13 1020 82 10000 5.1 50 12:19 28.09.2019
1172 Clear 13 1020 76 10000 5.1 60 11:43 28.09.2019
1173 Clear 13 1020 76 10000 5.1 60 11:22 28.09.2019
1174 Clouds 13 1019 82 10000 5.7 50 10:59 28.09.2019
1175 Clouds 13 1019 82 10000 5.7 50 10:39 28.09.2019
1176 Clear 13 1020 82 10000 5.7 40 10:19 28.09.2019
1177 Clear 13 1020 82 10000 5.7 40 09:42 28.09.2019
1178 Clear 13 1020 82 10000 5.7 40 09:23 28.09.2019
1179 Clear 14 1020 72 10000 5.7 40 08:55 28.09.2019
1180 Clear 14 1020 72 10000 5.7 40 08:37 28.09.2019
1181 Clear 14 1020 72 10000 5.7 40 08:18 28.09.2019
1182 Clear 14 1020 72 10000 7.2 50 07:43 28.09.2019
1183 Clear 14 1020 72 10000 7.2 50 07:19 28.09.2019
1184 Clear 15 1020 72 10000 7.7 50 06:51 28.09.2019
1185 Clear 15 1020 72 10000 7.7 50 06:30 28.09.2019
1186 Clear 16 1020 67 10000 7.2 50 05:41 28.09.2019
1187 Clear 16 1020 67 10000 7.2 50 05:19 28.09.2019
1188 Clear 16 1020 63 10000 5.7 60 04:37 28.09.2019
1189 Clear 16 1020 63 10000 6.2 60 03:45 28.09.2019
1190 Clear 16 1020 63 10000 6.2 60 03:20 28.09.2019
1191 Clear 16 1020 82 10000 6.2 90 02:42 28.09.2019
1192 Clear 16 1020 82 10000 6.2 90 02:23 28.09.2019
1193 Clear 16 1019 87 10000 8.2 100 01:45 28.09.2019
1194 Clear 16 1019 87 10000 8.2 100 01:24 28.09.2019
1195 Clear 16 1019 82 10000 8.7 110 00:49 28.09.2019
1196 Clear 16 1019 82 10000 8.7 110 00:49 28.09.2019
1197 Clear 17 1019 82 10000 8.7 110 00:30 28.09.2019
1198 Clear 18 1020 72 10000 7.2 110 23:41 27.09.2019
1199 Clear 18 1020 72 10000 7.2 110 23:41 27.09.2019
1200 Clear 18 1020 72 10000 6.7 120 23:22 27.09.2019
1201 Clear 18 1020 72 10000 6.7 120 22:58 27.09.2019
1202 Clear 19 1020 72 10000 6.7 120 22:40 27.09.2019
1203 Clear 19 1021 72 10000 7.7 110 22:18 27.09.2019
1204 Clear 19 1021 72 10000 7.7 110 21:55 27.09.2019
1205 Clear 19 1021 72 10000 7.7 110 21:36 27.09.2019
1206 Clear 19 1021 67 10000 7.2 110 21:18 27.09.2019
1207 Clear 19 1021 67 10000 7.2 110 20:41 27.09.2019
1208 Clear 19 1021 67 10000 7.2 110 20:20 27.09.2019
1209 Clear 19 1022 63 10000 7.2 120 19:59 27.09.2019
1210 Clear 19 1022 63 10000 7.2 120 19:39 27.09.2019
1211 Clear 19 1022 63 10000 7.2 120 19:21 27.09.2019
1212 Clear 18 1023 63 10000 6.2 110 18:44 27.09.2019
1213 Clear 18 1023 63 10000 6.2 110 18:25 27.09.2019
1214 Clear 17 1024 67 10000 7.2 110 17:58 27.09.2019
1215 Clear 17 1024 67 10000 7.2 110 17:40 27.09.2019
1216 Clear 17 1024 67 10000 7.2 110 17:40 27.09.2019
1217 Clear 17 1024 67 10000 7.2 110 17:20 27.09.2019
1218 Clear 17 1024 67 10000 8.7 110 16:58 27.09.2019
1219 Clear 17 1024 67 10000 8.7 110 16:40 27.09.2019
1220 Clear 16 1024 67 10000 8.7 110 16:19 27.09.2019
1221 Clouds 16 1024 77 10000 7.2 100 15:55 27.09.2019
1222 Clouds 16 1024 77 10000 7.2 100 15:37 27.09.2019
1223 Clouds 15 1024 77 10000 7.2 100 15:19 27.09.2019
1224 Clouds 15 1025 72 10000 7.2 90 14:42 27.09.2019
1225 Clear 14 1024 71 10000 6.7 90 14:23 27.09.2019
1226 Clear 14 1024 71 10000 6.7 90 13:59 27.09.2019
1227 Clear 14 1024 71 10000 6.7 90 13:59 27.09.2019
1228 Clear 13 1024 71 10000 6.7 90 13:40 27.09.2019
1229 Clear 13 1024 71 10000 6.7 90 13:21 27.09.2019
1230 Clear 12 1024 71 10000 7.2 100 12:57 27.09.2019
1231 Clear 12 1024 71 10000 7.2 100 12:38 27.09.2019
1232 Clear 12 1024 71 10000 7.2 100 12:19 27.09.2019
1233 Clouds 12 1023 72 10000 7.2 100 11:39 27.09.2019
1234 Clouds 12 1023 72 10000 7.2 100 11:39 27.09.2019
1235 Clouds 12 1023 72 10000 7.2 100 11:20 27.09.2019
1236 Clouds 12 1023 72 10000 7.2 100 11:20 27.09.2019
1237 Clouds 12 1023 77 10000 8.2 100 10:55 27.09.2019
1238 Clouds 12 1023 77 10000 8.2 100 10:37 27.09.2019
1239 Clouds 12 1023 77 10000 8.2 100 10:37 27.09.2019
1240 Clouds 12 1023 77 10000 8.2 100 10:37 27.09.2019
1241 Clouds 12 1023 77 10000 8.2 100 10:18 27.09.2019
1242 Clear 12 1023 72 10000 8.2 100 09:41 27.09.2019
1243 Clear 12 1023 72 10000 8.2 100 09:20 27.09.2019
1244 Clear 13 1023 72 10000 9.3 100 08:55 27.09.2019
1245 Clear 13 1023 72 10000 9.3 100 08:37 27.09.2019
1246 Clear 13 1023 72 10000 9.3 100 08:19 27.09.2019
1247 Clear 13 1024 77 10000 8.7 100 07:45 27.09.2019
1248 Clear 13 1024 77 10000 8.7 100 07:21 27.09.2019
1249 Clear 13 1024 77 10000 7.2 110 06:41 27.09.2019
1250 Clear 13 1024 77 10000 7.2 110 06:22 27.09.2019
1251 Clear 14 1024 82 10000 8.2 120 05:49 27.09.2019
1252 Clear 14 1024 82 10000 8.2 120 05:30 27.09.2019
1253 Clear 15 1024 72 10000 8.2 130 03:53 27.09.2019
1254 Clear 18 1023 67 10000 7.2 120 01:58 27.09.2019
1255 Clear 18 1023 67 10000 7.2 120 01:35 27.09.2019
1256 Clear 19 1023 67 10000 8.2 100 00:44 27.09.2019
1257 Clear 20 1023 68 10000 9.8 100 23:59 26.09.2019
1258 Clear 21 1023 68 10000 9.8 100 23:41 26.09.2019
1259 Clear 21 1023 68 10000 9.8 100 23:22 26.09.2019
1260 Clear 22 1022 55 10000 9.3 110 22:59 26.09.2019
1261 Clear 22 1022 55 10000 9.3 110 22:40 26.09.2019
1262 Clear 23 1022 55 10000 9.3 110 22:19 26.09.2019
1263 Clear 23 1022 60 10000 6.2 110 21:59 26.09.2019
1264 Clear 24 1022 60 10000 6.2 110 21:38 26.09.2019
1265 Clear 25 1022 52 10000 6.2 110 21:20 26.09.2019
1266 Clear 25 1022 52 10000 6.2 110 20:59 26.09.2019
1267 Clear 25 1022 52 10000 6.2 110 20:40 26.09.2019
1268 Clear 25 1022 52 10000 6.2 110 20:40 26.09.2019
1269 Clear 25 1022 52 10000 6.2 110 20:22 26.09.2019
1270 Clear 25 1022 52 10000 6.2 110 20:22 26.09.2019
1271 Clear 26 1022 53 10000 5.1 110 19:59 26.09.2019
1272 Clear 27 1022 39 10000 5.7 90 19:40 26.09.2019
1273 Clear 26 1022 49 10000 3.6 90 19:18 26.09.2019
1274 Clear 26 1022 49 10000 3.6 90 18:57 26.09.2019
1275 Clear 26 1022 49 10000 3.6 90 18:37 26.09.2019
1276 Clear 26 1022 49 10000 3.6 100 18:18 26.09.2019
1277 Clear 26 1022 49 10000 3.6 100 17:38 26.09.2019
1278 Clear 26 1022 49 10000 3.6 100 17:38 26.09.2019
1279 Clear 26 1022 49 10000 3.6 100 17:38 26.09.2019
1280 Clear 25 1022 49 10000 3.6 100 17:19 26.09.2019
1281 Clear 25 1022 60 10000 3.1 90 16:57 26.09.2019
1282 Clear 25 1022 60 10000 3.1 90 16:39 26.09.2019
1283 Clear 24 1022 60 10000 3.1 90 16:20 26.09.2019
1284 Clear 23 1022 68 10000 1.5 110 15:56 26.09.2019
1285 Clear 22 1022 68 10000 1.5 110 15:36 26.09.2019
1286 Clear 22 1022 68 10000 1.5 110 15:18 26.09.2019
1287 Clear 21 1021 77 10000 2.1 110 14:41 26.09.2019
1288 Clear 19 1021 77 10000 2.1 110 14:22 26.09.2019
1289 Clear 18 1021 82 10000 2.1 140 13:58 26.09.2019
1290 Clear 18 1021 82 10000 2.1 140 13:39 26.09.2019
1291 Clear 16 1021 82 10000 2.1 140 13:19 26.09.2019
1292 Fog 14 1020 77 10000 1.5 110 12:55 26.09.2019
1293 Fog 14 1020 77 10000 1.5 110 12:55 26.09.2019
1294 Fog 14 1020 77 10000 1.5 110 12:55 26.09.2019
1295 Fog 13 1020 77 10000 1.5 110 12:36 26.09.2019
1296 Clear 13 1019 72 10000 1 160 12:18 26.09.2019
1297 Clear 13 1019 72 10000 1 160 11:41 26.09.2019
1298 Clear 13 1019 72 10000 1 160 11:19 26.09.2019
1299 Clear 13 1019 72 10000 1.5 130 10:42 26.09.2019
1300 Clear 14 1019 72 10000 1.5 130 10:24 26.09.2019
1301 Clear 14 1019 72 10000 2.1 130 09:59 26.09.2019
1302 Clear 14 1019 72 10000 2.1 130 09:41 26.09.2019
1303 Clear 14 1019 72 10000 2.1 130 09:20 26.09.2019
1304 Clear 15 1019 63 10000 2.6 140 08:53 26.09.2019
1305 Clear 15 1019 63 10000 2.6 140 08:32 26.09.2019
1306 Clear 16 1019 67 10000 3.1 120 07:48 26.09.2019
1307 Clear 16 1019 72 10000 10.8 171 07:23 26.09.2019
1308 Clear 17 1019 72 10000 10.8 171 06:56 26.09.2019
1309 Clear 16 1019 72 10000 10.8 171 06:29 26.09.2019
1310 Clear 17 1019 63 10000 5.1 120 06:00 26.09.2019
1311 Clear 18 1019 63 10000 5.1 120 05:32 26.09.2019
1312 Clear 19 1019 68 10000 2.6 120 04:34 26.09.2019
1313 Clear 22 1018 38 10000 1 0 02:33 26.09.2019
1314 Clear 22 1017 49 10000 2.6 120 01:48 26.09.2019
1315 Clear 23 1017 49 10000 2.6 120 01:22 26.09.2019
1316 Clear 24 1017 53 10000 2.6 120 00:46 26.09.2019
1317 Clear 24 1017 53 10000 2.6 120 00:25 26.09.2019
1318 Clear 27 1017 50 10000 3.1 120 23:44 25.09.2019
1319 Clear 27 1017 50 10000 3.1 120 23:25 25.09.2019
1320 Clear 29 1016 19 10000 2.6 260 22:56 25.09.2019
1321 Clear 29 1016 19 10000 2.6 260 22:37 25.09.2019
1322 Clear 29 1016 19 10000 2.6 260 22:18 25.09.2019
1323 Clear 29 1017 19 10000 3.6 280 21:55 25.09.2019
1324 Clear 29 1017 19 10000 3.6 280 21:37 25.09.2019
1325 Clear 29 1017 20 10000 3.6 280 21:18 25.09.2019
1326 Clear 30 1017 20 10000 3.6 280 20:55 25.09.2019
1327 Clear 29 1017 20 10000 3.6 280 20:37 25.09.2019
1328 Clear 29 1017 20 10000 3.6 280 20:18 25.09.2019
1329 Clear 29 1018 21 10000 3.1 290 19:40 25.09.2019
1330 Clear 29 1019 21 10000 3.1 260 19:21 25.09.2019
1331 Clear 28 1019 21 10000 3.1 260 18:56 25.09.2019
1332 Clear 28 1019 21 10000 3.1 260 18:37 25.09.2019
1333 Clear 28 1019 21 10000 3.1 260 18:18 25.09.2019
1334 Clear 27 1020 22 10000 3.1 260 17:40 25.09.2019
1335 Clear 27 1020 22 10000 3.1 260 17:21 25.09.2019
1336 Clear 26 1020 27 10000 2.6 270 16:57 25.09.2019
1337 Clear 26 1020 27 10000 2.6 270 16:38 25.09.2019
1338 Clear 25 1020 27 10000 2.6 270 16:19 25.09.2019
1339 Clear 24 1021 28 10000 2.6 270 15:42 25.09.2019
1340 Clear 22 1021 28 10000 2.6 270 15:23 25.09.2019
1341 Clear 20 1021 32 10000 2.1 260 15:00 25.09.2019
1342 Clear 20 1021 32 10000 2.1 260 14:41 25.09.2019
1343 Clear 19 1021 32 10000 2.1 260 14:22 25.09.2019
1344 Clear 17 1021 45 10000 0.5 0 13:56 25.09.2019
1345 Clear 17 1021 45 10000 0.5 0 13:38 25.09.2019
1346 Clear 16 1021 45 10000 0.5 0 13:19 25.09.2019
1347 Clear 14 1021 48 10000 1 0 12:42 25.09.2019
1348 Clear 14 1021 48 10000 1 0 12:24 25.09.2019
1349 Clear 14 1020 44 10000 1 290 11:59 25.09.2019
1350 Clear 14 1020 44 10000 1 290 11:40 25.09.2019
1351 Clear 14 1020 44 10000 1 290 11:19 25.09.2019
1352 Clear 15 1020 41 10000 2.1 310 10:46 25.09.2019
1353 Clear 15 1020 41 10000 2.1 310 10:26 25.09.2019
1354 Clear 15 1020 44 10000 1 320 09:58 25.09.2019
1355 Clear 15 1020 44 10000 1 320 09:58 25.09.2019
1356 Clear 15 1020 44 10000 1 320 09:38 25.09.2019
1357 Clear 16 1020 44 10000 1 320 09:20 25.09.2019
1358 Clear 16 1020 45 10000 1.5 330 08:45 25.09.2019
1359 Clear 16 1020 45 10000 1.5 330 08:22 25.09.2019
1360 Clear 16 1020 36 10000 1 310 07:59 25.09.2019
1361 Clear 16 1020 36 10000 1 310 07:40 25.09.2019
1362 Clear 16 1020 36 10000 1 310 07:40 25.09.2019
1363 Clear 16 1020 36 10000 1 310 07:21 25.09.2019
1364 Clear 17 1020 45 10000 0.5 310 06:45 25.09.2019
1365 Clear 17 1020 45 10000 0.5 310 06:22 25.09.2019
1366 Clear 17 1021 55 10000 1.5 320 05:35 25.09.2019
1367 Clear 18 1021 48 10000 2.6 310 04:55 25.09.2019
1368 Clear 19 1021 52 10000 0.5 0 02:31 25.09.2019
1369 Clear 21 1020 45 10000 1.5 30 00:46 25.09.2019
1370 Clear 23 1020 56 10000 1.5 10 00:27 25.09.2019
1371 Clear 23 1020 56 10000 1.5 10 23:59 24.09.2019
1372 Clear 23 1020 56 10000 1.5 10 23:40 24.09.2019
1373 Clear 24 1020 40 10000 3.6 20 23:21 24.09.2019
1374 Clear 25 1020 36 10000 4.1 50 22:39 24.09.2019
1375 Clear 25 1020 36 10000 4.1 50 22:21 24.09.2019
1376 Clear 26 1020 31 10000 3.6 50 21:58 24.09.2019
1377 Clear 25 1020 31 10000 3.6 50 21:58 24.09.2019
1378 Clear 26 1020 31 10000 3.6 50 21:58 24.09.2019
1379 Clear 26 1020 31 10000 3.6 50 21:38 24.09.2019
1380 Clear 26 1020 31 10000 3.6 50 21:19 24.09.2019
1381 Clear 26 1021 30 10000 2.6 290 20:58 24.09.2019
1382 Clear 26 1021 30 10000 2.6 290 20:40 24.09.2019
1383 Clear 26 1021 30 10000 2.6 290 20:22 24.09.2019
1384 Clear 26 1021 34 10000 1.5 20 19:57 24.09.2019
1385 Clear 26 1021 34 10000 1.5 20 19:57 24.09.2019
1386 Clear 26 1021 34 10000 1.5 20 19:39 24.09.2019
1387 Clear 26 1022 31 10000 2.1 320 19:18 24.09.2019
1388 Clear 26 1022 31 10000 2.1 320 18:42 24.09.2019
1389 Clear 25 1023 40 10000 2.1 290 18:22 24.09.2019
1390 Clear 24 1023 40 10000 2.1 290 17:59 24.09.2019
1391 Clear 24 1023 40 10000 2.1 290 17:39 24.09.2019
1392 Clear 24 1023 40 10000 2.1 290 17:21 24.09.2019
1393 Clear 23 1023 37 10000 3.6 290 17:21 24.09.2019
1394 Clear 23 1023 37 10000 3.6 290 16:59 24.09.2019
1395 Clear 22 1023 37 10000 3.6 290 16:41 24.09.2019
1396 Clear 22 1023 37 10000 3.6 290 16:19 24.09.2019
1397 Clear 20 1024 52 10000 2.6 290 15:43 24.09.2019
1398 Clear 19 1024 52 10000 2.6 290 15:23 24.09.2019
1399 Clear 17 1024 63 10000 3.1 360 14:58 24.09.2019
1400 Clear 17 1024 63 10000 3.1 360 14:58 24.09.2019
1401 Clear 17 1024 63 10000 3.1 360 14:37 24.09.2019
1402 Clear 15 1024 58 10000 2.1 330 14:18 24.09.2019
1403 Clear 14 1024 58 10000 2.1 330 13:40 24.09.2019
1404 Clear 12 1023 66 10000 1 290 13:21 24.09.2019
1405 Clear 12 1023 66 10000 1 290 12:40 24.09.2019
1406 Clear 11 1023 71 10000 2.1 310 12:21 24.09.2019
1407 Clear 10 1023 71 10000 2.1 310 11:57 24.09.2019
1408 Clear 10 1023 71 10000 2.1 310 11:39 24.09.2019
1409 Clear 11 1022 71 10000 2.6 320 11:18 24.09.2019
1410 Clear 11 1022 71 10000 2.6 320 10:39 24.09.2019
1411 Clear 11 1022 71 10000 2.6 320 10:21 24.09.2019
1412 Clear 11 1022 71 10000 3.1 320 09:56 24.09.2019
1413 Clear 11 1022 71 10000 3.1 320 09:37 24.09.2019
1414 Clear 11 1022 71 10000 3.1 320 09:18 24.09.2019
1415 Clear 12 1023 71 10000 2.6 320 08:41 24.09.2019
1416 Clear 12 1023 71 10000 2.6 320 08:41 24.09.2019
1417 Clear 12 1023 71 10000 2.6 320 08:23 24.09.2019
1418 Clear 12 1023 72 10000 2.6 320 07:58 24.09.2019
1419 Clear 12 1023 72 10000 2.6 320 07:40 24.09.2019
1420 Clear 13 1023 72 10000 2.6 320 07:22 24.09.2019
1421 Clear 13 1023 67 10000 3.1 340 06:38 24.09.2019
1422 Clear 13 1023 67 10000 3.1 340 06:19 24.09.2019
1423 Clear 14 1023 76 10000 2.6 20 05:22 24.09.2019
1424 Clear 14 1023 77 10000 2.1 70 03:46 24.09.2019
1425 Clear 15 1023 77 10000 2.1 70 03:25 24.09.2019
1426 Clear 15 1023 77 10000 3.6 110 02:44 24.09.2019
1427 Clear 15 1023 71 10000 3.6 110 01:41 24.09.2019
1428 Clear 17 1022 62 10000 3.6 120 00:41 24.09.2019
1429 Clear 17 1023 55 10000 3.1 90 00:22 24.09.2019
1430 Clear 19 1022 45 10000 2.6 50 23:42 23.09.2019
1431 Clear 20 1022 45 10000 2.6 50 23:23 23.09.2019
1432 Clear 20 1022 40 10000 4.1 10 22:41 23.09.2019
1433 Clear 20 1022 40 10000 4.1 10 22:21 23.09.2019
1434 Clear 20 1022 59 10000 2.6 30 21:59 23.09.2019
1435 Clear 20 1022 37 10000 5.1 20 21:41 23.09.2019
1436 Clear 20 1022 37 10000 5.1 20 21:41 23.09.2019
1437 Clear 20 1022 37 10000 5.1 20 21:41 23.09.2019
1438 Clear 20 1022 37 10000 5.1 20 21:41 23.09.2019
1439 Clear 20 1022 37 10000 5.1 20 21:41 23.09.2019
1440 Clear 20 1022 37 10000 5.1 20 21:20 23.09.2019
1441 Clear 20 1023 37 10000 4.1 10 20:59 23.09.2019
1442 Clear 20 1023 37 10000 4.1 10 20:39 23.09.2019
1443 Clear 19 1024 39 10000 4.1 340 20:18 23.09.2019
1444 Clear 19 1024 39 10000 4.1 340 20:18 23.09.2019
1445 Clear 19 1024 39 10000 4.1 340 19:40 23.09.2019
1446 Clear 19 1025 34 10000 3.6 350 19:22 23.09.2019
1447 Clear 18 1026 51 10000 2.6 360 18:58 23.09.2019
1448 Clear 18 1025 34 10000 3.6 350 18:40 23.09.2019
1449 Clear 18 1025 34 10000 3.6 350 18:40 23.09.2019
1450 Clear 18 1026 39 10000 5.1 10 18:18 23.09.2019
1451 Clear 17 1026 47 10000 4.6 10 17:56 23.09.2019
1452 Clear 17 1026 47 10000 4.6 10 17:38 23.09.2019
1453 Clear 17 1026 47 10000 4.6 10 17:19 23.09.2019
1454 Clear 16 1026 36 10000 6.2 10 16:54 23.09.2019
1455 Clear 16 1026 36 10000 6.2 10 16:36 23.09.2019
1456 Clear 16 1026 36 10000 6.2 10 16:36 23.09.2019
1457 Clear 15 1027 38 10000 6.7 10 16:18 23.09.2019
1458 Clear 15 1027 38 10000 6.7 10 15:55 23.09.2019
1459 Clear 15 1027 50 10000 6.2 10 15:55 23.09.2019
1460 Clear 14 1027 50 10000 6.2 10 15:36 23.09.2019
1461 Clear 15 1027 38 10000 6.7 10 15:18 23.09.2019
1462 Clear 13 1027 58 10000 6.7 10 14:39 23.09.2019
1463 Clear 13 1027 58 10000 6.7 10 14:20 23.09.2019
1464 Clear 12 1028 62 10000 7.2 10 13:58 23.09.2019
1465 Clear 11 1028 62 10000 7.2 10 13:37 23.09.2019
1466 Clear 11 1027 66 10000 5.7 20 13:18 23.09.2019
1467 Clear 10 1027 66 10000 5.7 20 12:43 23.09.2019
1468 Clear 10 1027 66 10000 5.7 20 12:22 23.09.2019
1469 Clear 10 1027 66 10000 5.1 40 11:55 23.09.2019
1470 Clear 10 1027 66 10000 5.1 40 11:37 23.09.2019
1471 Clear 11 1027 66 10000 5.1 40 11:19 23.09.2019
1472 Clear 11 1027 66 10000 5.7 10 10:48 23.09.2019
1473 Clear 11 1027 66 10000 5.7 10 10:21 23.09.2019
1474 Clear 11 1027 66 10000 5.1 40 09:55 23.09.2019
1475 Clear 11 1027 66 10000 5.1 40 09:37 23.09.2019
1476 Clear 11 1027 58 10000 7.7 50 09:19 23.09.2019
1477 Clear 11 1027 58 10000 7.7 50 08:39 23.09.2019
1478 Clear 11 1027 58 10000 7.7 50 08:20 23.09.2019
1479 Clear 12 1027 58 10000 7.2 70 07:44 23.09.2019
1480 Clear 12 1027 58 10000 7.2 70 07:23 23.09.2019
1481 Clear 12 1028 50 10000 6.2 70 06:20 23.09.2019
1482 Clear 12 1029 50 10000 8.2 70 05:44 23.09.2019
1483 Clear 12 1029 54 10000 6.7 70 04:59 23.09.2019
1484 Clear 12 1029 54 10000 6.7 70 04:37 23.09.2019
1485 Clear 14 1029 54 10000 6.7 100 01:26 23.09.2019
1486 Clear 14 1029 50 10000 5.1 110 00:39 23.09.2019
1487 Clear 14 1029 44 10000 6.2 110 00:19 23.09.2019
1488 Clear 15 1029 44 10000 6.2 110 23:41 22.09.2019
1489 Clear 16 1029 44 10000 6.2 110 23:22 22.09.2019
1490 Clear 17 1029 39 10000 6.2 100 22:56 22.09.2019
1491 Clear 17 1029 39 10000 6.2 100 22:37 22.09.2019
1492 Clear 17 1029 39 10000 6.2 100 22:19 22.09.2019
1493 Clear 17 1029 38 10000 5.1 100 21:42 22.09.2019
1494 Clear 17 1029 38 10000 5.1 100 21:21 22.09.2019
1495 Clear 17 1030 28 10000 3.1 60 20:45 22.09.2019
1496 Clear 17 1030 28 10000 3.1 60 20:45 22.09.2019
1497 Clear 18 1030 28 10000 3.1 60 20:27 22.09.2019
1498 Clear 18 1031 28 10000 4.1 60 19:59 22.09.2019
1499 Clear 18 1031 28 10000 4.1 60 19:40 22.09.2019
1500 Clear 18 1031 28 10000 4.1 60 19:40 22.09.2019
1501 Clear 18 1031 41 10000 4.1 70 19:20 22.09.2019
1502 Clear 17 1031 41 10000 4.1 70 18:57 22.09.2019
1503 Clear 17 1031 41 10000 4.1 70 18:57 22.09.2019
1504 Clear 17 1031 41 10000 4.1 70 18:38 22.09.2019
1505 Clear 17 1031 27 10000 6.7 100 18:18 22.09.2019
1506 Clear 17 1031 27 10000 6.7 100 17:46 22.09.2019
1507 Clear 17 1031 27 10000 6.7 100 17:27 22.09.2019
1508 Clear 16 1031 41 10000 4.6 90 16:57 22.09.2019
1509 Clear 16 1031 41 10000 4.6 90 16:39 22.09.2019
1510 Clear 16 1031 41 10000 4.6 90 16:20 22.09.2019
1511 Clear 15 1031 47 10000 3.1 100 15:45 22.09.2019
1512 Clear 14 1031 47 10000 3.1 100 15:26 22.09.2019
1513 Clear 14 1031 41 10000 3.6 110 14:55 22.09.2019
1514 Clear 13 1031 41 10000 3.6 110 14:36 22.09.2019
1515 Clear 13 1031 41 10000 3.6 110 14:18 22.09.2019
1516 Clear 12 1030 40 10000 3.6 130 13:41 22.09.2019
1517 Clear 11 1030 40 10000 3.6 130 13:23 22.09.2019
1518 Clear 10 1029 43 10000 2.1 130 12:57 22.09.2019
1519 Clear 10 1029 43 10000 2.1 130 12:38 22.09.2019
1520 Clear 8 1028 39 10000 3.6 130 12:18 22.09.2019
1521 Clear 7 1028 39 10000 3.6 130 12:18 22.09.2019
1522 Clear 8 1028 39 10000 3.6 130 11:43 22.09.2019
1523 Clear 8 1028 39 10000 3.6 130 11:43 22.09.2019
1524 Clear 8 1028 39 10000 3.6 130 11:25 22.09.2019
1525 Clear 8 1028 39 10000 3.6 130 11:25 22.09.2019
1526 Clear 8 1028 100 10000 0.5 280 10:57 22.09.2019
1527 Clear 8 1027 46 10000 5.7 130 10:39 22.09.2019
1528 Clear 8 1027 46 10000 5.7 130 10:19 22.09.2019
1529 Clear 9 1026 46 10000 5.7 140 09:42 22.09.2019
1530 Clear 10 1026 46 10000 5.7 140 09:21 22.09.2019
1531 Clear 10 1026 46 10000 5.7 140 09:21 22.09.2019
1532 Clear 10 1026 54 10000 5.7 140 08:49 22.09.2019
1533 Clear 10 1026 54 10000 5.7 140 08:26 22.09.2019
1534 Clear 11 1026 54 10000 6.2 140 07:58 22.09.2019
1535 Clear 11 1026 54 10000 6.2 140 07:39 22.09.2019
1536 Clear 11 1025 71 10000 6.2 140 07:20 22.09.2019
1537 Clear 11 1025 71 10000 6.2 140 06:56 22.09.2019
1538 Clear 12 1024 41 10000 6.2 140 05:37 22.09.2019
1539 Clear 15 1023 25 10000 2.6 200 03:50 22.09.2019
1540 Clear 16 1022 25 10000 5.7 200 02:41 22.09.2019
1541 Clear 16 1022 25 10000 5.7 200 02:23 22.09.2019
1542 Clear 19 1021 22 10000 3.1 250 01:23 22.09.2019
1543 Clear 20 1019 19 10000 3.1 250 00:37 22.09.2019
1544 Clear 19 1019 19 10000 3.1 250 00:19 22.09.2019
1545 Clear 21 1019 16 10000 3.6 250 23:41 21.09.2019
1546 Clear 22 1019 16 10000 3.6 250 23:22 21.09.2019
1547 Clear 23 1017 14 10000 5.7 270 22:39 21.09.2019
1548 Clear 23 1017 14 10000 5.7 270 22:39 21.09.2019
1549 Clear 23 1017 14 10000 5.7 270 22:21 21.09.2019
1550 Clear 23 1017 14 10000 5.7 270 22:21 21.09.2019
1551 Clear 23 1017 15 10000 5.1 260 21:55 21.09.2019
1552 Clear 23 1017 15 10000 5.1 260 21:55 21.09.2019
1553 Clear 23 1017 15 10000 5.1 260 21:36 21.09.2019
1554 Clear 24 1017 15 10000 5.1 260 21:18 21.09.2019
1555 Clear 24 1018 17 10000 8.2 290 20:39 21.09.2019
1556 Clear 24 1018 17 10000 8.2 290 20:39 21.09.2019
1557 Clear 23 1018 17 10000 8.2 290 20:21 21.09.2019
1558 Clear 22 1018 21 10000 6.2 290 19:47 21.09.2019
1559 Clear 22 1018 21 10000 6.2 290 19:23 21.09.2019
1560 Clear 22 1021 22 10000 9.8 280 18:55 21.09.2019
1561 Clear 21 1019 30 10000 7.2 300 18:37 21.09.2019
1562 Clear 21 1020 24 10000 6.2 280 18:18 21.09.2019
1563 Clear 20 1020 24 10000 6.2 280 17:40 21.09.2019
1564 Clear 20 1020 24 10000 6.2 280 17:20 21.09.2019
1565 Clear 19 1021 31 10000 5.7 290 16:43 21.09.2019
1566 Clear 18 1021 31 10000 5.7 290 16:24 21.09.2019
1567 Clear 17 1020 29 10000 5.1 280 15:49 21.09.2019
1568 Clear 17 1020 29 10000 5.1 280 15:25 21.09.2019
1569 Clear 15 1020 30 10000 4.6 280 14:55 21.09.2019
1570 Clear 15 1020 30 10000 4.6 280 14:37 21.09.2019
1571 Clear 14 1020 30 10000 4.6 280 14:19 21.09.2019
1572 Clear 12 1020 33 10000 5.1 280 13:41 21.09.2019
1573 Clear 11 1019 35 10000 5.1 280 13:23 21.09.2019
1574 Clear 10 1019 35 10000 5.1 280 12:57 21.09.2019
1575 Clear 10 1019 35 10000 5.1 280 12:38 21.09.2019
1576 Clear 9 1019 34 10000 3.6 300 12:20 21.09.2019
1577 Clear 9 1019 34 10000 3.6 300 11:47 21.09.2019
1578 Clear 9 1019 30 10000 4.1 290 11:24 21.09.2019
1579 Clear 9 1019 30 10000 4.1 290 10:55 21.09.2019
1580 Clear 9 1019 30 10000 4.1 290 10:37 21.09.2019
1581 Clear 9 1019 32 10000 3.1 320 10:18 21.09.2019
1582 Clear 9 1019 32 10000 3.1 320 09:40 21.09.2019
1583 Clear 9 1019 32 10000 3.1 320 09:21 21.09.2019
1584 Clear 9 1019 40 10000 3.1 320 08:59 21.09.2019
1585 Clear 9 1019 40 10000 3.1 320 08:40 21.09.2019
1586 Clear 10 1020 34 10000 1.5 320 07:43 21.09.2019
1587 Clear 10 1020 34 10000 1.5 320 07:24 21.09.2019
1588 Clear 10 1020 32 10000 2.1 320 06:59 21.09.2019
1589 Clear 10 1020 32 10000 2.1 320 06:59 21.09.2019
1590 Clear 11 1020 32 10000 2.1 320 06:34 21.09.2019
1591 Clear 11 1020 30 10000 1.5 290 05:36 21.09.2019
1592 Clear 11 1020 26 10000 1 320 04:37 21.09.2019
1593 Clear 13 1019 23 10000 2.1 290 03:22 21.09.2019
1594 Clear 13 1019 23 10000 2.1 290 02:21 21.09.2019
1595 Clear 13 1019 23 10000 2.1 290 02:21 21.09.2019
1596 Clear 14 1018 23 10000 2.1 290 01:46 21.09.2019
1597 Clear 17 1018 19 10000 3.6 270 00:51 21.09.2019
1598 Clear 17 1018 19 10000 3.6 270 00:20 21.09.2019
1599 Clear 18 1018 19 10000 5.1 300 23:46 20.09.2019
1600 Clear 19 1018 19 10000 5.1 300 23:28 20.09.2019
1601 Clear 20 1017 18 10000 6.2 290 22:42 20.09.2019
1602 Clear 20 1017 18 10000 6.2 290 22:24 20.09.2019
1603 Clear 20 1017 16 10000 6.2 260 21:57 20.09.2019
1604 Clear 20 1017 16 10000 6.2 260 21:38 20.09.2019
1605 Clear 20 1017 16 10000 6.2 260 21:20 20.09.2019
1606 Clear 20 1018 16 10000 5.1 260 20:56 20.09.2019
1607 Clear 20 1018 16 10000 5.1 260 20:37 20.09.2019
1608 Clear 20 1018 16 9000 5.7 280 20:18 20.09.2019
1609 Clear 20 1018 16 9000 5.7 280 19:45 20.09.2019
1610 Clear 20 1018 16 9000 5.7 280 19:25 20.09.2019
1611 Clear 19 1019 17 10000 5.1 260 18:58 20.09.2019
1612 Clear 19 1019 17 10000 5.1 260 18:38 20.09.2019
1613 Clear 19 1019 17 10000 5.1 260 18:38 20.09.2019
1614 Clear 19 1020 18 10000 5.1 270 18:18 20.09.2019
1615 Clear 19 1020 18 10000 5.1 270 17:45 20.09.2019
1616 Clear 19 1020 18 10000 5.1 270 17:45 20.09.2019
1617 Clear 19 1020 18 10000 5.1 270 17:45 20.09.2019
1618 Clear 19 1020 18 10000 5.1 270 17:45 20.09.2019
1619 Clear 18 1020 18 10000 5.1 270 17:26 20.09.2019
1620 Clear 18 1020 20 10000 3.6 280 16:44 20.09.2019
1621 Clear 17 1020 20 10000 3.6 280 16:22 20.09.2019
1622 Clear 16 1020 24 10000 4.6 280 15:59 20.09.2019
1623 Clear 16 1034 25 0 2.24 316 15:40 20.09.2019
1624 Clear 13 1020 28 10000 2.6 280 15:22 20.09.2019
1625 Clear 13 1020 28 10000 2.6 280 14:43 20.09.2019
1626 Clouds 12 1034 30 0 1.34 314 14:20 20.09.2019
1627 Clouds 10 1034 32 0 1.79 271 13:55 20.09.2019
1628 Clouds 9 1034 33 0 1.79 300 13:36 20.09.2019
1629 Clear 8 1019 42 10000 2.1 310 13:18 20.09.2019
1630 Clear 7 1019 42 10000 2.1 310 12:38 20.09.2019
1631 Clear 6 1018 39 10000 1.5 0 12:19 20.09.2019
1632 Clear 6 1018 39 10000 1.5 0 11:50 20.09.2019
1633 Clear 6 1018 39 10000 1.5 0 11:22 20.09.2019
1634 Clear 6 1018 31 10000 1.5 260 10:58 20.09.2019
1635 Clear 5 1018 31 10000 1.5 260 10:39 20.09.2019
1636 Clear 6 1018 31 10000 1.5 260 10:20 20.09.2019
1637 Clear 5 1018 37 10000 1.5 250 09:38 20.09.2019
1638 Clear 7 1018 37 10000 1.5 250 09:18 20.09.2019
1639 Clear 7 1018 39 10000 0.5 280 08:46 20.09.2019
1640 Clear 7 1018 39 10000 0.5 280 08:26 20.09.2019
1641 Clear 8 1018 29 10000 1 0 07:49 20.09.2019
1642 Clear 7 1018 29 10000 1 0 07:29 20.09.2019
1643 Clear 8 1018 27 10000 1 0 06:48 20.09.2019
1644 Clear 8 1018 27 10000 1 0 06:30 20.09.2019
1645 Clear 9 1017 30 10000 1 0 05:57 20.09.2019
1646 Clear 9 1016 24 10000 1.5 180 03:46 20.09.2019
1647 Clear 10 1016 24 10000 1.5 180 03:21 20.09.2019
1648 Clear 12 1014 24 10000 3.1 190 01:45 20.09.2019
1649 Clear 12 1014 24 10000 3.1 190 01:45 20.09.2019
1650 Smoke 12 1014 24 10000 3.1 190 01:24 20.09.2019
1651 Smoke 13 1013 22 10000 3.1 200 00:31 20.09.2019
1652 Clear 14 1012 21 10000 3.6 190 23:45 19.09.2019
1653 Clear 15 1012 21 10000 3.6 190 23:22 19.09.2019
1654 Clear 15 1011 18 10000 3.6 190 22:57 19.09.2019
1655 Clear 15 1011 18 10000 3.6 190 22:57 19.09.2019
1656 Clear 16 1011 18 10000 3.6 190 22:37 19.09.2019
1657 Clear 16 1011 18 10000 3.6 190 22:19 19.09.2019
1658 Clear 16 1010 18 10000 3.6 200 21:56 19.09.2019
1659 Clear 16 1010 18 10000 3.6 200 21:37 19.09.2019
1660 Clear 16 1010 18 10000 3.6 200 21:18 19.09.2019
1661 Clear 17 1009 18 10000 4.1 200 20:43 19.09.2019
1662 Clear 17 1009 18 10000 4.1 200 20:22 19.09.2019
1663 Clear 17 1009 36 10000 4.1 190 19:55 19.09.2019
1664 Clear 18 1009 36 10000 4.1 190 19:37 19.09.2019
1665 Clear 18 1009 36 10000 4.1 190 19:19 19.09.2019
1666 Clear 18 1009 25 10000 3.6 220 18:42 19.09.2019
1667 Clear 18 1009 37 10000 8.2 200 18:24 19.09.2019
1668 Clear 18 1008 34 10000 4.1 220 17:54 19.09.2019
1669 Clear 18 1008 34 10000 4.1 220 17:36 19.09.2019
1670 Clear 18 1008 34 10000 4.1 220 17:18 19.09.2019
1671 Clear 18 1008 39 10000 3.1 210 16:43 19.09.2019
1672 Clear 18 1008 39 10000 3.1 210 16:43 19.09.2019
1673 Clear 18 1008 39 10000 3.1 210 16:20 19.09.2019
1674 Clear 17 1007 48 10000 3.1 220 15:56 19.09.2019
1675 Clear 17 1007 48 10000 3.1 220 15:38 19.09.2019
1676 Clear 17 1007 48 10000 3.1 220 15:18 19.09.2019
1677 Clear 16 1006 51 10000 2.6 280 14:41 19.09.2019
1678 Clear 16 1006 51 10000 2.6 280 14:22 19.09.2019
1679 Clear 16 1005 55 10000 3.1 260 13:58 19.09.2019
1680 Clear 16 1005 55 10000 3.1 260 13:38 19.09.2019
1681 Clear 15 1005 55 10000 3.1 260 13:38 19.09.2019
1682 Clouds 15 1004 51 8000 2.6 250 13:18 19.09.2019
1683 Clouds 14 1004 51 8000 2.6 250 12:37 19.09.2019
1684 Clear 14 1004 54 6000 2.6 260 12:18 19.09.2019
1685 Clear 14 1002 58 10000 5.7 320 11:41 19.09.2019
1686 Clear 14 1002 58 10000 5.7 320 11:22 19.09.2019
1687 Clear 15 1001 62 10000 5.1 320 10:59 19.09.2019
1688 Clear 15 1001 62 10000 5.1 320 10:39 19.09.2019
1689 Clear 15 1001 62 10000 5.1 320 10:21 19.09.2019
1690 Clear 15 1001 62 10000 5.1 320 10:21 19.09.2019
1691 Clear 16 1001 67 10000 5.7 320 09:57 19.09.2019
1692 Clear 16 1001 67 10000 5.7 320 09:39 19.09.2019
1693 Clear 16 1001 67 10000 5.7 320 09:19 19.09.2019
1694 Clear 16 1001 63 10000 5.7 330 08:50 19.09.2019
1695 Clear 16 1001 63 10000 5.7 330 08:23 19.09.2019
1696 Clear 16 1002 67 10000 5.7 320 07:44 19.09.2019
1697 Clear 16 1002 67 10000 5.7 320 07:22 19.09.2019
1698 Clear 16 1002 72 10000 4.6 340 06:54 19.09.2019
1699 Clear 16 1002 67 10000 4.1 360 06:32 19.09.2019
1700 Clear 16 1003 72 10000 4.6 330 05:53 19.09.2019
1701 Clear 16 1003 72 10000 4.6 330 05:34 19.09.2019
1702 Clear 17 1004 77 10000 3.1 340 04:18 19.09.2019
1703 Clear 17 1004 77 10000 1.5 10 03:19 19.09.2019
1704 Clear 18 1004 77 10000 2.1 350 01:36 19.09.2019
1705 Clear 18 1004 63 10000 2.6 10 00:53 19.09.2019
1706 Clear 18 1004 63 10000 2.6 10 00:26 19.09.2019
1707 Clear 19 1005 59 10000 2.6 70 23:57 18.09.2019
1708 Clear 20 1005 59 10000 2.6 70 23:36 18.09.2019
1709 Clear 20 1005 37 10000 4.6 340 23:18 18.09.2019
1710 Clear 21 1005 42 10000 4.6 50 22:37 18.09.2019
1711 Clear 21 1006 45 10000 4.6 70 22:19 18.09.2019
1712 Clear 21 1006 45 10000 4.6 70 21:57 18.09.2019
1713 Clear 21 1006 45 10000 4.6 70 21:38 18.09.2019
1714 Clear 21 1006 45 10000 4.6 70 21:18 18.09.2019
1715 Clear 21 1008 42 10000 5.1 70 20:56 18.09.2019
1716 Clear 21 1008 42 10000 5.1 70 20:56 18.09.2019
1717 Clear 21 1008 42 10000 5.1 70 20:38 18.09.2019
1718 Clear 21 1009 45 10000 4.1 70 20:20 18.09.2019
1719 Clear 21 1009 45 10000 4.1 70 19:55 18.09.2019
1720 Clear 21 1009 45 10000 4.1 70 19:37 18.09.2019
1721 Clear 20 1010 55 10000 3.6 50 19:18 18.09.2019
1722 Clear 20 1010 55 10000 3.6 50 18:54 18.09.2019
1723 Clear 20 1010 55 10000 3.6 50 18:54 18.09.2019
1724 Clear 19 1010 55 10000 3.6 50 18:36 18.09.2019
1725 Clear 19 1010 55 10000 3.6 50 18:18 18.09.2019
1726 Clear 19 1011 48 10000 4.1 50 17:41 18.09.2019
1727 Clear 18 1011 48 10000 4.1 50 17:19 18.09.2019
1728 Clear 18 1012 48 10000 3.6 70 16:58 18.09.2019
1729 Clear 18 1012 48 10000 3.6 70 16:39 18.09.2019
1730 Clear 18 1012 48 10000 3.6 70 16:21 18.09.2019
1731 Clear 17 1012 41 10000 1.5 20 15:56 18.09.2019
1732 Clear 17 1012 41 10000 1.5 20 15:38 18.09.2019
1733 Clear 16 1012 41 10000 1.5 20 15:20 18.09.2019
1734 Clear 15 1011 44 10000 3.6 160 14:58 18.09.2019
1735 Clear 14 1011 44 10000 3.6 160 14:39 18.09.2019
1736 Clear 14 1011 44 10000 3.6 160 14:21 18.09.2019
1737 Clear 14 1011 44 10000 3.6 160 14:21 18.09.2019
1738 Clear 13 1012 58 9000 3.1 160 13:54 18.09.2019
1739 Clear 12 1012 47 10000 2.1 200 13:36 18.09.2019
1740 Clear 12 1012 47 10000 1.5 200 13:18 18.09.2019
1741 Clear 10 1012 47 10000 1.5 200 12:37 18.09.2019
1742 Clear 10 1011 50 10000 1 200 12:19 18.09.2019
1743 Clear 9 1011 50 10000 1 200 11:40 18.09.2019
1744 Clear 8 1011 100 10000 1.5 200 11:20 18.09.2019
1745 Clear 9 1011 75 10000 1.53 181.458 10:55 18.09.2019
1746 Clear 9 1011 75 10000 1.53 181.458 10:37 18.09.2019
1747 Clear 10 1011 47 10000 1 0 10:18 18.09.2019
1748 Clear 10 1010 44 10000 3.1 160 09:41 18.09.2019
1749 Clear 10 1011 62 10000 1 0 09:22 18.09.2019
1750 Clear 11 1011 62 10000 1 0 08:57 18.09.2019
1751 Clear 11 1010 44 10000 2.1 160 08:39 18.09.2019
1752 Clear 11 1010 44 10000 2.1 160 08:19 18.09.2019
1753 Clear 11 1010 47 10000 3.1 140 07:43 18.09.2019
1754 Clear 12 1010 47 10000 3.1 140 07:23 18.09.2019
1755 Clear 14 1010 48 10000 1.5 220 06:45 18.09.2019
1756 Clear 14 1009 51 10000 2.1 280 06:21 18.09.2019
1757 Clear 14 1009 51 10000 2.1 280 05:26 18.09.2019
1758 Clear 16 1008 45 10000 4.6 310 03:38 18.09.2019
1759 Clear 17 1007 51 10000 4.6 330 02:40 18.09.2019
1760 Clear 18 1007 48 10000 4.1 330 01:37 18.09.2019
1761 Clear 19 1006 48 10000 6.2 330 00:51 18.09.2019
1762 Clear 19 1006 48 10000 6.2 330 00:28 18.09.2019
1763 Clear 21 1006 32 10000 6.2 330 23:47 17.09.2019
1764 Clear 21 1006 32 10000 6.2 330 23:23 17.09.2019
1765 Clear 21 1006 32 10000 6.2 330 23:23 17.09.2019
1766 Clear 22 1007 30 10000 6.7 310 22:45 17.09.2019
1767 Clear 23 1007 30 10000 6.7 310 22:25 17.09.2019
1768 Clear 23 1007 23 10000 5.7 300 21:56 17.09.2019
1769 Clear 23 1007 23 10000 5.7 300 21:37 17.09.2019
1770 Clear 23 1007 23 10000 5.7 300 21:37 17.09.2019
1771 Clear 23 1007 23 10000 5.7 300 21:19 17.09.2019
1772 Clear 23 1007 23 10000 5.7 300 21:19 17.09.2019
1773 Clear 23 1008 25 10000 6.7 320 20:59 17.09.2019
1774 Clear 23 1008 25 10000 6.7 320 20:40 17.09.2019
1775 Clear 23 1008 25 10000 6.7 320 20:22 17.09.2019
1776 Clear 23 1008 23 10000 6.7 290 19:59 17.09.2019
1777 Clear 23 1010 20 10000 4.6 260 19:39 17.09.2019
1778 Clear 23 1011 21 10000 4.1 280 19:20 17.09.2019
1779 Clear 23 1011 21 10000 4.1 280 19:20 17.09.2019
1780 Clear 22 1011 21 10000 4.1 280 18:57 17.09.2019
1781 Clear 22 1011 21 10000 4.1 280 18:57 17.09.2019
1782 Clear 22 1011 21 10000 4.1 280 18:38 17.09.2019
1783 Clear 22 1011 21 10000 4.1 280 18:20 17.09.2019
1784 Clear 21 1012 25 10000 3.6 280 17:46 17.09.2019
1785 Clear 20 1012 25 10000 3.6 280 17:20 17.09.2019
1786 Clear 19 1013 27 10000 3.6 290 16:58 17.09.2019
1787 Clear 19 1013 27 10000 3.6 290 16:40 17.09.2019
1788 Clear 18 1013 27 10000 3.6 290 16:21 17.09.2019
1789 Clear 17 1014 29 10000 3.6 300 15:40 17.09.2019
1790 Clear 16 1014 29 10000 3.6 300 15:21 17.09.2019
1791 Clear 14 1015 35 10000 4.6 300 14:57 17.09.2019
1792 Clear 14 1015 35 10000 4.6 300 14:39 17.09.2019
1793 Clear 13 1015 35 10000 4.6 300 14:19 17.09.2019
1794 Clear 12 1015 37 10000 2.6 280 13:57 17.09.2019
1795 Clear 11 1015 37 10000 2.6 280 13:38 17.09.2019
1796 Clear 10 1015 37 10000 2.6 280 13:20 17.09.2019
1797 Clear 8 1015 37 10000 2.1 270 12:42 17.09.2019
1798 Clear 7 1015 37 10000 2.1 270 12:19 17.09.2019
1799 Clear 7 1015 43 10000 1 280 11:46 17.09.2019
1800 Clear 8 1015 43 10000 1 280 11:26 17.09.2019
1801 Clear 8 1016 49 10000 1.5 280 10:59 17.09.2019
1802 Clear 8 1016 49 10000 1.5 280 10:41 17.09.2019
1803 Clear 8 1016 49 10000 1.5 280 10:20 17.09.2019
1804 Clear 8 1017 43 10000 1 280 09:54 17.09.2019
1805 Clear 8 1017 43 10000 1 280 09:36 17.09.2019
1806 Clear 8 1017 43 10000 1 280 09:18 17.09.2019
1807 Clear 8 1018 43 10000 1.5 270 08:43 17.09.2019
1808 Clear 7 1018 43 10000 1.5 270 08:43 17.09.2019
1809 Clear 8 1018 43 10000 1.5 270 08:24 17.09.2019
1810 Clear 8 1020 43 10000 2.1 300 07:44 17.09.2019
1811 Clear 9 1020 37 10000 1.5 260 07:26 17.09.2019
1812 Clear 9 1020 37 10000 1.5 260 06:53 17.09.2019
1813 Clear 9 1020 37 10000 1.5 260 06:29 17.09.2019
1814 Clear 10 1020 33 10000 1 230 05:53 17.09.2019
1815 Clear 11 1020 30 10000 1.5 230 04:46 17.09.2019
1816 Clear 12 1020 30 10000 1.5 210 03:40 17.09.2019
1817 Clear 13 1019 31 10000 1 180 02:39 17.09.2019
1818 Clear 13 1019 31 10000 1 180 02:39 17.09.2019
1819 Clear 15 1019 58 10000 1 0 01:49 17.09.2019
1820 Clear 16 1019 51 10000 2.1 50 00:46 17.09.2019
1821 Clear 18 1018 55 10000 2.1 360 23:41 16.09.2019
1822 Clear 18 1018 55 10000 2.1 360 23:20 16.09.2019
1823 Clear 19 1018 48 10000 3.1 20 22:58 16.09.2019
1824 Clear 19 1018 48 10000 3.1 20 22:40 16.09.2019
1825 Clear 19 1018 48 10000 3.1 20 22:21 16.09.2019
1826 Clear 19 1018 48 10000 3.1 20 22:21 16.09.2019
1827 Clear 19 1018 48 10000 3.6 40 21:56 16.09.2019
1828 Clear 19 1018 48 10000 3.6 40 21:37 16.09.2019
1829 Clear 19 1019 48 10000 4.1 50 21:18 16.09.2019
1830 Clear 19 1019 48 10000 4.1 50 20:41 16.09.2019
1831 Clear 20 1019 39 10000 2.6 50 20:22 16.09.2019
1832 Clear 19 1019 39 10000 2.6 50 19:57 16.09.2019
1833 Clear 19 1020 36 10000 2.6 200 19:39 16.09.2019
1834 Clear 19 1020 25 10000 3.6 180 19:20 16.09.2019
1835 Clear 19 1020 25 10000 3.6 180 18:48 16.09.2019
1836 Clear 19 1020 25 10000 3.6 180 18:30 16.09.2019
1837 Clear 19 1020 25 10000 4.6 170 17:59 16.09.2019
1838 Clear 19 1020 25 10000 4.6 170 17:59 16.09.2019
1839 Clear 18 1020 25 10000 4.6 170 17:41 16.09.2019
1840 Clear 18 1020 33 10000 3.6 170 17:22 16.09.2019
1841 Clear 18 1020 33 10000 3.6 170 16:55 16.09.2019
1842 Clear 17 1020 33 10000 3.6 170 16:55 16.09.2019
1843 Clear 17 1020 33 10000 3.6 170 16:36 16.09.2019
1844 Clear 17 1020 33 10000 3.6 170 16:18 16.09.2019
1845 Clear 16 1020 44 10000 3.6 180 15:54 16.09.2019
1846 Clear 16 1020 44 10000 3.6 180 15:36 16.09.2019
1847 Clear 15 1018 67 10000 4.6 190 15:18 16.09.2019
1848 Clear 14 1019 67 10000 5.1 180 14:40 16.09.2019
1849 Clear 13 1018 67 10000 4.6 190 14:21 16.09.2019
1850 Clear 13 1018 67 10000 4.6 190 13:43 16.09.2019
1851 Clear 13 1018 67 10000 4.6 190 13:22 16.09.2019
1852 Rain 12 1017 71 10000 3.1 180 12:59 16.09.2019
1853 Rain 12 1017 71 10000 3.1 180 12:59 16.09.2019
1854 Rain 12 1017 71 10000 3.1 180 12:39 16.09.2019
1855 Rain 12 1016 76 10000 3.6 150 12:21 16.09.2019
1856 Rain 12 1016 76 10000 3.6 150 11:46 16.09.2019
1857 Rain 12 1014 67 10000 3.1 200 11:23 16.09.2019
1858 Rain 12 1014 67 10000 3.1 200 10:56 16.09.2019
1859 Rain 12 1014 67 10000 3.1 200 10:37 16.09.2019
1860 Rain 12 1014 67 10000 3.1 200 10:18 16.09.2019
1861 Clear 12 1015 67 10000 5.1 180 09:42 16.09.2019
1862 Clear 13 1015 62 10000 3.1 200 09:21 16.09.2019
1863 Clear 13 1014 58 10000 2.6 180 08:56 16.09.2019
1864 Clear 13 1014 58 10000 2.6 180 08:38 16.09.2019
1865 Clear 14 1014 58 10000 4.6 160 08:19 16.09.2019
1866 Clear 14 1014 58 10000 4.6 160 07:42 16.09.2019
1867 Clouds 14 1015 58 10000 6.2 160 07:24 16.09.2019
1868 Clouds 14 1015 58 10000 6.2 160 06:55 16.09.2019
1869 Clouds 14 1015 58 10000 6.2 160 06:36 16.09.2019
1870 Clear 14 1014 62 10000 5.7 160 06:18 16.09.2019
1871 Clear 14 1014 62 10000 5.7 160 05:41 16.09.2019
1872 Clear 14 1013 67 10000 5.7 160 05:18 16.09.2019
1873 Clear 14 1013 67 10000 5.1 160 03:36 16.09.2019
1874 Clear 19 1008 82 10000 4.6 120 00:58 16.09.2019
1875 Clear 19 1008 82 10000 4.6 120 00:38 16.09.2019
1876 Clear 19 1007 82 10000 4.1 120 00:20 16.09.2019
1877 Clear 20 1007 82 10000 4.1 120 23:39 15.09.2019
1878 Clear 20 1007 82 10000 4.1 120 23:20 15.09.2019
1879 Clear 21 1007 77 10000 5.1 100 22:39 15.09.2019
1880 Clear 21 1007 72 10000 4.6 100 22:20 15.09.2019
1881 Clear 22 1007 72 10000 4.6 100 21:57 15.09.2019
1882 Clear 22 1007 72 10000 4.6 100 21:38 15.09.2019
1883 Clear 22 1007 72 10000 4.6 100 21:19 15.09.2019
1884 Clouds 23 1007 82 10000 4.6 100 20:45 15.09.2019
1885 Fog 22 1007 82 10000 4.6 100 20:26 15.09.2019
1886 Fog 22 1008 93 9000 3.6 110 19:56 15.09.2019
1887 Fog 22 1008 93 9000 3.6 110 19:56 15.09.2019
1888 Fog 22 1008 93 9000 3.6 110 19:38 15.09.2019
1889 Fog 22 1008 93 9000 3.6 110 19:38 15.09.2019
1890 Fog 22 1009 88 6000 2.1 80 19:19 15.09.2019
1891 Fog 21 1009 88 6000 2.1 80 18:40 15.09.2019
1892 Fog 21 1009 88 6000 2.1 80 18:22 15.09.2019
1893 Mist 21 1010 93 1500 1.5 50 17:43 15.09.2019
1894 Mist 20 1010 100 1200 1 0 17:22 15.09.2019
1895 Mist 20 1010 100 1200 1 0 16:58 15.09.2019
1896 Fog 20 1010 87 10000 1 0 16:40 15.09.2019
1897 Fog 18 1010 100 500 1 30 16:22 15.09.2019
1898 Fog 18 1010 100 500 1 30 15:56 15.09.2019
1899 Mist 17 1009 100 1100 1.5 360 15:37 15.09.2019
1900 Mist 16 1009 100 1100 1.5 360 15:18 15.09.2019
1901 Fog 14 1010 87 8000 1.5 50 14:43 15.09.2019
1902 Fog 14 1010 87 8000 1.5 50 14:23 15.09.2019
1903 Fog 13 1009 100 300 2.1 50 13:55 15.09.2019
1904 Fog 12 1009 100 800 1.5 40 13:37 15.09.2019
1905 Fog 12 1009 100 1500 1 80 13:19 15.09.2019
1906 Fog 12 1009 100 6000 2.1 340 12:42 15.09.2019
1907 Fog 11 1009 100 6000 2.1 340 12:23 15.09.2019
1908 Mist 11 1009 93 700 0.5 10 11:54 15.09.2019
1909 Mist 11 1009 93 5000 2.1 350 11:36 15.09.2019
1910 Mist 11 1009 93 5000 2.1 350 11:18 15.09.2019
1911 Fog 11 1009 93 5000 1.5 310 10:41 15.09.2019
1912 Fog 11 1009 93 5000 1.5 310 10:22 15.09.2019
1913 Fog 12 1009 93 10000 0.5 50 09:57 15.09.2019
1914 Fog 12 1009 93 7000 1.5 320 09:36 15.09.2019
1915 Fog 12 1009 100 2000 0.5 0 09:18 15.09.2019
1916 Fog 12 1010 93 8000 3.1 360 08:41 15.09.2019
1917 Fog 12 1010 93 8000 3.1 360 08:20 15.09.2019
1918 Fog 13 1010 100 2000 1 40 07:47 15.09.2019
1919 Clouds 13 1011 87 9000 2.6 20 06:46 15.09.2019
1920 Clouds 13 1011 87 9000 2.6 20 06:27 15.09.2019
1921 Clouds 15 1012 82 10000 3.1 20 03:20 15.09.2019
1922 Clouds 16 1011 87 10000 5.1 60 02:20 15.09.2019
1923 Clouds 16 1011 87 10000 5.1 60 01:36 15.09.2019
1924 Clouds 16 1011 59 10000 5.1 70 00:57 15.09.2019
1925 Clouds 17 1011 59 10000 5.1 70 00:37 15.09.2019
1926 Clouds 17 1011 59 10000 5.1 70 00:19 15.09.2019
1927 Clear 17 1011 67 10000 5.7 110 23:56 14.09.2019
1928 Clear 18 1011 67 10000 5.7 110 23:37 14.09.2019
1929 Clear 18 1012 67 10000 6.2 110 23:19 14.09.2019
1930 Clear 18 1012 67 10000 6.2 110 23:19 14.09.2019
1931 Clear 19 1012 67 10000 6.2 110 22:55 14.09.2019
1932 Clear 19 1012 67 10000 6.2 110 22:37 14.09.2019
1933 Clear 20 1013 59 10000 4.1 90 22:18 14.09.2019
1934 Clouds 20 1012 45 10000 6.2 70 21:40 14.09.2019
1935 Clouds 20 1013 52 10000 5.7 70 21:20 14.09.2019
1936 Clear 20 1013 59 10000 3.1 70 20:58 14.09.2019
1937 Clouds 20 1013 52 10000 5.7 70 20:38 14.09.2019
1938 Clear 20 1013 59 10000 3.1 70 20:20 14.09.2019
1939 Clear 20 1014 59 10000 2.6 30 19:46 14.09.2019
1940 Clear 20 1015 59 10000 3.1 40 19:22 14.09.2019
1941 Clear 19 1015 59 10000 3.1 40 18:57 14.09.2019
1942 Clear 19 1015 59 10000 3.1 40 18:38 14.09.2019
1943 Clear 19 1016 59 10000 4.1 10 18:19 14.09.2019
1944 Clear 19 1016 59 10000 4.1 10 17:44 14.09.2019
1945 Clear 18 1016 59 10000 4.1 10 17:24 14.09.2019
1946 Clear 17 1017 58 10000 4.1 10 16:51 14.09.2019
1947 Clear 17 1017 58 10000 4.1 10 16:29 14.09.2019
1948 Clear 16 1018 62 10000 4.1 10 15:59 14.09.2019
1949 Clear 16 1018 62 10000 4.1 10 15:40 14.09.2019
1950 Clear 15 1018 62 10000 4.1 10 15:22 14.09.2019
1951 Clear 15 1018 62 10000 4.1 10 15:22 14.09.2019
1952 Clear 15 1018 62 10000 4.1 10 15:22 14.09.2019
1953 Clear 14 1018 71 10000 4.6 20 14:45 14.09.2019
1954 Clear 14 1018 71 10000 4.6 20 14:19 14.09.2019
1955 Clear 12 1019 67 10000 3.6 40 13:56 14.09.2019
1956 Clear 12 1019 67 10000 3.6 40 13:37 14.09.2019
1957 Clear 12 1019 67 10000 3.6 40 13:19 14.09.2019
1958 Clear 11 1019 66 10000 4.1 40 12:43 14.09.2019
1959 Clear 10 1019 71 10000 5.1 50 12:20 14.09.2019
1960 Clear 10 1019 71 10000 5.1 50 11:41 14.09.2019
1961 Clear 11 1019 71 10000 5.1 50 11:20 14.09.2019
1962 Mist 11 1019 67 10000 4.6 40 10:40 14.09.2019
1963 Mist 11 1019 67 10000 4.6 40 10:21 14.09.2019
1964 Mist 12 1019 76 10000 4.6 40 09:58 14.09.2019
1965 Mist 12 1019 76 10000 4.6 40 09:39 14.09.2019
1966 Mist 12 1019 76 10000 4.6 40 09:20 14.09.2019
1967 Mist 12 1019 76 10000 6.2 60 08:47 14.09.2019
1968 Mist 12 1019 76 10000 6.2 60 08:25 14.09.2019
1969 Mist 12 1020 87 10000 4.6 80 07:48 14.09.2019
1970 Mist 12 1020 87 10000 4.6 80 07:48 14.09.2019
1971 Mist 12 1020 87 10000 4.6 80 07:29 14.09.2019
1972 Clouds 12 1021 100 6000 5.1 80 06:52 14.09.2019
1973 Clouds 13 1021 87 8000 5.1 100 06:31 14.09.2019
1974 Mist 12 1021 93 6000 7.2 110 05:27 14.09.2019
1975 Clouds 12 1022 93 10000 6.7 110 03:46 14.09.2019
1976 Clouds 12 1022 93 10000 6.7 120 02:55 14.09.2019
1977 Clouds 13 1021 93 10000 7.2 110 01:55 14.09.2019
1978 Clouds 13 1021 93 10000 7.2 110 01:23 14.09.2019
1979 Clear 14 1021 82 10000 5.7 120 00:59 14.09.2019
1980 Clear 15 1021 82 10000 5.7 120 00:39 14.09.2019
1981 Clear 14 1021 82 10000 5.7 120 00:20 14.09.2019
1982 Clear 15 1021 82 10000 5.7 110 23:38 13.09.2019
1983 Clear 16 1021 82 10000 5.7 110 23:19 13.09.2019
1984 Clouds 16 1021 82 9000 6.7 110 22:59 13.09.2019
1985 Clouds 16 1021 82 9000 6.7 110 22:38 13.09.2019
1986 Clouds 17 1021 82 9000 6.7 110 22:20 13.09.2019
1987 Clouds 17 1022 77 9000 6.2 100 21:42 13.09.2019
1988 Clouds 17 1022 77 9000 6.2 100 21:20 13.09.2019
1989 Clouds 18 1022 72 9000 4.6 100 20:59 13.09.2019
1990 Clouds 17 1022 72 9000 4.6 100 20:40 13.09.2019
1991 Clouds 18 1022 72 9000 4.6 100 20:21 13.09.2019
1992 Clear 18 1023 77 10000 4.6 100 19:56 13.09.2019
1993 Clear 18 1023 77 10000 4.6 100 19:38 13.09.2019
1994 Clear 17 1024 72 10000 4.6 110 19:19 13.09.2019
1995 Clear 18 1024 72 10000 4.6 110 18:55 13.09.2019
1996 Clear 18 1024 72 10000 4.6 110 18:36 13.09.2019
1997 Clear 16 1025 72 10000 4.1 100 18:18 13.09.2019
1998 Clear 17 1025 72 10000 4.1 100 17:39 13.09.2019
1999 Clear 17 1025 72 10000 4.1 100 17:19 13.09.2019
2000 Clear 16 1025 67 10000 3.1 20 16:42 13.09.2019
2001 Clear 15 1025 67 10000 3.1 20 16:21 13.09.2019
2002 Clear 14 1025 67 10000 3.1 350 15:57 13.09.2019
2003 Clear 14 1025 67 10000 3.1 350 15:39 13.09.2019
2004 Clear 13 1025 67 10000 3.1 350 15:20 13.09.2019
2005 Clear 12 1025 54 10000 1 200 14:41 13.09.2019
2006 Clear 12 1025 54 10000 1 200 14:41 13.09.2019
2007 Clear 12 1025 54 10000 1 200 14:22 13.09.2019
2008 Clear 12 1025 54 10000 1 200 14:22 13.09.2019
2009 Clear 10 1024 62 10000 1 240 13:46 13.09.2019
2010 Clear 10 1024 62 10000 1 240 13:25 13.09.2019
2011 Clear 9 1024 71 10000 1 240 12:58 13.09.2019
2012 Clear 9 1024 71 10000 1 240 12:39 13.09.2019
2013 Clear 9 1024 71 10000 1 240 12:39 13.09.2019
2014 Clear 9 1023 71 10000 1 0 12:21 13.09.2019
2015 Clear 8 1023 71 10000 1 0 11:55 13.09.2019
2016 Clear 8 1023 76 10000 2.1 210 11:19 13.09.2019
2017 Clear 8 1023 76 10000 2.1 210 11:19 13.09.2019
2018 Clear 9 1023 76 10000 2.1 210 10:39 13.09.2019
2019 Clear 9 1023 76 10000 2.1 210 10:19 13.09.2019
2020 Clear 10 1023 66 10000 1.5 210 09:45 13.09.2019
2021 Clear 10 1023 66 10000 1.5 210 09:24 13.09.2019
2022 Clear 10 1023 71 10000 2.6 310 08:58 13.09.2019
2023 Clear 10 1023 71 10000 2.6 310 08:40 13.09.2019
2024 Clear 10 1023 71 10000 2.6 310 08:40 13.09.2019
2025 Clear 10 1023 71 10000 2.6 310 08:20 13.09.2019
2026 Clear 11 1023 66 10000 3.1 300 07:45 13.09.2019
2027 Clear 11 1023 66 10000 3.1 300 07:27 13.09.2019
2028 Clear 11 1023 66 10000 3.6 310 06:45 13.09.2019
2029 Clear 12 1023 66 10000 2.6 320 05:47 13.09.2019
2030 Clear 13 1022 67 10000 3.1 330 04:51 13.09.2019
2031 Clear 14 1022 54 10000 2.6 310 03:38 13.09.2019
2032 Clear 14 1022 62 10000 2.6 320 02:20 13.09.2019
2033 Clear 15 1021 48 10000 2.1 320 01:42 13.09.2019
2034 Clear 15 1021 67 10000 3.1 20 01:21 13.09.2019
2035 Clear 15 1021 67 10000 3.1 20 00:37 13.09.2019
2036 Clear 16 1021 59 10000 2.6 10 23:57 12.09.2019
2037 Clear 17 1021 59 10000 2.6 10 23:35 12.09.2019
2038 Clear 17 1021 58 10000 2.6 20 22:59 12.09.2019
2039 Clear 17 1021 58 10000 2.6 20 22:40 12.09.2019
2040 Clear 18 1021 58 10000 2.6 20 22:22 12.09.2019
2041 Clear 17 1021 54 10000 3.6 360 21:56 12.09.2019
2042 Clear 17 1021 54 10000 3.6 360 21:37 12.09.2019
2043 Clear 17 1021 54 10000 3.1 20 21:19 12.09.2019
2044 Clear 17 1021 54 10000 3.1 20 20:54 12.09.2019
2045 Clear 17 1021 54 10000 3.1 20 20:36 12.09.2019
2046 Clear 17 1021 54 10000 3.1 20 20:18 12.09.2019
2047 Clear 16 1021 54 10000 2.6 50 19:41 12.09.2019
2048 Clear 16 1022 36 10000 2.1 200 19:20 12.09.2019
2049 Clear 16 1022 36 10000 2.1 200 18:57 12.09.2019
2050 Clear 15 1022 36 10000 2.1 200 18:36 12.09.2019
2051 Clear 15 1022 47 10000 2.6 230 18:18 12.09.2019
2052 Clear 14 1022 47 10000 2.6 230 17:41 12.09.2019
2053 Clear 13 1022 47 10000 2.6 230 17:21 12.09.2019
2054 Clear 13 1022 47 10000 2.6 230 16:58 12.09.2019
2055 Clear 13 1022 47 10000 2.6 230 16:40 12.09.2019
2056 Clear 12 1022 58 10000 2.1 200 16:19 12.09.2019
2057 Clear 11 1022 58 10000 2.1 200 15:41 12.09.2019
2058 Clear 11 1022 58 10000 2.1 200 15:23 12.09.2019
2059 Clear 10 1022 66 10000 2.6 200 14:46 12.09.2019
2060 Clear 10 1022 66 10000 2.6 200 14:22 12.09.2019
2061 Clear 9 1021 76 10000 2.6 200 13:58 12.09.2019
2062 Clear 8 1021 76 10000 2.6 200 13:38 12.09.2019
2063 Clear 7 1020 81 10000 2.6 200 13:19 12.09.2019
2064 Clear 7 1020 81 10000 2.6 200 12:45 12.09.2019
2065 Clouds 7 1020 81 10000 3.1 200 12:19 12.09.2019
2066 Clouds 7 1020 81 10000 3.1 200 12:19 12.09.2019
2067 Clouds 7 1020 81 10000 3.1 200 11:56 12.09.2019
2068 Clouds 7 1020 81 10000 3.1 200 11:38 12.09.2019
2069 Clouds 7 1020 81 10000 3.1 200 11:19 12.09.2019
2070 Clouds 8 1019 81 10000 3.1 220 10:44 12.09.2019
2071 Clouds 8 1019 81 10000 3.1 220 10:26 12.09.2019
2072 Clear 9 1019 87 10000 2.6 230 09:45 12.09.2019
2073 Clear 9 1019 87 10000 2.6 230 09:25 12.09.2019
2074 Clear 9 1019 87 10000 2.6 230 09:25 12.09.2019
2075 Clear 9 1019 81 10000 2.6 230 08:59 12.09.2019
2076 Clear 10 1019 81 10000 2.6 230 08:40 12.09.2019
2077 Clear 10 1019 81 10000 2.6 230 08:21 12.09.2019
2078 Clear 10 1019 81 10000 2.6 230 08:21 12.09.2019
2079 Clear 10 1020 81 10000 3.6 200 07:39 12.09.2019
2080 Clouds 11 1019 71 10000 1.5 220 07:19 12.09.2019
2081 Clouds 11 1019 71 10000 1.5 220 06:50 12.09.2019
2082 Clear 12 1019 76 10000 1.5 210 06:19 12.09.2019
2083 Clear 12 1019 76 10000 1.5 210 05:49 12.09.2019
2084 Clear 12 1019 76 10000 1.5 210 05:29 12.09.2019
2085 Clouds 12 1018 87 10000 1 0 04:35 12.09.2019
2086 Clouds 13 1018 87 10000 3.1 120 01:48 12.09.2019
2087 Clouds 13 1018 87 10000 3.1 120 01:30 12.09.2019
2088 Clear 14 1017 76 10000 3.6 110 00:58 12.09.2019
2089 Clear 14 1017 76 10000 3.6 110 00:40 12.09.2019
2090 Drizzle 14 1017 76 10000 3.6 110 00:22 12.09.2019
2091 Clear 14 1017 76 10000 4.6 120 23:41 11.09.2019
2092 Clear 15 1017 76 10000 4.6 120 23:20 11.09.2019
2093 Clear 15 1017 76 10000 5.1 120 22:56 11.09.2019
2094 Clear 15 1017 76 10000 5.1 120 22:37 11.09.2019
2095 Clear 15 1017 76 10000 5.1 120 22:18 11.09.2019
2096 Clear 15 1016 76 10000 5.7 100 22:18 11.09.2019
2097 Clear 15 1016 76 10000 5.7 100 21:41 11.09.2019
2098 Clear 15 1016 76 10000 5.7 100 21:23 11.09.2019
2099 Clear 16 1016 72 10000 4.1 40 20:56 11.09.2019
2100 Clear 16 1016 72 10000 4.1 40 20:38 11.09.2019
2101 Clear 16 1017 77 10000 5.7 100 20:19 11.09.2019
2102 Clear 16 1017 77 10000 5.7 100 20:19 11.09.2019
2103 Clear 16 1017 77 10000 5.7 100 20:19 11.09.2019
2104 Clear 16 1017 77 10000 5.7 100 20:19 11.09.2019
2105 Clear 16 1017 77 10000 5.7 100 19:57 11.09.2019
2106 Clear 16 1017 77 10000 5.7 100 19:57 11.09.2019
2107 Clear 16 1017 77 10000 5.7 100 19:39 11.09.2019
2108 Clear 16 1018 62 10000 5.1 100 19:19 11.09.2019
2109 Clear 16 1018 62 10000 5.1 100 18:55 11.09.2019
2110 Clear 16 1018 62 10000 5.1 100 18:37 11.09.2019
2111 Clouds 15 1019 71 10000 4.6 130 18:18 11.09.2019
2112 Clouds 15 1019 71 10000 4.6 130 17:41 11.09.2019
2113 Clouds 15 1019 71 10000 4.6 130 17:41 11.09.2019
2114 Clouds 14 1019 71 10000 4.6 130 17:22 11.09.2019
2115 Clouds 14 1020 76 10000 3.6 120 16:57 11.09.2019
2116 Clouds 14 1020 76 10000 3.6 120 16:38 11.09.2019
2117 Clouds 13 1020 76 10000 3.6 120 16:19 11.09.2019
2118 Clouds 13 1020 82 10000 4.1 110 15:47 11.09.2019
2119 Clouds 13 1020 82 10000 4.1 110 15:47 11.09.2019
2120 Clouds 13 1020 82 10000 4.1 110 15:24 11.09.2019
2121 Clouds 12 1019 76 10000 5.1 110 14:58 11.09.2019
2122 Clouds 12 1019 76 10000 5.1 110 14:39 11.09.2019
2123 Clouds 12 1019 76 10000 5.1 110 14:20 11.09.2019
2124 Clouds 12 1019 76 10000 5.1 110 14:20 11.09.2019
2125 Clouds 12 1019 87 10000 6.7 110 13:57 11.09.2019
2126 Clouds 11 1019 87 10000 6.7 110 13:37 11.09.2019
2127 Clouds 10 1018 93 10000 4.6 140 13:18 11.09.2019
2128 Clouds 10 1018 93 10000 4.6 140 12:42 11.09.2019
2129 Clouds 10 1018 93 10000 4.6 140 12:21 11.09.2019
2130 Clouds 10 1018 87 10000 4.6 160 11:56 11.09.2019
2131 Clouds 10 1018 93 10000 4.6 140 11:37 11.09.2019
2132 Clouds 10 1018 93 10000 4.6 140 11:18 11.09.2019
2133 Clouds 10 1018 93 10000 4.6 140 11:18 11.09.2019
2134 Clear 10 1019 76 10000 5.1 100 10:40 11.09.2019
2135 Clear 10 1019 76 10000 5.1 100 10:22 11.09.2019
2136 Clear 10 1019 76 10000 4.6 100 09:56 11.09.2019
2137 Clear 10 1019 76 10000 4.6 100 09:36 11.09.2019
2138 Clear 10 1019 76 10000 4.6 100 09:18 11.09.2019
2139 Clouds 10 1020 87 10000 5.1 110 08:40 11.09.2019
2140 Clear 10 1021 87 10000 3.6 120 08:21 11.09.2019
2141 Clear 11 1021 87 10000 3.6 120 07:49 11.09.2019
2142 Clear 11 1021 87 10000 3.6 120 07:23 11.09.2019
2143 Clear 11 1021 87 10000 4.6 110 06:54 11.09.2019
2144 Clear 11 1021 87 10000 4.6 110 06:35 11.09.2019
2145 Clouds 11 1022 81 10000 5.7 100 05:49 11.09.2019
2146 Clouds 11 1022 81 10000 5.7 100 05:29 11.09.2019
2147 Clouds 12 1022 87 10000 4.6 130 04:51 11.09.2019
2148 Clouds 12 1021 87 10000 4.6 110 03:37 11.09.2019
2149 Clouds 12 1021 87 10000 5.7 100 02:56 11.09.2019
2150 Clouds 12 1021 87 10000 5.7 100 02:26 11.09.2019
2151 Clouds 13 1020 82 10000 3.6 70 00:53 11.09.2019
2152 Clouds 13 1020 82 10000 3.6 70 00:29 11.09.2019
2153 Clouds 14 1019 82 10000 3.6 70 23:56 10.09.2019
2154 Clouds 15 1019 82 10000 3.6 70 23:38 10.09.2019
2155 Clouds 15 1019 82 10000 3.6 70 23:20 10.09.2019
2156 Clouds 15 1019 87 10000 5.1 70 22:41 10.09.2019
2157 Clouds 16 1019 77 10000 4.1 60 22:20 10.09.2019
2158 Clouds 16 1019 77 10000 4.1 60 21:56 10.09.2019
2159 Clouds 16 1019 77 10000 4.1 60 21:38 10.09.2019
2160 Clouds 16 1019 77 10000 4.1 60 21:20 10.09.2019
2161 Clouds 16 1019 72 10000 2.1 150 20:58 10.09.2019
2162 Clouds 16 1019 72 10000 2.1 150 20:38 10.09.2019
2163 Clouds 16 1019 72 10000 2.1 150 20:20 10.09.2019
2164 Clouds 15 1019 82 10000 3.1 140 19:57 10.09.2019
2165 Clouds 15 1019 82 10000 3.1 140 19:37 10.09.2019
2166 Clouds 15 1020 82 10000 4.1 100 19:19 10.09.2019
2167 Clouds 15 1020 82 10000 4.1 100 18:55 10.09.2019
2168 Clouds 14 1020 82 10000 4.1 100 18:37 10.09.2019
2169 Clouds 14 1020 82 9000 4.1 100 18:18 10.09.2019
2170 Clouds 14 1020 82 9000 4.1 100 17:43 10.09.2019
2171 Clouds 14 1020 82 9000 4.1 100 17:22 10.09.2019
2172 Clouds 13 1020 82 10000 3.6 120 16:58 10.09.2019
2173 Clouds 13 1020 82 10000 3.6 120 16:39 10.09.2019
2174 Clouds 13 1020 82 10000 3.6 120 16:21 10.09.2019
2175 Clouds 13 1020 82 10000 3.6 110 15:57 10.09.2019
2176 Clouds 13 1020 82 10000 3.6 110 15:39 10.09.2019
2177 Clouds 13 1020 82 10000 3.6 110 15:20 10.09.2019
2178 Mist 12 1020 100 5000 1 0 14:41 10.09.2019
2179 Drizzle 12 1019 93 10000 2.1 190 14:22 10.09.2019
2180 Drizzle 12 1019 93 10000 2.1 190 13:54 10.09.2019
2181 Drizzle 11 1019 87 10000 1.5 180 13:36 10.09.2019
2182 Drizzle 11 1019 87 10000 1.5 180 13:36 10.09.2019
2183 Drizzle 11 1019 87 10000 1.5 180 13:18 10.09.2019
2184 Drizzle 11 1018 100 1000 0.5 0 12:42 10.09.2019
2185 Clouds 11 1017 93 9000 2.6 180 12:24 10.09.2019
2186 Clouds 11 1017 93 9000 2.6 180 11:54 10.09.2019
2187 Clouds 11 1017 93 9000 2.6 180 11:36 10.09.2019
2188 Clouds 11 1016 93 10000 1.5 160 11:18 10.09.2019
2189 Clouds 11 1016 93 10000 1.5 160 10:39 10.09.2019
2190 Clouds 11 1016 93 10000 2.1 170 10:19 10.09.2019
2191 Rain 11 1016 93 5000 2.1 170 09:50 10.09.2019
2192 Drizzle 12 1016 100 5000 2.6 180 09:20 10.09.2019
2193 Drizzle 12 1016 100 5000 2.6 180 09:20 10.09.2019
2194 Drizzle 12 1016 87 10000 2.6 170 08:59 10.09.2019
2195 Drizzle 12 1016 87 10000 2.6 170 08:41 10.09.2019
2196 Drizzle 12 1016 100 2000 3.1 190 08:21 10.09.2019
2197 Drizzle 12 1016 100 5000 2.6 190 07:44 10.09.2019
2198 Drizzle 12 1016 100 5000 2.6 190 07:25 10.09.2019
2199 Clouds 12 1016 87 10000 2.6 170 07:25 10.09.2019
2200 Clouds 12 1016 87 10000 2.6 170 06:48 10.09.2019
2201 Clouds 12 1015 87 10000 3.1 160 06:29 10.09.2019
2202 Clouds 13 1014 87 10000 3.6 160 04:41 10.09.2019
2203 Clouds 13 1013 87 10000 3.1 0 02:44 10.09.2019
2204 Drizzle 13 1013 93 9000 4.6 220 02:22 10.09.2019
2205 Drizzle 13 1013 93 9000 4.6 220 01:52 10.09.2019
2206 Drizzle 13 1013 93 9000 4.6 220 01:24 10.09.2019
2207 Rain 13 1011 87 8000 2.1 220 00:44 10.09.2019
2208 Drizzle 13 1010 93 9000 4.6 200 00:23 10.09.2019
2209 Rain 14 1010 93 9000 4.6 200 23:41 09.09.2019
2210 Rain 14 1009 87 9000 4.6 190 23:19 09.09.2019
2211 Rain 13 1007 87 10000 2.6 180 22:55 09.09.2019
2212 Rain 13 1007 87 10000 2.6 180 22:37 09.09.2019
2213 Drizzle 13 1007 93 10000 3.1 190 22:19 09.09.2019
2214 Drizzle 13 1007 93 10000 3.1 190 21:55 09.09.2019
2215 Drizzle 13 1007 93 10000 3.1 190 21:37 09.09.2019
2216 Drizzle 13 1007 93 10000 3.1 190 21:37 09.09.2019
2217 Drizzle 14 1007 100 5000 4.6 180 21:18 09.09.2019
2218 Drizzle 14 1007 100 5000 4.6 180 21:18 09.09.2019
2219 Drizzle 13 1007 100 5000 4.6 180 20:55 09.09.2019
2220 Drizzle 13 1006 87 5000 4.1 190 20:36 09.09.2019
2221 Drizzle 13 1006 93 3900 3.6 210 20:18 09.09.2019
2222 Drizzle 13 1006 93 3900 3.6 210 19:56 09.09.2019
2223 Drizzle 13 1006 100 5000 5.7 180 19:37 09.09.2019
2224 Drizzle 13 1006 100 5000 4.6 190 19:19 09.09.2019
2225 Drizzle 13 1006 100 5000 4.6 190 19:19 09.09.2019
2226 Drizzle 13 1006 93 5000 3.6 180 18:55 09.09.2019
2227 Drizzle 13 1006 93 5000 3.6 180 18:36 09.09.2019
2228 Rain 13 1007 93 4000 3.6 190 18:18 09.09.2019
2229 Rain 13 1008 93 1600 2.6 160 17:55 09.09.2019
2230 Rain 13 1008 93 1600 2.6 160 17:37 09.09.2019
2231 Drizzle 13 1009 100 3000 3.1 190 17:19 09.09.2019
2232 Drizzle 13 1009 93 4200 3.6 150 16:40 09.09.2019
2233 Drizzle 12 1009 100 5000 4.1 140 16:21 09.09.2019
2234 Drizzle 12 1009 100 5000 4.1 140 15:56 09.09.2019
2235 Drizzle 12 1009 100 7000 5.1 130 15:38 09.09.2019
2236 Drizzle 12 1009 93 4500 5.1 140 15:19 09.09.2019
2237 Drizzle 12 1009 93 4500 5.1 140 14:57 09.09.2019
2238 Drizzle 12 1009 93 4400 4.6 140 14:38 09.09.2019
2239 Drizzle 12 1009 87 5000 3.6 160 14:20 09.09.2019
2240 Drizzle 12 1009 87 5000 3.6 160 13:45 09.09.2019
2241 Drizzle 12 1009 100 10000 3.1 150 13:21 09.09.2019
2242 Rain 12 1009 100 10000 3.1 150 12:58 09.09.2019
2243 Rain 12 1008 87 6000 4.6 130 12:40 09.09.2019
2244 Rain 12 1008 87 6000 4.6 130 12:40 09.09.2019
2245 Rain 12 1009 93 9000 5.1 110 12:20 09.09.2019
2246 Drizzle 13 1009 93 10000 5.1 120 11:48 09.09.2019
2247 Drizzle 13 1009 93 10000 5.1 120 11:24 09.09.2019
2248 Clouds 13 1009 100 10000 3.1 130 10:59 09.09.2019
2249 Clouds 13 1009 93 10000 5.7 120 10:41 09.09.2019
2250 Clouds 13 1009 93 10000 5.7 120 10:21 09.09.2019
2251 Drizzle 13 1009 100 9000 4.1 130 09:57 09.09.2019
2252 Drizzle 13 1009 93 6000 4.1 140 09:38 09.09.2019
2253 Drizzle 13 1008 100 5000 3.1 150 09:19 09.09.2019
2254 Drizzle 13 1009 93 6000 4.1 130 08:39 09.09.2019
2255 Drizzle 13 1009 93 6000 4.1 130 08:39 09.09.2019
2256 Drizzle 13 1008 100 5000 3.6 130 08:20 09.09.2019
2257 Drizzle 13 1008 100 5000 3.6 130 08:20 09.09.2019
2258 Drizzle 13 1008 100 5000 3.6 130 08:20 09.09.2019
2259 Clouds 13 1008 100 10000 3.1 150 07:46 09.09.2019
2260 Clouds 13 1012 93 10000 6.7 100 07:23 09.09.2019
2261 Clouds 14 1011 87 10000 5.7 90 06:57 09.09.2019
2262 Clouds 14 1011 87 10000 5.7 90 06:57 09.09.2019
2263 Clouds 14 1011 87 10000 5.7 90 06:35 09.09.2019
2264 Clouds 14 1012 87 10000 5.1 140 04:56 09.09.2019
2265 Clouds 14 1012 87 10000 3.6 100 02:54 09.09.2019
2266 Clouds 14 1012 87 10000 3.6 100 02:34 09.09.2019
2267 Clear 15 1012 87 10000 3.1 60 00:41 09.09.2019
2268 Clouds 15 1011 87 9000 2.1 100 00:21 09.09.2019
2269 Clouds 16 1011 87 9000 2.1 100 23:44 08.09.2019
2270 Clouds 16 1011 87 9000 2.1 100 23:23 08.09.2019
2271 Clouds 16 1012 87 9000 2.6 60 22:56 08.09.2019
2272 Clouds 16 1012 87 9000 2.6 60 22:37 08.09.2019
2273 Clouds 17 1012 82 8000 2.6 50 22:19 08.09.2019
2274 Clouds 17 1012 82 8000 2.6 50 21:42 08.09.2019
2275 Clouds 17 1012 82 8000 2.6 50 21:42 08.09.2019
2276 Clouds 18 1012 82 8000 2.6 50 21:22 08.09.2019
2277 Clear 18 1012 82 10000 3.1 50 20:58 08.09.2019
2278 Clear 18 1012 82 10000 3.1 50 20:39 08.09.2019
2279 Clouds 18 1013 72 10000 2.6 60 20:20 08.09.2019
2280 Clouds 17 1013 72 10000 2.6 60 19:57 08.09.2019
2281 Clouds 17 1013 72 10000 2.6 60 19:37 08.09.2019
2282 Clouds 16 1014 77 10000 1.5 60 19:19 08.09.2019
2283 Clouds 16 1014 77 10000 1.5 60 18:56 08.09.2019
2284 Clouds 16 1014 77 10000 1.5 60 18:37 08.09.2019
2285 Clouds 15 1015 77 10000 2.1 90 18:18 08.09.2019
2286 Clouds 14 1015 77 10000 2.1 90 17:38 08.09.2019
2287 Clouds 14 1016 82 10000 1.5 0 17:19 08.09.2019
2288 Clouds 13 1016 82 10000 1.5 0 16:59 08.09.2019
2289 Clouds 13 1016 82 10000 1.5 0 16:40 08.09.2019
2290 Clouds 13 1016 87 10000 1 0 16:21 08.09.2019
2291 Clouds 12 1016 87 10000 1 0 15:57 08.09.2019
2292 Clouds 12 1016 87 10000 1 0 15:39 08.09.2019
2293 Drizzle 12 1014 87 10000 1.5 180 15:20 08.09.2019
2294 Drizzle 12 1014 87 10000 1.5 180 14:41 08.09.2019
2295 Drizzle 12 1014 93 10000 2.1 170 14:22 08.09.2019
2296 Drizzle 12 1014 93 10000 2.1 170 14:22 08.09.2019
2297 Drizzle 12 1014 93 10000 2.1 170 13:58 08.09.2019
2298 Drizzle 11 1014 93 10000 2.1 170 13:40 08.09.2019
2299 Drizzle 11 1014 93 10000 2.1 170 13:40 08.09.2019
2300 Clouds 11 1013 93 9000 1.5 210 13:22 08.09.2019
2301 Clouds 11 1013 93 9000 1.5 210 12:55 08.09.2019
2302 Clouds 11 1013 93 9000 1.5 210 12:37 08.09.2019
2303 Clouds 11 1013 93 8000 2.6 180 12:19 08.09.2019
2304 Clouds 11 1013 93 8000 2.6 180 12:19 08.09.2019
2305 Clouds 11 1013 93 8000 2.6 180 11:56 08.09.2019
2306 Clouds 11 1012 87 9000 2.6 180 11:37 08.09.2019
2307 Clouds 11 1012 87 9000 2.6 180 11:37 08.09.2019
2308 Mist 11 1013 87 10000 2.6 190 11:19 08.09.2019
2309 Mist 11 1013 87 10000 2.6 190 10:42 08.09.2019
2310 Clear 11 1015 87 10000 1.5 180 10:23 08.09.2019
2311 Clear 11 1015 82 10000 1 200 09:56 08.09.2019
2312 Clear 12 1015 82 10000 1 200 09:37 08.09.2019
2313 Clear 11 1015 87 10000 1.5 200 09:19 08.09.2019
2314 Clear 11 1015 87 10000 1.5 200 08:39 08.09.2019
2315 Clear 11 1016 87 10000 1 270 08:19 08.09.2019
2316 Clear 11 1016 87 10000 1 270 07:43 08.09.2019
2317 Clear 11 1015 82 10000 1 190 07:22 08.09.2019
2318 Clear 12 1015 82 10000 1 190 06:57 08.09.2019
2319 Clear 12 1015 82 10000 1 190 06:38 08.09.2019
2320 Clear 12 1014 82 10000 1.5 190 05:40 08.09.2019
2321 Fog 12 1014 77 10000 1.5 200 04:59 08.09.2019
2322 Fog 12 1014 87 10000 1 0 03:23 08.09.2019
2323 Clouds 13 1014 93 8000 1 0 02:48 08.09.2019
2324 Clouds 14 1013 87 9000 2.1 340 01:54 08.09.2019
2325 Clouds 15 1013 87 8000 2.1 360 01:26 08.09.2019
2326 Clouds 15 1013 87 8000 2.1 360 00:47 08.09.2019
2327 Clouds 16 1013 87 10000 2.6 40 00:29 08.09.2019
2328 Clouds 16 1013 87 10000 2.6 40 23:55 07.09.2019
2329 Clouds 16 1013 87 10000 2.6 40 23:36 07.09.2019
2330 Clouds 16 1013 87 10000 2.6 40 23:36 07.09.2019
2331 Clouds 17 1013 63 10000 3.6 200 23:18 07.09.2019
2332 Clouds 17 1012 55 10000 2.1 190 22:42 07.09.2019
2333 Clouds 17 1012 63 10000 3.1 180 22:23 07.09.2019
2334 Clouds 17 1012 63 10000 3.1 180 21:56 07.09.2019
2335 Clouds 17 1012 63 10000 3.1 180 21:37 07.09.2019
2336 Clouds 18 1012 63 10000 2.1 190 21:19 07.09.2019
2337 Clouds 17 1012 63 10000 2.1 190 20:39 07.09.2019
2338 Clouds 17 1013 72 10000 2.1 180 20:20 07.09.2019
2339 Clouds 17 1013 72 10000 2.1 180 20:20 07.09.2019
2340 Clouds 17 1013 72 10000 2.1 180 19:56 07.09.2019
2341 Clouds 17 1013 72 10000 2.1 180 19:37 07.09.2019
2342 Clouds 16 1014 72 10000 2.1 180 19:19 07.09.2019
2343 Clouds 16 1014 72 10000 2.1 180 18:58 07.09.2019
2344 Clouds 16 1014 72 10000 2.1 180 18:58 07.09.2019
2345 Clouds 16 1014 72 10000 2.1 180 18:38 07.09.2019
2346 Clouds 16 1015 82 8000 2.1 180 18:20 07.09.2019
2347 Clouds 15 1015 82 8000 2.1 180 17:56 07.09.2019
2348 Clouds 15 1015 82 8000 2.1 180 17:38 07.09.2019
2349 Mist 15 1015 82 5000 3.6 200 17:18 07.09.2019
2350 Mist 15 1015 82 6000 2.1 170 16:43 07.09.2019
2351 Mist 15 1015 82 6000 2.1 170 16:43 07.09.2019
2352 Mist 15 1015 82 6000 2.1 170 16:43 07.09.2019
2353 Mist 14 1015 87 4000 3.6 200 16:23 07.09.2019
2354 Mist 14 1015 100 10000 2.1 190 15:58 07.09.2019
2355 Clouds 14 1015 82 8000 1 160 15:39 07.09.2019
2356 Mist 13 1015 100 1500 2.1 190 15:21 07.09.2019
2357 Fog 13 1015 100 300 2.6 180 14:55 07.09.2019
2358 Mist 13 1015 100 1500 2.1 190 14:55 07.09.2019
2359 Fog 13 1015 100 300 2.6 180 14:55 07.09.2019
2360 Fog 13 1015 100 300 2.6 180 14:36 07.09.2019
2361 Fog 12 1015 100 500 2.1 200 14:18 07.09.2019
2362 Fog 12 1015 87 10000 2.6 150 13:44 07.09.2019
2363 Fog 12 1015 100 500 1.5 200 13:25 07.09.2019
2364 Fog 12 1015 100 500 1.5 200 12:54 07.09.2019
2365 Mist 12 1015 100 1000 1.5 180 12:36 07.09.2019
2366 Mist 12 1015 100 1000 1.5 180 12:36 07.09.2019
2367 Mist 12 1014 100 5000 2.1 180 12:18 07.09.2019
2368 Clouds 12 1014 87 10000 5.1 130 11:40 07.09.2019
2369 Clouds 12 1015 87 10000 4.1 140 11:21 07.09.2019
2370 Clouds 12 1015 87 10000 4.1 140 10:41 07.09.2019
2371 Clouds 13 1015 87 10000 4.1 140 10:22 07.09.2019
2372 Clouds 13 1015 87 10000 4.6 120 09:58 07.09.2019
2373 Clouds 13 1015 87 10000 4.6 120 09:39 07.09.2019
2374 Clouds 13 1015 87 10000 4.1 140 09:20 07.09.2019
2375 Clouds 13 1015 87 10000 4.1 140 09:20 07.09.2019
2376 Clouds 13 1015 87 10000 4.1 140 08:45 07.09.2019
2377 Clouds 13 1015 87 10000 4.1 140 08:26 07.09.2019
2378 Clouds 13 1015 87 10000 4.1 140 08:26 07.09.2019
2379 Clouds 13 1016 87 10000 4.1 130 07:48 07.09.2019
2380 Clouds 13 1017 82 10000 4.1 130 07:28 07.09.2019
2381 Clouds 13 1017 82 10000 4.1 130 06:53 07.09.2019
2382 Clouds 13 1017 82 10000 4.1 130 06:29 07.09.2019
2383 Clouds 13 1017 82 10000 5.7 120 05:32 07.09.2019
2384 Clouds 13 1017 82 10000 4.1 90 04:23 07.09.2019
2385 Clear 13 1017 87 10000 6.2 120 02:52 07.09.2019
2386 Clouds 13 1017 87 10000 6.7 120 02:20 07.09.2019
2387 Clouds 13 1017 87 10000 6.7 120 01:26 07.09.2019
2388 Clear 13 1017 87 10000 7.2 120 00:44 07.09.2019
2389 Clear 13 1017 82 10000 8.7 120 00:21 07.09.2019
2390 Clear 14 1017 82 10000 8.7 120 23:41 06.09.2019
2391 Clear 14 1017 82 10000 8.7 120 23:22 06.09.2019
2392 Clear 15 1017 76 10000 8.7 120 22:58 06.09.2019
2393 Clear 15 1017 76 10000 8.7 120 22:58 06.09.2019
2394 Clear 15 1017 76 10000 8.7 120 22:38 06.09.2019
2395 Clear 15 1018 71 10000 7.7 120 22:19 06.09.2019
2396 Clear 15 1018 71 10000 7.7 120 21:57 06.09.2019
2397 Clear 15 1018 71 10000 7.7 120 21:39 06.09.2019
2398 Clear 15 1018 71 10000 7.7 120 21:39 06.09.2019
2399 Clear 15 1019 67 10000 7.7 120 21:20 06.09.2019
2400 Clear 15 1019 67 10000 7.7 120 20:57 06.09.2019
2401 Clear 16 1019 67 10000 7.7 120 20:38 06.09.2019
2402 Clouds 15 1020 67 10000 5.7 90 20:19 06.09.2019
2403 Clouds 15 1020 67 10000 5.7 90 19:55 06.09.2019
2404 Clouds 15 1020 67 10000 5.7 90 19:37 06.09.2019
2405 Clouds 14 1021 71 10000 7.2 100 19:18 06.09.2019
2406 Clouds 14 1021 71 10000 7.2 100 18:41 06.09.2019
2407 Clouds 14 1022 71 10000 5.7 100 18:23 06.09.2019
2408 Clouds 14 1022 71 10000 5.7 100 17:58 06.09.2019
2409 Clouds 14 1022 71 10000 5.7 100 17:37 06.09.2019
2410 Clouds 13 1023 71 10000 6.2 90 17:19 06.09.2019
2411 Clouds 13 1023 71 10000 6.2 90 16:39 06.09.2019
2412 Clouds 12 1023 76 10000 7.7 100 16:18 06.09.2019
2413 Clouds 13 1023 76 10000 7.7 100 15:42 06.09.2019
2414 Clouds 12 1023 76 10000 7.7 100 15:23 06.09.2019
2415 Clouds 11 1024 81 10000 8.2 100 14:48 06.09.2019
2416 Clouds 10 1024 81 10000 7.2 100 14:20 06.09.2019
2417 Clouds 10 1024 81 10000 7.2 100 13:55 06.09.2019
2418 Clouds 9 1024 81 10000 7.2 100 13:37 06.09.2019
2419 Clouds 9 1023 81 10000 6.2 90 13:18 06.09.2019
2420 Clouds 8 1023 81 10000 6.2 90 12:38 06.09.2019
2421 Clear 8 1024 81 10000 5.7 80 12:18 06.09.2019
2422 Clear 8 1024 81 10000 5.7 80 11:43 06.09.2019
2423 Clouds 9 1025 81 10000 5.7 70 11:24 06.09.2019
2424 Clouds 9 1025 81 10000 5.7 70 10:58 06.09.2019
2425 Clouds 9 1025 81 10000 5.7 70 10:40 06.09.2019
2426 Clear 9 1026 87 10000 6.7 70 10:21 06.09.2019
2427 Clear 9 1026 87 10000 6.7 70 09:40 06.09.2019
2428 Clear 9 1026 76 10000 7.7 60 09:21 06.09.2019
2429 Clear 9 1026 76 10000 7.7 60 08:57 06.09.2019
2430 Clear 9 1026 76 10000 7.7 60 08:39 06.09.2019
2431 Clear 9 1026 76 10000 7.7 60 08:39 06.09.2019
2432 Clear 9 1027 76 10000 7.2 70 08:20 06.09.2019
2433 Clear 9 1027 76 10000 7.2 70 07:45 06.09.2019
2434 Clear 9 1027 76 10000 7.2 70 07:27 06.09.2019
2435 Clear 9 1027 76 10000 7.2 70 06:56 06.09.2019
2436 Clear 9 1028 76 10000 6.7 80 05:58 06.09.2019
2437 Clear 9 1028 76 10000 6.7 80 05:58 06.09.2019
2438 Clear 9 1028 81 10000 7.7 90 05:29 06.09.2019
2439 Clear 9 1028 81 10000 7.7 90 04:42 06.09.2019
2440 Clouds 8 1028 76 10000 8.2 90 03:49 06.09.2019
2441 Clouds 8 1028 76 10000 8.7 110 01:53 06.09.2019
2442 Clouds 9 1028 76 10000 8.2 110 00:40 06.09.2019
2443 Clouds 9 1028 71 10000 8.2 110 23:44 05.09.2019
2444 Clouds 10 1028 71 10000 8.2 110 23:25 05.09.2019
2445 Clouds 10 1029 66 10000 8.2 120 22:56 05.09.2019
2446 Clouds 10 1029 66 10000 8.2 120 22:56 05.09.2019
2447 Clouds 10 1029 66 10000 8.2 120 22:37 05.09.2019
2448 Clouds 10 1029 61 10000 7.7 110 22:19 05.09.2019
2449 Clouds 10 1029 61 10000 7.7 110 21:56 05.09.2019
2450 Clouds 11 1029 61 10000 7.7 110 21:37 05.09.2019
2451 Clouds 11 1030 61 10000 7.7 100 21:19 05.09.2019
2452 -273 0 0 0 0 0 20:55 05.09.2019
2453 Clouds 11 1030 61 10000 7.7 100 20:36 05.09.2019
2454 Clouds 11 1031 61 10000 8.2 100 20:18 05.09.2019
2455 Clouds 11 1031 61 10000 8.2 100 19:42 05.09.2019
2456 Clouds 10 1031 61 10000 8.2 100 19:23 05.09.2019
2457 Clouds 11 1031 61 10000 8.2 100 18:57 05.09.2019
2458 Clouds 11 1031 61 10000 8.2 100 18:57 05.09.2019
2459 Clouds 11 1032 57 10000 7.7 110 18:39 05.09.2019
2460 Clouds 10 1033 57 10000 7.7 80 18:19 05.09.2019
2461 Clouds 10 1033 57 10000 7.7 80 17:41 05.09.2019
2462 Clouds 10 1033 57 10000 7.7 80 17:22 05.09.2019
2463 Clouds 10 1033 57 10000 6.7 80 16:58 05.09.2019
2464 Clouds 10 1033 57 10000 6.7 80 16:40 05.09.2019
2465 Clouds 9 1033 61 10000 7.2 80 16:20 05.09.2019
2466 Clouds 9 1033 61 10000 7.2 80 15:56 05.09.2019
2467 Clouds 9 1033 61 10000 7.2 80 15:37 05.09.2019
2468 Clouds 9 1033 61 10000 7.2 80 15:37 05.09.2019
2469 Clouds 9 1033 66 10000 6.7 60 15:18 05.09.2019
2470 Clouds 8 1033 66 10000 6.7 60 14:42 05.09.2019
2471 Clouds 8 1033 66 10000 6.7 60 14:20 05.09.2019
2472 Clouds 7 1033 66 10000 6.7 60 13:44 05.09.2019
2473 Clouds 6 1033 66 10000 5.1 70 13:23 05.09.2019
2474 Clouds 6 1033 66 10000 5.1 70 12:54 05.09.2019
2475 Clouds 6 1033 66 10000 5.1 70 12:36 05.09.2019
2476 Clouds 6 1033 66 10000 5.1 70 12:36 05.09.2019
2477 Clouds 6 1033 66 10000 5.1 70 12:36 05.09.2019
2478 Clouds 6 1033 66 10000 5.1 70 12:36 05.09.2019
2479 Clouds 6 1033 66 10000 3.1 60 12:18 05.09.2019
2480 Clouds 6 1033 66 10000 3.1 60 11:43 05.09.2019
2481 Clouds 6 1033 65 10000 4.6 130 11:20 05.09.2019
2482 Clouds 5 1033 65 10000 4.6 130 10:42 05.09.2019
2483 Clouds 6 1033 65 10000 4.6 130 10:23 05.09.2019
2484 Clouds 6 1033 70 10000 3.1 150 09:58 05.09.2019
2485 Clouds 6 1033 70 10000 3.1 150 09:40 05.09.2019
2486 Clouds 5 1033 52 10000 1.5 150 09:19 05.09.2019
2487 Clouds 5 1033 52 10000 1.5 150 08:46 05.09.2019
2488 Clouds 5 1033 52 10000 1.5 150 08:46 05.09.2019
2489 Clouds 5 1033 52 10000 1.5 150 08:27 05.09.2019
2490 Clouds 5 1033 49 10000 3.1 140 07:46 05.09.2019
2491 Clouds 6 1033 49 10000 3.1 140 07:28 05.09.2019
2492 Clear 6 1033 45 10000 4.6 140 06:58 05.09.2019
2493 Clear 7 1033 45 10000 4.6 140 06:32 05.09.2019
2494 Clouds 7 1033 49 10000 4.1 140 05:51 05.09.2019
2495 Clouds 7 1033 49 10000 4.1 140 05:32 05.09.2019
2496 Clouds 7 1033 45 10000 3.6 140 04:53 05.09.2019
2497 Clouds 7 1033 45 10000 3.6 140 04:28 05.09.2019
2498 Clear 8 1033 45 10000 3.1 130 03:40 05.09.2019
2499 Clear 8 1032 49 10000 3.1 130 02:51 05.09.2019
2500 Clear 8 1032 49 10000 3.1 130 02:27 05.09.2019
2501 Clear 9 1031 39 10000 2.6 150 01:37 05.09.2019
2502 Clear 9 1031 39 10000 2.6 150 01:37 05.09.2019
2503 Clear 10 1030 39 10000 2.6 150 00:44 05.09.2019
2504 Clouds 10 1030 37 10000 2.1 180 00:21 05.09.2019
2505 Clouds 10 1030 37 10000 2.1 180 23:55 04.09.2019
2506 Clouds 11 1030 37 10000 2.1 180 23:36 04.09.2019
2507 Clouds 11 1030 32 10000 3.6 150 23:18 04.09.2019
2508 Clouds 12 1030 32 10000 3.6 150 22:40 04.09.2019
2509 Clouds 12 1030 32 10000 2.6 200 22:19 04.09.2019
2510 Clouds 12 1030 32 10000 2.6 200 21:40 04.09.2019
2511 Clear 12 1029 32 10000 3.6 170 21:20 04.09.2019
2512 Clear 12 1029 32 10000 3.6 170 20:56 04.09.2019
2513 Clear 12 1029 32 10000 3.6 170 20:56 04.09.2019
2514 Clear 12 1029 32 10000 3.6 170 20:38 04.09.2019
2515 Clear 12 1030 32 10000 3.6 190 20:19 04.09.2019
2516 Clear 12 1030 32 10000 3.6 190 19:56 04.09.2019
2517 Clear 12 1030 32 10000 3.6 190 19:37 04.09.2019
2518 Clear 12 1030 32 10000 3.6 190 19:19 04.09.2019
2519 Clouds 11 1031 39 10000 4.1 150 18:38 04.09.2019
2520 Clouds 11 1031 46 10000 2.6 170 18:19 04.09.2019
2521 Clouds 10 1031 46 10000 2.6 170 17:42 04.09.2019
2522 Clouds 10 1031 46 10000 2.6 170 17:42 04.09.2019
2523 Clouds 10 1031 46 10000 2.6 170 17:23 04.09.2019
2524 Clouds 10 1031 46 10000 2.6 170 17:23 04.09.2019
2525 Clear 9 1031 39 10000 2.6 190 16:58 04.09.2019
2526 Clear 9 1031 39 10000 2.6 190 16:40 04.09.2019
2527 Clear 9 1031 52 10000 2.1 200 16:21 04.09.2019
2528 Clear 8 1031 52 10000 2.1 200 15:55 04.09.2019
2529 Clear 8 1031 52 10000 2.1 200 15:37 04.09.2019
2530 Clear 7 1030 54 10000 2.1 200 15:18 04.09.2019
2531 Clear 6 1030 54 10000 2.1 200 14:54 04.09.2019
2532 Clear 6 1030 54 10000 2.1 200 14:36 04.09.2019
2533 Clear 4 1029 65 10000 1.5 190 14:18 04.09.2019
2534 Clear 4 1029 65 10000 1.5 190 13:39 04.09.2019
2535 Clear 3 1028 65 10000 1.5 200 13:21 04.09.2019
2536 Clear 3 1028 65 10000 1.5 200 12:46 04.09.2019
2537 Clear 3 1028 65 10000 1.5 200 12:27 04.09.2019
2538 Clear 3 1028 65 10000 1.5 200 12:27 04.09.2019
2539 Clear 3 1027 65 10000 2.1 190 11:59 04.09.2019
2540 Clear 3 1027 65 10000 2.1 190 11:40 04.09.2019
2541 Clear 3 1027 60 10000 2.6 190 11:21 04.09.2019
2542 Clear 3 1027 60 10000 2.6 190 10:57 04.09.2019
2543 Clear 3 1027 60 10000 2.6 190 10:38 04.09.2019
2544 Clear 3 1027 56 10000 2.1 200 10:20 04.09.2019
2545 Clear 4 1027 56 10000 2.1 200 09:45 04.09.2019
2546 Clear 4 1027 52 10000 2.1 190 09:21 04.09.2019
2547 Clear 4 1027 52 10000 2.1 190 08:43 04.09.2019
2548 Clear 4 1027 52 10000 2.1 190 08:24 04.09.2019
2549 Clear 5 1026 45 10000 3.6 180 07:59 04.09.2019
2550 Clear 5 1026 45 10000 3.6 180 07:36 04.09.2019
2551 Clear 5 1025 52 10000 2.1 270 06:58 04.09.2019
2552 Clear 6 1025 31 10000 5.1 230 06:38 04.09.2019
2553 Clear 7 1024 31 10000 2.6 290 04:55 04.09.2019
2554 Clear 7 1024 34 10000 2.1 280 04:22 04.09.2019
2555 Clear 8 1023 29 10000 2.1 280 02:51 04.09.2019
2556 Clear 9 1023 45 10000 2.6 250 01:20 04.09.2019
2557 Clear 10 1022 25 10000 2.6 270 00:41 04.09.2019
2558 Clear 11 1021 24 10000 3.6 270 00:22 04.09.2019
2559 Clear 10 1022 27 10000 5.1 250 00:22 04.09.2019
2560 Clear 11 1021 24 10000 3.6 270 23:48 03.09.2019
2561 Clear 12 1021 24 10000 3.6 270 23:26 03.09.2019
2562 Clear 13 1021 26 10000 3.6 260 22:41 03.09.2019
2563 Clear 13 1021 26 10000 5.1 250 22:23 03.09.2019
2564 Clear 13 1021 26 10000 5.1 250 21:57 03.09.2019
2565 Clear 13 1021 26 10000 5.1 250 21:57 03.09.2019
2566 Clear 13 1021 26 10000 5.1 250 21:38 03.09.2019
2567 Clear 13 1022 27 10000 3.6 250 21:20 03.09.2019
2568 Clear 13 1022 27 10000 3.6 250 20:56 03.09.2019
2569 Clear 12 1022 27 10000 3.6 250 20:36 03.09.2019
2570 Clear 12 1023 34 10000 5.1 250 20:18 03.09.2019
2571 Clear 12 1023 34 10000 5.1 250 19:43 03.09.2019
2572 Clear 12 1023 34 10000 5.1 250 19:20 03.09.2019
2573 Clear 12 1024 62 10000 3.6 250 18:57 03.09.2019
2574 Clear 11 1024 62 10000 3.6 250 18:38 03.09.2019
2575 Clear 11 1024 34 10000 6.2 230 18:19 03.09.2019
2576 Clear 10 1024 40 10000 2.1 0 17:43 03.09.2019
2577 Clear 10 1024 40 10000 2.1 0 17:43 03.09.2019
2578 Clear 10 1025 45 10000 2.6 250 17:23 03.09.2019
2579 Clear 9 1025 45 10000 2.6 250 17:00 03.09.2019
2580 Clear 9 1025 45 10000 2.6 250 16:41 03.09.2019
2581 Clear 8 1025 52 10000 2.6 210 16:22 03.09.2019
2582 Clear 8 1025 52 10000 2.6 210 15:42 03.09.2019
2583 Clear 6 1024 60 10000 2.1 200 15:22 03.09.2019
2584 Clear 6 1024 60 10000 2.1 200 14:59 03.09.2019
2585 Clear 5 1024 60 10000 2.1 200 14:41 03.09.2019
2586 Clear 5 1024 60 10000 2.1 200 14:41 03.09.2019
2587 Clear 4 1024 51 10000 2.1 0 14:21 03.09.2019
2588 Clear 3 1024 51 10000 2.1 0 13:58 03.09.2019
2589 Clear 3 1024 51 10000 2.1 0 13:38 03.09.2019
2590 Clear 3 1024 51 10000 2.1 0 13:38 03.09.2019
2591 Clear 2 1024 69 10000 2.1 210 13:19 03.09.2019
2592 Clear 2 1024 69 10000 2.1 210 12:57 03.09.2019
2593 Clear 2 1024 69 10000 2.1 210 12:38 03.09.2019
2594 Clear 2 1024 69 10000 2.6 200 12:20 03.09.2019
2595 Clear 2 1024 69 10000 2.6 200 11:42 03.09.2019
2596 Clear 2 1024 69 10000 2.6 200 11:22 03.09.2019
2597 Clear 2 1024 69 10000 2.6 210 10:57 03.09.2019
2598 Clear 2 1024 69 10000 2.6 210 10:39 03.09.2019
2599 Clear 2 1024 54 10000 2.1 220 10:20 03.09.2019
2600 Clear 2 1024 52 10000 2.1 220 09:44 03.09.2019
2601 Clear 2 1024 52 10000 2.1 220 09:25 03.09.2019
2602 Clear 3 1025 75 10000 2.1 210 08:55 03.09.2019
2603 Clear 3 1025 75 10000 2.1 210 08:36 03.09.2019
2604 Clear 3 1025 60 10000 3.1 210 08:18 03.09.2019
2605 Clear 3 1025 60 10000 3.1 210 07:40 03.09.2019
2606 Clear 4 1024 56 10000 2.1 200 07:22 03.09.2019
2607 Clear 4 1025 65 10000 3.6 200 06:45 03.09.2019
2608 Clear 5 1024 56 10000 3.6 190 05:53 03.09.2019
2609 Clear 7 1023 45 10000 4.1 190 03:36 03.09.2019
2610 Clear 7 1022 49 10000 3.1 180 02:44 03.09.2019
2611 Clear 8 1021 46 10000 4.1 190 02:23 03.09.2019
2612 Clear 8 1021 46 10000 4.1 190 01:49 03.09.2019
2613 Clear 9 1021 46 10000 4.1 190 01:29 03.09.2019
2614 Clear 10 1020 53 10000 5.7 180 00:40 03.09.2019
2615 Clear 10 1018 44 10000 3.6 190 00:20 03.09.2019
2616 Clear 11 1018 44 10000 3.6 190 23:40 02.09.2019
2617 Clear 11 1018 44 10000 3.6 190 23:40 02.09.2019
2618 Clouds 12 1017 50 10000 5.1 250 23:20 02.09.2019
2619 Clear 13 1017 33 10000 4.1 200 22:56 02.09.2019
2620 Clear 13 1017 33 10000 4.1 200 22:37 02.09.2019
2621 Clear 14 1016 44 10000 3.6 270 22:19 02.09.2019
2622 Clear 14 1016 44 10000 3.6 270 21:56 02.09.2019
2623 Clear 15 1016 43 10000 3.6 270 21:38 02.09.2019
2624 Clear 16 1016 31 10000 4.1 280 21:19 02.09.2019
2625 Clear 16 1016 31 10000 4.1 280 20:54 02.09.2019
2626 Clear 16 1016 31 10000 4.1 280 20:54 02.09.2019
2627 Clear 16 1017 31 10000 2.1 280 20:36 02.09.2019
2628 Clear 16 1017 31 10000 2.1 280 20:18 02.09.2019
2629 Clear 16 1017 31 10000 2.1 280 19:54 02.09.2019
2630 Clear 16 1017 31 10000 2.1 280 19:36 02.09.2019
2631 Clear 16 1017 31 10000 2.1 280 19:18 02.09.2019
2632 Clear 15 1017 33 10000 3.6 310 18:37 02.09.2019
2633 Clear 15 1017 33 10000 3.6 310 18:37 02.09.2019
2634 Clear 14 1017 47 10000 4.6 350 18:19 02.09.2019
2635 Clear 14 1017 47 10000 4.6 350 17:55 02.09.2019
2636 Clear 14 1017 47 10000 4.6 350 17:37 02.09.2019
2637 Clear 14 1018 54 10000 4.1 350 17:18 02.09.2019
2638 Clear 13 1018 54 10000 4.1 350 16:41 02.09.2019
2639 Clear 12 1018 50 10000 4.6 320 16:20 02.09.2019
2640 Clear 12 1018 50 10000 4.6 320 15:52 02.09.2019
2641 Clear 11 1018 50 10000 4.6 320 15:31 02.09.2019
2642 Mist 10 1018 57 10000 4.6 330 14:59 02.09.2019
2643 Mist 10 1018 57 10000 4.6 330 14:41 02.09.2019
2644 Mist 8 1017 61 10000 3.6 310 14:22 02.09.2019
2645 Mist 8 1017 61 10000 3.6 310 13:59 02.09.2019
2646 Mist 8 1017 61 10000 3.6 310 13:41 02.09.2019
2647 Clear 7 1017 52 10000 2.6 310 13:22 02.09.2019
2648 Clear 6 1017 52 10000 2.6 310 12:45 02.09.2019
2649 Clear 6 1017 52 10000 2.6 310 12:45 02.09.2019
2650 Clear 5 1017 52 10000 2.6 310 12:26 02.09.2019
2651 Clear 5 1017 52 10000 2.6 310 11:59 02.09.2019
2652 Clear 5 1017 52 10000 2.6 310 11:40 02.09.2019
2653 Clear 6 1017 57 10000 2.6 320 11:21 02.09.2019
2654 Clear 6 1017 57 10000 2.6 320 10:58 02.09.2019
2655 Clear 6 1017 57 10000 2.6 320 10:39 02.09.2019
2656 Clear 6 1017 49 10000 1 0 10:20 02.09.2019
2657 Clear 6 1017 49 10000 1 0 09:55 02.09.2019
2658 Clear 6 1017 49 10000 1 0 09:37 02.09.2019
2659 Clear 6 1018 45 10000 1 0 09:18 02.09.2019
2660 Clear 6 1018 45 10000 1 0 08:39 02.09.2019
2661 Clear 6 1018 45 10000 1 0 08:39 02.09.2019
2662 Clear 6 1018 45 10000 1 0 08:39 02.09.2019
2663 Clear 6 1018 42 10000 1 290 08:18 02.09.2019
2664 Clear 7 1018 42 10000 1 290 07:41 02.09.2019
2665 Clear 7 1018 52 10000 1 250 07:21 02.09.2019
2666 Clear 7 1018 52 10000 1 250 06:45 02.09.2019
2667 Clear 7 1018 75 7000 0.5 0 06:25 02.09.2019
2668 Clear 6 1018 45 10000 1 290 05:48 02.09.2019
2669 Clear 6 1019 39 10000 1 290 05:19 02.09.2019
2670 Clear 7 1019 43 10000 1 0 04:20 02.09.2019
2671 Clear 9 1019 37 10000 1 0 01:46 02.09.2019
2672 Clear 10 1019 34 10000 1.5 190 00:49 02.09.2019
2673 Clear 10 1019 34 10000 1.5 190 00:30 02.09.2019
2674 Clear 11 1019 30 10000 2.6 210 23:45 01.09.2019
2675 Clear 12 1019 30 10000 2.6 210 23:23 01.09.2019
2676 Clear 13 1019 28 10000 3.6 210 22:59 01.09.2019
2677 Clear 13 1019 28 10000 3.6 210 22:39 01.09.2019
2678 Clear 13 1019 28 10000 3.6 230 22:19 01.09.2019
2679 Clear 13 1019 28 10000 3.6 230 21:57 01.09.2019
2680 Clear 13 1019 28 10000 3.6 230 21:38 01.09.2019
2681 Clear 14 1020 28 10000 4.1 250 21:20 01.09.2019
2682 Clear 13 1020 28 10000 4.1 250 20:56 01.09.2019
2683 Clear 14 1020 28 10000 4.1 250 20:36 01.09.2019
2684 Clouds 13 1021 30 10000 3.6 230 20:18 01.09.2019
2685 Clouds 14 1021 30 10000 3.6 230 19:55 01.09.2019
2686 Clouds 14 1021 30 10000 3.6 230 19:55 01.09.2019
2687 Clouds 14 1021 30 10000 3.6 230 19:37 01.09.2019
2688 Clouds 13 1021 30 10000 3.6 230 19:18 01.09.2019
2689 Clouds 13 1021 35 10000 4.6 250 18:41 01.09.2019
2690 Clouds 13 1021 35 10000 4.6 250 18:23 01.09.2019
2691 Clouds 13 1021 35 10000 4.6 250 18:23 01.09.2019
2692 Clear 13 1022 37 10000 4.1 230 17:55 01.09.2019
2693 Clear 13 1022 37 10000 4.1 230 17:36 01.09.2019
2694 Clear 13 1022 37 10000 4.1 230 17:36 01.09.2019
2695 Clear 12 1022 34 10000 3.6 230 17:18 01.09.2019
2696 Clear 12 1022 34 10000 3.6 230 16:39 01.09.2019
2697 Clear 11 1022 34 10000 3.6 210 16:18 01.09.2019
2698 Clear 11 1022 34 10000 3.6 210 15:45 01.09.2019
2699 Clear 10 1022 48 10000 3.6 210 15:26 01.09.2019
2700 Clear 10 1022 46 10000 3.6 210 14:55 01.09.2019
2701 Clear 9 1022 46 10000 3.6 210 14:37 01.09.2019
2702 Clear 9 1021 48 10000 3.6 200 14:18 01.09.2019
2703 Clear 7 1021 48 10000 3.6 200 13:41 01.09.2019
2704 Clear 7 1020 43 10000 3.6 220 13:23 01.09.2019
2705 Clear 6 1020 43 10000 3.6 220 12:45 01.09.2019
2706 Clear 6 1021 45 10000 2.6 230 12:26 01.09.2019
2707 Clear 6 1020 47 10000 2.6 290 11:59 01.09.2019
2708 Clear 6 1020 47 10000 2.6 290 11:39 01.09.2019
2709 Clear 7 1019 43 10000 2.6 270 11:19 01.09.2019
2710 Clear 7 1019 43 10000 2.6 270 10:45 01.09.2019
2711 Clear 7 1019 43 10000 2.1 270 10:23 01.09.2019
2712 Clear 8 1019 43 10000 2.1 270 09:48 01.09.2019
2713 Clear 8 1019 43 10000 2.1 270 09:26 01.09.2019
2714 Clear 8 1019 43 10000 2.1 270 09:26 01.09.2019
2715 Clear 7 1019 53 10000 1 290 08:58 01.09.2019
2716 Clear 7 1019 53 10000 1 290 08:39 01.09.2019
2717 Clear 7 1019 50 10000 1 280 08:20 01.09.2019
2718 Clear 8 1019 50 10000 1 280 07:41 01.09.2019
2719 Clear 8 1020 70 8000 0.5 350 07:21 01.09.2019
2720 Clear 8 1020 46 10000 1 280 06:39 01.09.2019
2721 Clear 9 1020 37 10000 1 260 05:59 01.09.2019
2722 Clear 9 1020 37 10000 1 260 05:59 01.09.2019
2723 Clear 9 1020 81 9000 1.75 247.068 04:43 01.09.2019
2724 Clear 10 1020 35 10000 1 260 03:49 01.09.2019
2725 Clear 11 1020 35 10000 1 260 03:30 01.09.2019
2726 Clear 11 1019 44 10000 2.07 257.552 02:37 01.09.2019
2727 Clear 12 1019 29 10000 1 260 02:19 01.09.2019
2728 Clear 13 1019 29 10000 1 260 01:29 01.09.2019
2729 Clear 15 1019 25 10000 2.1 250 00:55 01.09.2019
2730 Clear 14 1019 44 10000 1 230 00:37 01.09.2019
2731 Clear 15 1018 66 10000 1.5 350 00:18 01.09.2019
2732 Clouds 16 1018 29 10000 4.6 230 23:40 31.08.2019
2733 Clear 17 1018 25 10000 2.6 260 23:20 31.08.2019
2734 Clear 18 1018 25 10000 2.6 260 22:54 31.08.2019
2735 Clear 18 1018 25 10000 2.6 260 22:36 31.08.2019
2736 Clear 18 1018 25 10000 2.6 260 22:36 31.08.2019
2737 Clear 18 1018 25 10000 2.6 260 22:36 31.08.2019
2738 Clear 18 1018 25 10000 3.1 270 22:18 31.08.2019
2739 Clear 17 1018 25 10000 3.1 270 21:41 31.08.2019
2740 Clear 18 1018 25 10000 3.1 270 21:21 31.08.2019
2741 Clear 18 1019 34 10000 2.6 290 20:50 31.08.2019
2742 Clear 18 1019 34 10000 2.6 290 20:31 31.08.2019
2743 Clouds 18 1019 36 10000 3.6 250 19:59 31.08.2019
2744 Clouds 17 1019 36 10000 3.6 250 19:40 31.08.2019
2745 Clouds 17 1019 36 10000 3.6 250 19:21 31.08.2019
2746 Clouds 17 1020 51 10000 2.1 10 18:41 31.08.2019
2747 Clear 17 1020 44 10000 2.1 30 18:21 31.08.2019
2748 Clear 17 1020 44 10000 2.1 30 17:58 31.08.2019
2749 Clear 16 1020 44 10000 2.1 30 17:37 31.08.2019
2750 Clear 16 1020 41 10000 1.5 0 17:19 31.08.2019
2751 Clear 16 1020 41 10000 1.5 0 16:59 31.08.2019
2752 Clear 16 1020 41 10000 1.5 0 16:59 31.08.2019
2753 Clear 16 1020 41 10000 1.5 0 16:40 31.08.2019
2754 Clear 14 1020 47 10000 1.5 200 16:21 31.08.2019
2755 Clear 14 1020 47 10000 1.5 200 15:58 31.08.2019
2756 Clear 12 1020 47 10000 1.5 200 15:37 31.08.2019
2757 Clear 12 1019 54 10000 2.1 190 15:18 31.08.2019
2758 Clear 10 1019 54 10000 2.1 190 14:41 31.08.2019
2759 Clear 9 1018 53 10000 2.1 220 14:22 31.08.2019
2760 Clear 8 1018 53 10000 2.1 220 13:42 31.08.2019
2761 Clear 7 1018 53 10000 2.1 220 13:23 31.08.2019
2762 Clear 6 1017 53 10000 2.1 220 12:59 31.08.2019
2763 Clear 6 1018 93 9000 4.45 194.139 12:39 31.08.2019
2764 Clear 6 1018 81 10000 3.5 236.778 12:20 31.08.2019
2765 Clear 6 1018 81 10000 3.5 236.778 11:55 31.08.2019
2766 Clear 6 1018 81 10000 3.5 236.778 11:37 31.08.2019
2767 Clear 7 1018 93 9000 3.5 236.778 11:18 31.08.2019
2768 Clear 7 1018 93 9000 3.5 236.778 10:42 31.08.2019
2769 Fog 7 1018 93 9000 3.5 236.778 10:19 31.08.2019
2770 Fog 7 1018 50 10000 2.1 220 09:57 31.08.2019
2771 Fog 7 1018 93 9000 2.81 252.539 09:38 31.08.2019
2772 Clear 7 1019 50 10000 1.5 220 09:19 31.08.2019
2773 Clear 7 1019 50 10000 1.5 220 08:42 31.08.2019
2774 Clear 7 1019 50 10000 1.5 220 08:42 31.08.2019
2775 Fog 8 1019 54 10000 1 0 08:23 31.08.2019
2776 Fog 7 1019 54 10000 1 0 07:40 31.08.2019
2777 Clear 7 1019 87 10000 2.4 283.793 07:22 31.08.2019
2778 Clear 8 1019 87 10000 2.4 283.793 06:29 31.08.2019
2779 Clear 9 1018 54 10000 1.5 210 05:59 31.08.2019
2780 Clear 9 1018 54 10000 1.5 210 05:32 31.08.2019
2781 Clear 9 1019 76 10000 1.5 180 04:34 31.08.2019
2782 Clear 10 1018 54 10000 1.5 220 03:45 31.08.2019
2783 Clear 11 1017 54 10000 1 0 02:36 31.08.2019
2784 Clear 11 1017 47 10000 1 0 01:53 31.08.2019
2785 Clear 11 1017 47 10000 1 0 01:33 31.08.2019
2786 Clear 12 1017 62 10000 1.5 230 00:49 31.08.2019
2787 Clear 12 1017 62 10000 1.5 230 00:30 31.08.2019
2788 Clear 14 1016 44 10000 1 0 23:57 30.08.2019
2789 Clear 15 1016 44 10000 1 0 23:38 30.08.2019
2790 Clear 15 1016 38 10000 2.1 170 23:18 30.08.2019
2791 Clear 16 1016 38 10000 2.1 170 22:40 30.08.2019
2792 Clear 16 1016 47 10000 3.6 120 22:22 30.08.2019
2793 Clear 16 1016 47 10000 3.6 120 21:58 30.08.2019
2794 Clear 16 1016 47 10000 3.6 120 21:37 30.08.2019
2795 Clear 15 1016 62 10000 5.1 110 21:19 30.08.2019
2796 Clear 15 1016 62 10000 5.1 110 20:58 30.08.2019
2797 Clear 15 1016 62 10000 5.1 110 20:39 30.08.2019
2798 Clear 15 1017 62 10000 4.1 120 20:20 30.08.2019
2799 Clear 15 1017 62 10000 4.1 120 19:56 30.08.2019
2800 Clear 14 1017 62 10000 4.1 120 19:38 30.08.2019
2801 Clear 14 1017 62 10000 4.1 120 19:19 30.08.2019
2802 Clear 14 1017 67 10000 5.1 100 18:45 30.08.2019
2803 Clear 14 1017 67 10000 5.1 100 18:24 30.08.2019
2804 Clouds 14 1017 67 10000 6.7 110 17:57 30.08.2019
2805 Clouds 14 1017 67 10000 6.7 110 17:39 30.08.2019
2806 Clouds 13 1017 76 10000 5.1 120 17:19 30.08.2019
2807 Clouds 13 1017 76 10000 5.1 120 16:56 30.08.2019
2808 Clouds 13 1017 76 10000 5.1 120 16:38 30.08.2019
2809 Clouds 13 1017 76 10000 5.1 120 16:38 30.08.2019
2810 Clouds 13 1018 82 10000 5.1 130 16:19 30.08.2019
2811 Clouds 13 1018 82 10000 5.1 130 15:39 30.08.2019
2812 Rain 13 1017 82 9000 3.6 130 15:20 30.08.2019
2813 Rain 12 1017 82 9000 3.6 130 14:45 30.08.2019
2814 Rain 12 1017 82 9000 3.6 130 14:26 30.08.2019
2815 Clouds 12 1016 71 10000 3.1 150 13:56 30.08.2019
2816 Clouds 12 1016 71 10000 3.1 150 13:38 30.08.2019
2817 Clear 12 1015 62 10000 4.6 140 13:20 30.08.2019
2818 Clear 12 1015 62 10000 4.6 140 12:44 30.08.2019
2819 Clear 12 1015 58 10000 4.6 140 12:25 30.08.2019
2820 Clear 12 1015 58 10000 4.6 140 11:55 30.08.2019
2821 Clear 12 1015 58 10000 4.6 140 11:37 30.08.2019
2822 Clear 12 1014 54 10000 3.6 140 11:18 30.08.2019
2823 Clear 12 1014 54 10000 3.6 140 10:37 30.08.2019
2824 Clear 12 1014 51 10000 3.6 170 10:19 30.08.2019
2825 Clear 12 1014 51 10000 3.6 170 09:42 30.08.2019
2826 Clear 12 1016 47 10000 2.1 170 09:20 30.08.2019
2827 Clear 12 1016 47 10000 2.1 170 09:20 30.08.2019
2828 Clear 12 1016 47 10000 2.1 170 08:59 30.08.2019
2829 Clear 12 1016 47 10000 2.1 170 08:41 30.08.2019
2830 Clear 12 1016 51 10000 1.5 170 08:22 30.08.2019
2831 Clear 12 1016 51 10000 1.5 170 07:45 30.08.2019
2832 Clear 13 1016 51 10000 1.5 170 07:25 30.08.2019
2833 Clear 12 1016 55 10000 2.1 150 06:49 30.08.2019
2834 Clear 13 1016 55 10000 2.1 150 06:30 30.08.2019
2835 Clear 13 1016 51 10000 1.5 170 05:55 30.08.2019
2836 Clear 13 1016 48 10000 1.5 150 04:53 30.08.2019
2837 Clear 14 1015 48 10000 2.1 190 03:55 30.08.2019
2838 Clear 14 1015 48 10000 2.1 190 03:55 30.08.2019
2839 Clear 14 1015 48 10000 2.1 190 03:33 30.08.2019
2840 Clear 15 1015 48 10000 2.6 190 02:34 30.08.2019
2841 Clear 16 1014 51 10000 2.6 180 01:38 30.08.2019
2842 Clear 16 1013 55 10000 1.5 190 00:46 30.08.2019
2843 Clear 17 1013 82 10000 3.32 209.325 00:18 30.08.2019
2844 Clouds 18 1012 48 10000 3.1 190 23:41 29.08.2019
2845 Clouds 18 1011 49 10000 2.6 200 23:21 29.08.2019
2846 Clouds 19 1011 49 10000 2.6 200 22:44 29.08.2019
2847 Clouds 19 1011 49 10000 2.6 200 22:26 29.08.2019
2848 Clouds 19 1010 49 10000 3.1 190 21:57 29.08.2019
2849 Clouds 19 1010 49 10000 3.1 190 21:39 29.08.2019
2850 Rain 20 1010 52 10000 2.1 190 21:21 29.08.2019
2851 Rain 20 1010 52 10000 2.1 190 21:21 29.08.2019
2852 Rain 20 1010 52 10000 2.1 190 21:21 29.08.2019
2853 Rain 20 1010 52 10000 2.1 190 20:54 29.08.2019
2854 Clouds 20 1010 52 10000 2.1 190 20:36 29.08.2019
2855 Clouds 20 1010 52 10000 2.1 190 20:18 29.08.2019
2856 Clouds 20 1010 46 10000 2.1 180 19:46 29.08.2019
2857 Clouds 20 1010 46 10000 2.1 180 19:25 29.08.2019
2858 Clouds 20 1011 49 10000 1.5 200 18:45 29.08.2019
2859 Clouds 20 1011 49 10000 1.5 200 18:21 29.08.2019
2860 Clear 20 1011 60 10000 1.5 140 17:58 29.08.2019
2861 Clear 20 1011 60 10000 1.5 140 17:39 29.08.2019
2862 Clear 21 1011 60 10000 1.5 140 17:19 29.08.2019
2863 Clear 20 1011 68 10000 1 0 16:57 29.08.2019
2864 Rain 20 1027 62 0 0.89 139 16:39 29.08.2019
2865 Clouds 19 1010 77 10000 1.5 190 16:21 29.08.2019
2866 Clouds 19 1010 77 10000 1.5 190 15:39 29.08.2019
2867 Clouds 19 1009 77 10000 2.1 210 15:21 29.08.2019
2868 Clouds 18 1009 82 10000 3.6 200 14:50 29.08.2019
2869 Clouds 19 1009 77 10000 2.1 210 14:26 29.08.2019
2870 Clouds 19 1007 72 10000 4.6 170 13:59 29.08.2019
2871 Clouds 19 1007 72 10000 4.6 170 13:41 29.08.2019
2872 Clouds 19 1007 83 10000 5.1 200 13:21 29.08.2019
2873 Clouds 20 1006 78 10000 3.6 230 12:59 29.08.2019
2874 Clouds 20 1006 78 10000 3.6 230 12:41 29.08.2019
2875 Rain 20 1007 78 10000 6.7 220 12:22 29.08.2019
2876 Rain 20 1007 78 10000 6.7 220 11:59 29.08.2019
2877 Rain 21 1006 83 8000 3.6 240 11:40 29.08.2019
2878 Thunderstorm 21 1005 88 10000 5.7 270 11:20 29.08.2019
2879 Thunderstorm 21 1005 88 10000 5.7 270 11:20 29.08.2019
2880 Thunderstorm 22 1005 78 10000 9.3 230 10:45 29.08.2019
2881 Thunderstorm 22 1005 78 10000 9.3 230 10:25 29.08.2019
2882 -273 0 0 0 0 0 10:25 29.08.2019
2883 Thunderstorm 22 1003 73 10000 4.6 330 09:57 29.08.2019
2884 Clouds 22 1003 73 10000 5.1 320 09:39 29.08.2019
2885 Clouds 22 1005 77 10000 3.1 330 09:18 29.08.2019
2886 Clouds 22 1005 77 10000 3.1 330 08:41 29.08.2019
2887 Clouds 22 1005 77 10000 3.1 330 08:23 29.08.2019
2888 Clear 22 1005 69 10000 4.6 320 07:53 29.08.2019
2889 Clear 23 1005 69 10000 4.6 320 07:30 29.08.2019
2890 Clear 23 1005 69 10000 4.6 320 06:54 29.08.2019
2891 Clear 23 1005 69 10000 4.6 320 06:54 29.08.2019
2892 Clear 23 1005 69 10000 4.6 320 06:33 29.08.2019
2893 Clear 23 1006 69 10000 5.1 360 05:48 29.08.2019
2894 Clear 23 1006 69 10000 5.7 360 04:51 29.08.2019
2895 Clear 23 1007 64 10000 4.1 360 04:30 29.08.2019
2896 Clear 23 1007 64 10000 4.1 360 03:35 29.08.2019
2897 Clear 23 1006 64 10000 4.1 30 01:52 29.08.2019
2898 Clear 23 1006 64 10000 4.1 30 01:32 29.08.2019
2899 Clear 24 1007 64 10000 4.1 10 00:45 29.08.2019
2900 Clear 24 1008 73 10000 3.1 360 00:21 29.08.2019
2901 Clear 24 1008 61 10000 3.1 10 23:44 28.08.2019
2902 Clear 25 1008 61 10000 3.1 10 23:26 28.08.2019
2903 Clear 25 1008 57 10000 4.1 10 22:59 28.08.2019
2904 Clear 26 1008 57 10000 4.1 10 22:39 28.08.2019
2905 Clear 26 1009 57 10000 4.6 340 22:19 28.08.2019
2906 Clear 26 1009 57 10000 4.6 340 21:59 28.08.2019
2907 Clear 26 1009 57 10000 4.6 340 21:39 28.08.2019
2908 Clear 26 1009 57 10000 4.6 340 21:39 28.08.2019
2909 Clear 26 1010 51 10000 6.2 340 21:21 28.08.2019
2910 Clear 26 1010 51 10000 6.2 340 20:45 28.08.2019
2911 Clear 26 1011 47 10000 5.7 330 20:27 28.08.2019
2912 Clear 26 1011 47 10000 5.7 330 19:59 28.08.2019
2913 Clear 26 1011 47 10000 5.7 330 19:39 28.08.2019
2914 Clear 26 1011 47 10000 5.7 330 19:21 28.08.2019
2915 Clear 26 1012 57 10000 5.1 320 18:42 28.08.2019
2916 Clear 25 1013 60 10000 6.2 340 18:22 28.08.2019
2917 Clear 25 1013 60 10000 6.2 340 17:56 28.08.2019
2918 Clear 24 1013 60 10000 6.2 340 17:37 28.08.2019
2919 Clear 23 1014 82 10000 3.6 350 17:19 28.08.2019
2920 Clear 23 1014 82 10000 3.6 350 17:19 28.08.2019
2921 Clear 22 1014 68 10000 5.1 330 16:42 28.08.2019
2922 Clear 21 1015 77 10000 5.7 340 16:19 28.08.2019
2923 Clear 20 1015 77 10000 5.7 340 15:57 28.08.2019
2924 Clear 20 1015 77 10000 5.7 340 15:36 28.08.2019
2925 Clear 19 1015 88 10000 4.1 350 15:18 28.08.2019
2926 Clear 18 1015 88 10000 4.1 350 14:55 28.08.2019
2927 Clear 18 1015 88 10000 4.1 350 14:37 28.08.2019
2928 Clear 18 1015 88 10000 4.1 350 14:37 28.08.2019
2929 Clear 18 1015 88 10000 3.6 350 14:18 28.08.2019
2930 Clear 17 1015 88 10000 3.6 350 13:56 28.08.2019
2931 Clear 17 1015 88 10000 3.6 350 13:36 28.08.2019
2932 Clear 17 1015 93 10000 3.6 350 13:18 28.08.2019
2933 Clear 16 1015 93 10000 3.6 350 12:40 28.08.2019
2934 Clear 17 1015 93 10000 3.1 350 12:21 28.08.2019
2935 Clear 17 1015 93 10000 3.1 350 11:41 28.08.2019
2936 Clear 17 1015 93 10000 3.1 350 11:22 28.08.2019
2937 Clear 17 1016 93 10000 4.1 350 10:58 28.08.2019
2938 Clear 17 1016 93 10000 4.1 350 10:40 28.08.2019
2939 Clear 17 1016 93 10000 4.1 350 10:20 28.08.2019
2940 Clear 17 1016 93 10000 4.1 350 09:42 28.08.2019
2941 Clear 17 1016 93 10000 4.1 350 09:22 28.08.2019
2942 Clear 17 1017 88 10000 3.6 350 08:57 28.08.2019
2943 Clear 17 1017 88 10000 3.6 350 08:38 28.08.2019
2944 Clear 17 1017 88 10000 2.6 350 08:19 28.08.2019
2945 Clear 17 1017 88 10000 2.6 350 07:38 28.08.2019
2946 Clear 17 1018 88 10000 2.1 360 07:20 28.08.2019
2947 Clear 17 1018 88 10000 2.1 360 06:49 28.08.2019
2948 Clear 17 1018 88 10000 1.5 10 05:59 28.08.2019
2949 Clear 17 1018 88 10000 1.5 10 05:24 28.08.2019
2950 Clouds 17 1019 88 9000 3.6 100 02:18 28.08.2019
2951 Clouds 18 1020 93 9000 4.6 120 01:30 28.08.2019
2952 Clouds 18 1020 93 9000 4.6 120 00:52 28.08.2019
2953 Smoke 18 1019 72 10000 3.1 70 00:33 28.08.2019
2954 Smoke 19 1020 88 10000 5.1 110 23:56 27.08.2019
2955 Smoke 20 1020 88 10000 5.1 110 23:38 27.08.2019
2956 Clear 21 1021 82 10000 4.1 100 23:19 27.08.2019
2957 Clear 22 1021 82 10000 4.1 100 22:41 27.08.2019
2958 Clear 22 1021 82 10000 4.1 100 22:22 27.08.2019
2959 Clear 22 1021 72 10000 5.7 110 21:57 27.08.2019
2960 Clear 22 1021 72 10000 5.7 110 21:38 27.08.2019
2961 Clouds 22 1021 77 10000 4.1 100 21:19 27.08.2019
2962 Clouds 22 1021 77 10000 4.1 100 20:56 27.08.2019
2963 Clouds 22 1021 77 10000 4.1 100 20:56 27.08.2019
2964 Clouds 23 1021 77 10000 4.1 100 20:37 27.08.2019
2965 Clouds 22 1022 82 10000 3.1 90 20:19 27.08.2019
2966 Clouds 23 1022 82 10000 3.1 90 19:43 27.08.2019
2967 Clouds 23 1022 82 10000 3.1 90 19:24 27.08.2019
2968 Clouds 22 1024 77 10000 2.1 70 18:56 27.08.2019
2969 Clouds 22 1024 77 10000 2.1 70 18:36 27.08.2019
2970 Clouds 22 1024 77 10000 2.1 70 18:36 27.08.2019
2971 Clear 22 1024 82 10000 2.1 80 18:18 27.08.2019
2972 Clear 21 1024 82 10000 2.1 80 17:43 27.08.2019
2973 Clear 21 1024 82 10000 2.1 80 17:24 27.08.2019
2974 Clear 21 1024 82 10000 2.6 70 16:49 27.08.2019
2975 Mist 20 1024 88 10000 2.6 80 16:28 27.08.2019
2976 Mist 20 1024 88 10000 2.6 80 15:59 27.08.2019
2977 Mist 19 1024 88 10000 2.6 80 15:40 27.08.2019
2978 Mist 17 1024 93 9000 2.6 110 15:22 27.08.2019
2979 Mist 17 1024 93 9000 2.6 110 14:59 27.08.2019
2980 Mist 16 1024 93 9000 2.6 110 14:41 27.08.2019
2981 Mist 17 1024 93 9000 2.6 110 14:22 27.08.2019
2982 Fog 14 1023 93 7000 1.5 100 13:43 27.08.2019
2983 Fog 14 1023 100 1000 1.5 160 13:24 27.08.2019
2984 Fog 13 1023 93 8000 2.6 120 12:55 27.08.2019
2985 Fog 13 1023 93 8000 2.6 120 12:37 27.08.2019
2986 Fog 13 1022 93 5000 1.5 90 12:18 27.08.2019
2987 Fog 13 1022 93 1500 1.62 35.452 11:43 27.08.2019
2988 Fog 13 1022 93 1500 1.62 35.452 11:24 27.08.2019
2989 Mist 13 1022 100 50 1.62 35.452 10:42 27.08.2019
2990 Fog 13 1022 100 900 1.62 35.452 10:21 27.08.2019
2991 Fog 13 1022 100 900 1.62 35.452 09:58 27.08.2019
2992 Fog 14 1021 100 4700 0.5 60 09:38 27.08.2019
2993 Clouds 14 1021 87 6000 0.98 25.966 09:20 27.08.2019
2994 Fog 14 1021 87 600 0.98 25.966 08:46 27.08.2019
2995 Fog 14 1021 87 600 0.98 25.966 08:27 27.08.2019
2996 Fog 14 1021 87 600 0.98 25.966 08:27 27.08.2019
2997 Fog 14 1021 93 8000 0.98 25.966 07:59 27.08.2019
2998 Fog 14 1021 100 500 1 120 07:38 27.08.2019
2999 Fog 14 1020 100 1000 1.5 120 07:19 27.08.2019
3000 Fog 14 1021 93 3000 1 110 06:50 27.08.2019
3001 Fog 14 1021 93 3000 1 110 06:50 27.08.2019
3002 Fog 15 1020 100 5000 1 140 06:21 27.08.2019
3003 Fog 15 1020 93 10000 1 230 05:29 27.08.2019
3004 Fog 16 1019 88 10000 1 240 04:20 27.08.2019
3005 Fog 16 1019 88 10000 1 240 03:31 27.08.2019
3006 Clear 17 1019 82 10000 1 280 02:22 27.08.2019
3007 Clear 18 1018 88 10000 1 340 01:34 27.08.2019
3008 Clear 19 1018 82 10000 1 0 00:50 27.08.2019
3009 Clear 19 1018 82 10000 1 0 00:29 27.08.2019
3010 Haze 20 1017 82 10000 3.1 30 23:46 26.08.2019
3011 Haze 20 1017 77 10000 2.6 50 23:26 26.08.2019
3012 Haze 21 1017 73 10000 3.6 20 22:59 26.08.2019
3013 Haze 21 1017 73 10000 3.6 20 22:37 26.08.2019
3014 Haze 22 1017 73 10000 3.6 20 22:19 26.08.2019
3015 Clouds 22 1017 68 10000 2.1 360 21:40 26.08.2019
3016 Clouds 22 1017 68 10000 2.1 360 21:22 26.08.2019
3017 Clouds 22 1017 68 10000 2.1 340 20:59 26.08.2019
3018 Clouds 22 1017 68 10000 2.1 340 20:41 26.08.2019
3019 Clouds 22 1017 68 10000 2.1 340 20:20 26.08.2019
3020 Clouds 22 1017 68 10000 2.6 320 19:58 26.08.2019
3021 Clouds 22 1017 68 10000 2.6 320 19:58 26.08.2019
3022 Clouds 22 1017 68 10000 2.6 320 19:40 26.08.2019
3023 Clouds 22 1017 68 10000 2.6 320 19:19 26.08.2019
3024 Clouds 22 1018 64 10000 3.6 290 18:40 26.08.2019
3025 Clouds 22 1018 64 10000 3.6 290 18:21 26.08.2019
3026 Clouds 22 1018 64 10000 3.6 290 18:21 26.08.2019
3027 Clear 21 1019 72 10000 2.1 270 17:59 26.08.2019
3028 Clear 21 1019 72 10000 2.1 270 17:41 26.08.2019
3029 Clear 21 1019 72 10000 2.1 270 17:19 26.08.2019
3030 Clouds 20 1019 77 10000 1.5 290 16:56 26.08.2019
3031 Clouds 20 1019 77 10000 1.5 290 16:56 26.08.2019
3032 Clouds 20 1019 77 10000 1.5 290 16:38 26.08.2019
3033 Clouds 20 1019 77 10000 1.5 290 16:18 26.08.2019
3034 Clouds 20 1019 77 10000 1.5 290 16:18 26.08.2019
3035 Mist 18 1019 87 10000 2.1 330 15:42 26.08.2019
3036 Mist 16 1019 93 8000 1.5 350 15:22 26.08.2019
3037 Mist 16 1019 93 8000 1.5 350 14:56 26.08.2019
3038 Mist 15 1019 93 10000 1.5 320 14:37 26.08.2019
3039 Mist 14 1019 93 10000 1.5 320 14:18 26.08.2019
3040 Fog 13 1018 93 9000 1.5 0 13:40 26.08.2019
3041 Fog 12 1018 93 9000 1.5 0 13:21 26.08.2019
3042 Clouds 12 1018 93 8000 1.5 290 12:43 26.08.2019
3043 Clouds 12 1018 93 8000 1.5 290 12:43 26.08.2019
3044 Clouds 12 1018 93 8000 1.5 290 12:25 26.08.2019
3045 Clouds 13 1018 93 9000 1.5 320 11:56 26.08.2019
3046 Clouds 13 1018 93 9000 1.5 320 11:36 26.08.2019
3047 Clouds 13 1018 93 9000 1.5 320 11:18 26.08.2019
3048 Clouds 13 1017 93 10000 1.5 350 10:44 26.08.2019
3049 Clouds 13 1017 93 10000 1.5 350 10:22 26.08.2019
3050 Clouds 13 1017 93 10000 1.5 350 10:22 26.08.2019
3051 Clouds 13 1017 87 10000 1 350 09:57 26.08.2019
3052 Clouds 13 1017 87 10000 1 350 09:39 26.08.2019
3053 Clouds 13 1017 87 10000 1 350 09:19 26.08.2019
3054 Clouds 13 1013 93 10000 1 330 08:42 26.08.2019
3055 Clouds 13 1013 93 10000 1 330 08:24 26.08.2019
3056 Clear 14 1018 93 10000 1 0 07:59 26.08.2019
3057 Clear 14 1018 93 10000 1 0 07:40 26.08.2019
3058 Clear 14 1018 93 10000 1 0 07:21 26.08.2019
3059 Clear 14 1018 87 10000 3.6 50 06:42 26.08.2019
3060 Clear 14 1019 87 10000 3.1 80 06:22 26.08.2019
3061 Clear 14 1019 87 10000 3.1 80 05:49 26.08.2019
3062 Clear 14 1018 82 10000 1.5 150 04:28 26.08.2019
3063 Clear 15 1019 87 10000 2.6 110 02:53 26.08.2019
3064 Clear 15 1018 87 10000 3.6 120 01:35 26.08.2019
3065 Clear 15 1018 87 10000 3.1 120 00:53 26.08.2019
3066 Clear 15 1018 87 10000 3.1 120 00:28 26.08.2019
3067 Clear 16 1018 87 10000 3.6 120 23:59 25.08.2019
3068 Clear 16 1018 87 10000 3.6 120 23:40 25.08.2019
3069 Clear 16 1018 87 10000 3.6 120 23:18 25.08.2019
3070 Clear 16 1018 77 10000 4.6 120 22:55 25.08.2019
3071 Clear 17 1018 77 10000 4.6 120 22:36 25.08.2019
3072 Clear 17 1018 77 10000 4.6 120 22:18 25.08.2019
3073 Clear 18 1018 82 10000 4.1 100 21:54 25.08.2019
3074 Clear 18 1018 82 10000 4.1 100 21:54 25.08.2019
3075 Clear 17 1018 82 10000 4.1 100 21:36 25.08.2019
3076 Clear 18 1018 82 10000 4.1 100 21:18 25.08.2019
3077 Clouds 18 1018 72 10000 3.6 100 20:39 25.08.2019
3078 Clouds 18 1018 72 10000 3.6 100 20:19 25.08.2019
3079 Clouds 17 1019 77 10000 3.1 100 19:55 25.08.2019
3080 Clouds 17 1019 77 10000 3.1 100 19:37 25.08.2019
3081 Clouds 17 1019 77 10000 3.1 100 19:37 25.08.2019
3082 Clouds 17 1019 77 10000 3.1 100 19:18 25.08.2019
3083 Clear 16 1020 82 10000 3.1 90 18:55 25.08.2019
3084 Clear 17 1020 82 10000 3.1 90 18:37 25.08.2019
3085 Clear 17 1021 76 10000 3.6 70 18:18 25.08.2019
3086 Clear 16 1021 76 10000 3.6 70 17:40 25.08.2019
3087 Clear 17 1021 76 10000 3.6 70 17:21 25.08.2019
3088 Clear 16 1021 76 10000 3.6 80 16:43 25.08.2019
3089 Clear 16 1021 76 10000 3.6 80 16:23 25.08.2019
3090 Clear 14 1021 82 10000 4.6 60 15:57 25.08.2019
3091 Clear 14 1021 82 10000 4.6 60 15:39 25.08.2019
3092 Clear 14 1021 82 10000 4.6 60 15:20 25.08.2019
3093 Clear 13 1021 82 10000 4.6 70 14:40 25.08.2019
3094 Clear 13 1021 82 10000 4.6 70 14:22 25.08.2019
3095 Clear 11 1021 76 10000 4.6 60 13:46 25.08.2019
3096 Clear 11 1021 76 10000 4.6 60 13:22 25.08.2019
3097 Clear 11 1021 87 10000 3.6 60 12:56 25.08.2019
3098 Clear 11 1021 87 10000 3.6 60 12:38 25.08.2019
3099 Clear 11 1021 87 10000 3.6 60 12:20 25.08.2019
3100 Clear 11 1021 87 10000 3.6 60 12:20 25.08.2019
3101 Clear 11 1021 82 10000 3.1 70 11:56 25.08.2019
3102 Clear 11 1021 82 10000 3.1 70 11:36 25.08.2019
3103 Clear 11 1021 82 10000 3.1 70 11:18 25.08.2019
3104 Clear 11 1021 82 10000 3.1 70 11:18 25.08.2019
3105 Clear 11 1021 82 10000 3.6 70 10:40 25.08.2019
3106 Clear 11 1021 82 10000 3.6 70 10:21 25.08.2019
3107 Clear 11 1021 82 10000 5.7 60 09:57 25.08.2019
3108 Clear 11 1021 82 10000 5.7 60 09:39 25.08.2019
3109 Clear 12 1021 82 10000 5.7 60 09:20 25.08.2019
3110 Clear 12 1021 82 10000 4.1 90 08:42 25.08.2019
3111 Clear 12 1021 82 10000 4.1 90 08:22 25.08.2019
3112 Clear 12 1022 82 10000 4.6 80 07:43 25.08.2019
3113 Clear 12 1022 82 10000 4.6 80 07:22 25.08.2019
3114 Clear 13 1021 71 10000 4.1 70 06:23 25.08.2019
3115 Clear 13 1021 71 10000 5.1 70 04:45 25.08.2019
3116 Clear 14 1022 72 10000 3.6 70 03:36 25.08.2019
3117 Clear 14 1022 72 10000 4.6 60 02:40 25.08.2019
3118 Clear 14 1022 82 10000 3.6 60 01:35 25.08.2019
3119 Clear 14 1022 77 10000 3.1 80 00:40 25.08.2019
3120 Clear 15 1021 77 10000 3.1 80 00:21 25.08.2019
3121 Clear 15 1021 77 10000 3.1 80 23:52 24.08.2019
3122 Clear 16 1021 77 10000 3.1 80 23:22 24.08.2019
3123 Clear 16 1021 77 10000 3.1 80 23:22 24.08.2019
3124 Clear 17 1022 72 10000 3.1 90 22:55 24.08.2019
3125 Clear 17 1022 72 10000 3.1 90 22:37 24.08.2019
3126 Clear 18 1022 72 10000 3.1 90 22:19 24.08.2019
3127 Clouds 18 1022 72 10000 2.6 70 21:55 24.08.2019
3128 Clouds 18 1022 72 10000 2.6 70 21:36 24.08.2019
3129 Clouds 17 1022 72 10000 2.6 70 21:18 24.08.2019
3130 Clear 18 1022 59 10000 4.1 30 20:42 24.08.2019
3131 Clear 18 1022 59 10000 4.1 30 20:21 24.08.2019
3132 Clear 18 1022 63 10000 4.1 20 19:59 24.08.2019
3133 Clear 17 1022 63 10000 4.1 20 19:41 24.08.2019
3134 Clear 17 1022 63 10000 4.1 20 19:22 24.08.2019
3135 Clear 17 1023 63 10000 4.1 50 18:59 24.08.2019
3136 Clear 17 1023 63 10000 4.1 50 18:38 24.08.2019
3137 Clear 17 1023 63 10000 4.1 50 18:19 24.08.2019
3138 Clear 16 1024 76 10000 3.1 40 17:43 24.08.2019
3139 Clear 16 1024 76 10000 3.1 40 17:24 24.08.2019
3140 Clear 15 1025 71 10000 3.1 20 16:44 24.08.2019
3141 Clear 14 1025 76 10000 2.6 30 16:20 24.08.2019
3142 Clear 13 1025 76 10000 2.6 30 15:57 24.08.2019
3143 Clear 14 1025 76 10000 2.6 30 15:38 24.08.2019
3144 Clear 13 1025 76 10000 2.6 30 15:20 24.08.2019
3145 Clear 13 1024 71 10000 3.1 30 14:42 24.08.2019
3146 Clear 12 1024 71 10000 3.1 30 14:21 24.08.2019
3147 Clear 11 1024 76 10000 2.6 20 13:56 24.08.2019
3148 Clear 10 1024 76 10000 2.6 20 13:37 24.08.2019
3149 Clear 10 1024 81 10000 2.6 10 13:18 24.08.2019
3150 Clear 9 1024 81 10000 2.6 10 12:42 24.08.2019
3151 Clear 9 1024 87 10000 2.6 50 12:24 24.08.2019
3152 Clear 8 1023 87 10000 1.5 50 11:56 24.08.2019
3153 Clear 9 1023 87 10000 1.5 50 11:38 24.08.2019
3154 Clear 9 1023 87 10000 1.5 50 11:18 24.08.2019
3155 Clear 8 1023 93 10000 3.1 50 10:43 24.08.2019
3156 Clear 8 1023 93 10000 3.1 50 10:22 24.08.2019
3157 Clear 8 1023 87 10000 1.5 50 09:44 24.08.2019
3158 Clear 8 1023 87 10000 1.5 50 09:20 24.08.2019
3159 Clear 9 1023 81 10000 2.6 50 08:44 24.08.2019
3160 Clear 9 1023 71 10000 2.6 30 08:26 24.08.2019
3161 Clear 10 1024 76 10000 3.1 50 07:54 24.08.2019
3162 Clear 10 1024 76 10000 3.1 50 07:54 24.08.2019
3163 Clear 10 1024 76 10000 3.1 50 07:33 24.08.2019
3164 Clear 10 1024 76 10000 2.6 60 06:58 24.08.2019
3165 Clear 10 1024 76 10000 2.6 60 06:23 24.08.2019
3166 Clear 10 1024 76 10000 3.1 60 05:40 24.08.2019
3167 Clear 12 1024 82 10000 4.6 100 03:51 24.08.2019
3168 Clear 12 1024 82 10000 4.6 100 03:32 24.08.2019
3169 Clear 12 1023 81 10000 4.1 110 02:23 24.08.2019
3170 Clear 12 1023 71 10000 4.1 110 01:29 24.08.2019
3171 Clear 13 1023 66 10000 4.1 110 00:49 24.08.2019
3172 Clear 13 1023 66 10000 4.1 110 00:24 24.08.2019
3173 Clear 14 1024 66 10000 4.1 110 23:49 23.08.2019
3174 Clear 14 1024 66 10000 4.1 110 23:23 23.08.2019
3175 Clear 15 1024 62 10000 4.1 110 22:58 23.08.2019
3176 Clear 15 1024 62 10000 4.1 110 22:40 23.08.2019
3177 Clear 16 1024 62 10000 4.1 110 22:20 23.08.2019
3178 Clear 17 1024 51 10000 2.6 100 21:37 23.08.2019
3179 Clear 17 1024 51 10000 2.6 100 21:19 23.08.2019
3180 Clear 17 1025 51 10000 2.1 70 20:53 23.08.2019
3181 Clear 17 1025 51 10000 2.1 70 20:35 23.08.2019
3182 Clear 17 1025 58 10000 2.6 50 19:47 23.08.2019
3183 Clear 18 1025 45 10000 5.1 50 19:19 23.08.2019
3184 Clear 17 1026 54 10000 2.6 50 18:58 23.08.2019
3185 Clear 17 1026 54 10000 2.6 50 18:40 23.08.2019
3186 Clear 17 1026 54 10000 2.6 50 18:40 23.08.2019
3187 Clear 17 1026 51 10000 3.6 50 18:21 23.08.2019
3188 Clear 16 1026 51 10000 2.1 20 17:45 23.08.2019
3189 Clear 16 1026 51 10000 2.1 20 17:45 23.08.2019
3190 Clear 16 1026 50 10000 2.6 20 17:26 23.08.2019
3191 Clear 16 1027 62 10000 2.6 360 16:57 23.08.2019
3192 Clear 15 1027 62 10000 2.6 360 16:39 23.08.2019
3193 Clear 15 1027 62 10000 2.6 360 16:21 23.08.2019
3194 Clouds 12 1027 54 9000 2.1 360 15:40 23.08.2019
3195 Clear 11 1027 54 9000 2.1 360 15:22 23.08.2019
3196 Mist 10 1027 58 8000 1 290 14:57 23.08.2019
3197 Mist 10 1027 58 8000 1 290 14:39 23.08.2019
3198 Mist 9 1026 100 3000 1 0 14:20 23.08.2019
3199 Mist 8 1026 100 3000 1 0 13:54 23.08.2019
3200 Fog 7 1027 80 9000 1.54 320.648 13:36 23.08.2019
3201 Fog 7 1027 80 9000 1.54 320.648 13:36 23.08.2019
3202 Fog 6 1027 93 800 1 270 13:18 23.08.2019
3203 Fog 5 1027 93 3500 0.5 0 12:42 23.08.2019
3204 Fog 6 1027 93 10000 1 280 12:22 23.08.2019
3205 -273 0 0 0 0 0 11:58 23.08.2019
3206 Fog 6 1027 93 10000 1 280 11:39 23.08.2019
3207 Fog 6 1027 93 10000 1 280 11:20 23.08.2019
3208 Fog 6 1026 100 1000 1.48 299.88 10:57 23.08.2019
3209 Fog 6 1026 93 10000 1.48 299.88 10:39 23.08.2019
3210 Fog 6 1026 93 10000 1.76 306.361 10:19 23.08.2019
3211 Fog 6 1026 93 10000 1.76 306.361 09:44 23.08.2019
3212 Fog 6 1026 93 10000 1.6 316.111 09:25 23.08.2019
3213 Fog 6 1027 93 10000 1.6 316.111 08:46 23.08.2019
3214 Fog 7 1027 93 10000 1.6 316.111 08:22 23.08.2019
3215 Fog 7 1028 87 10000 1.6 316.111 07:59 23.08.2019
3216 Fog 7 1028 87 10000 1.6 316.111 07:41 23.08.2019
3217 Fog 7 1028 87 10000 1.6 316.111 07:22 23.08.2019
3218 Fog 7 1028 81 10000 1.6 316.111 06:41 23.08.2019
3219 Fog 7 1028 81 10000 1.35 9.902 06:22 23.08.2019
3220 Fog 8 1028 87 10000 1.35 9.902 05:44 23.08.2019
3221 Fog 8 1028 87 10000 1.35 9.902 05:25 23.08.2019
3222 Clear 9 1028 81 10000 1.35 9.902 03:46 23.08.2019
3223 Clear 10 1028 81 10000 0.5 40 02:38 23.08.2019
3224 Clear 10 1028 81 10000 0.5 40 02:20 23.08.2019
3225 Clear 10 1028 81 10000 0.5 40 02:20 23.08.2019
3226 Clear 11 1027 81 10000 1.5 70 00:57 23.08.2019
3227 Clear 11 1027 81 10000 1.5 70 00:37 23.08.2019
3228 Clear 12 1027 71 10000 2.1 60 00:18 23.08.2019
3229 Clear 12 1027 71 10000 2.1 60 23:40 22.08.2019
3230 Clear 13 1027 71 10000 2.1 60 23:21 22.08.2019
3231 Clear 14 1027 71 10000 2.1 60 22:42 22.08.2019
3232 Clear 14 1027 71 10000 2.1 60 22:23 22.08.2019
3233 Clear 14 1027 66 10000 3.1 60 21:58 22.08.2019
3234 Clear 14 1027 66 10000 3.1 60 21:58 22.08.2019
3235 Clear 15 1027 66 10000 3.1 60 21:40 22.08.2019
3236 Clear 15 1027 66 10000 3.1 60 21:21 22.08.2019
3237 Clear 16 1028 66 10000 2.6 60 20:58 22.08.2019
3238 Clear 15 1028 66 10000 2.6 60 20:39 22.08.2019
3239 Clear 15 1028 66 10000 2.6 60 20:20 22.08.2019
3240 Clear 15 1029 66 10000 2.1 60 19:56 22.08.2019
3241 Clear 15 1029 66 10000 2.1 60 19:38 22.08.2019
3242 Clear 15 1029 66 10000 2.1 60 19:19 22.08.2019
3243 Clear 15 1029 71 10000 2.6 60 18:56 22.08.2019
3244 Clear 15 1029 71 10000 2.6 60 18:38 22.08.2019
3245 Clear 14 1029 71 10000 2.6 60 18:18 22.08.2019
3246 Clear 13 1030 71 10000 3.1 60 17:42 22.08.2019
3247 Clear 12 1030 71 10000 3.1 80 17:23 22.08.2019
3248 Clear 12 1030 71 10000 3.1 80 16:58 22.08.2019
3249 Clear 12 1030 71 10000 3.1 80 16:40 22.08.2019
3250 Clear 11 1030 71 10000 3.1 80 16:21 22.08.2019
3251 Clear 10 1030 71 10000 2.6 60 15:59 22.08.2019
3252 Clear 10 1030 71 10000 2.6 60 15:39 22.08.2019
3253 Clear 10 1030 71 10000 2.6 60 15:39 22.08.2019
3254 Clear 10 1030 71 10000 2.6 60 15:20 22.08.2019
3255 Clear 9 1030 76 10000 1 0 14:56 22.08.2019
3256 Clear 9 1030 76 10000 1 0 14:38 22.08.2019
3257 Clear 9 1030 76 10000 1 0 14:18 22.08.2019
3258 Clear 9 1029 76 10000 1 0 13:42 22.08.2019
3259 Clear 9 1029 76 10000 1 0 13:24 22.08.2019
3260 Clear 9 1028 76 10000 3.1 50 12:59 22.08.2019
3261 Clear 9 1028 76 10000 3.1 50 12:39 22.08.2019
3262 Clear 9 1028 76 10000 3.1 50 12:20 22.08.2019
3263 Clear 9 1028 71 10000 2.6 350 11:43 22.08.2019
3264 Clear 8 1028 71 10000 2.6 350 11:22 22.08.2019
3265 Clear 8 1027 76 10000 3.1 50 10:59 22.08.2019
3266 Clear 8 1027 76 10000 3.1 50 10:41 22.08.2019
3267 Clear 8 1027 76 10000 3.1 50 10:23 22.08.2019
3268 Clear 8 1028 81 10000 3.1 60 10:00 22.08.2019
3269 Clear 8 1028 81 10000 3.1 60 09:39 22.08.2019
3270 Clear 8 1028 81 10000 3.1 60 09:21 22.08.2019
3271 Clear 8 1028 81 10000 3.1 60 09:21 22.08.2019
3272 Clear 8 1027 81 10000 4.1 90 08:56 22.08.2019
3273 Clear 8 1027 81 10000 4.1 90 08:38 22.08.2019
3274 Clear 8 1027 81 10000 4.1 90 08:20 22.08.2019
3275 Clear 8 1028 66 10000 4.1 100 07:40 22.08.2019
3276 Clear 8 1028 81 10000 5.7 100 07:20 22.08.2019
3277 Clear 8 1028 81 10000 5.7 100 06:52 22.08.2019
3278 Clear 8 1028 81 10000 5.7 100 06:24 22.08.2019
3279 Clear 8 1028 87 10000 6.2 100 05:45 22.08.2019
3280 Clear 8 1028 87 10000 7.2 100 04:29 22.08.2019
3281 Clear 9 1027 81 10000 7.7 110 02:50 22.08.2019
3282 Clear 9 1027 81 10000 7.7 110 02:50 22.08.2019
3283 Clear 9 1027 81 10000 7.7 110 02:32 22.08.2019
3284 Clear 9 1027 76 10000 7.7 110 01:23 22.08.2019
3285 Clear 10 1027 76 10000 7.7 110 00:44 22.08.2019
3286 Clear 10 1027 76 10000 7.7 110 00:26 22.08.2019
3287 Clear 10 1028 76 10000 6.7 110 23:51 21.08.2019
3288 Clear 10 1028 76 10000 6.7 110 23:32 21.08.2019
3289 Clear 11 1028 71 10000 6.7 110 22:59 21.08.2019
3290 Clear 11 1028 71 10000 6.7 110 22:41 21.08.2019
3291 Clear 11 1028 71 10000 6.7 110 22:21 21.08.2019
3292 Clouds 11 1028 71 10000 5.7 110 21:58 21.08.2019
3293 Clouds 12 1028 71 10000 5.7 110 21:38 21.08.2019
3294 Clouds 11 1028 71 10000 5.7 110 21:20 21.08.2019
3295 Clouds 11 1028 71 10000 7.2 110 20:58 21.08.2019
3296 Clouds 12 1028 71 10000 7.2 110 20:39 21.08.2019
3297 Clouds 12 1028 71 10000 7.2 110 20:39 21.08.2019
3298 Clouds 12 1028 71 10000 7.2 110 20:21 21.08.2019
3299 Clouds 12 1029 71 10000 6.2 110 19:44 21.08.2019
3300 Clouds 11 1029 71 10000 6.2 110 19:25 21.08.2019
3301 Clouds 11 1030 66 10000 5.1 90 18:59 21.08.2019
3302 Clouds 12 1030 66 10000 5.1 90 18:59 21.08.2019
3303 Clouds 12 1030 66 10000 5.1 90 18:40 21.08.2019
3304 Clouds 11 1030 66 10000 5.1 90 18:22 21.08.2019
3305 Clouds 11 1031 66 10000 5.1 90 17:45 21.08.2019
3306 Clouds 11 1031 66 10000 5.1 90 17:25 21.08.2019
3307 Clouds 11 1031 66 10000 6.2 70 16:59 21.08.2019
3308 Clouds 10 1031 66 10000 6.2 70 16:40 21.08.2019
3309 Clouds 10 1031 66 10000 6.2 70 16:21 21.08.2019
3310 Clouds 10 1031 71 10000 5.1 70 15:58 21.08.2019
3311 Clouds 9 1031 71 10000 5.1 70 15:39 21.08.2019
3312 Clouds 10 1031 71 10000 5.1 70 15:20 21.08.2019
3313 Clouds 9 1031 70 10000 4.6 80 14:56 21.08.2019
3314 Clouds 9 1031 70 10000 4.6 80 14:38 21.08.2019
3315 Clouds 8 1031 70 10000 4.6 80 14:19 21.08.2019
3316 Clouds 7 1031 75 10000 4.1 90 13:43 21.08.2019
3317 Clouds 7 1031 75 10000 4.1 90 13:21 21.08.2019
3318 Clouds 6 1030 75 10000 4.6 80 12:58 21.08.2019
3319 Clouds 6 1030 75 10000 4.6 80 12:40 21.08.2019
3320 Clouds 6 1030 75 10000 4.6 80 12:20 21.08.2019
3321 Clouds 6 1030 75 10000 4.6 80 11:54 21.08.2019
3322 Clouds 6 1030 75 10000 4.6 80 11:36 21.08.2019
3323 Clouds 6 1030 75 10000 4.6 80 11:18 21.08.2019
3324 Clouds 6 1030 75 10000 4.6 80 11:18 21.08.2019
3325 Clouds 6 1030 75 10000 4.1 70 10:55 21.08.2019
3326 Clouds 6 1030 75 10000 4.1 70 10:37 21.08.2019
3327 Clouds 6 1030 75 10000 4.1 70 10:18 21.08.2019
3328 Clouds 6 1030 75 10000 4.1 70 10:18 21.08.2019
3329 Clouds 6 1030 75 10000 4.6 70 09:41 21.08.2019
3330 Clouds 6 1030 75 10000 4.6 70 09:22 21.08.2019
3331 Clouds 6 1031 81 10000 4.1 80 08:55 21.08.2019
3332 Clouds 6 1031 81 10000 4.1 80 08:37 21.08.2019
3333 Clouds 6 1031 81 10000 4.1 80 08:18 21.08.2019
3334 Clouds 6 1031 75 10000 4.6 110 07:38 21.08.2019
3335 Clouds 6 1031 75 10000 4.6 110 07:19 21.08.2019
3336 Clouds 6 1031 70 10000 5.7 110 06:46 21.08.2019
3337 Clouds 7 1031 66 10000 5.7 110 06:20 21.08.2019
3338 Clouds 7 1031 66 10000 5.7 110 05:30 21.08.2019
3339 Clouds 7 1031 70 10000 5.7 110 04:59 21.08.2019
3340 Clouds 8 1031 75 10000 6.2 110 02:45 21.08.2019
3341 Clouds 8 1031 70 10000 5.1 110 01:42 21.08.2019
3342 Clouds 8 1031 70 10000 4.6 100 00:43 21.08.2019
3343 Clouds 8 1031 70 10000 4.6 100 00:43 21.08.2019
3344 Clouds 8 1031 70 10000 4.6 100 00:22 21.08.2019
3345 Clear 9 1031 66 10000 5.1 110 23:46 20.08.2019
3346 Clear 10 1031 66 10000 5.1 110 23:21 20.08.2019
3347 Clear 10 1031 66 10000 4.1 90 22:59 20.08.2019
3348 Clear 10 1031 66 10000 4.1 90 22:41 20.08.2019
3349 Clear 10 1031 66 10000 4.1 90 22:22 20.08.2019
3350 Clear 11 1031 61 10000 5.1 70 21:59 20.08.2019
3351 Clear 11 1031 61 10000 5.1 70 21:39 20.08.2019
3352 Clear 11 1031 57 10000 4.1 80 21:20 20.08.2019
3353 Clear 11 1031 57 10000 4.1 80 20:59 20.08.2019
3354 Clear 11 1031 57 10000 4.1 80 20:41 20.08.2019
3355 Clear 11 1031 57 10000 4.1 80 20:23 20.08.2019
3356 Clouds 11 1031 57 10000 4.6 90 19:41 20.08.2019
3357 Clouds 11 1031 57 10000 4.6 90 19:22 20.08.2019
3358 Clouds 10 1031 61 10000 5.1 90 18:58 20.08.2019
3359 Clouds 10 1047 52 0 1.34 114 18:40 20.08.2019
3360 Clouds 10 1032 66 10000 5.7 100 18:19 20.08.2019
3361 Clouds 9 1032 66 10000 5.7 100 17:57 20.08.2019
3362 Clouds 9 1032 66 10000 5.7 100 17:39 20.08.2019
3363 Clouds 9 1032 70 10000 5.7 100 17:19 20.08.2019
3364 Clouds 9 1032 70 10000 5.7 100 16:45 20.08.2019
3365 Clouds 9 1032 70 10000 5.7 100 16:26 20.08.2019
3366 Clouds 8 1032 70 10000 5.1 130 15:56 20.08.2019
3367 Clouds 8 1032 70 10000 5.1 130 15:38 20.08.2019
3368 Clear 8 1032 70 10000 4.1 130 15:18 20.08.2019
3369 Clear 7 1032 70 10000 4.1 130 14:43 20.08.2019
3370 Clear 6 1031 65 10000 2.1 150 14:22 20.08.2019
3371 Clear 6 1031 65 10000 2.1 150 14:22 20.08.2019
3372 Clear 6 1031 65 10000 2.1 150 13:57 20.08.2019
3373 Clear 6 1031 65 10000 2.1 150 13:38 20.08.2019
3374 Clear 5 1031 67 10000 2.1 170 13:20 20.08.2019
3375 Clear 5 1031 67 10000 2.1 170 12:51 20.08.2019
3376 Clear 5 1031 67 10000 2.1 170 12:51 20.08.2019
3377 Clear 5 1031 67 10000 2.1 170 12:30 20.08.2019
3378 Clear 5 1030 66 10000 1.5 0 11:59 20.08.2019
3379 Clear 5 1030 66 10000 1.5 0 11:38 20.08.2019
3380 Clouds 5 1030 60 10000 1 0 11:19 20.08.2019
3381 Clouds 5 1030 60 10000 1 0 10:57 20.08.2019
3382 Clouds 5 1030 60 10000 1 0 10:38 20.08.2019
3383 Clouds 5 1030 56 10000 1.5 160 10:20 20.08.2019
3384 Clouds 5 1030 56 10000 1.5 160 09:43 20.08.2019
3385 Clouds 6 1030 56 10000 1.5 160 09:25 20.08.2019
3386 Clouds 6 1030 56 10000 1.5 160 08:57 20.08.2019
3387 Clouds 6 1030 56 10000 1.5 160 08:39 20.08.2019
3388 Clouds 6 1030 63 10000 2.6 140 08:20 20.08.2019
3389 Clouds 6 1030 63 10000 2.6 140 07:55 20.08.2019
3390 Clouds 6 1030 63 10000 2.6 140 07:37 20.08.2019
3391 Clouds 6 1030 65 10000 2.6 120 07:18 20.08.2019
3392 Clouds 6 1030 65 10000 2.6 120 07:18 20.08.2019
3393 Clouds 6 1030 65 10000 2.6 120 06:25 20.08.2019
3394 Clouds 6 1030 65 10000 4.1 130 05:49 20.08.2019
3395 Clouds 7 1030 65 10000 4.6 130 05:18 20.08.2019
3396 Clouds 7 1030 56 10000 5.1 120 03:52 20.08.2019
3397 Clouds 7 1030 61 10000 2.6 140 02:42 20.08.2019
3398 Clouds 7 1029 65 10000 4.1 110 01:38 20.08.2019
3399 Clouds 7 1029 65 10000 3.1 130 00:51 20.08.2019
3400 Clouds 7 1029 65 10000 3.1 130 00:31 20.08.2019
3401 Clear 7 1028 57 10000 4.6 110 23:57 19.08.2019
3402 Clear 7 1028 57 10000 4.6 110 23:38 19.08.2019
3403 Clear 8 1028 57 10000 3.1 80 23:18 19.08.2019
3404 Clear 8 1028 57 10000 3.1 80 22:41 19.08.2019
3405 Clear 8 1028 57 10000 3.1 80 22:21 19.08.2019
3406 Clear 8 1029 57 10000 4.1 80 21:58 19.08.2019
3407 Clear 8 1029 54 10000 4.1 80 21:39 19.08.2019
3408 Clear 9 1029 61 10000 4.6 80 21:20 19.08.2019
3409 Clear 9 1029 61 10000 4.6 80 21:20 19.08.2019
3410 Clear 8 1029 61 10000 4.6 80 20:59 19.08.2019
3411 Clear 9 1029 61 10000 4.6 80 20:38 19.08.2019
3412 Clear 8 1029 52 10000 4.1 90 20:20 19.08.2019
3413 Clear 8 1029 52 10000 4.1 90 19:55 19.08.2019
3414 Clear 8 1029 52 10000 4.1 90 19:55 19.08.2019
3415 Clear 8 1029 52 10000 4.1 90 19:37 19.08.2019
3416 Clear 8 1029 52 10000 4.1 90 19:18 19.08.2019
3417 Clear 8 1029 52 10000 4.1 90 19:18 19.08.2019
3418 Clouds 8 1031 52 10000 3.6 70 18:44 19.08.2019
3419 Clouds 8 1032 49 10000 2.1 100 18:26 19.08.2019
3420 Clouds 8 1032 49 10000 2.1 100 17:58 19.08.2019
3421 Clouds 8 1032 49 10000 2.1 100 17:40 19.08.2019
3422 Clear 7 1032 48 10000 2.1 170 17:19 19.08.2019
3423 Clear 7 1032 48 10000 2.1 170 16:58 19.08.2019
3424 Clear 7 1032 48 10000 2.1 170 16:37 19.08.2019
3425 Clear 7 1032 48 10000 2.1 170 16:18 19.08.2019
3426 Clear 6 1032 81 10000 2.6 160 15:45 19.08.2019
3427 Clear 4 1031 86 10000 3.1 170 15:20 19.08.2019
3428 Clear 5 1031 86 10000 3.1 170 14:56 19.08.2019
3429 Clear 3 1031 86 10000 3.1 170 14:37 19.08.2019
3430 Clear 4 1031 86 10000 3.1 170 14:19 19.08.2019
3431 -273 0 0 0 0 0 13:55 19.08.2019
3432 Clear 2 1031 60 10000 2.1 170 13:36 19.08.2019
3433 Clear 2 1031 60 10000 2.1 170 13:36 19.08.2019
3434 Clear 2 1031 60 10000 2.1 170 13:18 19.08.2019
3435 Clear 2 1030 60 10000 2.1 160 12:43 19.08.2019
3436 Clear 2 1030 60 10000 2.1 160 12:22 19.08.2019
3437 Clear 2 1030 56 10000 3.1 160 11:55 19.08.2019
3438 Clear 2 1030 56 10000 3.1 160 11:36 19.08.2019
3439 Clear 2 1030 56 10000 3.1 160 11:18 19.08.2019
3440 Clear 2 1030 60 10000 2.6 160 10:39 19.08.2019
3441 Clear 2 1030 60 10000 2.6 160 10:19 19.08.2019
3442 Clear 2 1031 52 10000 2.6 160 09:54 19.08.2019
3443 Clear 2 1031 52 10000 2.6 160 09:36 19.08.2019
3444 Clear 3 1031 52 10000 1.5 160 09:18 19.08.2019
3445 Clear 3 1031 52 10000 1.5 160 08:42 19.08.2019
3446 Clear 3 1031 52 10000 1.5 160 08:21 19.08.2019
3447 Clear 3 1031 52 10000 4.1 160 07:54 19.08.2019
3448 Clear 3 1031 52 10000 4.1 160 07:34 19.08.2019
3449 Clear 4 1031 48 10000 3.6 160 06:59 19.08.2019
3450 Clear 4 1031 48 10000 3.6 160 06:36 19.08.2019
3451 Clear 4 1031 48 10000 3.6 160 06:36 19.08.2019
3452 Clear 5 1031 52 10000 4.1 160 05:26 19.08.2019
3453 Clear 5 1030 56 10000 5.1 160 04:33 19.08.2019
3454 Clear 6 1029 52 10000 4.6 160 03:26 19.08.2019
3455 Clear 7 1029 49 10000 5.1 160 02:30 19.08.2019
3456 Clear 8 1028 49 10000 3.1 160 01:37 19.08.2019
3457 Clouds 8 1027 54 10000 4.1 160 00:46 19.08.2019
3458 Clouds 9 1027 51 10000 4.1 160 00:23 19.08.2019
3459 Clouds 9 1027 50 10000 2.6 160 23:43 18.08.2019
3460 Clouds 10 1027 50 10000 2.6 160 23:22 18.08.2019
3461 Clouds 11 1026 46 10000 3.1 170 22:59 18.08.2019
3462 Clouds 11 1026 46 10000 3.1 170 22:39 18.08.2019
3463 Clouds 11 1026 50 10000 4.6 150 22:21 18.08.2019
3464 Clouds 11 1026 50 10000 4.6 150 21:56 18.08.2019
3465 Clouds 12 1026 50 10000 4.6 150 21:37 18.08.2019
3466 Clouds 11 1026 50 10000 4.6 150 21:19 18.08.2019
3467 Clouds 12 1026 50 10000 4.1 170 20:44 18.08.2019
3468 Clouds 12 1026 50 10000 4.1 170 20:26 18.08.2019
3469 Clouds 12 1026 50 10000 4.1 170 20:26 18.08.2019
3470 Clouds 11 1026 54 10000 4.1 170 19:56 18.08.2019
3471 Clouds 11 1026 54 10000 4.1 170 19:38 18.08.2019
3472 Clouds 11 1026 54 10000 4.1 170 19:19 18.08.2019
3473 Clouds 11 1026 53 10000 4.6 160 18:54 18.08.2019
3474 Clouds 11 1026 53 10000 4.6 160 18:36 18.08.2019
3475 Clouds 11 1026 53 10000 4.6 160 18:18 18.08.2019
3476 Clouds 11 1026 61 10000 5.7 170 17:42 18.08.2019
3477 Clouds 11 1026 61 10000 5.7 170 17:19 18.08.2019
3478 Clouds 11 1026 62 10000 5.1 160 16:58 18.08.2019
3479 Clouds 10 1025 57 10000 4.1 170 16:38 18.08.2019
3480 Clouds 10 1025 57 10000 4.1 170 16:20 18.08.2019
3481 Clear 10 1025 66 10000 3.6 170 15:57 18.08.2019
3482 Clear 9 1025 66 10000 3.6 170 15:38 18.08.2019
3483 Clear 10 1025 66 10000 3.6 170 15:20 18.08.2019
3484 Clear 9 1025 75 10000 2.6 180 14:54 18.08.2019
3485 Clear 8 1025 75 10000 2.6 180 14:36 18.08.2019
3486 Clear 8 1025 75 10000 2.6 180 14:18 18.08.2019
3487 Clear 7 1024 75 10000 2.1 180 13:42 18.08.2019
3488 Clear 7 1023 75 10000 2.6 160 13:23 18.08.2019
3489 Clear 7 1023 75 10000 2.6 160 12:58 18.08.2019
3490 Clear 7 1023 75 10000 2.6 160 12:39 18.08.2019
3491 Clear 7 1023 75 10000 2.6 160 12:20 18.08.2019
3492 Clear 6 1021 75 10000 4.1 170 11:43 18.08.2019
3493 Clear 6 1021 75 10000 4.1 170 11:43 18.08.2019
3494 Clear 6 1021 75 10000 4.1 170 11:23 18.08.2019
3495 Clear 7 1021 81 10000 3.6 160 10:57 18.08.2019
3496 Clear 7 1021 81 10000 3.6 160 10:39 18.08.2019
3497 Clear 7 1020 81 10000 4.1 170 10:18 18.08.2019
3498 Clear 7 1020 81 10000 4.1 170 10:18 18.08.2019
3499 Clear 7 1020 81 10000 4.1 170 09:42 18.08.2019
3500 Clear 7 1020 81 10000 4.1 170 09:19 18.08.2019
3501 Clouds 8 1019 81 10000 4.6 170 08:43 18.08.2019
3502 Clouds 8 1019 81 10000 4.6 170 08:25 18.08.2019
3503 Clouds 10 1019 81 10000 5.1 150 07:54 18.08.2019
3504 Clouds 10 1019 81 10000 5.1 150 07:29 18.08.2019
3505 Clear 11 1018 76 10000 5.1 170 06:32 18.08.2019
3506 Clouds 11 1017 76 10000 3.1 160 05:42 18.08.2019
3507 Clear 12 1016 67 10000 1 0 03:51 18.08.2019
3508 Clear 11 1014 67 10000 2.1 180 02:52 18.08.2019
3509 Clear 11 1014 67 10000 2.1 180 02:34 18.08.2019
3510 Clear 14 1013 67 10000 1 0 01:57 18.08.2019
3511 Clear 14 1013 67 10000 1 0 01:26 18.08.2019
3512 Clear 14 1013 67 10000 1 0 01:26 18.08.2019
3513 Clear 14 1012 67 10000 1.5 0 00:41 18.08.2019
3514 Clear 14 1012 67 10000 1.5 0 00:20 18.08.2019
3515 Clouds 16 1011 48 10000 2.1 170 23:57 17.08.2019
3516 Clouds 16 1011 48 10000 2.1 170 23:37 17.08.2019
3517 Clouds 16 1011 48 10000 2.1 170 23:19 17.08.2019
3518 Clouds 16 1010 59 10000 2.6 170 22:57 17.08.2019
3519 Clouds 16 1010 59 10000 2.6 170 22:38 17.08.2019
3520 Clouds 16 1010 59 10000 2.6 170 22:20 17.08.2019
3521 Clouds 16 1010 67 10000 2.1 180 21:43 17.08.2019
3522 Clouds 16 1010 67 10000 2.1 180 21:25 17.08.2019
3523 Clouds 16 1009 67 10000 2.6 160 20:58 17.08.2019
3524 Clouds 16 1009 67 10000 2.6 160 20:37 17.08.2019
3525 Clouds 16 1009 67 10000 2.6 160 20:18 17.08.2019
3526 Clouds 15 1009 72 10000 3.1 140 19:43 17.08.2019
3527 Clouds 15 1010 82 10000 3.1 140 19:24 17.08.2019
3528 Clouds 15 1010 82 10000 3.1 140 18:55 17.08.2019
3529 Clouds 15 1010 82 10000 3.1 140 18:37 17.08.2019
3530 Clouds 15 1009 87 10000 3.6 140 18:18 17.08.2019
3531 Clouds 14 1009 87 10000 3.6 140 17:42 17.08.2019
3532 Clouds 14 1009 82 8000 3.1 120 17:22 17.08.2019
3533 Clouds 13 1010 87 9000 4.1 150 16:56 17.08.2019
3534 Thunderstorm 13 1010 93 2000 4.1 150 16:38 17.08.2019
3535 Thunderstorm 12 1010 93 2000 4.1 150 16:19 17.08.2019
3536 Thunderstorm 12 1011 93 5000 3.6 160 15:42 17.08.2019
3537 Thunderstorm 12 1011 93 5000 3.6 160 15:22 17.08.2019
3538 Thunderstorm 12 1008 93 2000 3.6 160 14:58 17.08.2019
3539 Thunderstorm 12 1008 93 800 3.1 160 14:39 17.08.2019
3540 Thunderstorm 12 1008 93 800 3.1 160 14:21 17.08.2019
3541 Thunderstorm 12 1008 93 800 3.1 160 14:21 17.08.2019
3542 Thunderstorm 13 1007 87 2000 5.1 130 13:44 17.08.2019
3543 Thunderstorm 13 1006 87 5000 3.1 160 13:19 17.08.2019
3544 Thunderstorm 13 1007 87 5000 4.6 130 12:43 17.08.2019
3545 Thunderstorm 13 1007 87 5000 4.6 130 12:20 17.08.2019
3546 Thunderstorm 14 1007 87 5000 2.6 130 11:58 17.08.2019
3547 Thunderstorm 14 1007 87 5000 2.6 130 11:38 17.08.2019
3548 Thunderstorm 14 1007 87 5000 2.6 130 11:19 17.08.2019
3549 Thunderstorm 14 1006 93 5000 2.6 180 10:41 17.08.2019
3550 Thunderstorm 14 1006 93 5000 2.6 180 10:21 17.08.2019
3551 Thunderstorm 14 1007 82 600 1 0 09:55 17.08.2019
3552 Thunderstorm 14 1007 77 5000 1.5 160 09:36 17.08.2019
3553 Mist 15 1008 72 9000 1.5 110 09:18 17.08.2019
3554 Mist 15 1008 72 9000 1.5 110 08:42 17.08.2019
3555 Mist 15 1008 72 9000 1.5 110 08:20 17.08.2019
3556 Mist 15 1009 77 9000 1.5 110 07:42 17.08.2019
3557 Mist 15 1009 77 9000 1.5 110 07:19 17.08.2019
3558 Mist 15 1010 82 9000 1 200 05:59 17.08.2019
3559 Mist 14 1010 82 9000 1.5 120 04:32 17.08.2019
3560 Mist 14 1010 82 8000 2.6 120 03:51 17.08.2019
3561 Rain 15 1011 82 8000 3.1 130 02:36 17.08.2019
3562 Rain 15 1011 82 8000 3.1 130 02:36 17.08.2019
3563 Clouds 16 1010 77 8000 2.6 120 01:36 17.08.2019
3564 Clouds 16 1010 77 8000 2.6 120 01:18 17.08.2019
3565 Clouds 16 1010 67 8000 2.1 140 00:44 17.08.2019
3566 Clear 17 1010 77 10000 2.1 140 23:58 16.08.2019
3567 Clear 18 1010 77 10000 2.1 140 23:38 16.08.2019
3568 Clouds 18 1010 72 8000 1.5 110 23:19 16.08.2019
3569 Clouds 19 1010 72 8000 1.5 110 22:40 16.08.2019
3570 Clear 20 1011 67 10000 2.1 60 22:19 16.08.2019
3571 Clear 20 1011 67 10000 2.1 60 21:42 16.08.2019
3572 Clear 20 1011 67 10000 2.1 60 21:22 16.08.2019
3573 Clear 19 1012 72 10000 2.1 60 20:58 16.08.2019
3574 Clear 20 1011 60 10000 3.6 50 20:39 16.08.2019
3575 Clear 20 1011 60 10000 3.6 50 20:19 16.08.2019
3576 Clear 20 1012 49 10000 2.6 290 19:45 16.08.2019
3577 Clear 20 1012 49 10000 2.6 290 19:23 16.08.2019
3578 Clear 20 1014 52 10000 1.5 290 18:59 16.08.2019
3579 Clear 20 1014 52 10000 1.5 290 18:41 16.08.2019
3580 Clear 19 1014 52 10000 1.5 290 18:22 16.08.2019
3581 Clear 19 1015 55 10000 2.1 320 17:44 16.08.2019
3582 Clear 18 1015 55 10000 2.1 320 17:25 16.08.2019
3583 Clear 17 1015 72 10000 2.1 70 16:56 16.08.2019
3584 Clear 16 1015 72 10000 2.1 70 16:37 16.08.2019
3585 Clear 16 1015 72 10000 2.1 70 16:18 16.08.2019
3586 Mist 15 1016 82 10000 2.6 70 15:41 16.08.2019
3587 Mist 14 1016 82 10000 2.6 70 15:22 16.08.2019
3588 Mist 12 1016 87 10000 2.6 90 14:58 16.08.2019
3589 Mist 12 1016 87 10000 2.6 90 14:39 16.08.2019
3590 Mist 12 1016 87 10000 2.6 90 14:19 16.08.2019
3591 Fog 11 1016 100 2000 1.5 130 13:57 16.08.2019
3592 Fog 11 1016 87 10000 2.6 90 13:37 16.08.2019
3593 Fog 11 1016 100 1500 1.5 130 13:18 16.08.2019
3594 Fog 11 1016 87 10000 1.5 100 12:38 16.08.2019
3595 Fog 11 1016 87 10000 1.5 100 12:19 16.08.2019
3596 Clear 11 1016 82 10000 2.1 70 11:42 16.08.2019
3597 Clear 11 1016 82 10000 2.1 70 11:24 16.08.2019
3598 Clear 11 1017 87 10000 2.1 80 10:44 16.08.2019
3599 Clear 11 1017 87 10000 2.1 80 10:26 16.08.2019
3600 Clear 11 1017 87 10000 2.6 100 09:56 16.08.2019
3601 Clear 11 1017 87 10000 2.6 100 09:37 16.08.2019
3602 Clear 11 1017 87 10000 2.6 100 09:37 16.08.2019
3603 Clear 11 1017 87 10000 2.6 100 09:18 16.08.2019
3604 Clear 11 1017 87 10000 2.6 100 09:18 16.08.2019
3605 Clear 11 1017 87 10000 2.6 100 09:18 16.08.2019
3606 Clear 11 1017 87 10000 2.6 110 08:41 16.08.2019
3607 Clear 11 1017 87 10000 2.6 110 08:21 16.08.2019
3608 Clear 11 1018 87 10000 3.1 110 07:54 16.08.2019
3609 Clear 11 1018 87 10000 3.1 110 07:33 16.08.2019
3610 Clear 12 1019 87 10000 3.1 100 06:57 16.08.2019
3611 Clear 12 1019 87 10000 3.1 100 06:31 16.08.2019
3612 Clear 12 1019 82 10000 3.1 90 05:41 16.08.2019
3613 Clear 12 1019 81 10000 3.1 80 04:31 16.08.2019
3614 Clear 12 1020 87 10000 4.1 80 02:46 16.08.2019
3615 Clear 12 1021 87 10000 4.1 90 01:33 16.08.2019
3616 Clear 12 1021 81 10000 2.6 110 00:59 16.08.2019
3617 Clear 13 1021 81 10000 2.6 110 00:40 16.08.2019
3618 Clear 13 1021 81 10000 2.6 110 00:20 16.08.2019
3619 Clear 13 1021 76 10000 2.6 90 23:44 15.08.2019
3620 Clear 13 1021 76 10000 2.6 90 23:21 15.08.2019
3621 Clear 14 1021 76 10000 2.6 70 22:57 15.08.2019
3622 Clear 14 1021 76 10000 2.6 70 22:39 15.08.2019
3623 Clear 14 1021 76 10000 2.6 70 22:39 15.08.2019
3624 Clear 14 1021 76 10000 2.6 70 22:39 15.08.2019
3625 Clear 14 1021 76 10000 2.6 70 22:39 15.08.2019
3626 Clear 14 1021 76 10000 2.6 70 22:20 15.08.2019
3627 Clear 14 1021 76 10000 3.1 50 21:54 15.08.2019
3628 Clear 14 1021 76 10000 3.1 50 21:36 15.08.2019
3629 Clear 15 1021 76 10000 3.1 70 21:18 15.08.2019
3630 Clear 14 1021 76 10000 3.1 50 21:18 15.08.2019
3631 Clear 14 1021 76 10000 3.1 70 20:42 15.08.2019
3632 Clear 15 1021 76 10000 3.1 70 20:21 15.08.2019
3633 Clear 14 1023 71 10000 3.1 70 20:21 15.08.2019
3634 Clear 15 1021 76 10000 3.1 70 20:21 15.08.2019
3635 Clear 15 1023 71 10000 3.1 70 19:57 15.08.2019
3636 Clear 15 1023 71 10000 3.1 70 19:38 15.08.2019
3637 Clear 15 1023 71 10000 3.1 70 19:19 15.08.2019
3638 Clear 14 1024 66 10000 2.6 50 18:46 15.08.2019
3639 Clear 13 1025 66 10000 2.6 360 18:23 15.08.2019
3640 Clear 13 1025 66 10000 2.6 360 17:57 15.08.2019
3641 Clear 13 1025 66 10000 2.6 360 17:37 15.08.2019
3642 Clear 13 1025 66 10000 2.6 360 17:19 15.08.2019
3643 Clear 12 1025 76 10000 3.6 360 16:48 15.08.2019
3644 Clear 11 1025 76 10000 3.6 360 16:27 15.08.2019
3645 Clear 10 1025 76 10000 4.1 360 15:57 15.08.2019
3646 Clear 10 1025 76 10000 4.1 360 15:38 15.08.2019
3647 Clear 9 1025 76 10000 4.1 360 15:19 15.08.2019
3648 Clear 8 1025 75 10000 3.1 20 14:42 15.08.2019
3649 Clear 8 1025 75 10000 3.1 20 14:23 15.08.2019
3650 Clear 7 1025 71 10000 3.6 20 13:57 15.08.2019
3651 Clear 7 1025 71 10000 3.6 20 13:39 15.08.2019
3652 Clear 5 1025 86 10000 2.1 20 13:20 15.08.2019
3653 Clear 5 1025 86 10000 2.6 20 12:57 15.08.2019
3654 Clear 5 1025 86 10000 2.6 20 12:57 15.08.2019
3655 Clear 5 1025 86 10000 2.6 20 12:38 15.08.2019
3656 Clear 6 1025 71 10000 4.1 10 12:18 15.08.2019
3657 Clear 6 1025 71 10000 4.1 10 11:57 15.08.2019
3658 Clear 7 1025 71 10000 4.1 10 11:36 15.08.2019
3659 Clear 7 1025 71 10000 4.1 10 11:18 15.08.2019
3660 Clear 6 1026 66 10000 4.6 360 10:39 15.08.2019
3661 Clear 6 1026 66 10000 4.6 360 10:20 15.08.2019
3662 Clear 7 1026 76 10000 4.6 360 09:55 15.08.2019
3663 Clear 7 1026 76 10000 4.6 360 09:37 15.08.2019
3664 Clear 7 1026 76 10000 4.6 360 09:18 15.08.2019
3665 Clear 7 1027 76 10000 3.6 360 08:37 15.08.2019
3666 Clear 7 1027 81 10000 1.5 50 08:19 15.08.2019
3667 Clear 7 1027 81 10000 1.5 50 07:45 15.08.2019
3668 Clear 7 1027 81 10000 1.5 50 07:27 15.08.2019
3669 Clear 7 1027 76 10000 4.6 360 06:55 15.08.2019
3670 Clear 7 1027 76 10000 4.6 360 06:33 15.08.2019
3671 Clear 7 1027 70 10000 3.6 20 05:51 15.08.2019
3672 Clear 7 1027 70 10000 3.6 20 05:29 15.08.2019
3673 Clear 8 1027 66 10000 5.1 360 04:35 15.08.2019
3674 Clear 8 1026 66 10000 5.1 10 03:45 15.08.2019
3675 Clear 8 1027 66 10000 5.1 10 02:45 15.08.2019
3676 Clear 9 1028 61 10000 5.1 10 01:52 15.08.2019
3677 Clear 9 1028 61 10000 5.1 10 01:31 15.08.2019
3678 Clear 9 1028 57 10000 5.7 360 00:41 15.08.2019
3679 Clear 9 1028 57 10000 5.7 360 00:21 15.08.2019
3680 Clear 10 1028 57 10000 5.7 10 23:57 14.08.2019
3681 Clear 10 1028 57 10000 5.7 10 23:38 14.08.2019
3682 Clear 10 1028 53 10000 5.7 30 23:19 14.08.2019
3683 Clear 10 1028 53 10000 5.7 30 23:19 14.08.2019
3684 Clear 11 1028 53 10000 5.7 30 22:56 14.08.2019
3685 Clear 11 1028 53 10000 5.7 30 22:38 14.08.2019
3686 Clear 11 1028 53 10000 5.7 30 22:19 14.08.2019
3687 Clear 11 1030 53 10000 5.7 30 21:55 14.08.2019
3688 Clear 11 1030 53 10000 5.7 30 21:36 14.08.2019
3689 Clear 11 1030 53 10000 5.7 30 21:18 14.08.2019
3690 Clear 10 1031 57 10000 4.6 30 20:41 14.08.2019
3691 Clear 11 1031 57 10000 4.6 30 20:21 14.08.2019
3692 Clear 10 1032 51 10000 4.6 20 19:56 14.08.2019
3693 Clear 10 1032 51 10000 4.6 20 19:37 14.08.2019
3694 Clear 10 1034 57 10000 4.6 30 19:19 14.08.2019
3695 Clear 10 1034 57 10000 4.6 30 18:56 14.08.2019
3696 Clear 10 1034 57 10000 4.6 30 18:38 14.08.2019
3697 Clear 9 1034 57 10000 4.6 30 18:19 14.08.2019
3698 Clear 9 1035 52 10000 4.6 10 17:55 14.08.2019
3699 Clear 9 1035 52 10000 4.6 10 17:36 14.08.2019
3700 Clear 8 1035 52 10000 4.6 30 17:18 14.08.2019
3701 Clear 8 1035 52 10000 4.6 30 16:39 14.08.2019
3702 Clouds 7 1036 52 10000 5.1 340 16:20 14.08.2019
3703 Clouds 7 1036 52 10000 5.1 340 15:44 14.08.2019
3704 Clouds 7 1036 65 10000 5.1 340 15:20 14.08.2019
3705 Mist 3 1036 60 10000 3.6 320 14:58 14.08.2019
3706 Mist 3 1036 60 10000 3.6 320 14:39 14.08.2019
3707 Clear 3 1035 65 10000 2.1 300 14:19 14.08.2019
3708 Mist 3 1036 60 10000 3.6 320 14:19 14.08.2019
3709 Mist 0 1035 65 10000 2.1 300 13:44 14.08.2019
3710 Mist 0 1035 65 10000 2.1 300 13:44 14.08.2019
3711 Mist 0 1035 65 10000 2.1 300 13:25 14.08.2019
3712 Mist 0 1035 92 5000 1 0 12:59 14.08.2019
3713 Mist 0 1035 92 5000 1 0 12:40 14.08.2019
3714 Mist 0 1035 92 5000 1 0 12:22 14.08.2019
3715 Mist 1 1035 52 10000 2.6 60 11:57 14.08.2019
3716 Mist 1 1035 52 10000 2.6 60 11:57 14.08.2019
3717 Mist 1 1035 52 10000 2.6 60 11:39 14.08.2019
3718 Mist 1 1035 52 10000 2.6 60 11:21 14.08.2019
3719 Mist 1 1035 100 3000 0.5 190 10:45 14.08.2019
3720 Mist 1 1035 100 3000 0.5 190 10:25 14.08.2019
3721 Mist 2 1036 69 10000 1 140 09:58 14.08.2019
3722 Mist 2 1036 69 10000 1 140 09:39 14.08.2019
3723 -273 0 0 0 0 0 09:19 14.08.2019
3724 Clear 2 1036 69 10000 1 180 08:40 14.08.2019
3725 Clear 2 1036 69 10000 1 180 08:21 14.08.2019
3726 Clear 2 1037 60 10000 1 180 07:53 14.08.2019
3727 Clear 2 1037 60 10000 1 180 07:33 14.08.2019
3728 Clear 3 1037 48 10000 1 0 06:47 14.08.2019
3729 Clear 4 1037 48 10000 1.5 150 05:54 14.08.2019
3730 Clear 4 1037 48 10000 1.5 150 05:28 14.08.2019
3731 Clear 5 1037 48 10000 2.1 160 03:38 14.08.2019
3732 Clear 6 1036 45 10000 3.1 160 02:34 14.08.2019
3733 Clear 7 1036 45 10000 1.5 170 01:49 14.08.2019
3734 Clear 8 1036 42 10000 2.1 190 01:18 14.08.2019
3735 Clear 9 1035 42 10000 2.6 170 23:51 13.08.2019
3736 Clear 9 1035 42 10000 2.6 170 23:27 13.08.2019
3737 Clouds 9 1035 42 10000 3.1 220 23:00 13.08.2019
3738 Clouds 9 1035 42 10000 3.1 220 22:40 13.08.2019
3739 Clouds 9 1035 42 10000 3.1 220 22:40 13.08.2019
3740 Clouds 9 1035 42 10000 3.1 220 22:21 13.08.2019
3741 Clouds 9 1035 39 10000 3.1 220 21:58 13.08.2019
3742 Clouds 9 1035 39 10000 3.1 220 21:39 13.08.2019
3743 Clouds 10 1035 39 10000 3.1 220 21:19 13.08.2019
3744 Clouds 10 1035 39 10000 2.1 180 20:56 13.08.2019
3745 Clouds 10 1035 39 10000 2.1 180 20:37 13.08.2019
3746 Clouds 10 1035 43 10000 3.1 210 20:18 13.08.2019
3747 Clouds 9 1035 43 10000 3.1 210 19:43 13.08.2019
3748 Clouds 9 1035 43 10000 3.1 210 19:22 13.08.2019
3749 Clouds 9 1035 57 10000 2.1 190 18:59 13.08.2019
3750 Clouds 9 1035 57 10000 2.1 190 18:40 13.08.2019
3751 Clouds 9 1035 57 10000 2.1 190 18:20 13.08.2019
3752 Clouds 8 1035 52 10000 3.1 190 17:43 13.08.2019
3753 Clouds 8 1035 52 10000 3.1 190 17:22 13.08.2019
3754 Clouds 7 1035 44 10000 2.6 190 16:57 13.08.2019
3755 Clouds 7 1035 44 10000 2.6 190 16:39 13.08.2019
3756 Clouds 7 1035 44 10000 2.6 190 16:20 13.08.2019
3757 Clear 5 1035 44 10000 3.1 200 15:58 13.08.2019
3758 Clear 5 1035 44 10000 3.1 200 15:36 13.08.2019
3759 Clear 5 1035 65 10000 3.1 200 15:18 13.08.2019
3760 Clear 4 1034 65 10000 2.6 180 14:41 13.08.2019
3761 Clear 3 1034 65 10000 2.6 180 14:19 13.08.2019
3762 Clouds 3 1034 65 10000 2.1 200 13:56 13.08.2019
3763 Clouds 3 1034 65 10000 2.1 200 13:37 13.08.2019
3764 Clouds 2 1033 64 10000 2.1 200 13:18 13.08.2019
3765 Clouds 2 1033 64 10000 2.1 200 12:41 13.08.2019
3766 Clouds 2 1033 60 10000 2.1 200 12:22 13.08.2019
3767 Clouds 2 1033 60 10000 2.1 200 12:22 13.08.2019
3768 Clouds 2 1032 60 10000 2.6 210 11:59 13.08.2019
3769 Clouds 2 1032 60 10000 2.6 210 11:39 13.08.2019
3770 Clouds 2 1032 60 10000 2.6 210 11:20 13.08.2019
3771 Clouds 3 1031 60 10000 3.6 200 10:56 13.08.2019
3772 Clear 3 1032 60 10000 3.6 200 10:37 13.08.2019
3773 Clouds 3 1031 60 10000 3.6 200 10:19 13.08.2019
3774 Clear 4 1031 75 10000 3.6 220 09:43 13.08.2019
3775 Clear 4 1031 75 10000 3.6 220 09:23 13.08.2019
3776 Clear 4 1031 75 10000 3.6 220 09:23 13.08.2019
3777 Clouds 5 1031 70 10000 2.1 180 08:44 13.08.2019
3778 Clouds 5 1031 70 10000 2.1 180 08:23 13.08.2019
3779 Clouds 5 1031 70 10000 2.1 180 08:23 13.08.2019
3780 Clouds 5 1031 65 10000 3.1 190 07:58 13.08.2019
3781 Clouds 5 1031 65 10000 3.1 190 07:37 13.08.2019
3782 Clear 6 1031 57 10000 3.1 200 07:00 13.08.2019
3783 Clear 6 1030 75 10000 3.6 210 06:40 13.08.2019
3784 Clear 7 1030 51 10000 2.1 180 05:35 13.08.2019
3785 Clear 7 1029 51 10000 2.6 180 03:35 13.08.2019
3786 Clear 9 1028 53 10000 3.6 170 02:19 13.08.2019
3787 Clouds 9 1027 57 10000 2.6 0 01:18 13.08.2019
3788 Clouds 10 1026 53 10000 2.6 0 00:42 13.08.2019
3789 Clouds 11 1025 57 10000 4.1 200 23:57 12.08.2019
3790 Clouds 11 1025 57 10000 4.1 200 23:36 12.08.2019
3791 Clouds 11 1025 57 10000 4.1 200 23:18 12.08.2019
3792 Clouds 12 1023 58 10000 4.1 190 22:40 12.08.2019
3793 Clouds 12 1023 58 10000 4.1 190 22:20 12.08.2019
3794 Clouds 12 1022 58 10000 3.6 200 21:55 12.08.2019
3795 Clouds 12 1022 58 10000 3.6 200 21:37 12.08.2019
3796 Clouds 12 1022 58 10000 3.6 200 21:18 12.08.2019
3797 Clouds 12 1022 66 10000 6.2 180 20:56 12.08.2019
3798 Clouds 12 1022 66 10000 6.2 180 20:56 12.08.2019
3799 Clouds 12 1022 66 10000 6.2 180 20:37 12.08.2019
3800 Clouds 12 1022 62 10000 3.1 200 20:19 12.08.2019
3801 Clouds 13 1022 62 10000 3.6 210 19:55 12.08.2019
3802 Clouds 12 1022 62 10000 3.6 210 19:36 12.08.2019
3803 Clouds 12 1022 62 10000 3.6 210 19:18 12.08.2019
3804 Clouds 12 1022 58 10000 3.6 210 18:54 12.08.2019
3805 Clouds 12 1022 58 10000 3.6 210 18:36 12.08.2019
3806 Clear 12 1020 58 10000 3.6 210 18:18 12.08.2019
3807 Clear 12 1020 58 10000 3.6 210 17:46 12.08.2019
3808 Clear 12 1020 58 10000 3.6 210 17:27 12.08.2019
3809 Clear 11 1019 50 10000 4.1 220 16:56 12.08.2019
3810 Clear 11 1019 50 10000 4.1 220 16:56 12.08.2019
3811 Clear 11 1019 50 10000 4.1 220 16:38 12.08.2019
3812 Clear 10 1019 50 10000 4.1 220 16:19 12.08.2019
3813 Clear 10 1019 53 10000 3.6 220 15:55 12.08.2019
3814 Clear 10 1019 53 10000 3.6 220 15:36 12.08.2019
3815 Clear 10 1019 53 10000 3.6 220 15:36 12.08.2019
3816 Clear 10 1018 53 10000 3.6 220 15:18 12.08.2019
3817 Clear 9 1018 53 10000 3.6 220 14:41 12.08.2019
3818 -273 0 0 0 0 0 14:41 12.08.2019
3819 Clear 9 1018 53 10000 3.6 220 14:41 12.08.2019
3820 Clear 9 1018 53 10000 3.6 220 14:41 12.08.2019
3821 Clear 9 1018 53 10000 3.6 220 14:22 12.08.2019
3822 Clear 10 1017 57 10000 4.6 220 13:57 12.08.2019
3823 Clear 10 1017 57 10000 4.6 220 13:39 12.08.2019
3824 Clear 9 1017 57 10000 4.6 220 13:20 12.08.2019
3825 Clear 9 1017 87 10000 3.1 200 12:43 12.08.2019
3826 Clear 9 1017 87 10000 3.1 200 12:43 12.08.2019
3827 Clear 9 1017 87 10000 3.1 200 12:19 12.08.2019
3828 -273 0 0 0 0 0 11:45 12.08.2019
3829 Clear 9 1017 87 10000 2.1 200 11:26 12.08.2019
3830 Clear 10 1016 87 10000 4.1 230 10:58 12.08.2019
3831 Clear 10 1016 87 10000 4.1 230 10:40 12.08.2019
3832 Clear 10 1016 87 10000 4.1 230 10:21 12.08.2019
3833 Clear 11 1016 81 10000 2.6 270 09:55 12.08.2019
3834 Clear 11 1016 81 10000 2.6 270 09:36 12.08.2019
3835 Clear 11 1016 81 10000 2.6 270 09:18 12.08.2019
3836 Clear 11 1016 82 10000 2.6 290 08:40 12.08.2019
3837 Clear 11 1016 82 10000 2.6 290 08:22 12.08.2019
3838 Clear 11 1016 82 10000 2.6 290 08:22 12.08.2019
3839 Clear 12 1016 76 10000 3.1 300 07:56 12.08.2019
3840 Clear 11 1016 76 10000 3.1 300 07:35 12.08.2019
3841 Clear 11 1016 81 10000 3.6 310 06:53 12.08.2019
3842 Clear 12 1015 87 10000 2.1 310 05:53 12.08.2019
3843 Clear 13 1016 82 10000 2.1 310 03:47 12.08.2019
3844 Clear 13 1015 82 10000 2.6 310 02:42 12.08.2019
3845 Clear 14 1014 82 10000 3.6 350 01:23 12.08.2019
3846 Clear 14 1014 82 10000 3.6 360 00:58 12.08.2019
3847 Clear 14 1014 82 10000 3.6 360 00:40 12.08.2019
3848 Clear 14 1014 82 10000 3.6 360 00:20 12.08.2019
3849 Clear 15 1014 77 10000 2.6 20 23:57 11.08.2019
3850 Clear 15 1014 77 10000 2.6 20 23:38 11.08.2019
3851 Clear 15 1014 77 10000 2.6 20 23:19 11.08.2019
3852 Clear 16 1014 82 10000 3.6 30 22:55 11.08.2019
3853 Clear 16 1014 82 10000 3.6 30 22:36 11.08.2019
3854 Clear 17 1014 77 10000 3.1 20 22:18 11.08.2019
3855 Clear 17 1014 77 10000 3.1 20 21:42 11.08.2019
3856 Clear 17 1014 77 10000 3.1 20 21:22 11.08.2019
3857 Clear 17 1014 55 10000 3.1 10 20:58 11.08.2019
3858 Clear 17 1014 55 10000 3.1 10 20:40 11.08.2019
3859 Clear 17 1014 55 10000 3.1 10 20:22 11.08.2019
3860 Clear 17 1016 59 10000 3.6 360 19:45 11.08.2019
3861 Clear 17 1016 59 10000 3.6 360 19:22 11.08.2019
3862 Clear 17 1017 58 10000 3.6 350 18:56 11.08.2019
3863 Clear 16 1017 58 10000 3.6 350 18:36 11.08.2019
3864 Clear 16 1017 58 10000 3.6 350 18:18 11.08.2019
3865 Clear 15 1018 71 10000 2.6 10 17:41 11.08.2019
3866 Clear 15 1018 71 10000 2.6 10 17:20 11.08.2019
3867 Clear 15 1018 71 10000 3.6 340 16:58 11.08.2019
3868 Clear 14 1018 71 10000 3.6 340 16:38 11.08.2019
3869 Clear 14 1018 71 10000 3.6 340 16:38 11.08.2019
3870 Clear 14 1018 71 10000 3.6 340 16:20 11.08.2019
3871 Clear 14 1018 71 10000 3.6 340 16:20 11.08.2019
3872 Clear 13 1018 76 10000 4.1 320 15:44 11.08.2019
3873 Clear 12 1018 76 10000 4.1 320 15:25 11.08.2019
3874 Clear 10 1018 81 10000 4.6 330 14:59 11.08.2019
3875 Clear 10 1018 81 10000 4.6 330 14:40 11.08.2019
3876 Clear 9 1018 81 10000 4.6 330 14:21 11.08.2019
3877 Clear 8 1018 81 10000 4.6 330 13:45 11.08.2019
3878 Clear 8 1018 81 10000 4.6 330 13:26 11.08.2019
3879 Clear 8 1018 81 10000 2.6 320 12:57 11.08.2019
3880 Clear 8 1018 81 10000 2.6 320 12:37 11.08.2019
3881 Clear 8 1017 81 10000 3.1 330 12:19 11.08.2019
3882 Clear 8 1017 81 10000 3.1 330 11:40 11.08.2019
3883 Clear 8 1017 81 10000 3.1 330 11:22 11.08.2019
3884 Clear 8 1018 81 10000 2.1 320 10:55 11.08.2019
3885 Clear 8 1018 81 10000 2.1 320 10:37 11.08.2019
3886 Clear 8 1018 81 10000 2.1 320 10:19 11.08.2019
3887 Clear 9 1018 76 10000 3.1 330 09:42 11.08.2019
3888 Clear 9 1018 76 10000 3.1 330 09:23 11.08.2019
3889 Clear 9 1018 76 10000 2.6 330 08:49 11.08.2019
3890 Clear 9 1018 76 10000 2.6 330 08:29 11.08.2019
3891 Clear 10 1018 76 10000 3.6 330 07:57 11.08.2019
3892 Clear 10 1018 76 10000 3.6 330 07:30 11.08.2019
3893 Clear 10 1018 66 10000 4.1 330 06:46 11.08.2019
3894 Clear 10 1018 66 10000 4.1 330 06:26 11.08.2019
3895 Clear 11 1018 62 10000 4.6 320 04:38 11.08.2019
3896 Clear 11 1018 66 10000 4.6 320 02:50 11.08.2019
3897 Clear 12 1018 62 10000 5.1 330 01:53 11.08.2019
3898 Clear 12 1018 62 10000 5.1 330 01:26 11.08.2019
3899 Clear 13 1017 62 10000 5.1 330 00:53 11.08.2019
3900 Clear 13 1017 62 10000 5.1 330 00:33 11.08.2019
3901 Clear 15 1017 47 10000 4.6 330 23:49 10.08.2019
3902 Clear 15 1017 47 10000 4.6 330 23:29 10.08.2019
3903 Clear 16 1017 41 10000 5.7 320 22:45 10.08.2019
3904 Clear 16 1017 41 10000 5.7 320 22:26 10.08.2019
3905 Clear 16 1017 44 10000 5.1 310 21:58 10.08.2019
3906 Clear 17 1017 44 10000 5.1 310 21:39 10.08.2019
3907 Clear 17 1017 44 10000 5.1 310 21:20 10.08.2019
3908 Clear 17 1017 41 10000 5.1 310 20:56 10.08.2019
3909 Clear 17 1017 41 10000 5.1 310 20:37 10.08.2019
3910 Clear 16 1018 44 10000 5.1 300 20:18 10.08.2019
3911 Clear 16 1018 44 10000 5.1 300 19:40 10.08.2019
3912 Clear 16 1018 44 10000 5.1 300 19:21 10.08.2019
3913 Clear 14 1019 47 10000 4.6 290 18:42 10.08.2019
3914 Clear 14 1019 47 10000 4.6 290 18:23 10.08.2019
3915 Clear 13 1020 50 10000 3.6 300 17:55 10.08.2019
3916 Clear 13 1020 50 10000 3.6 300 17:36 10.08.2019
3917 Clear 12 1020 50 10000 3.6 300 17:18 10.08.2019
3918 Clear 11 1020 50 10000 3.6 300 16:42 10.08.2019
3919 Clear 11 1020 50 10000 3.6 300 16:20 10.08.2019
3920 Clear 10 1020 57 10000 3.1 280 15:43 10.08.2019
3921 Clear 10 1020 57 10000 3.1 280 15:21 10.08.2019
3922 Clear 8 1020 65 10000 3.1 270 14:43 10.08.2019
3923 Clear 7 1020 65 10000 3.1 270 14:19 10.08.2019
3924 Clear 5 1020 74 10000 1 320 13:40 10.08.2019
3925 Clear 4 1019 75 10000 1.5 250 13:19 10.08.2019
3926 Clear 4 1019 75 10000 1.5 250 12:43 10.08.2019
3927 Clear 3 1019 75 10000 1.5 250 12:23 10.08.2019
3928 Clear 3 1019 75 10000 1 250 11:57 10.08.2019
3929 Clear 3 1019 75 10000 1 250 11:39 10.08.2019
3930 Clear 3 1019 75 10000 1.5 250 11:20 10.08.2019
3931 Clear 3 1019 75 10000 1.5 250 10:39 10.08.2019
3932 Clear 4 1019 70 10000 2.1 230 10:20 10.08.2019
3933 Clear 4 1019 70 10000 2.1 230 10:20 10.08.2019
3934 Clear 4 1019 70 10000 2.1 230 09:59 10.08.2019
3935 Clear 4 1019 70 10000 2.1 230 09:38 10.08.2019
3936 Clear 5 1019 70 10000 2.1 230 09:20 10.08.2019
3937 Clear 5 1019 70 10000 2.1 230 08:39 10.08.2019
3938 Clear 6 1019 70 10000 2.1 230 08:19 10.08.2019
3939 Clear 6 1019 65 10000 1.5 230 07:52 10.08.2019
3940 Clear 6 1019 65 10000 1.5 230 07:27 10.08.2019
3941 Clear 6 1019 70 10000 1 200 06:48 10.08.2019
3942 Clear 7 1019 70 10000 1 200 06:21 10.08.2019
3943 Clear 8 1019 66 10000 2.6 230 05:24 10.08.2019
3944 Clear 8 1019 66 10000 2.6 230 04:21 10.08.2019
3945 Clear 8 1019 81 10000 2.1 230 02:54 10.08.2019
3946 Clear 9 1019 87 10000 2.6 180 01:59 10.08.2019
3947 Clear 9 1019 87 10000 2.6 180 01:39 10.08.2019
3948 Rain 9 1018 87 9000 3.1 200 01:20 10.08.2019
3949 Rain 9 1018 87 9000 3.1 200 00:43 10.08.2019
3950 Rain 9 1018 87 9000 3.1 200 00:21 10.08.2019
3951 Rain 9 1018 87 10000 2.1 190 23:42 09.08.2019
3952 Rain 9 1018 87 10000 2.1 190 23:22 09.08.2019
3953 Rain 9 1017 87 9000 3.1 190 22:56 09.08.2019
3954 Rain 9 1017 87 9000 3.1 190 22:38 09.08.2019
3955 Rain 9 1017 87 9000 3.1 190 22:19 09.08.2019
3956 Rain 9 1018 87 9000 2.6 180 21:41 09.08.2019
3957 Rain 9 1018 87 9000 2.6 180 21:22 09.08.2019
3958 Rain 9 1018 87 7000 3.1 170 20:58 09.08.2019
3959 Rain 9 1018 87 7000 3.1 170 20:39 09.08.2019
3960 Rain 9 1018 87 7000 3.1 170 20:20 09.08.2019
3961 Rain 9 1019 93 8000 4.1 160 19:56 09.08.2019
3962 Rain 9 1019 93 8000 4.1 160 19:37 09.08.2019
3963 Rain 9 1019 93 8000 4.1 160 19:18 09.08.2019
3964 Rain 9 1019 93 7000 3.6 150 18:39 09.08.2019
3965 Rain 8 1020 87 5000 2.6 170 18:21 09.08.2019
3966 Rain 8 1020 87 5000 2.6 170 17:45 09.08.2019
3967 Rain 8 1020 87 5000 2.6 170 17:25 09.08.2019
3968 Rain 8 1021 100 5000 2.6 160 16:58 09.08.2019
3969 Rain 8 1021 87 9000 3.6 150 16:38 09.08.2019
3970 Rain 8 1021 87 9000 3.6 150 16:20 09.08.2019
3971 Drizzle 8 1020 87 9000 4.1 150 15:55 09.08.2019
3972 Drizzle 8 1020 87 9000 4.1 150 15:36 09.08.2019
3973 -273 0 0 0 0 0 15:18 09.08.2019
3974 Rain 8 1021 87 5000 4.6 150 14:42 09.08.2019
3975 Rain 8 1021 87 5000 4.6 150 14:21 09.08.2019
3976 Rain 8 1022 81 9000 5.7 150 13:55 09.08.2019
3977 Rain 8 1022 81 9000 5.7 150 13:37 09.08.2019
3978 Rain 8 1022 81 9000 5.7 150 13:18 09.08.2019
3979 Rain 8 1022 70 8000 5.7 150 12:41 09.08.2019
3980 Rain 8 1022 70 8000 5.7 150 12:22 09.08.2019
3981 Rain 8 1022 81 9000 4.1 150 11:42 09.08.2019
3982 Rain 8 1022 81 9000 4.1 150 11:21 09.08.2019
3983 Rain 8 1022 81 9000 4.1 150 11:21 09.08.2019
3984 Rain 9 1023 87 9000 4.6 160 10:58 09.08.2019
3985 Rain 9 1023 87 9000 4.6 160 10:39 09.08.2019
3986 Rain 9 1023 87 9000 4.6 160 10:20 09.08.2019
3987 Rain 9 1023 87 5000 5.7 140 09:42 09.08.2019
3988 Rain 9 1023 87 5000 5.7 140 09:19 09.08.2019
3989 Rain 9 1024 81 9000 6.7 140 08:46 09.08.2019
3990 Rain 9 1024 81 9000 6.7 140 08:26 09.08.2019
3991 Rain 10 1025 76 10000 5.1 140 07:59 09.08.2019
3992 Rain 10 1025 76 10000 5.1 140 07:41 09.08.2019
3993 Rain 10 1025 76 10000 5.1 140 07:21 09.08.2019
3994 Rain 10 1026 76 10000 5.7 140 06:44 09.08.2019
3995 Rain 10 1026 76 10000 5.7 140 06:21 09.08.2019
3996 Rain 10 1026 71 10000 4.6 150 05:45 09.08.2019
3997 Clear 11 1026 66 10000 7.2 140 02:29 09.08.2019
3998 Clear 11 1026 62 10000 7.2 130 01:26 09.08.2019
3999 Clear 11 1026 53 10000 8.7 130 00:42 09.08.2019
4000 Clear 11 1026 53 10000 8.7 130 00:23 09.08.2019
4001 Clouds 12 1027 58 10000 8.7 130 23:57 08.08.2019
4002 Clouds 12 1027 58 10000 8.7 130 23:57 08.08.2019
4003 Clouds 12 1027 58 10000 8.7 130 23:37 08.08.2019
4004 Clouds 12 1027 58 10000 8.7 130 23:19 08.08.2019
4005 Clear 13 1027 58 10000 7.2 130 22:54 08.08.2019
4006 Clear 13 1027 58 10000 7.2 130 22:36 08.08.2019
4007 Clear 13 1027 58 10000 7.2 130 22:18 08.08.2019
4008 Clear 13 1026 54 10000 7.7 130 22:18 08.08.2019
4009 Clear 13 1026 54 10000 7.7 130 21:42 08.08.2019
4010 Clear 13 1026 54 10000 7.7 130 21:23 08.08.2019
4011 Clear 13 1025 47 10000 7.7 140 20:57 08.08.2019
4012 Clear 14 1025 47 10000 7.7 140 20:39 08.08.2019
4013 Clear 13 1025 47 10000 7.7 140 20:19 08.08.2019
4014 Clear 13 1026 58 10000 7.2 130 19:48 08.08.2019
4015 Clear 13 1026 58 10000 7.2 130 19:28 08.08.2019
4016 Clear 13 1026 58 10000 7.7 140 18:54 08.08.2019
4017 Clear 13 1026 58 10000 7.7 140 18:36 08.08.2019
4018 Clear 12 1027 62 10000 5.7 150 18:18 08.08.2019
4019 Clear 12 1027 62 10000 5.7 150 17:41 08.08.2019
4020 Clear 12 1027 62 10000 5.7 150 17:23 08.08.2019
4021 Clear 12 1027 62 10000 5.7 150 17:23 08.08.2019
4022 Clear 11 1027 66 10000 4.6 150 16:56 08.08.2019
4023 Clear 11 1027 66 10000 4.6 150 16:37 08.08.2019
4024 Clear 11 1027 66 10000 4.6 150 16:19 08.08.2019
4025 Clear 10 1026 62 10000 5.1 140 15:56 08.08.2019
4026 Clear 10 1026 62 10000 5.1 140 15:36 08.08.2019
4027 Clear 10 1026 62 10000 5.1 140 15:18 08.08.2019
4028 Clear 10 1026 66 10000 6.2 130 14:37 08.08.2019
4029 Clear 10 1026 66 10000 6.2 130 14:18 08.08.2019
4030 Clear 10 1025 66 10000 5.7 140 13:41 08.08.2019
4031 Clear 10 1025 66 10000 5.7 140 13:23 08.08.2019
4032 Clear 10 1025 66 10000 6.2 140 12:57 08.08.2019
4033 Clear 10 1025 66 10000 6.2 140 12:37 08.08.2019
4034 Clear 10 1025 66 10000 6.2 140 12:37 08.08.2019
4035 Clear 10 1024 62 10000 5.1 150 12:18 08.08.2019
4036 Clear 10 1024 62 10000 5.1 150 11:41 08.08.2019
4037 Clear 10 1024 62 10000 5.1 150 11:23 08.08.2019
4038 Clear 10 1024 58 10000 4.6 160 10:41 08.08.2019
4039 Clear 10 1024 58 10000 4.6 160 10:22 08.08.2019
4040 Clear 10 1024 62 10000 4.1 150 09:53 08.08.2019
4041 Clear 10 1024 62 10000 4.1 150 09:32 08.08.2019
4042 Clear 10 1025 66 10000 3.1 140 08:59 08.08.2019
4043 Clear 10 1025 66 10000 3.1 140 08:39 08.08.2019
4044 Clear 10 1025 66 10000 3.1 140 08:19 08.08.2019
4045 Clear 10 1025 66 10000 3.1 140 07:41 08.08.2019
4046 Clear 10 1025 66 10000 3.1 140 07:20 08.08.2019
4047 Clear 10 1025 62 10000 4.1 140 06:56 08.08.2019
4048 Clear 10 1025 62 10000 4.1 140 06:37 08.08.2019
4049 Clear 11 1025 62 10000 4.1 140 05:53 08.08.2019
4050 Clear 10 1025 62 10000 4.1 140 05:19 08.08.2019
4051 Clear 11 1024 71 10000 4.6 140 03:53 08.08.2019
4052 Clear 11 1024 66 10000 6.2 120 02:51 08.08.2019
4053 Clear 12 1023 46 10000 5.7 140 01:38 08.08.2019
4054 Clear 13 1022 58 10000 6.2 120 00:26 08.08.2019
4055 Clear 13 1022 47 10000 7.7 130 23:56 07.08.2019
4056 Clear 14 1022 47 10000 7.7 130 23:21 07.08.2019
4057 Clear 14 1022 50 10000 7.7 110 22:57 07.08.2019
4058 Clear 14 1022 50 10000 7.7 110 22:39 07.08.2019
4059 Clear 14 1022 50 10000 7.7 110 22:20 07.08.2019
4060 Clear 15 1022 50 10000 7.7 110 22:20 07.08.2019
4061 Clear 15 1021 54 10000 6.2 120 21:56 07.08.2019
4062 Clear 15 1021 54 10000 6.2 120 21:37 07.08.2019
4063 Clear 15 1021 54 10000 6.2 120 21:18 07.08.2019
4064 Clear 15 1021 62 10000 6.7 110 20:42 07.08.2019
4065 Clear 16 1021 67 10000 6.2 110 20:23 07.08.2019
4066 Clear 16 1021 67 10000 6.2 110 19:57 07.08.2019
4067 Clear 16 1021 67 10000 6.2 110 19:39 07.08.2019
4068 Clear 16 1021 67 10000 6.2 110 19:21 07.08.2019
4069 Clear 15 1022 51 10000 6.2 120 18:43 07.08.2019
4070 Clear 15 1022 51 10000 6.2 120 18:21 07.08.2019
4071 Clear 15 1022 50 10000 7.2 130 17:58 07.08.2019
4072 Clear 15 1022 50 10000 7.2 130 17:58 07.08.2019
4073 Clear 15 1022 50 10000 7.2 130 17:39 07.08.2019
4074 Clear 15 1022 50 10000 7.2 130 17:21 07.08.2019
4075 Clear 15 1022 50 10000 7.2 130 17:21 07.08.2019
4076 Clear 14 1022 54 10000 6.7 130 16:57 07.08.2019
4077 Clear 14 1022 54 10000 6.7 130 16:39 07.08.2019
4078 Clear 14 1022 54 10000 6.7 130 16:20 07.08.2019
4079 Clear 14 1022 54 10000 6.7 130 16:20 07.08.2019
4080 Clear 13 1022 54 10000 6.2 130 15:56 07.08.2019
4081 Clear 13 1022 54 10000 6.2 130 15:37 07.08.2019
4082 Clear 13 1022 54 10000 6.2 130 15:18 07.08.2019
4083 Clear 12 1021 58 10000 5.7 130 14:45 07.08.2019
4084 Clear 12 1021 58 10000 5.7 130 14:26 07.08.2019
4085 Clear 11 1020 58 10000 5.7 140 13:44 07.08.2019
4086 Clear 11 1020 58 10000 5.7 140 13:19 07.08.2019
4087 Clear 11 1019 50 10000 6.7 140 12:58 07.08.2019
4088 Clear 11 1019 50 10000 6.7 140 12:39 07.08.2019
4089 Clear 10 1019 87 10000 2.6 130 12:20 07.08.2019
4090 Clear 11 1018 54 10000 5.7 160 11:58 07.08.2019
4091 Clear 11 1018 54 10000 5.7 160 11:40 07.08.2019
4092 Clear 11 1018 54 10000 5.7 160 11:19 07.08.2019
4093 Clear 11 1017 66 10000 4.6 170 10:41 07.08.2019
4094 Clear 11 1017 66 10000 4.6 170 10:20 07.08.2019
4095 Clear 11 1017 87 10000 1.5 170 09:59 07.08.2019
4096 Clear 12 1016 63 10000 3.1 180 09:40 07.08.2019
4097 Clear 12 1016 63 10000 3.1 180 09:20 07.08.2019
4098 Clear 12 1016 63 9000 2.1 200 08:45 07.08.2019
4099 Clear 12 1016 63 9000 2.1 200 08:25 07.08.2019
4100 Mist 12 1017 72 9000 1.5 210 07:51 07.08.2019
4101 Mist 12 1017 72 9000 1.5 210 07:31 07.08.2019
4102 Clear 13 1017 67 9000 1 190 06:48 07.08.2019
4103 Clear 13 1017 67 9000 1 190 06:26 07.08.2019
4104 Clear 13 1016 72 9000 1.5 210 05:42 07.08.2019
4105 Clear 14 1016 77 10000 2.1 319.26 04:40 07.08.2019
4106 Clear 15 1014 72 10000 1 230 02:58 07.08.2019
4107 Clear 15 1014 72 10000 1 230 02:38 07.08.2019
4108 Clear 16 1014 67 10000 1 330 01:51 07.08.2019
4109 Clear 17 1013 72 10000 1 350 00:57 07.08.2019
4110 Clear 18 1013 72 10000 1 350 00:24 07.08.2019
4111 Clear 18 1012 68 10000 2.6 350 23:58 06.08.2019
4112 Clear 19 1012 68 10000 2.6 350 23:37 06.08.2019
4113 Clear 20 1012 68 10000 2.6 350 23:18 06.08.2019
4114 Clear 21 1012 63 10000 2.6 340 22:40 06.08.2019
4115 Clear 22 1012 63 10000 2.6 340 22:21 06.08.2019
4116 Clear 22 1012 46 10000 4.6 320 21:57 06.08.2019
4117 Clear 22 1012 46 10000 4.6 320 21:38 06.08.2019
4118 Clear 23 1012 46 10000 4.6 320 21:19 06.08.2019
4119 Clear 22 1012 40 10000 6.7 310 20:43 06.08.2019
4120 Clear 22 1012 55 10000 4.1 340 20:24 06.08.2019
4121 Clear 21 1013 52 10000 5.7 330 19:49 06.08.2019
4122 Clear 21 1013 52 10000 5.7 330 19:29 06.08.2019
4123 Clear 21 1015 59 10000 4.6 330 18:57 06.08.2019
4124 Clear 21 1015 59 10000 4.6 330 18:39 06.08.2019
4125 Clear 20 1015 59 10000 4.6 330 18:20 06.08.2019
4126 Clear 20 1015 49 10000 6.7 320 17:57 06.08.2019
4127 Clear 20 1015 52 10000 7.7 320 17:37 06.08.2019
4128 Clear 19 1015 52 10000 7.7 320 17:19 06.08.2019
4129 Clear 18 1016 55 10000 6.7 320 16:43 06.08.2019
4130 Clear 16 1016 76 10000 3.1 360 16:24 06.08.2019
4131 Clear 16 1016 76 10000 4.6 350 15:58 06.08.2019
4132 Clear 15 1016 76 10000 4.6 350 15:39 06.08.2019
4133 Clear 14 1016 76 10000 4.6 350 15:21 06.08.2019
4134 Clear 13 1016 81 10000 4.1 350 14:47 06.08.2019
4135 Clear 13 1016 81 10000 4.1 350 14:27 06.08.2019
4136 Clear 12 1016 81 10000 3.6 330 13:59 06.08.2019
4137 Clear 11 1016 81 10000 3.6 330 13:41 06.08.2019
4138 Clear 11 1016 81 10000 3.6 330 13:41 06.08.2019
4139 Clear 11 1016 81 10000 3.6 330 13:23 06.08.2019
4140 Clear 11 1016 76 10000 5.1 330 12:59 06.08.2019
4141 Clear 11 1016 76 10000 5.1 330 12:39 06.08.2019
4142 Clear 12 1016 76 10000 5.1 330 12:21 06.08.2019
4143 Clear 12 1016 76 10000 4.6 330 11:43 06.08.2019
4144 Clear 12 1016 76 10000 4.6 330 11:20 06.08.2019
4145 Clear 12 1016 76 10000 5.7 340 10:56 06.08.2019
4146 Clear 12 1016 76 10000 5.7 340 10:56 06.08.2019
4147 Clear 12 1016 76 10000 5.7 340 10:38 06.08.2019
4148 Clear 12 1016 76 10000 5.7 340 10:19 06.08.2019
4149 Clear 12 1016 71 10000 4.1 360 09:41 06.08.2019
4150 Clear 12 1016 71 10000 4.1 360 09:20 06.08.2019
4151 Clear 12 1017 76 10000 5.7 340 08:49 06.08.2019
4152 Clear 12 1017 76 10000 5.7 340 08:27 06.08.2019
4153 Clear 12 1018 71 10000 5.1 350 07:56 06.08.2019
4154 Clear 12 1018 71 10000 5.1 350 07:23 06.08.2019
4155 Clear 13 1018 71 10000 6.2 350 06:43 06.08.2019
4156 Clear 13 1018 71 10000 6.2 350 06:19 06.08.2019
4157 Clear 14 1019 71 10000 6.2 360 04:36 06.08.2019
4158 Clear 14 1020 72 10000 2.6 360 01:59 06.08.2019
4159 Clear 15 1020 72 10000 2.6 360 01:25 06.08.2019
4160 Clear 15 1020 72 10000 3.1 350 00:39 06.08.2019
4161 Clear 16 1020 67 10000 4.6 360 23:52 05.08.2019
4162 Clear 17 1020 67 10000 4.6 360 23:19 05.08.2019
4163 Clear 18 1020 42 10000 6.2 360 22:42 05.08.2019
4164 Clear 18 1020 42 10000 6.2 360 22:23 05.08.2019
4165 Clear 19 1020 39 10000 4.6 360 21:58 05.08.2019
4166 Clear 20 1020 39 10000 4.6 360 21:39 05.08.2019
4167 Clear 19 1020 39 10000 4.6 360 21:39 05.08.2019
4168 Clear 20 1020 39 10000 4.6 360 21:19 05.08.2019
4169 Clear 20 1021 28 10000 6.2 320 20:56 05.08.2019
4170 Clear 20 1021 28 10000 6.2 320 20:37 05.08.2019
4171 Clear 19 1021 28 10000 6.2 320 20:18 05.08.2019
4172 Clear 19 1021 32 10000 6.2 340 19:43 05.08.2019
4173 Clear 19 1021 32 10000 6.2 340 19:24 05.08.2019
4174 Clear 18 1023 36 10000 5.1 340 18:57 05.08.2019
4175 Clear 18 1023 36 10000 5.1 340 18:39 05.08.2019
4176 Clear 16 1024 62 10000 5.7 360 18:19 05.08.2019
4177 Clear 16 1024 44 10000 6.2 340 17:45 05.08.2019
4178 Clear 16 1024 44 10000 6.2 340 17:45 05.08.2019
4179 Clear 16 1024 62 10000 5.7 360 17:26 05.08.2019
4180 Clear 14 1025 66 10000 6.2 350 16:46 05.08.2019
4181 Clear 14 1025 66 10000 6.2 350 16:26 05.08.2019
4182 Clear 12 1025 76 10000 5.1 340 15:56 05.08.2019
4183 Clear 12 1025 76 10000 5.1 340 15:37 05.08.2019
4184 Clear 11 1025 76 10000 5.1 340 15:18 05.08.2019
4185 Clear 10 1025 76 10000 5.7 330 14:39 05.08.2019
4186 Clear 10 1025 76 10000 5.7 330 14:19 05.08.2019
4187 Clear 9 1025 81 10000 5.7 330 13:43 05.08.2019
4188 Clear 9 1025 81 10000 5.7 330 13:22 05.08.2019
4189 Clear 9 1025 81 10000 6.7 340 12:46 05.08.2019
4190 Clear 9 1025 81 10000 6.7 340 12:20 05.08.2019
4191 Clear 9 1025 81 10000 5.1 340 11:47 05.08.2019
4192 Clear 10 1025 81 10000 5.1 340 11:27 05.08.2019
4193 Clear 10 1025 76 10000 6.7 340 10:59 05.08.2019
4194 Clear 10 1025 76 10000 6.7 340 10:40 05.08.2019
4195 Clear 10 1025 76 10000 6.7 340 10:21 05.08.2019
4196 Clear 10 1025 76 10000 4.6 330 09:43 05.08.2019
4197 Clear 10 1025 76 10000 4.6 330 09:24 05.08.2019
4198 Clear 10 1026 76 10000 4.6 340 08:49 05.08.2019
4199 Clear 10 1026 76 10000 4.6 340 08:25 05.08.2019
4200 Clear 11 1026 71 10000 5.1 340 07:54 05.08.2019
4201 Clear 11 1026 71 10000 5.1 340 07:31 05.08.2019
4202 Clear 11 1026 66 10000 5.1 340 06:59 05.08.2019
4203 Clear 12 1026 62 10000 5.7 340 06:29 05.08.2019
4204 Clear 12 1026 62 10000 5.7 340 05:41 05.08.2019
4205 Clear 12 1027 66 10000 5.1 350 04:56 05.08.2019
4206 Clear 13 1026 71 10000 4.1 10 03:56 05.08.2019
4207 Clear 13 1026 71 10000 4.1 10 03:20 05.08.2019
4208 Clear 13 1027 67 10000 3.6 350 02:26 05.08.2019
4209 Clear 13 1027 67 10000 3.6 350 01:32 05.08.2019
4210 Clear 14 1027 67 10000 5.1 350 00:41 05.08.2019
4211 Clear 15 1027 62 10000 5.1 350 00:21 05.08.2019
4212 Clear 15 1027 62 10000 5.1 350 23:44 04.08.2019
4213 Clear 15 1027 62 10000 5.1 350 23:24 04.08.2019
4214 Clear 16 1027 62 10000 4.1 360 22:58 04.08.2019
4215 Clear 17 1027 36 10000 6.2 340 22:38 04.08.2019
4216 Clear 17 1027 33 10000 5.7 320 22:20 04.08.2019
4217 Clear 17 1027 33 10000 5.7 320 21:58 04.08.2019
4218 Clear 17 1027 33 10000 5.7 320 21:40 04.08.2019
4219 Clear 17 1028 55 10000 3.6 350 21:19 04.08.2019
4220 Clear 17 1028 55 10000 3.6 350 20:42 04.08.2019
4221 Clear 17 1028 55 10000 3.6 350 20:19 04.08.2019
4222 Clear 17 1029 48 10000 4.1 340 19:54 04.08.2019
4223 Clear 17 1029 48 10000 4.1 340 19:36 04.08.2019
4224 Clear 17 1029 48 10000 4.1 340 19:18 04.08.2019
4225 Clear 16 1030 47 10000 5.1 340 18:41 04.08.2019
4226 Clear 16 1030 47 10000 5.1 340 18:20 04.08.2019
4227 Clear 15 1030 58 10000 5.1 350 17:44 04.08.2019
4228 Clear 15 1030 58 10000 5.1 350 17:24 04.08.2019
4229 Clear 14 1031 62 10000 5.1 340 16:46 04.08.2019
4230 Clear 13 1031 62 10000 5.1 340 16:27 04.08.2019
4231 Clear 12 1030 76 10000 5.1 330 15:56 04.08.2019
4232 Clear 11 1030 76 10000 5.1 330 15:37 04.08.2019
4233 Clear 10 1030 81 10000 4.6 320 15:18 04.08.2019
4234 Clear 9 1030 81 10000 4.6 320 14:42 04.08.2019
4235 Clear 9 1030 81 10000 4.6 320 14:21 04.08.2019
4236 Clear 8 1030 87 10000 4.1 330 13:44 04.08.2019
4237 Clear 7 1030 87 10000 4.1 330 13:24 04.08.2019
4238 Clear 7 1030 87 10000 4.1 330 13:24 04.08.2019
4239 Clear 7 1029 66 10000 3.6 330 12:55 04.08.2019
4240 Clear 7 1029 80 10000 1.5 290 12:37 04.08.2019
4241 Clear 7 1029 80 10000 1.5 290 12:37 04.08.2019
4242 Clear 7 1029 80 10000 1.5 290 12:19 04.08.2019
4243 Clear 7 1028 70 10000 2.6 310 11:41 04.08.2019
4244 Clear 7 1028 70 10000 2.6 310 11:22 04.08.2019
4245 Clear 8 1028 61 10000 5.1 320 10:43 04.08.2019
4246 Clear 8 1028 61 10000 5.1 320 10:43 04.08.2019
4247 Clear 7 1028 61 10000 5.1 320 10:21 04.08.2019
4248 Clear 7 1028 58 10000 1.5 300 09:46 04.08.2019
4249 Clear 8 1028 54 10000 1.5 300 09:25 04.08.2019
4250 Clear 8 1029 46 10000 1.5 300 08:57 04.08.2019
4251 Clear 8 1029 46 10000 1.5 300 08:32 04.08.2019
4252 Clear 8 1029 46 10000 2.6 310 07:54 04.08.2019
4253 Clear 8 1029 46 10000 2.6 310 07:22 04.08.2019
4254 Clear 8 1029 55 10000 2.6 300 06:28 04.08.2019
4255 Clear 9 1029 50 10000 1.5 290 05:43 04.08.2019
4256 Clear 10 1028 46 10000 0.5 260 02:47 04.08.2019
4257 Clear 11 1028 52 10000 1 0 01:51 04.08.2019
4258 Clear 11 1028 52 10000 1 0 01:27 04.08.2019
4259 Clear 12 1028 52 10000 1 0 00:41 04.08.2019
4260 Clear 12 1028 45 10000 1 0 00:22 04.08.2019
4261 Clear 14 1027 45 10000 2.1 260 23:42 03.08.2019
4262 Clear 14 1027 45 10000 2.1 260 23:19 03.08.2019
4263 Clear 15 1027 45 10000 1.5 270 22:55 03.08.2019
4264 Clear 16 1027 45 10000 1.5 270 22:37 03.08.2019
4265 Clear 16 1027 45 10000 1.5 270 22:18 03.08.2019
4266 Clear 16 1027 45 10000 1.5 270 22:18 03.08.2019
4267 Clear 16 1027 33 10000 2.1 270 21:37 03.08.2019
4268 Clear 16 1027 33 10000 2.1 270 21:19 03.08.2019
4269 Clear 16 1028 39 10000 3.1 200 20:42 03.08.2019
4270 Clear 16 1028 39 10000 3.1 200 20:22 03.08.2019
4271 Clouds 16 1028 36 10000 4.1 220 19:43 03.08.2019
4272 Clouds 15 1028 36 10000 4.1 220 19:24 03.08.2019
4273 Clear 15 1029 38 10000 3.1 230 18:56 03.08.2019
4274 Clear 15 1029 38 10000 3.1 230 18:27 03.08.2019
4275 Clear 14 1029 41 10000 2.6 240 17:50 03.08.2019
4276 Clear 14 1029 41 10000 2.6 240 17:22 03.08.2019
4277 Clear 12 1029 38 10000 3.1 240 16:57 03.08.2019
4278 Clear 12 1029 38 10000 3.1 240 16:37 03.08.2019
4279 Clear 12 1029 38 10000 3.1 240 16:19 03.08.2019
4280 Clear 10 1028 38 10000 2.1 240 15:43 03.08.2019
4281 Clear 7 1028 47 10000 2.1 240 15:23 03.08.2019
4282 Clear 6 1028 49 10000 2.6 220 14:40 03.08.2019
4283 Clear 6 1028 49 10000 2.6 220 14:21 03.08.2019
4284 Clear 5 1027 49 10000 2.1 230 13:51 03.08.2019
4285 Clear 4 1027 49 10000 2.1 230 13:25 03.08.2019
4286 Clear 4 1027 74 10000 1 270 12:57 03.08.2019
4287 Clear 4 1027 74 10000 1 270 12:57 03.08.2019
4288 Clear 4 1027 74 10000 1 270 12:38 03.08.2019
4289 Clear 5 1027 45 10000 2.6 230 12:20 03.08.2019
4290 Clear 5 1027 65 10000 1 270 11:47 03.08.2019
4291 Clear 5 1027 65 10000 1 270 11:25 03.08.2019
4292 Clear 6 1026 49 10000 1.5 240 10:40 03.08.2019
4293 Clear 6 1026 49 10000 1.5 240 10:22 03.08.2019
4294 Clear 6 1027 52 10000 2.1 270 09:39 03.08.2019
4295 Clear 6 1027 45 10000 1.5 220 09:19 03.08.2019
4296 Clear 6 1027 45 10000 1.5 220 08:46 03.08.2019
4297 Clear 7 1027 57 10000 2.6 230 07:47 03.08.2019
4298 Clear 6 1027 52 10000 2.1 230 07:28 03.08.2019
4299 Clear 7 1027 52 10000 1.5 230 06:22 03.08.2019
4300 Clear 9 1026 43 10000 2.1 240 03:58 03.08.2019
4301 Clear 10 1025 40 10000 2.6 250 02:29 03.08.2019
4302 Clear 11 1025 37 10000 2.6 250 01:34 03.08.2019
4303 Clear 12 1024 37 10000 3.1 240 00:33 03.08.2019
4304 Clear 13 1024 33 10000 3.6 250 23:57 02.08.2019
4305 Clear 13 1024 33 10000 3.6 250 23:57 02.08.2019
4306 Clear 13 1024 33 10000 3.6 250 23:37 02.08.2019
4307 Clear 14 1023 26 10000 4.1 230 23:18 02.08.2019
4308 Clear 14 1023 26 10000 4.1 230 22:40 02.08.2019
4309 Clear 15 1023 26 10000 4.1 230 22:22 02.08.2019
4310 Clear 15 1023 26 10000 4.1 230 21:57 02.08.2019
4311 Clear 15 1023 26 10000 4.1 230 21:39 02.08.2019
4312 Clear 15 1023 26 10000 4.1 230 21:21 02.08.2019
4313 Clear 15 1023 30 10000 5.1 230 20:44 02.08.2019
4314 Clear 15 1023 30 10000 5.1 230 20:26 02.08.2019
4315 Clear 14 1023 39 10000 7.2 230 19:55 02.08.2019
4316 Clear 14 1023 39 10000 7.2 230 19:33 02.08.2019
4317 Clouds 14 1023 41 10000 4.6 230 18:57 02.08.2019
4318 Clouds 14 1023 41 10000 4.6 230 18:39 02.08.2019
4319 Clouds 14 1023 41 10000 4.6 230 18:18 02.08.2019
4320 Clouds 13 1024 46 10000 6.2 220 17:41 02.08.2019
4321 Clouds 13 1024 46 10000 6.2 220 17:22 02.08.2019
4322 Clear 12 1024 50 10000 4.1 220 16:40 02.08.2019
4323 Clear 11 1024 50 10000 4.1 220 16:21 02.08.2019
4324 Clear 10 1023 47 10000 4.6 230 15:57 02.08.2019
4325 Clear 10 1023 47 10000 4.6 230 15:37 02.08.2019
4326 Clear 8 1023 52 10000 4.1 260 15:18 02.08.2019
4327 Clear 10 1023 52 10000 4.6 230 15:18 02.08.2019
4328 Clear 8 1023 52 10000 4.1 260 14:44 02.08.2019
4329 Clear 7 1022 52 10000 4.1 230 14:18 02.08.2019
4330 Clear 7 1022 52 10000 4.1 230 13:46 02.08.2019
4331 Clear 7 1022 50 10000 4.1 230 13:23 02.08.2019
4332 Clear 6 1021 52 10000 3.6 250 12:44 02.08.2019
4333 Clear 6 1021 52 10000 3.6 250 12:21 02.08.2019
4334 Clear 6 1021 47 10000 4.1 250 11:42 02.08.2019
4335 Clear 7 1020 49 10000 4.6 240 11:24 02.08.2019
4336 Clear 8 1020 49 10000 4.6 240 10:49 02.08.2019
4337 Clear 7 1020 49 10000 4.6 240 10:24 02.08.2019
4338 Clear 8 1020 49 10000 4.6 240 09:59 02.08.2019
4339 Clear 8 1020 49 10000 4.6 240 09:41 02.08.2019
4340 Clear 8 1020 49 10000 4.6 240 09:23 02.08.2019
4341 Clear 8 1019 43 10000 3.6 240 08:42 02.08.2019
4342 Clear 8 1019 43 10000 3.6 240 08:20 02.08.2019
4343 Clear 8 1019 46 10000 3.6 260 07:46 02.08.2019
4344 Clear 9 1019 46 10000 3.6 260 07:28 02.08.2019
4345 Clear 9 1019 46 10000 3.6 260 06:41 02.08.2019
4346 Clear 9 1019 43 10000 3.1 250 05:50 02.08.2019
4347 Clear 11 1017 41 10000 4.1 260 03:54 02.08.2019
4348 Clear 11 1017 43 10000 4.1 260 03:24 02.08.2019
4349 Clear 12 1016 42 10000 4.1 250 01:44 02.08.2019
4350 Clear 13 1015 42 10000 3.1 240 00:34 02.08.2019
4351 Clear 13 1014 37 10000 5.7 230 23:46 01.08.2019
4352 Clear 13 1014 37 10000 5.7 230 23:27 01.08.2019
4353 Clear 13 1014 37 10000 5.7 230 23:27 01.08.2019
4354 Clear 15 1012 29 10000 5.1 250 22:46 01.08.2019
4355 Clear 15 1012 29 10000 5.1 250 22:26 01.08.2019
4356 Clear 16 1011 33 10000 8.7 250 21:59 01.08.2019
4357 Clear 16 1011 25 10000 5.1 250 21:41 01.08.2019
4358 Clear 16 1011 33 10000 8.7 250 21:23 01.08.2019
4359 Clear 16 1011 37 10000 3.1 250 20:47 01.08.2019
4360 Clear 16 1011 37 10000 3.1 250 20:23 01.08.2019
4361 Clear 15 1012 37 10000 5.1 250 19:59 01.08.2019
4362 Clear 15 1012 37 10000 5.1 250 19:37 01.08.2019
4363 Clear 14 1012 37 10000 5.1 250 19:18 01.08.2019
4364 Clear 14 1012 37 10000 5.1 250 18:43 01.08.2019
4365 Clear 14 1012 37 10000 5.1 250 18:43 01.08.2019
4366 Clear 14 1012 39 10000 5.1 250 18:24 01.08.2019
4367 Clouds 13 1013 39 10000 5.1 250 17:47 01.08.2019
4368 Clouds 13 1013 39 10000 5.1 250 17:29 01.08.2019
4369 Clouds 13 1013 43 10000 4.1 250 16:45 01.08.2019
4370 Clouds 12 1013 43 10000 4.1 250 16:23 01.08.2019
4371 Clouds 12 1012 43 10000 3.1 250 15:46 01.08.2019
4372 Clouds 12 1012 43 10000 3.1 250 15:22 01.08.2019
4373 Rain 12 1011 50 10000 2.6 250 14:59 01.08.2019
4374 Rain 12 1011 50 10000 2.6 250 14:41 01.08.2019
4375 Rain 12 1011 50 10000 2.6 250 14:19 01.08.2019
4376 Clear 12 1010 54 10000 1.5 230 13:56 01.08.2019
4377 Clear 12 1010 54 10000 1.5 230 13:56 01.08.2019
4378 Clear 12 1010 54 10000 1.5 230 13:38 01.08.2019
4379 Clear 12 1010 54 10000 1.5 230 13:20 01.08.2019
4380 Clear 12 1010 54 10000 2.1 230 12:41 01.08.2019
4381 Clear 11 1010 71 10000 4.6 180 12:22 01.08.2019
4382 Clear 11 1010 71 10000 4.6 180 11:43 01.08.2019
4383 Clear 12 1009 54 10000 3.1 250 11:23 01.08.2019
4384 Clear 12 1009 54 10000 3.1 250 11:23 01.08.2019
4385 Clear 12 1009 71 10000 3.1 220 10:46 01.08.2019
4386 Clear 12 1009 71 10000 3.1 220 10:28 01.08.2019
4387 Clouds 12 1010 93 8000 3.6 200 09:59 01.08.2019
4388 Clouds 12 1010 93 8000 3.6 200 09:40 01.08.2019
4389 Clouds 12 1010 93 8000 3.6 200 09:22 01.08.2019
4390 Clouds 12 1010 93 8000 3.6 200 09:22 01.08.2019
4391 Clouds 12 1009 87 8000 1.5 0 08:43 01.08.2019
4392 Clouds 12 1009 87 8000 1.5 0 08:20 01.08.2019
4393 Clear 12 1009 87 10000 2.6 200 07:47 01.08.2019
4394 Clear 12 1009 87 10000 2.6 200 07:24 01.08.2019
4395 Clear 13 1008 93 10000 2.6 230 06:48 01.08.2019
4396 Clear 14 1008 82 10000 2.1 240 05:50 01.08.2019
4397 Clear 16 1007 77 10000 2.1 290 04:18 01.08.2019
4398 Clear 17 1007 72 10000 3.1 300 02:32 01.08.2019
4399 Clouds 18 1007 68 10000 3.6 320 00:42 01.08.2019
4400 Clouds 18 1007 72 10000 3.6 270 00:24 01.08.2019
4401 Clear 18 1006 77 10000 3.6 330 23:42 31.07.2019
4402 Clear 18 1006 77 10000 3.6 330 23:20 31.07.2019
4403 Clear 20 1006 64 10000 5.1 320 22:47 31.07.2019
4404 Clear 20 1006 64 10000 5.1 320 22:29 31.07.2019
4405 Clear 20 1006 63 10000 5.7 320 21:45 31.07.2019
4406 Clear 20 1006 63 10000 5.7 320 21:24 31.07.2019
4407 Clouds 20 1007 60 10000 5.7 310 20:56 31.07.2019
4408 Clouds 20 1007 60 10000 5.7 310 20:38 31.07.2019
4409 Clouds 20 1007 60 10000 5.7 310 20:20 31.07.2019
4410 Clouds 19 1008 72 10000 4.6 340 19:41 31.07.2019
4411 Clear 19 1010 72 10000 3.6 340 19:22 31.07.2019
4412 Clear 18 1010 72 10000 3.6 340 18:41 31.07.2019
4413 Clear 18 1010 72 10000 3.6 340 18:22 31.07.2019
4414 Clear 17 1011 72 10000 4.1 290 17:55 31.07.2019
4415 Clear 17 1011 82 10000 3.1 350 17:37 31.07.2019
4416 Clear 16 1011 82 10000 3.6 340 17:18 31.07.2019
4417 Clear 16 1011 82 10000 3.6 340 16:41 31.07.2019
4418 Clear 16 1011 82 10000 3.6 340 16:41 31.07.2019
4419 Clear 15 1011 82 10000 3.6 340 16:19 31.07.2019
4420 Clear 14 1011 87 10000 3.6 330 15:44 31.07.2019
4421 Clear 13 1011 87 10000 3.6 330 15:24 31.07.2019
4422 Clear 12 1011 87 10000 4.6 330 14:42 31.07.2019
4423 Clear 12 1011 87 10000 4.6 330 14:20 31.07.2019
4424 Clear 11 1012 93 10000 3.6 320 13:56 31.07.2019
4425 Clear 11 1012 93 10000 3.6 320 13:56 31.07.2019
4426 Clear 11 1012 93 10000 3.6 320 13:37 31.07.2019
4427 Clear 11 1012 93 10000 3.6 320 13:19 31.07.2019
4428 Clouds 11 1012 93 10000 4.6 330 12:42 31.07.2019
4429 Clouds 11 1012 93 10000 4.6 330 12:23 31.07.2019
4430 Clear 11 1012 87 10000 4.6 320 11:40 31.07.2019
4431 Clear 11 1012 87 10000 4.6 320 11:21 31.07.2019
4432 -273 0 0 0 0 0 10:56 31.07.2019
4433 Clear 11 1013 87 10000 4.6 320 10:38 31.07.2019
4434 Clear 11 1013 87 10000 4.6 320 10:19 31.07.2019
4435 Clear 11 1013 87 10000 3.6 330 09:43 31.07.2019
4436 Clear 11 1014 87 10000 4.1 310 09:23 31.07.2019
4437 Clear 11 1014 87 10000 4.1 310 08:44 31.07.2019
4438 Clear 11 1014 87 10000 4.1 310 08:24 31.07.2019
4439 Clear 12 1015 82 10000 5.1 300 07:48 31.07.2019
4440 Clear 12 1015 82 10000 5.1 300 07:30 31.07.2019
4441 Clear 12 1015 87 10000 4.1 310 05:23 31.07.2019
4442 Clear 13 1016 87 10000 3.6 320 03:56 31.07.2019
4443 Clear 13 1016 82 10000 2.6 320 00:37 31.07.2019
4444 Clear 15 1016 82 10000 1 10 23:49 30.07.2019
4445 Clear 15 1016 82 10000 1 10 23:27 30.07.2019
4446 Clear 16 1016 82 10000 2.6 360 22:49 30.07.2019
4447 Clear 17 1016 63 10000 3.6 290 22:26 30.07.2019
4448 Clear 17 1016 63 10000 3.6 290 22:26 30.07.2019
4449 Clear 17 1017 59 10000 3.1 290 21:57 30.07.2019
4450 Clear 17 1017 59 10000 3.1 290 21:37 30.07.2019
4451 Clear 17 1017 82 10000 3.6 30 21:19 30.07.2019
4452 Clear 17 1017 82 10000 3.6 20 20:44 30.07.2019
4453 Clear 17 1017 82 10000 3.6 20 20:25 30.07.2019
4454 Clear 16 1017 67 10000 3.1 10 19:59 30.07.2019
4455 Clear 16 1017 67 10000 3.1 10 19:40 30.07.2019
4456 Clear 16 1017 67 10000 3.1 10 19:21 30.07.2019
4457 Clear 15 1018 71 10000 3.1 330 18:44 30.07.2019
4458 Clear 14 1018 71 10000 3.1 330 18:20 30.07.2019
4459 Clear 13 1019 81 10000 3.1 360 17:42 30.07.2019
4460 Clear 13 1019 81 10000 3.1 360 17:20 30.07.2019
4461 Clear 13 1019 81 10000 3.1 360 17:20 30.07.2019
4462 Clear 12 1019 71 10000 3.1 270 16:53 30.07.2019
4463 Clear 12 1019 71 10000 3.1 270 16:22 30.07.2019
4464 Clear 12 1019 71 10000 3.1 270 16:22 30.07.2019
4465 Clear 11 1019 76 10000 1.5 240 15:58 30.07.2019
4466 Clear 11 1019 76 10000 1.5 240 15:38 30.07.2019
4467 Clear 10 1019 76 10000 1.5 240 15:19 30.07.2019
4468 Clear 9 1019 81 10000 3.1 230 14:42 30.07.2019
4469 Clear 8 1019 81 10000 3.1 230 14:21 30.07.2019
4470 Fog 7 1019 87 10000 2.1 250 13:48 30.07.2019
4471 Fog 7 1019 87 10000 2.1 250 13:29 30.07.2019
4472 Fog 7 1018 87 10000 1.5 230 12:59 30.07.2019
4473 Fog 7 1018 87 10000 1.5 230 12:40 30.07.2019
4474 Fog 8 1018 87 10000 1.5 230 12:22 30.07.2019
4475 Clear 8 1018 87 10000 1.5 240 11:42 30.07.2019
4476 Clear 8 1018 87 10000 1.5 240 11:20 30.07.2019
4477 Mist 8 1017 87 10000 2.1 230 10:49 30.07.2019
4478 Mist 8 1017 87 10000 2.1 230 10:29 30.07.2019
4479 Clear 8 1018 87 10000 2.1 230 09:55 30.07.2019
4480 Clear 8 1018 87 10000 2.1 230 09:37 30.07.2019
4481 Clear 8 1018 87 10000 2.1 230 09:19 30.07.2019
4482 Fog 9 1018 100 10000 1.5 180 08:32 30.07.2019
4483 Fog 9 1017 100 3000 1.5 270 07:50 30.07.2019
4484 Fog 9 1018 93 10000 1 230 07:31 30.07.2019
4485 Clouds 10 1018 81 8000 1 0 06:48 30.07.2019
4486 Clouds 10 1018 81 8000 1 0 06:28 30.07.2019
4487 Clear 10 1018 87 10000 1 260 05:34 30.07.2019
4488 Clouds 12 1018 82 10000 2.1 330 03:28 30.07.2019
4489 Clouds 13 1018 76 10000 1 0 01:21 30.07.2019
4490 Clouds 13 1018 82 10000 1.5 330 00:22 30.07.2019
4491 Clouds 14 1018 82 10000 1.5 50 23:47 29.07.2019
4492 Clouds 14 1018 87 10000 1 70 23:28 29.07.2019
4493 Clouds 15 1017 82 10000 2.6 50 22:58 29.07.2019
4494 Clouds 15 1017 82 10000 2.6 50 22:58 29.07.2019
4495 Clouds 15 1017 82 10000 2.6 50 22:39 29.07.2019
4496 Clouds 15 1017 82 10000 2.6 50 22:20 29.07.2019
4497 Clouds 15 1017 62 10000 2.1 200 21:59 29.07.2019
4498 Clouds 15 1017 62 10000 2.1 200 21:40 29.07.2019
4499 Clouds 15 1017 62 10000 2.1 200 21:22 29.07.2019
4500 Clouds 16 1017 59 10000 2.1 200 20:49 29.07.2019
4501 Clouds 16 1017 59 10000 2.1 200 20:26 29.07.2019
4502 Clouds 16 1017 67 10000 0.58 39.742 19:59 29.07.2019
4503 Clouds 16 1017 67 10000 0.58 39.742 19:41 29.07.2019
4504 Clouds 16 1017 67 10000 0.58 39.742 19:20 29.07.2019
4505 Clouds 16 1018 72 10000 1 140 18:43 29.07.2019
4506 Clouds 16 1018 76 10000 2.1 70 18:22 29.07.2019
4507 Clouds 15 1018 76 10000 2.1 50 17:53 29.07.2019
4508 Clouds 15 1018 76 10000 2.1 50 17:35 29.07.2019
4509 Clouds 14 1019 82 10000 1.5 360 16:59 29.07.2019
4510 Clouds 14 1019 82 10000 1.5 360 16:40 29.07.2019
4511 Clouds 13 1019 82 10000 1.5 360 16:22 29.07.2019
4512 Clouds 12 1019 87 10000 1.5 360 15:52 29.07.2019
4513 Clouds 12 1019 87 10000 1.5 360 15:33 29.07.2019
4514 Clouds 12 1019 81 10000 1.5 360 14:56 29.07.2019
4515 Clouds 12 1019 81 10000 1.5 360 14:56 29.07.2019
4516 Clouds 12 1019 81 10000 1.5 360 14:37 29.07.2019
4517 Clouds 12 1019 81 10000 1.5 360 14:19 29.07.2019
4518 Clouds 11 1019 81 10000 1 20 13:41 29.07.2019
4519 Clouds 11 1019 81 10000 1 20 13:23 29.07.2019
4520 Clouds 11 1019 87 10000 2.51 47.649 12:42 29.07.2019
4521 Clouds 11 1019 87 10000 2.55 47.402 12:23 29.07.2019
4522 Clouds 11 1019 87 10000 2.55 47.402 11:44 29.07.2019
4523 Clouds 11 1019 81 10000 1 20 11:22 29.07.2019
4524 Clouds 11 1019 81 10000 2.1 50 10:46 29.07.2019
4525 Clouds 11 1019 81 10000 2.1 50 10:25 29.07.2019
4526 Clouds 11 1019 81 10000 2.6 70 09:50 29.07.2019
4527 Clouds 11 1019 81 10000 2.6 70 09:28 29.07.2019
4528 Clouds 12 1019 81 10000 3.1 60 08:57 29.07.2019
4529 Clouds 11 1019 81 10000 3.1 60 08:31 29.07.2019
4530 Clouds 11 1020 81 10000 3.6 50 07:58 29.07.2019
4531 Clouds 12 1020 81 10000 3.6 50 07:36 29.07.2019
4532 Clouds 12 1020 81 10000 4.6 50 06:45 29.07.2019
4533 Clouds 11 1020 76 10000 4.6 40 05:46 29.07.2019
4534 Clouds 12 1021 81 10000 5.1 50 04:50 29.07.2019
4535 Clouds 13 1021 76 10000 6.2 60 01:59 29.07.2019
4536 Clouds 12 1021 76 10000 6.2 60 01:41 29.07.2019
4537 Clouds 13 1021 87 10000 4.6 100 01:21 29.07.2019
4538 Clouds 13 1021 87 10000 4.6 100 00:41 29.07.2019
4539 Clear 13 1021 87 10000 5.1 110 00:18 29.07.2019
4540 Clear 13 1021 87 10000 5.1 110 23:40 28.07.2019
4541 Clear 14 1021 87 10000 6.7 100 23:18 28.07.2019
4542 Clear 14 1021 87 10000 6.7 100 22:37 28.07.2019
4543 Clear 15 1022 72 10000 3.6 70 22:18 28.07.2019
4544 Clear 15 1022 72 10000 3.6 70 21:43 28.07.2019
4545 Clear 15 1022 72 10000 3.6 70 21:18 28.07.2019
4546 Clear 15 1022 72 10000 3.1 50 20:44 28.07.2019
4547 Clear 15 1022 72 10000 3.1 50 20:26 28.07.2019
4548 Clear 15 1023 72 10000 3.1 30 19:42 28.07.2019
4549 Clear 15 1023 72 10000 3.1 30 19:22 28.07.2019
4550 Clear 15 1025 76 10000 3.6 30 18:50 28.07.2019
4551 Clear 15 1025 76 10000 3.6 30 18:29 28.07.2019
4552 Clear 15 1026 76 10000 4.6 10 17:58 28.07.2019
4553 Clouds 15 1025 67 10000 5.1 20 17:40 28.07.2019
4554 Clouds 15 1025 67 10000 5.1 20 17:19 28.07.2019
4555 Clear 14 1026 76 10000 5.1 20 16:46 28.07.2019
4556 Clear 14 1026 76 10000 5.1 20 16:26 28.07.2019
4557 Clear 13 1026 76 10000 4.1 30 15:49 28.07.2019
4558 Clear 12 1026 76 10000 4.1 30 15:27 28.07.2019
4559 Mist 11 1026 81 10000 4.1 60 14:56 28.07.2019
4560 Mist 11 1026 81 10000 4.1 60 14:37 28.07.2019
4561 Mist 9 1025 81 10000 4.1 60 14:18 28.07.2019
4562 Mist 8 1025 81 10000 4.1 60 13:40 28.07.2019
4563 Mist 8 1025 81 10000 4.1 60 13:21 28.07.2019
4564 Fog 8 1025 93 10000 1 70 12:46 28.07.2019
4565 Fog 9 1025 93 10000 1 70 12:28 28.07.2019
4566 Fog 9 1025 81 10000 2.6 110 11:51 28.07.2019
4567 Fog 9 1025 81 10000 2.6 110 11:31 28.07.2019
4568 Clear 9 1026 81 10000 3.1 110 10:59 28.07.2019
4569 Clear 9 1026 93 10000 1.5 70 10:38 28.07.2019
4570 Clear 9 1026 93 10000 1.5 70 10:19 28.07.2019
4571 Clear 9 1026 93 10000 3.1 70 09:40 28.07.2019
4572 Clouds 10 1027 87 10000 3.1 100 09:22 28.07.2019
4573 Clouds 10 1027 93 10000 4.1 100 08:42 28.07.2019
4574 Clouds 10 1027 93 10000 4.1 100 08:22 28.07.2019
4575 Clouds 10 1027 93 10000 4.1 70 07:42 28.07.2019
4576 Clouds 10 1027 93 10000 4.1 70 07:24 28.07.2019
4577 Mist 10 1027 87 10000 4.1 90 06:35 28.07.2019
4578 Clouds 10 1028 87 10000 4.1 90 05:20 28.07.2019
4579 Clear 11 1028 81 10000 3.6 110 02:37 28.07.2019
4580 Clear 11 1027 81 10000 3.6 120 01:40 28.07.2019
4581 Clear 12 1027 76 10000 1 0 00:54 28.07.2019
4582 Clear 12 1027 76 10000 1 0 00:30 28.07.2019
4583 Clear 13 1027 76 10000 1.5 60 23:53 27.07.2019
4584 Clear 13 1027 76 10000 1.5 60 23:28 27.07.2019
4585 Clear 15 1026 71 10000 3.1 90 22:46 27.07.2019
4586 Clear 15 1026 71 10000 3.1 90 22:28 27.07.2019
4587 Clear 16 1026 62 10000 3.1 50 21:47 27.07.2019
4588 Clear 16 1026 62 10000 3.1 50 21:25 27.07.2019
4589 Clear 16 1027 67 10000 2.6 50 20:57 27.07.2019
4590 Clear 16 1027 67 10000 2.6 50 20:39 27.07.2019
4591 Clear 16 1027 67 10000 2.6 50 20:19 27.07.2019
4592 Clear 16 1027 62 10000 2.6 30 19:40 27.07.2019
4593 Clear 16 1027 62 10000 2.6 30 19:21 27.07.2019
4594 Clear 16 1028 62 10000 2.6 50 18:47 27.07.2019
4595 Clear 15 1028 62 10000 2.6 50 18:29 27.07.2019
4596 Clear 14 1028 51 10000 1 0 17:50 27.07.2019
4597 Clear 14 1028 51 10000 1 0 17:50 27.07.2019
4598 Clear 14 1028 51 10000 1 0 17:32 27.07.2019
4599 Clear 13 1028 58 10000 1.5 210 16:55 27.07.2019
4600 Clear 13 1028 58 10000 1.5 210 16:37 27.07.2019
4601 Clear 11 1028 58 10000 1 260 15:56 27.07.2019
4602 Clear 11 1028 58 10000 1 260 15:36 27.07.2019
4603 Clear 10 1028 58 10000 1 260 15:18 27.07.2019
4604 Fog 9 1027 71 10000 1.85 229.429 14:41 27.07.2019
4605 Fog 8 1027 71 10000 1.85 229.429 14:23 27.07.2019
4606 Fog 7 1027 100 7000 0.5 340 13:47 27.07.2019
4607 Fog 7 1027 100 3000 0.5 340 13:22 27.07.2019
4608 Fog 7 1026 100 5000 1 280 12:50 27.07.2019
4609 Fog 7 1026 100 5000 1 280 12:27 27.07.2019
4610 Fog 8 1026 81 10000 1 230 11:54 27.07.2019
4611 Fog 8 1026 81 10000 1 230 11:36 27.07.2019
4612 Fog 8 1026 81 10000 1 230 11:18 27.07.2019
4613 Fog 9 1025 87 10000 1 0 10:40 27.07.2019
4614 Fog 10 1025 93 10000 2.1 260 10:20 27.07.2019
4615 Fog 9 1025 93 5000 2.63 246.584 09:41 27.07.2019
4616 Fog 10 1025 93 5000 1.64 261.275 09:22 27.07.2019
4617 Fog 11 1025 93 10000 1 0 08:48 27.07.2019
4618 Fog 11 1025 93 10000 1 0 08:29 27.07.2019
4619 Fog 11 1024 100 800 2.6 310 07:50 27.07.2019
4620 Fog 12 1025 93 10000 1 0 07:27 27.07.2019
4621 Fog 11 1024 100 5000 2.6 290 06:55 27.07.2019
4622 Clouds 12 1025 93 10000 1 230 06:29 27.07.2019
4623 Drizzle 12 1025 93 10000 1.5 230 05:43 27.07.2019
4624 Drizzle 12 1024 87 3000 2.6 230 04:59 27.07.2019
4625 Drizzle 12 1024 100 9000 2.1 230 04:21 27.07.2019
4626 Drizzle 12 1023 93 10000 1.5 230 02:44 27.07.2019
4627 Drizzle 13 1023 93 10000 1.5 230 02:25 27.07.2019
4628 Drizzle 13 1022 93 10000 2.1 0 01:42 27.07.2019
4629 Drizzle 13 1022 100 1500 2.1 160 00:57 27.07.2019
4630 Drizzle 13 1021 100 5000 2.1 200 00:31 27.07.2019
4631 Drizzle 13 1019 93 2000 2.1 210 23:50 26.07.2019
4632 Drizzle 13 1019 93 2000 2.1 210 23:29 26.07.2019
4633 Drizzle 13 1018 87 10000 2.6 200 22:45 26.07.2019
4634 Drizzle 13 1018 87 10000 2.6 200 22:26 26.07.2019
4635 Drizzle 13 1017 87 9000 2.1 210 21:58 26.07.2019
4636 Drizzle 13 1017 87 9000 2.1 210 21:58 26.07.2019
4637 Drizzle 13 1017 87 9000 2.1 210 21:37 26.07.2019
4638 Drizzle 13 1017 87 9000 2.1 210 21:18 26.07.2019
4639 Drizzle 13 1017 87 9000 2.1 210 21:18 26.07.2019
4640 Drizzle 13 1017 87 5000 3.1 220 20:40 26.07.2019
4641 Drizzle 13 1018 93 10000 4.6 200 20:21 26.07.2019
4642 Drizzle 13 1018 93 2500 4.6 210 19:41 26.07.2019
4643 Drizzle 13 1018 93 2500 4.6 210 19:22 26.07.2019
4644 Drizzle 13 1017 93 2000 2.1 200 18:45 26.07.2019
4645 Drizzle 13 1017 93 2000 2.1 200 18:22 26.07.2019
4646 Drizzle 13 1017 93 4000 2.6 190 17:58 26.07.2019
4647 Drizzle 12 1017 93 9000 2.6 200 17:38 26.07.2019
4648 Drizzle 12 1017 93 9000 2.6 200 17:18 26.07.2019
4649 Drizzle 12 1017 100 3000 3.1 210 16:55 26.07.2019
4650 Drizzle 12 1017 100 8000 2.1 210 16:36 26.07.2019
4651 Drizzle 12 1017 100 8000 2.1 210 16:18 26.07.2019
4652 Drizzle 12 1017 100 8000 2.1 210 16:18 26.07.2019
4653 Drizzle 12 1017 100 1500 2.6 220 15:44 26.07.2019
4654 Drizzle 12 1017 100 1500 2.6 220 15:21 26.07.2019
4655 Drizzle 11 1017 100 2000 2.1 230 14:46 26.07.2019
4656 Drizzle 11 1016 100 4000 2.1 220 14:25 26.07.2019
4657 Drizzle 12 1016 100 2000 2.1 220 13:48 26.07.2019
4658 Drizzle 11 1016 100 1000 1 0 13:29 26.07.2019
4659 Drizzle 11 1016 100 1000 1 210 12:55 26.07.2019
4660 Drizzle 11 1016 100 800 1 0 12:36 26.07.2019
4661 Drizzle 11 1016 100 800 1 0 12:18 26.07.2019
4662 Drizzle 11 1015 100 3000 1.5 180 11:38 26.07.2019
4663 Drizzle 11 1015 100 3000 1.5 180 11:18 26.07.2019
4664 Drizzle 11 1015 100 1400 2.1 160 10:46 26.07.2019
4665 Drizzle 11 1015 100 1400 2.1 160 10:28 26.07.2019
4666 Drizzle 12 1016 100 1400 4.1 140 09:50 26.07.2019
4667 Drizzle 12 1016 100 1800 4.1 140 09:31 26.07.2019
4668 Drizzle 11 1017 100 1400 5.1 140 08:42 26.07.2019
4669 Drizzle 11 1018 100 1600 6.2 140 08:21 26.07.2019
4670 Drizzle 11 1018 100 1600 6.2 140 07:52 26.07.2019
4671 Drizzle 11 1018 100 1600 6.2 140 07:26 26.07.2019
4672 Drizzle 11 1018 93 2000 5.7 140 06:31 26.07.2019
4673 Drizzle 10 1020 100 1700 6.2 140 04:31 26.07.2019
4674 Drizzle 11 1020 100 1400 7.7 140 03:55 26.07.2019
4675 Drizzle 10 1021 93 3000 5.7 120 01:50 26.07.2019
4676 Drizzle 10 1021 93 1700 7.7 140 01:26 26.07.2019
4677 Rain 10 1021 93 2000 7.7 140 00:32 26.07.2019
4678 Rain 10 1022 87 3000 4.6 140 23:48 25.07.2019
4679 Rain 10 1021 93 1400 7.2 160 23:22 25.07.2019
4680 Rain 11 1022 93 4000 6.2 110 22:42 25.07.2019
4681 Rain 11 1022 93 4000 6.2 110 22:23 25.07.2019
4682 Rain 11 1022 87 5000 6.2 110 21:56 25.07.2019
4683 Rain 11 1022 87 7000 6.2 110 21:37 25.07.2019
4684 Rain 11 1022 87 7000 6.2 110 21:19 25.07.2019
4685 Rain 12 1023 87 7000 9.8 120 20:40 25.07.2019
4686 Rain 12 1023 87 7000 9.8 120 20:20 25.07.2019
4687 Rain 12 1024 76 10000 8.2 110 19:40 25.07.2019
4688 Rain 12 1024 76 10000 8.2 110 19:22 25.07.2019
4689 Clouds 12 1025 76 10000 8.7 110 18:43 25.07.2019
4690 Clouds 12 1025 76 10000 8.7 110 18:25 25.07.2019
4691 Clouds 12 1026 76 10000 9.3 110 17:50 25.07.2019
4692 Clouds 12 1026 76 10000 9.3 110 17:32 25.07.2019
4693 Clouds 12 1027 76 10000 9.8 110 16:57 25.07.2019
4694 Clouds 12 1027 76 10000 9.8 110 16:39 25.07.2019
4695 Clouds 11 1027 76 10000 9.8 110 16:20 25.07.2019
4696 Rain 10 1027 76 10000 10.8 110 15:48 25.07.2019
4697 Rain 10 1027 81 10000 6.2 130 15:20 25.07.2019
4698 Clouds 9 1026 87 10000 6.2 140 14:43 25.07.2019
4699 Clouds 9 1026 87 10000 6.2 140 14:23 25.07.2019
4700 Clouds 9 1027 81 10000 5.1 140 13:56 25.07.2019
4701 Clouds 8 1027 81 10000 5.1 140 13:36 25.07.2019
4702 Clouds 8 1027 81 10000 5.1 140 13:18 25.07.2019
4703 Clouds 8 1027 81 10000 5.1 140 12:30 25.07.2019
4704 Clouds 8 1027 81 10000 3.6 130 11:54 25.07.2019
4705 Clouds 8 1027 81 10000 3.6 130 11:36 25.07.2019
4706 Clouds 8 1027 81 10000 3.6 130 11:18 25.07.2019
4707 Clouds 8 1027 87 10000 4.6 130 10:40 25.07.2019
4708 Clouds 8 1027 87 10000 4.6 130 10:22 25.07.2019
4709 Clouds 8 1028 81 10000 3.6 130 09:44 25.07.2019
4710 Clouds 8 1028 81 10000 3.6 130 09:25 25.07.2019
4711 Clear 8 1028 76 10000 4.1 140 08:44 25.07.2019
4712 Clear 8 1028 76 10000 4.1 140 08:19 25.07.2019
4713 Clouds 8 1028 81 10000 4.6 130 07:36 25.07.2019
4714 Clouds 8 1029 76 10000 4.1 130 06:43 25.07.2019
4715 Clouds 8 1029 81 10000 2.6 110 05:48 25.07.2019
4716 Clouds 8 1029 81 10000 2.6 110 05:28 25.07.2019
4717 Clear 9 1029 81 10000 4.1 130 04:37 25.07.2019
4718 Clear 10 1030 61 10000 3.1 120 01:46 25.07.2019
4719 Clear 10 1030 61 10000 3.1 120 01:18 25.07.2019
4720 Clear 11 1029 57 10000 3.1 100 00:20 25.07.2019
4721 Clear 11 1029 61 10000 4.6 100 23:47 24.07.2019
4722 Clear 11 1029 61 10000 4.6 100 23:29 24.07.2019
4723 Clear 12 1029 46 10000 4.6 100 22:55 24.07.2019
4724 Clear 12 1029 46 10000 4.6 100 22:55 24.07.2019
4725 Clear 12 1029 46 10000 4.6 100 22:36 24.07.2019
4726 Clear 12 1029 46 10000 4.6 100 22:18 24.07.2019
4727 Clear 13 1029 54 10000 3.6 70 21:42 24.07.2019
4728 Clear 13 1029 54 10000 3.6 70 21:21 24.07.2019
4729 Clear 13 1029 54 10000 3.6 70 21:21 24.07.2019
4730 Clear 13 1029 43 10000 3.1 70 20:55 24.07.2019
4731 Clear 13 1029 43 10000 3.1 70 20:37 24.07.2019
4732 Clear 14 1029 43 10000 3.1 70 20:19 24.07.2019
4733 Clear 14 1029 47 10000 3.1 80 19:41 24.07.2019
4734 Clear 14 1029 47 10000 3.1 80 19:21 24.07.2019
4735 Clear 14 1030 26 10000 3.6 150 18:45 24.07.2019
4736 Clear 13 1030 26 10000 3.6 150 18:25 24.07.2019
4737 Clear 12 1030 32 10000 3.6 170 17:55 24.07.2019
4738 Clear 12 1030 32 10000 3.6 170 17:37 24.07.2019
4739 Clear 12 1030 32 10000 3.6 170 17:37 24.07.2019
4740 Clear 12 1030 32 10000 3.6 170 17:18 24.07.2019
4741 Clear 12 1030 43 10000 2.6 180 16:39 24.07.2019
4742 Clear 11 1030 43 10000 2.6 180 16:21 24.07.2019
4743 Clear 9 1029 34 10000 2.1 200 15:38 24.07.2019
4744 Clear 9 1029 44 10000 2.1 200 15:20 24.07.2019
4745 Clear 7 1029 57 10000 2.1 190 14:46 24.07.2019
4746 Clear 6 1029 65 10000 1.5 200 14:22 24.07.2019
4747 Clear 6 1029 65 10000 1.5 200 14:22 24.07.2019
4748 Clear 6 1029 65 10000 1.5 200 13:41 24.07.2019
4749 Clear 4 1029 65 10000 1.5 200 13:23 24.07.2019
4750 Clear 5 1029 65 10000 1.5 220 12:54 24.07.2019
4751 Clear 4 1029 75 10000 2.6 200 12:35 24.07.2019
4752 Clear 5 1028 75 10000 2.1 180 11:57 24.07.2019
4753 Clear 5 1028 75 10000 2.1 180 11:37 24.07.2019
4754 Clear 6 1028 65 10000 2.1 190 11:18 24.07.2019
4755 Clear 6 1028 65 10000 2.1 190 11:18 24.07.2019
4756 Clear 6 1027 65 10000 2.6 180 10:41 24.07.2019
4757 Clear 6 1029 61 10000 2.1 180 10:23 24.07.2019
4758 Clear 7 1029 61 10000 2.1 180 09:44 24.07.2019
4759 Clear 7 1029 61 10000 2.1 180 09:22 24.07.2019
4760 Clear 7 1028 61 10000 1 170 08:52 24.07.2019
4761 Clear 7 1028 61 10000 1 170 08:26 24.07.2019
4762 Clear 7 1028 61 10000 1 170 08:26 24.07.2019
4763 Clear 8 1027 57 10000 3.6 150 07:46 24.07.2019
4764 Clear 8 1027 57 10000 3.6 150 07:20 24.07.2019
4765 Clear 9 1029 57 10000 2.6 150 06:28 24.07.2019
4766 Clear 9 1029 53 10000 1.5 180 05:24 24.07.2019
4767 Clear 10 1026 66 10000 3.1 160 01:55 24.07.2019
4768 Clear 11 1026 66 10000 3.1 160 00:58 24.07.2019
4769 Clear 11 1026 66 10000 3.1 160 00:39 24.07.2019
4770 Clear 11 1025 62 10000 3.6 160 23:57 23.07.2019
4771 Clear 11 1025 62 10000 3.6 160 23:37 23.07.2019
4772 Clear 11 1025 62 10000 3.6 160 23:18 23.07.2019
4773 Clear 11 1025 54 10000 3.6 160 22:38 23.07.2019
4774 Clear 11 1025 54 10000 3.6 160 22:19 23.07.2019
4775 Clear 11 1025 54 10000 3.6 160 21:45 23.07.2019
4776 Clear 11 1025 54 10000 3.6 160 21:26 23.07.2019
4777 Clear 11 1025 58 10000 3.1 170 20:49 23.07.2019
4778 Clear 11 1025 58 10000 3.1 170 20:29 23.07.2019
4779 Clear 11 1025 66 10000 2.1 180 19:44 23.07.2019
4780 Clear 11 1025 66 10000 2.1 180 19:44 23.07.2019
4781 Clear 11 1025 66 10000 2.1 180 19:24 23.07.2019
4782 Clear 11 1025 66 10000 2.1 180 19:24 23.07.2019
4783 Clear 11 1026 66 10000 3.6 160 18:58 23.07.2019
4784 Rain 11 1026 66 10000 3.6 160 18:39 23.07.2019
4785 Rain 11 1026 66 10000 3.6 160 18:20 23.07.2019
4786 Clear 11 1026 66 10000 4.1 170 17:43 23.07.2019
4787 Clear 11 1026 66 10000 4.1 170 17:22 23.07.2019
4788 Clear 10 1025 71 10000 4.6 150 16:44 23.07.2019
4789 Clear 10 1025 71 10000 4.6 150 16:26 23.07.2019
4790 Clear 9 1025 71 10000 4.1 150 15:52 23.07.2019
4791 Clear 9 1025 71 10000 4.1 150 15:34 23.07.2019
4792 Clear 9 1025 76 10000 3.6 140 14:56 23.07.2019
4793 Clear 9 1025 76 10000 3.6 140 14:36 23.07.2019
4794 Clear 8 1025 76 10000 3.6 140 14:18 23.07.2019
4795 Clear 8 1024 81 10000 4.1 140 13:55 23.07.2019
4796 Clear 8 1024 81 10000 4.1 140 13:36 23.07.2019
4797 Clear 8 1024 76 10000 4.6 140 13:18 23.07.2019
4798 Clear 8 1024 76 10000 4.6 140 12:41 23.07.2019
4799 Clear 8 1024 76 10000 4.6 140 12:21 23.07.2019
4800 Clear 8 1024 66 10000 3.1 150 11:41 23.07.2019
4801 Clear 8 1024 66 10000 3.1 150 11:21 23.07.2019
4802 Clear 8 1024 62 10000 3.6 160 10:49 23.07.2019
4803 Clear 8 1024 62 10000 3.6 160 10:23 23.07.2019
4804 Clear 8 1024 70 10000 2.1 170 09:43 23.07.2019
4805 Clear 8 1024 57 10000 3.1 150 09:22 23.07.2019
4806 Clear 9 1024 66 10000 3.6 150 08:44 23.07.2019
4807 -273 0 0 0 0 0 08:21 23.07.2019
4808 Clear 8 1024 66 10000 3.6 150 08:21 23.07.2019
4809 Clear 9 1024 57 10000 2.6 160 07:59 23.07.2019
4810 Clear 9 1024 57 10000 2.6 160 07:38 23.07.2019
4811 Clear 9 1024 50 10000 3.6 160 06:52 23.07.2019
4812 Clear 9 1024 50 10000 3.6 160 06:34 23.07.2019
4813 Clear 11 1022 47 10000 3.6 160 04:27 23.07.2019
4814 Clear 12 1021 47 10000 2.6 160 01:40 23.07.2019
4815 Clear 12 1021 44 10000 4.6 160 00:41 23.07.2019
4816 Clear 13 1021 44 10000 4.6 160 00:19 23.07.2019
4817 Clear 13 1020 44 10000 3.6 170 23:39 22.07.2019
4818 Clear 13 1020 44 10000 3.6 170 23:19 22.07.2019
4819 Clear 14 1020 42 10000 4.1 160 22:45 22.07.2019
4820 Clear 14 1020 42 10000 4.1 160 22:23 22.07.2019
4821 Clear 15 1019 38 10000 5.1 140 21:44 22.07.2019
4822 Clear 15 1019 38 10000 5.1 140 21:23 22.07.2019
4823 Clear 15 1019 41 10000 3.6 160 20:57 22.07.2019
4824 Clear 15 1019 41 10000 3.6 160 20:33 22.07.2019
4825 Clear 15 1018 33 10000 3.1 180 19:59 22.07.2019
4826 Clear 15 1018 33 10000 3.1 180 19:40 22.07.2019
4827 Clear 15 1018 33 10000 3.1 180 19:21 22.07.2019
4828 Clear 15 1018 33 10000 5.1 160 18:48 22.07.2019
4829 Clear 15 1018 33 10000 5.1 160 18:28 22.07.2019
4830 Clear 14 1018 44 10000 5.1 160 17:58 22.07.2019
4831 Clear 14 1018 44 10000 5.1 160 17:38 22.07.2019
4832 Clear 14 1018 44 10000 5.1 160 17:20 22.07.2019
4833 Clear 13 1018 41 10000 3.1 160 16:40 22.07.2019
4834 Clear 12 1018 41 10000 3.1 160 16:21 22.07.2019
4835 Clear 12 1018 41 10000 3.1 160 16:21 22.07.2019
4836 Clear 11 1017 58 10000 3.1 180 15:44 22.07.2019
4837 Clear 11 1017 58 10000 3.1 180 15:21 22.07.2019
4838 Clear 10 1017 62 10000 2.6 180 14:44 22.07.2019
4839 Clear 10 1017 62 10000 2.6 180 14:25 22.07.2019
4840 Clear 10 1016 57 10000 2.1 180 13:52 22.07.2019
4841 Clear 10 1016 57 10000 2.1 180 13:32 22.07.2019
4842 Clear 10 1015 62 10000 2.1 160 12:55 22.07.2019
4843 Clear 10 1015 62 10000 2.1 160 12:32 22.07.2019
4844 Clear 10 1013 57 10000 2.6 0 11:57 22.07.2019
4845 Clear 10 1013 57 10000 2.6 0 11:39 22.07.2019
4846 Clear 10 1013 57 10000 2.6 0 11:19 22.07.2019
4847 Clear 11 1013 54 10000 3.1 180 10:38 22.07.2019
4848 Clear 11 1013 50 10000 3.6 160 10:19 22.07.2019
4849 Clear 11 1013 50 10000 3.6 160 09:40 22.07.2019
4850 Clear 11 1013 50 10000 3.6 160 09:21 22.07.2019
4851 Clear 11 1013 58 10000 3.6 180 08:38 22.07.2019
4852 Clear 12 1013 58 10000 3.6 180 08:20 22.07.2019
4853 Clear 12 1012 54 10000 3.1 170 07:52 22.07.2019
4854 Clear 12 1012 54 10000 3.1 170 07:27 22.07.2019
4855 Clear 13 1010 50 10000 2.6 170 05:30 22.07.2019
4856 Clear 14 1007 67 10000 4.1 190 03:44 22.07.2019
4857 Thunderstorm 15 1003 93 9000 5.1 170 01:25 22.07.2019
4858 Thunderstorm 16 1002 100 8000 4.6 180 00:42 22.07.2019
4859 Thunderstorm 17 1002 100 8000 4.6 180 00:20 22.07.2019
4860 Thunderstorm 19 1001 78 5000 2.6 260 23:46 21.07.2019
4861 Thunderstorm 22 1000 57 3000 2.1 280 22:58 21.07.2019
4862 Thunderstorm 22 1000 57 10000 2.1 280 22:39 21.07.2019
4863 Clouds 25 1000 57 10000 2.1 280 22:20 21.07.2019
4864 Clouds 26 999 57 10000 5.7 310 21:49 21.07.2019
4865 Clouds 26 999 57 10000 5.7 310 21:26 21.07.2019
4866 Clear 26 999 64 10000 6.2 330 20:57 21.07.2019
4867 Clear 26 999 64 10000 6.2 330 20:39 21.07.2019
4868 Clear 26 999 64 10000 6.2 330 20:21 21.07.2019
4869 Thunderstorm 25 999 54 10000 8.2 340 19:48 21.07.2019
4870 Thunderstorm 25 999 54 10000 8.2 340 19:28 21.07.2019
4871 Clear 24 1000 68 10000 5.1 340 18:49 21.07.2019
4872 Clear 25 1000 68 10000 5.1 340 18:28 21.07.2019
4873 Thunderstorm 25 1002 73 10000 5.7 330 17:55 21.07.2019
4874 Thunderstorm 25 1002 73 10000 5.7 330 17:36 21.07.2019
4875 Thunderstorm 24 1002 73 10000 5.7 330 17:18 21.07.2019
4876 Thunderstorm 24 1001 68 10000 7.7 330 16:40 21.07.2019
4877 Thunderstorm 23 1001 68 10000 7.7 330 16:22 21.07.2019
4878 Thunderstorm 23 1001 68 10000 7.7 330 16:22 21.07.2019
4879 Thunderstorm 23 1001 64 10000 6.2 340 15:40 21.07.2019
4880 Thunderstorm 22 1001 64 10000 6.2 340 15:20 21.07.2019
4881 Thunderstorm 22 1001 64 10000 6.2 340 15:20 21.07.2019
4882 Rain 22 1001 73 10000 7.7 350 14:42 21.07.2019
4883 Rain 22 1001 73 10000 7.7 350 14:42 21.07.2019
4884 Rain 21 1001 73 10000 7.7 350 14:23 21.07.2019
4885 Thunderstorm 21 1000 73 10000 6.2 360 13:53 21.07.2019
4886 Thunderstorm 21 1000 73 10000 6.2 360 13:32 21.07.2019
4887 Clear 20 1001 88 10000 2.1 10 12:46 21.07.2019
4888 Clear 20 1001 88 10000 2.1 10 12:28 21.07.2019
4889 Clear 20 1001 88 10000 2.1 360 11:56 21.07.2019
4890 Clear 20 1001 88 10000 2.1 360 11:56 21.07.2019
4891 Clear 20 1001 88 10000 2.1 360 11:38 21.07.2019
4892 Clear 20 1001 88 10000 2.1 360 11:19 21.07.2019
4893 Clouds 20 1001 88 10000 2.6 340 10:41 21.07.2019
4894 Clouds 20 1001 88 10000 2.6 340 10:23 21.07.2019
4895 Clear 20 1001 77 10000 6.7 350 09:45 21.07.2019
4896 Clear 20 1001 77 10000 6.7 350 09:25 21.07.2019
4897 Clear 20 1002 77 10000 7.7 360 08:45 21.07.2019
4898 Clear 20 1002 77 10000 7.7 360 08:27 21.07.2019
4899 Clear 20 1002 73 10000 7.7 360 07:39 21.07.2019
4900 Clear 20 1003 77 10000 6.7 10 06:52 21.07.2019
4901 Clear 19 1004 88 10000 1 0 05:43 21.07.2019
4902 Clouds 18 1006 88 10000 3.1 60 02:53 21.07.2019
4903 Clouds 18 1007 88 10000 2.1 70 01:19 21.07.2019
4904 Clouds 18 1007 88 10000 3.6 80 00:41 21.07.2019
4905 Clouds 18 1007 88 10000 3.6 80 00:18 21.07.2019
4906 Clouds 18 1007 88 10000 2.6 90 23:41 20.07.2019
4907 Clouds 18 1007 88 10000 2.6 90 23:21 20.07.2019
4908 Clear 19 1008 88 10000 2.1 50 22:44 20.07.2019
4909 Clear 19 1008 88 10000 2.1 50 22:22 20.07.2019
4910 Clouds 19 1008 88 9000 2.6 100 21:46 20.07.2019
4911 Clouds 19 1008 88 9000 2.6 100 21:28 20.07.2019
4912 Clouds 19 1010 88 9000 2.1 60 20:58 20.07.2019
4913 Clouds 19 1010 88 9000 2.1 60 20:38 20.07.2019
4914 Clouds 19 1010 88 9000 2.1 60 20:18 20.07.2019
4915 Clouds 19 1010 88 9000 2.1 60 20:18 20.07.2019
4916 Clouds 19 1010 88 9000 2.1 60 20:18 20.07.2019
4917 Clouds 20 1010 73 10000 3.6 360 19:44 20.07.2019
4918 Clouds 20 1010 73 10000 3.6 360 19:19 20.07.2019
4919 Clouds 19 1012 77 10000 3.6 340 18:41 20.07.2019
4920 Clouds 18 1012 87 8000 1 40 18:20 20.07.2019
4921 Clouds 19 1013 77 10000 3.1 340 17:51 20.07.2019
4922 Clouds 19 1013 77 10000 3.1 340 17:23 20.07.2019
4923 Clouds 17 1014 93 9000 1.5 30 16:44 20.07.2019
4924 Clouds 17 1014 93 9000 1.5 30 16:26 20.07.2019
4925 Mist 16 1014 93 8000 2.6 360 15:57 20.07.2019
4926 Mist 15 1014 100 8000 2.1 350 15:38 20.07.2019
4927 Mist 15 1014 100 8000 2.1 350 15:19 20.07.2019
4928 Mist 14 1014 93 2800 2.6 10 14:47 20.07.2019
4929 Mist 14 1014 93 4300 2.6 360 14:22 20.07.2019
4930 Fog 13 1014 93 8000 2.6 360 13:39 20.07.2019
4931 Fog 13 1014 93 8000 2.6 340 13:20 20.07.2019
4932 Fog 13 1014 93 8000 2.6 340 13:20 20.07.2019
4933 Fog 13 1014 93 8000 2.6 340 12:54 20.07.2019
4934 Fog 13 1014 93 8000 2.6 340 12:21 20.07.2019
4935 Fog 12 1014 93 10000 1 340 11:56 20.07.2019
4936 Fog 12 1014 93 10000 1 340 11:24 20.07.2019
4937 Fog 11 1014 87 10000 1.5 360 10:55 20.07.2019
4938 Fog 12 1014 93 10000 0.5 300 10:36 20.07.2019
4939 Fog 11 1014 93 10000 0.5 300 10:18 20.07.2019
4940 Fog 12 1014 93 2900 1 50 09:44 20.07.2019
4941 Fog 12 1014 93 2900 1 50 09:18 20.07.2019
4942 Fog 12 1014 93 2900 1 50 09:18 20.07.2019
4943 Fog 12 1015 93 10000 1.5 320 08:44 20.07.2019
4944 Fog 12 1015 93 10000 1.5 320 08:20 20.07.2019
4945 Fog 12 1015 93 10000 2.1 320 07:20 20.07.2019
4946 Fog 12 1015 93 10000 1.5 330 06:41 20.07.2019
4947 Clouds 13 1014 93 6000 2.6 50 04:31 20.07.2019
4948 Clear 14 1015 93 10000 1 100 03:28 20.07.2019
4949 Clear 15 1014 93 10000 1 0 01:21 20.07.2019
4950 Clear 15 1014 93 10000 3.1 80 00:46 20.07.2019
4951 Clear 15 1014 93 10000 3.1 80 00:19 20.07.2019
4952 Clear 16 1015 82 10000 1.5 100 23:43 19.07.2019
4953 Clear 16 1015 82 10000 1.5 100 23:24 19.07.2019
4954 Clouds 18 1015 72 9000 1.5 80 22:45 19.07.2019
4955 Clouds 19 1015 72 9000 1.5 80 22:26 19.07.2019
4956 Haze 18 1015 77 7000 1.5 60 21:49 19.07.2019
4957 Haze 18 1015 77 7000 1.5 60 21:31 19.07.2019
4958 Haze 19 1015 72 10000 1.5 360 20:58 19.07.2019
4959 Mist 19 1015 72 10000 1.5 360 20:37 19.07.2019
4960 Mist 19 1016 82 10000 1.5 40 20:18 19.07.2019
4961 Mist 19 1016 82 10000 1.5 40 19:35 19.07.2019
4962 Mist 17 1017 82 10000 2.1 30 18:43 19.07.2019
4963 Mist 18 1017 82 10000 2.1 30 18:43 19.07.2019
4964 Clear 17 1018 87 10000 2.1 60 18:23 19.07.2019
4965 Mist 16 1018 87 10000 2.1 60 17:55 19.07.2019
4966 Clear 17 1018 87 10000 2.1 60 17:29 19.07.2019
4967 Clouds 16 1019 87 9000 2.6 70 16:49 19.07.2019
4968 Clouds 15 1019 87 9000 2.6 70 16:29 19.07.2019
4969 Clouds 14 1019 87 9000 3.1 80 15:55 19.07.2019
4970 Clouds 14 1019 87 9000 3.1 80 15:36 19.07.2019
4971 Mist 12 1019 100 100 1.5 0 15:18 19.07.2019
4972 Fog 11 1019 93 8000 3.1 120 14:43 19.07.2019
4973 Fog 10 1019 93 8000 3.1 120 14:23 19.07.2019
4974 Mist 10 1019 100 200 2.27 78.814 13:46 19.07.2019
4975 Mist 10 1019 100 200 2.2 75.686 13:26 19.07.2019
4976 Fog 10 1019 93 4300 1 110 12:56 19.07.2019
4977 Fog 10 1019 93 6000 2.6 150 12:36 19.07.2019
4978 Fog 10 1019 93 1200 0.5 150 12:18 19.07.2019
4979 Fog 11 1019 93 9000 2.1 0 11:43 19.07.2019
4980 Fog 11 1019 93 3000 1 120 11:18 19.07.2019
4981 Clouds 11 1020 93 9000 3.1 120 10:47 19.07.2019
4982 Clouds 11 1020 93 9000 3.1 120 10:22 19.07.2019
4983 Clouds 12 1020 93 7000 3.1 130 09:58 19.07.2019
4984 Clouds 12 1020 93 7000 3.1 130 09:40 19.07.2019
4985 Clouds 12 1020 93 7000 3.1 130 09:21 19.07.2019
4986 Clouds 12 1021 93 8000 2.6 130 08:48 19.07.2019
4987 Rain 12 1021 87 9000 3.6 110 07:59 19.07.2019
4988 Rain 12 1021 87 9000 3.6 110 07:29 19.07.2019
4989 Rain 12 1022 82 6000 2.6 150 05:57 19.07.2019
4990 Rain 13 1022 76 5000 4.1 180 02:23 19.07.2019
4991 Clouds 13 1020 76 7000 2.6 130 01:20 19.07.2019
4992 Clouds 14 1020 76 7000 2.6 130 00:42 19.07.2019
4993 Clear 14 1020 82 10000 1 0 23:57 18.07.2019
4994 Clear 14 1020 82 10000 1 0 23:39 18.07.2019
4995 Clear 15 1020 82 10000 1 0 23:19 18.07.2019
4996 Clear 15 1020 82 10000 1 0 23:19 18.07.2019
4997 Clear 15 1020 82 10000 1.5 70 22:40 18.07.2019
4998 Clear 15 1020 82 10000 1.5 70 22:20 18.07.2019
4999 Clear 16 1020 82 10000 2.1 20 21:44 18.07.2019
5000 Clear 16 1020 82 10000 2.1 20 21:26 18.07.2019
5001 Clear 16 1020 63 10000 2.6 230 20:52 18.07.2019
5002 Clear 16 1020 76 10000 1 10 20:29 18.07.2019
5003 Clear 17 1021 63 10000 1 230 19:57 18.07.2019
5004 Clear 17 1021 63 10000 1 230 19:38 18.07.2019
5005 Clear 17 1021 63 10000 1 230 19:18 18.07.2019
5006 Clear 16 1021 67 10000 2.1 340 18:41 18.07.2019
5007 Clear 16 1021 67 10000 2.1 340 18:20 18.07.2019
5008 Clear 15 1022 76 10000 2.6 350 17:43 18.07.2019
5009 Clear 15 1022 76 10000 2.6 350 17:24 18.07.2019
5010 Clear 14 1022 81 10000 2.6 330 16:57 18.07.2019
5011 Clear 14 1022 81 10000 2.6 330 16:31 18.07.2019
5012 Clear 12 1021 81 10000 3.1 330 15:59 18.07.2019
5013 Clear 12 1021 81 10000 3.1 330 15:39 18.07.2019
5014 Clear 12 1021 81 10000 3.1 330 15:21 18.07.2019
5015 Clear 11 1020 81 10000 4.1 340 14:45 18.07.2019
5016 Clear 11 1020 81 10000 4.1 340 14:45 18.07.2019
5017 Clear 11 1020 81 10000 4.1 340 14:26 18.07.2019
5018 Clear 11 1020 81 10000 4.6 340 13:48 18.07.2019
5019 Clear 11 1020 93 10000 2.6 10 13:23 18.07.2019
5020 Clear 11 1019 81 10000 4.1 340 12:50 18.07.2019
5021 Clear 11 1018 76 10000 3.6 340 12:21 18.07.2019
5022 Clear 11 1018 76 10000 3.6 340 11:57 18.07.2019
5023 Clear 11 1018 76 10000 3.6 340 11:39 18.07.2019
5024 Clear 12 1018 76 10000 3.6 340 11:20 18.07.2019
5025 Clear 12 1019 76 10000 3.6 360 10:41 18.07.2019
5026 Clear 12 1018 76 10000 4.1 360 09:50 18.07.2019
5027 Clear 12 1018 76 10000 4.1 360 09:26 18.07.2019
5028 Clear 12 1018 76 10000 4.1 20 08:51 18.07.2019
5029 Clear 12 1018 76 10000 3.6 20 08:22 18.07.2019
5030 Clear 12 1018 76 10000 3.6 20 07:54 18.07.2019
5031 Clear 12 1017 71 10000 4.6 30 07:34 18.07.2019
5032 Clear 12 1018 76 10000 4.1 10 06:43 18.07.2019
5033 Clear 13 1018 82 10000 2.6 20 05:57 18.07.2019
5034 Clear 13 1018 76 10000 2.1 30 03:24 18.07.2019
5035 Clear 14 1019 76 10000 2.6 30 01:52 18.07.2019
5036 Clear 14 1019 76 10000 2.6 30 01:20 18.07.2019
5037 Clear 15 1019 77 10000 2.6 30 23:55 17.07.2019
5038 Clear 15 1019 77 10000 2.6 30 23:20 17.07.2019
5039 Clear 16 1020 48 10000 3.1 360 22:58 17.07.2019
5040 Clear 16 1020 67 10000 3.1 360 22:39 17.07.2019
5041 Smoke 16 1020 42 9000 3.1 360 22:20 17.07.2019
5042 Clear 17 1020 63 10000 3.1 10 21:45 17.07.2019
5043 Clear 17 1020 63 10000 3.1 10 21:26 17.07.2019
5044 Clear 17 1020 42 10000 6.2 360 20:58 17.07.2019
5045 Clear 17 1020 42 10000 6.2 360 20:39 17.07.2019
5046 Clear 17 1021 45 10000 7.2 340 20:21 17.07.2019
5047 Clear 17 1021 45 10000 7.2 340 19:44 17.07.2019
5048 Clear 17 1021 45 10000 7.2 340 19:44 17.07.2019
5049 Clear 17 1021 45 10000 6.2 360 19:23 17.07.2019
5050 Clear 16 1022 48 10000 6.2 360 18:59 17.07.2019
5051 Clear 16 1023 67 10000 4.6 10 18:40 17.07.2019
5052 Clear 16 1023 67 10000 4.6 10 18:40 17.07.2019
5053 Clear 15 1024 66 10000 5.1 360 18:20 17.07.2019
5054 Clear 15 1024 66 10000 5.1 360 17:49 17.07.2019
5055 Clear 14 1024 71 10000 5.7 350 17:25 17.07.2019
5056 Clear 14 1024 71 10000 5.7 350 16:45 17.07.2019
5057 Clear 13 1024 76 10000 6.2 350 16:23 17.07.2019
5058 Clear 12 1024 76 10000 6.2 350 15:52 17.07.2019
5059 Clear 12 1024 76 10000 6.2 350 15:32 17.07.2019
5060 Clear 10 1024 76 10000 5.7 360 14:59 17.07.2019
5061 Clear 10 1024 76 10000 5.7 360 14:41 17.07.2019
5062 Clear 9 1024 71 10000 5.1 340 14:21 17.07.2019
5063 Clear 9 1024 71 10000 5.1 340 13:59 17.07.2019
5064 Clear 9 1024 71 10000 5.1 340 13:40 17.07.2019
5065 Clear 9 1024 71 10000 5.7 340 13:19 17.07.2019
5066 Clear 9 1024 71 10000 5.7 340 12:39 17.07.2019
5067 Clear 8 1024 71 10000 5.7 350 12:20 17.07.2019
5068 Clear 8 1024 71 10000 5.7 350 11:44 17.07.2019
5069 Clear 8 1024 71 10000 5.7 350 11:21 17.07.2019
5070 Clear 9 1024 76 10000 6.2 360 10:50 17.07.2019
5071 Clear 9 1024 76 10000 6.2 360 10:29 17.07.2019
5072 Clear 9 1024 71 10000 7.2 360 09:55 17.07.2019
5073 Clear 9 1024 71 10000 7.2 360 09:55 17.07.2019
5074 Clear 9 1024 71 10000 7.2 360 09:37 17.07.2019
5075 Clear 9 1025 76 10000 5.1 360 09:18 17.07.2019
5076 Clear 9 1025 76 10000 5.1 360 08:41 17.07.2019
5077 Clear 10 1024 66 10000 6.2 10 08:21 17.07.2019
5078 Clear 10 1024 66 10000 6.2 10 07:41 17.07.2019
5079 Clear 10 1024 66 10000 6.2 360 07:22 17.07.2019
5080 Clear 10 1024 66 10000 6.2 360 07:22 17.07.2019
5081 Clear 10 1024 66 10000 6.2 360 06:46 17.07.2019
5082 Clear 10 1024 66 10000 6.2 360 06:46 17.07.2019
5083 Clear 10 1024 66 10000 6.2 360 06:28 17.07.2019
5084 Clear 10 1024 71 10000 5.1 20 05:42 17.07.2019
5085 Clear 11 1024 66 10000 4.6 20 05:20 17.07.2019
5086 Clear 10 1024 66 10000 4.6 20 04:22 17.07.2019
5087 Clear 11 1024 71 10000 2.1 40 02:45 17.07.2019
5088 Clear 12 1024 66 10000 2.6 360 01:43 17.07.2019
5089 Clear 12 1024 66 10000 2.6 360 01:23 17.07.2019
5090 Clear 12 1023 66 10000 3.1 350 00:43 17.07.2019
5091 Clear 13 1023 62 10000 3.1 10 00:23 17.07.2019
5092 Clear 13 1023 62 10000 3.1 10 23:49 16.07.2019
5093 Clear 14 1023 54 10000 3.1 20 23:28 16.07.2019
5094 Clear 15 1023 54 10000 3.1 20 22:57 16.07.2019
5095 Clear 15 1023 54 10000 3.1 20 22:39 16.07.2019
5096 Clear 16 1023 54 10000 3.1 20 22:19 16.07.2019
5097 Clear 16 1023 54 10000 3.1 20 21:43 16.07.2019
5098 Clear 16 1023 62 10000 3.1 30 21:20 16.07.2019
5099 Clear 16 1023 62 10000 3.1 30 20:42 16.07.2019
5100 Clear 16 1023 62 10000 3.1 30 20:42 16.07.2019
5101 Clear 16 1024 67 10000 3.1 10 20:23 16.07.2019
5102 Clear 16 1024 67 10000 3.1 10 19:56 16.07.2019
5103 Clear 15 1024 67 10000 3.1 10 19:37 16.07.2019
5104 Clear 15 1025 76 10000 2.6 10 19:19 16.07.2019
5105 Clear 15 1025 76 10000 2.6 10 18:45 16.07.2019
5106 Clear 14 1025 54 10000 3.6 20 18:21 16.07.2019
5107 Clear 14 1025 54 10000 3.6 20 18:21 16.07.2019
5108 Clear 14 1025 54 10000 3.6 20 17:55 16.07.2019
5109 Clear 15 1025 54 10000 3.6 20 17:36 16.07.2019
5110 Clear 13 1026 66 10000 2.1 350 16:56 16.07.2019
5111 Clear 13 1026 66 10000 2.1 350 16:38 16.07.2019
5112 Mist 12 1026 66 7000 1.5 330 16:18 16.07.2019
5113 Mist 11 1025 71 10000 1.5 320 15:39 16.07.2019
5114 Mist 8 1025 71 10000 1.89 327.818 15:20 16.07.2019
5115 Mist 8 1025 71 10000 1.89 327.818 14:56 16.07.2019
5116 Mist 8 1025 71 10000 1.89 327.818 14:38 16.07.2019
5117 Fog 5 1025 100 800 1.89 327.818 14:18 16.07.2019
5118 Fog 5 1025 100 800 1.89 327.818 14:18 16.07.2019
5119 Fog 5 1025 100 800 1.89 327.818 13:43 16.07.2019
5120 Fog 4 1024 100 150 1.98 339.6 13:18 16.07.2019
5121 Fog 4 1024 81 10000 1.98 339.6 12:44 16.07.2019
5122 Fog 4 1024 81 10000 1.5 230 12:20 16.07.2019
5123 Fog 4 1024 81 10000 1.5 230 11:55 16.07.2019
5124 Fog 4 1024 81 10000 1.5 230 11:36 16.07.2019
5125 Fog 4 1024 100 3000 0.72 338.526 11:18 16.07.2019
5126 Fog 4 1023 81 10000 1 220 10:44 16.07.2019
5127 Fog 5 1023 81 10000 1 220 10:20 16.07.2019
5128 Fog 5 1023 81 10000 0.72 338.526 09:44 16.07.2019
5129 Fog 5 1023 81 10000 1.1 236.31 09:21 16.07.2019
5130 Fog 5 1023 81 10000 0.91 231.016 08:49 16.07.2019
5131 Fog 5 1023 81 10000 0.91 231.016 08:28 16.07.2019
5132 Fog 6 1024 81 10000 1.5 270 07:57 16.07.2019
5133 Fog 6 1024 81 10000 1.5 270 07:36 16.07.2019
5134 Clear 7 1023 76 10000 0.91 231.016 06:59 16.07.2019
5135 Clear 7 1023 76 10000 0.91 231.016 06:37 16.07.2019
5136 Clear 7 1023 66 10000 1.5 290 05:52 16.07.2019
5137 Clear 7 1023 66 10000 1.5 290 05:28 16.07.2019
5138 Clear 8 1023 62 10000 1 230 04:36 16.07.2019
5139 Clear 9 1023 58 10000 1 200 03:43 16.07.2019
5140 Clear 10 1023 54 10000 1 220 02:46 16.07.2019
5141 Clear 10 1023 54 10000 1 220 02:28 16.07.2019
5142 Clear 11 1022 50 10000 1 220 01:26 16.07.2019
5143 Clear 12 1022 47 10000 1.5 230 00:25 16.07.2019
5144 Clear 13 1021 47 10000 2.6 220 23:59 15.07.2019
5145 Clear 13 1021 47 10000 2.6 220 23:39 15.07.2019
5146 Clear 14 1021 38 10000 2.6 220 23:18 15.07.2019
5147 Clear 15 1021 38 10000 2.6 220 22:43 15.07.2019
5148 Clear 16 1020 33 10000 3.6 210 22:20 15.07.2019
5149 Clear 16 1020 33 10000 3.6 210 21:57 15.07.2019
5150 Clear 16 1020 33 10000 3.6 210 21:38 15.07.2019
5151 Clear 16 1020 39 10000 3.1 240 21:19 15.07.2019
5152 Clear 16 1020 39 10000 3.1 240 20:44 15.07.2019
5153 Clear 16 1020 48 10000 3.1 250 20:23 15.07.2019
5154 Clear 16 1020 48 10000 3.1 250 19:56 15.07.2019
5155 Clear 16 1020 48 10000 3.1 250 19:38 15.07.2019
5156 Clear 15 1021 58 10000 2.1 240 19:18 15.07.2019
5157 Clear 15 1021 58 10000 2.1 240 18:44 15.07.2019
5158 Clouds 14 1022 62 10000 3.1 260 18:20 15.07.2019
5159 Clouds 14 1022 62 10000 3.1 260 17:55 15.07.2019
5160 Clouds 14 1022 62 10000 3.1 260 17:37 15.07.2019
5161 Clear 13 1022 76 10000 2.1 350 17:19 15.07.2019
5162 Clear 12 1022 76 10000 2.1 350 16:39 15.07.2019
5163 Clear 12 1022 76 10000 2.1 350 16:21 15.07.2019
5164 Mist 11 1022 76 10000 0.5 0 15:58 15.07.2019
5165 Mist 12 1022 76 10000 0.5 0 15:37 15.07.2019
5166 Mist 10 1021 81 10000 1 0 15:19 15.07.2019
5167 Mist 10 1021 81 10000 1 0 14:45 15.07.2019
5168 Mist 10 1021 81 10000 1 0 14:26 15.07.2019
5169 Fog 9 1021 87 9000 1.5 190 13:57 15.07.2019
5170 Rain 9 1021 87 9000 1.5 190 13:36 15.07.2019
5171 Rain 8 1020 87 9000 1 160 13:18 15.07.2019
5172 Rain 8 1020 87 9000 1 160 12:42 15.07.2019
5173 Clear 8 1019 87 10000 2.1 360 12:21 15.07.2019
5174 Clear 9 1019 87 10000 2.1 360 11:43 15.07.2019
5175 Clear 9 1019 87 10000 2.1 360 11:25 15.07.2019
5176 Clear 10 1020 81 10000 1.5 230 10:48 15.07.2019
5177 Clear 10 1020 81 10000 1.5 230 10:29 15.07.2019
5178 Clear 9 1019 87 10000 4.6 330 09:48 15.07.2019
5179 Clear 9 1019 87 10000 4.6 330 09:28 15.07.2019
5180 Fog 9 1020 93 10000 1 0 08:59 15.07.2019
5181 Fog 9 1020 93 10000 1 0 08:41 15.07.2019
5182 Clear 9 1020 93 10000 1 230 08:23 15.07.2019
5183 Clear 9 1020 93 10000 1 230 07:39 15.07.2019
5184 Clear 9 1020 93 10000 1 20 07:19 15.07.2019
5185 Clear 9 1020 87 10000 1 0 06:39 15.07.2019
5186 Clear 10 1020 100 10000 2.6 60 05:44 15.07.2019
5187 Clear 10 1020 100 10000 2.6 60 05:26 15.07.2019
5188 Clear 10 1020 93 10000 2.6 50 04:41 15.07.2019
5189 Clear 9 1020 81 10000 3.1 70 03:39 15.07.2019
5190 Clear 10 1020 81 10000 3.1 90 02:37 15.07.2019
5191 Clear 10 1020 81 10000 2.6 120 01:41 15.07.2019
5192 Clear 10 1019 81 10000 2.1 140 01:23 15.07.2019
5193 Clear 10 1019 81 10000 2.1 140 00:48 15.07.2019
5194 Clear 11 1019 81 10000 3.1 90 00:19 15.07.2019
5195 Clear 11 1019 81 10000 3.1 90 23:54 14.07.2019
5196 Clear 11 1019 81 10000 3.1 90 23:36 14.07.2019
5197 Clear 12 1018 81 10000 2.6 70 23:18 14.07.2019
5198 Clear 12 1018 81 10000 2.6 70 22:40 14.07.2019
5199 Clear 13 1019 71 10000 1.5 90 22:21 14.07.2019
5200 Clear 13 1019 71 10000 1.5 90 21:57 14.07.2019
5201 Clear 13 1019 71 10000 1.5 90 21:57 14.07.2019
5202 Clear 13 1019 71 10000 1.5 90 21:39 14.07.2019
5203 Clouds 13 1019 81 10000 2.6 50 21:18 14.07.2019
5204 Clouds 13 1019 81 10000 2.6 50 20:39 14.07.2019
5205 Clouds 13 1019 76 10000 2.1 40 20:21 14.07.2019
5206 Clouds 14 1019 76 10000 2.1 40 19:59 14.07.2019
5207 Clouds 14 1019 76 10000 2.1 40 19:39 14.07.2019
5208 Clouds 14 1020 71 10000 3.6 70 19:21 14.07.2019
5209 Clouds 14 1020 71 10000 3.6 70 18:43 14.07.2019
5210 Clouds 13 1020 71 10000 3.6 70 18:25 14.07.2019
5211 Clouds 13 1021 76 10000 2.6 70 17:58 14.07.2019
5212 Clouds 13 1021 76 10000 2.6 70 17:37 14.07.2019
5213 Clouds 12 1021 81 10000 3.1 110 17:18 14.07.2019
5214 Clouds 12 1021 81 10000 3.1 110 16:42 14.07.2019
5215 Clouds 12 1021 81 10000 3.1 110 16:21 14.07.2019
5216 Mist 9 1020 81 10000 2.1 120 15:43 14.07.2019
5217 Mist 6 1021 100 1500 0.5 90 15:23 14.07.2019
5218 Fog 6 1020 93 8000 1 160 14:47 14.07.2019
5219 Fog 6 1020 93 8000 1 160 14:20 14.07.2019
5220 Fog 6 1020 93 8000 1 160 14:20 14.07.2019
5221 Fog 4 1020 100 5000 0.5 170 13:47 14.07.2019
5222 Fog 4 1020 100 5000 0.5 170 13:47 14.07.2019
5223 Fog 4 1020 100 5000 0.5 170 13:25 14.07.2019
5224 Fog 3 1020 100 2000 0.46 16.27 12:57 14.07.2019
5225 Fog 4 1020 100 800 0.5 270 12:39 14.07.2019
5226 Fog 3 1020 100 400 0.5 230 12:19 14.07.2019
5227 Fog 3 1019 93 9000 1.17 138.594 11:49 14.07.2019
5228 Fog 4 1020 93 9000 1.17 138.594 11:20 14.07.2019
5229 Fog 4 1020 93 9000 1.17 138.594 10:45 14.07.2019
5230 Fog 4 1020 100 400 0.5 70 10:21 14.07.2019
5231 Fog 4 1020 100 8000 1.17 138.594 09:48 14.07.2019
5232 Fog 4 1020 100 8000 1.17 138.594 09:29 14.07.2019
5233 Fog 4 1020 100 5000 1.5 320 08:46 14.07.2019
5234 Fog 5 1020 100 5000 1.5 320 08:27 14.07.2019
5235 Fog 5 1020 87 10000 1 200 07:43 14.07.2019
5236 Fog 6 1020 81 10000 1.5 160 07:20 14.07.2019
5237 Fog 6 1020 81 10000 1.5 150 05:46 14.07.2019
5238 Fog 7 1020 81 10000 1 150 03:53 14.07.2019
5239 Fog 7 1020 81 10000 1 150 03:34 14.07.2019
5240 Fog 7 1019 87 10000 2.1 130 02:52 14.07.2019
5241 Fog 8 1019 87 10000 1 100 02:22 14.07.2019
5242 Fog 8 1019 87 10000 1 100 01:35 14.07.2019
5243 Fog 8 1019 87 10000 1 100 01:35 14.07.2019
5244 Fog 8 1019 87 10000 1 100 01:35 14.07.2019
5245 Clear 9 1018 81 10000 2.06 107.109 00:59 14.07.2019
5246 Clear 9 1018 81 10000 2.06 107.109 00:40 14.07.2019
5247 Clear 10 1018 81 10000 1.5 20 00:20 14.07.2019
5248 Clear 9 1018 81 10000 1.5 20 23:56 13.07.2019
5249 Clear 9 1018 81 10000 1.5 20 23:37 13.07.2019
5250 Clear 11 1017 81 10000 2.1 50 23:19 13.07.2019
5251 Clear 11 1017 81 10000 2.1 50 22:40 13.07.2019
5252 Clear 12 1018 81 9000 3.1 50 22:21 13.07.2019
5253 Clear 12 1018 81 9000 3.1 50 21:45 13.07.2019
5254 Clear 12 1018 76 8000 3.6 80 21:19 13.07.2019
5255 Clear 13 1018 76 8000 3.6 80 20:46 13.07.2019
5256 Clear 12 1018 76 8000 3.6 80 20:27 13.07.2019
5257 Clear 12 1018 66 8000 1 230 19:47 13.07.2019
5258 Clear 12 1018 66 8000 1 230 19:29 13.07.2019
5259 Clear 11 1018 71 8000 2.1 190 18:45 13.07.2019
5260 Clouds 10 1018 87 8000 3.6 150 18:22 13.07.2019
5261 Clouds 9 1018 87 8000 3.6 150 17:41 13.07.2019
5262 Clouds 9 1018 87 8000 3.6 150 17:21 13.07.2019
5263 Mist 8 1019 100 4000 2.1 150 16:58 13.07.2019
5264 Mist 8 1020 100 3000 1.5 90 16:37 13.07.2019
5265 Mist 8 1020 100 3000 1.5 90 16:37 13.07.2019
5266 Mist 7 1019 93 5000 1.72 138.342 16:19 13.07.2019
5267 Mist 7 1019 93 5000 1.72 138.342 15:43 13.07.2019
5268 Mist 7 1019 93 5000 2.96 181.221 15:21 13.07.2019
5269 Drizzle 7 1019 100 5000 1 270 14:44 13.07.2019
5270 Drizzle 7 1019 100 5000 1 270 14:22 13.07.2019
5271 Fog 7 1018 100 300 2.1 180 13:46 13.07.2019
5272 Fog 7 1018 100 300 2.1 180 13:24 13.07.2019
5273 Mist 7 1018 100 1200 2.6 170 12:59 13.07.2019
5274 Fog 7 1018 100 300 2.1 190 12:37 13.07.2019
5275 Fog 7 1018 100 700 1.5 190 12:18 13.07.2019
5276 Mist 8 1018 100 1500 1.5 190 11:40 13.07.2019
5277 Mist 7 1018 93 5000 1.5 210 11:19 13.07.2019
5278 Fog 7 1018 93 7000 1.5 190 10:44 13.07.2019
5279 Fog 7 1018 93 7000 1.5 190 10:23 13.07.2019
5280 Fog 7 1018 100 100 2.6 180 09:53 13.07.2019
5281 Fog 7 1018 93 7000 0.5 220 09:31 13.07.2019
5282 Fog 8 1018 100 800 1.5 230 08:58 13.07.2019
5283 Fog 8 1017 87 8000 1.5 180 08:32 13.07.2019
5284 Fog 9 1017 100 5000 2.97 172.164 07:56 13.07.2019
5285 Clear 9 1017 93 10000 1.5 180 07:29 13.07.2019
5286 Fog 9 1017 100 2000 1 200 06:37 13.07.2019
5287 Clear 10 1017 81 10000 2.6 170 05:51 13.07.2019
5288 Fog 11 1016 76 10000 1.5 180 04:42 13.07.2019
5289 Fog 11 1016 71 10000 1.5 180 04:21 13.07.2019
5290 Fog 11 1016 71 10000 1.5 180 03:43 13.07.2019
5291 Fog 11 1016 71 10000 1.5 180 03:25 13.07.2019
5292 Clear 12 1015 76 10000 1.5 180 01:54 13.07.2019
5293 Clear 13 1015 76 10000 1.5 180 01:36 13.07.2019
5294 Clear 13 1015 82 10000 1.5 200 01:18 13.07.2019
5295 Clear 13 1015 82 10000 1.5 200 00:42 13.07.2019
5296 Clear 14 1014 67 10000 1.5 190 00:18 13.07.2019
5297 Clear 15 1014 67 10000 1.5 190 23:37 12.07.2019
5298 Clear 16 1013 67 10000 1.5 210 22:59 12.07.2019
5299 Clear 16 1013 67 10000 1.5 210 22:41 12.07.2019
5300 Clear 16 1013 72 10000 1.5 220 22:22 12.07.2019
5301 Clear 17 1013 72 10000 1.5 220 21:42 12.07.2019
5302 Clear 17 1013 72 10000 1.5 220 21:42 12.07.2019
5303 Clear 16 1013 77 10000 2.6 200 21:21 12.07.2019
5304 Clear 16 1013 77 10000 2.6 200 20:52 12.07.2019
5305 Mist 15 1014 93 9000 2.6 200 20:23 12.07.2019
5306 Mist 15 1014 93 9000 2.6 200 19:44 12.07.2019
5307 Mist 15 1014 93 9000 2.6 200 19:26 12.07.2019
5308 Mist 14 1014 87 9000 4.1 200 18:58 12.07.2019
5309 Mist 13 1014 93 5000 4.1 200 18:37 12.07.2019
5310 Mist 13 1014 100 3000 3.1 190 18:19 12.07.2019
5311 Mist 13 1013 100 1500 2.1 190 17:45 12.07.2019
5312 Mist 13 1013 100 1500 2.1 190 17:27 12.07.2019
5313 Mist 12 1014 93 8000 2.1 200 16:38 12.07.2019
5314 Mist 12 1014 93 8000 2.1 200 16:20 12.07.2019
5315 Drizzle 12 1014 100 3000 2.6 200 15:41 12.07.2019
5316 Drizzle 12 1014 100 3000 2.6 200 15:41 12.07.2019
5317 Drizzle 12 1013 100 4500 1.5 210 15:20 12.07.2019
5318 Drizzle 12 1013 93 2500 2.6 200 14:47 12.07.2019
5319 Drizzle 12 1013 93 2500 2.6 200 14:47 12.07.2019
5320 Drizzle 13 1013 100 2000 3.6 200 14:22 12.07.2019
5321 Drizzle 13 1013 100 2000 3.6 200 13:55 12.07.2019
5322 Drizzle 13 1013 100 1200 2.6 200 13:37 12.07.2019
5323 Mist 12 1012 93 3000 2.1 180 12:55 12.07.2019
5324 Mist 13 1012 93 4800 1.5 200 12:37 12.07.2019
5325 Drizzle 13 1011 100 2000 2.1 200 12:18 12.07.2019
5326 Drizzle 13 1011 93 10000 4.1 150 11:43 12.07.2019
5327 Rain 13 1011 100 2000 1.5 190 11:20 12.07.2019
5328 Thunderstorm 14 1011 93 10000 4.6 150 10:43 12.07.2019
5329 Thunderstorm 14 1011 100 3000 2.1 190 10:23 12.07.2019
5330 Thunderstorm 14 1011 100 3000 2.1 190 09:54 12.07.2019
5331 Thunderstorm 14 1011 100 3000 1 0 09:29 12.07.2019
5332 Thunderstorm 14 1011 93 2900 2.6 200 08:56 12.07.2019
5333 Thunderstorm 14 1011 100 3500 6.2 120 08:26 12.07.2019
5334 Thunderstorm 14 1011 100 2500 3.6 170 07:55 12.07.2019
5335 Thunderstorm 14 1011 100 2500 3.6 170 07:55 12.07.2019
5336 Thunderstorm 14 1011 100 7000 7.7 120 07:32 12.07.2019
5337 Thunderstorm 14 1012 93 500 9.3 160 06:51 12.07.2019
5338 Thunderstorm 14 1012 93 500 9.3 160 06:26 12.07.2019
5339 Rain 15 1011 93 6000 5.1 110 05:24 12.07.2019
5340 Thunderstorm 14 1012 87 8000 4.6 150 03:20 12.07.2019
5341 Thunderstorm 14 1011 93 6000 4.1 140 01:38 12.07.2019
5342 Thunderstorm 14 1011 82 10000 3.1 140 00:49 12.07.2019
5343 Thunderstorm 15 1011 77 9000 5.7 90 00:19 12.07.2019
5344 Thunderstorm 15 1012 87 10000 8.2 120 23:43 11.07.2019
5345 Thunderstorm 16 1011 87 5000 6.7 130 23:23 11.07.2019
5346 Clear 16 1011 82 10000 5.7 130 22:48 11.07.2019
5347 Clear 16 1011 82 10000 5.7 130 22:26 11.07.2019
5348 Clear 17 1011 72 10000 4.6 130 21:56 11.07.2019
5349 Clear 17 1011 72 10000 4.6 130 21:36 11.07.2019
5350 Clear 17 1012 72 10000 4.1 130 21:18 11.07.2019
5351 Clear 18 1012 72 10000 4.1 130 20:42 11.07.2019
5352 Clear 18 1012 72 10000 4.1 130 20:22 11.07.2019
5353 Clear 17 1012 77 10000 5.7 110 19:57 11.07.2019
5354 Clear 17 1012 77 10000 5.7 110 19:39 11.07.2019
5355 Clear 17 1014 77 10000 5.1 110 19:20 11.07.2019
5356 Clear 17 1014 77 10000 5.1 110 18:41 11.07.2019
5357 Clear 16 1015 82 10000 3.6 110 18:23 11.07.2019
5358 Clear 16 1015 82 10000 3.6 110 17:49 11.07.2019
5359 Clear 16 1015 82 10000 3.6 110 17:30 11.07.2019
5360 Mist 15 1015 87 9000 4.1 110 16:55 11.07.2019
5361 Mist 15 1015 87 9000 4.1 110 16:37 11.07.2019
5362 Mist 13 1015 87 9000 3.6 120 16:18 11.07.2019
5363 Mist 14 1015 87 9000 3.6 120 15:40 11.07.2019
5364 Mist 12 1015 93 8000 3.1 130 15:20 11.07.2019
5365 Mist 11 1015 93 4000 3.1 130 14:44 11.07.2019
5366 Mist 9 1015 100 1500 2.1 120 14:24 11.07.2019
5367 Mist 8 1015 93 3000 3.1 130 13:52 11.07.2019
5368 Mist 8 1015 93 3000 3.1 130 13:33 11.07.2019
5369 Mist 8 1015 93 3000 4.1 130 12:57 11.07.2019
5370 Mist 8 1015 93 5000 3.6 130 12:37 11.07.2019
5371 Fog 8 1015 100 1500 1.5 170 12:18 11.07.2019
5372 Fog 8 1014 93 7000 0.5 0 11:41 11.07.2019
5373 Fog 8 1014 93 7000 0.5 0 11:23 11.07.2019
5374 Fog 8 1015 93 10000 1 0 10:51 11.07.2019
5375 Fog 8 1015 100 50 1.5 180 10:19 11.07.2019
5376 Fog 8 1015 100 50 1.5 180 09:49 11.07.2019
5377 Fog 8 1015 100 50 1.5 180 09:30 11.07.2019
5378 Fog 8 1015 100 50 1.5 180 09:30 11.07.2019
5379 Fog 8 1015 93 10000 2.1 110 08:54 11.07.2019
5380 Fog 9 1015 93 10000 2.1 110 08:28 11.07.2019
5381 Fog 8 1015 100 200 1.5 160 07:57 11.07.2019
5382 Fog 9 1015 100 450 0.86 231.163 07:38 11.07.2019
5383 Mist 9 1015 100 1500 1.5 160 06:41 11.07.2019
5384 Mist 10 1016 93 10000 2.6 130 05:53 11.07.2019
5385 Mist 10 1016 93 10000 2.6 130 05:30 11.07.2019
5386 Mist 11 1015 46 10000 2.6 130 04:55 11.07.2019
5387 Mist 12 1015 71 10000 1.5 150 02:41 11.07.2019
5388 Clear 12 1015 76 10000 1 0 01:38 11.07.2019
5389 Clouds 14 1015 72 8000 1 0 00:29 11.07.2019
5390 Clouds 14 1015 72 8000 1 0 23:37 10.07.2019
5391 Clear 15 1015 72 10000 2.1 70 23:19 10.07.2019
5392 Clear 15 1015 72 10000 2.1 70 22:46 10.07.2019
5393 Clear 16 1015 67 10000 1.5 140 22:21 10.07.2019
5394 Clear 16 1015 67 10000 1.5 140 21:45 10.07.2019
5395 Clear 16 1015 67 10000 1 120 21:26 10.07.2019
5396 Clear 16 1015 67 10000 1.5 80 20:57 10.07.2019
5397 Clear 16 1015 67 10000 1.5 80 20:39 10.07.2019
5398 Clear 16 1016 71 10000 1 0 20:19 10.07.2019
5399 Clear 16 1016 71 10000 1 0 19:53 10.07.2019
5400 Clear 15 1017 76 10000 1 0 19:22 10.07.2019
5401 Clear 15 1017 76 10000 1 0 18:57 10.07.2019
5402 Clear 15 1017 76 10000 1 0 18:38 10.07.2019
5403 Clear 15 1018 87 10000 2.6 100 18:20 10.07.2019
5404 Clear 15 1018 87 10000 2.6 100 17:41 10.07.2019
5405 Clear 14 1018 87 10000 2.6 100 17:20 10.07.2019
5406 Clear 14 1018 87 10000 3.6 120 16:22 10.07.2019
5407 Mist 13 1019 82 10000 3.1 110 15:59 10.07.2019
5408 Mist 13 1019 82 10000 3.1 110 15:41 10.07.2019
5409 Mist 12 1018 93 10000 2.6 130 15:19 10.07.2019
5410 Mist 12 1018 93 10000 2.6 130 15:19 10.07.2019
5411 Mist 12 1018 93 10000 2.6 130 14:40 10.07.2019
5412 Clear 11 1018 87 10000 2.6 130 14:22 10.07.2019
5413 Clear 11 1018 87 10000 2.6 130 13:44 10.07.2019
5414 Clear 11 1018 81 10000 1 0 13:19 10.07.2019
5415 Clear 11 1018 81 10000 1 0 13:19 10.07.2019
5416 Clear 11 1018 81 10000 1 0 12:55 10.07.2019
5417 Clear 11 1018 81 10000 1 0 12:55 10.07.2019
5418 Clear 11 1018 81 10000 1 0 12:36 10.07.2019
5419 Clear 11 1018 87 10000 0.62 10.471 12:18 10.07.2019
5420 Clear 11 1018 87 10000 0.62 10.471 11:40 10.07.2019
5421 Clear 11 1018 81 10000 0.62 10.471 11:20 10.07.2019
5422 Clear 11 1018 81 10000 0.62 10.471 10:41 10.07.2019
5423 Clear 11 1018 81 10000 0.62 10.471 10:19 10.07.2019
5424 Clear 11 1018 81 10000 0.62 10.471 10:19 10.07.2019
5425 Clear 11 1018 81 10000 0.62 10.471 09:42 10.07.2019
5426 Clear 11 1018 81 10000 1.6 3.735 09:20 10.07.2019
5427 Clear 11 1019 87 10000 1.05 322.956 08:49 10.07.2019
5428 Clear 11 1019 87 10000 1.05 322.956 08:28 10.07.2019
5429 Clear 12 1019 87 10000 1.05 322.956 07:53 10.07.2019
5430 Clear 12 1019 87 10000 1.05 322.956 07:28 10.07.2019
5431 Clear 12 1019 82 10000 1 70 06:41 10.07.2019
5432 Clear 12 1020 82 10000 1.5 90 05:42 10.07.2019
5433 Clear 12 1020 87 10000 3.1 100 04:34 10.07.2019
5434 Clear 12 1020 76 10000 3.1 130 02:40 10.07.2019
5435 Clear 12 1020 87 10000 3.1 130 00:44 10.07.2019
5436 Clear 13 1020 76 10000 2.1 130 23:57 09.07.2019
5437 Clear 13 1020 76 10000 2.1 130 23:38 09.07.2019
5438 Clear 14 1019 76 10000 1.5 120 23:19 09.07.2019
5439 Clear 15 1019 76 10000 1.5 120 22:40 09.07.2019
5440 Clear 15 1020 67 10000 2.1 110 22:21 09.07.2019
5441 Clear 16 1020 67 10000 2.1 110 21:47 09.07.2019
5442 Clear 16 1020 67 10000 2.1 110 21:26 09.07.2019
5443 Clear 16 1020 71 10000 2.1 80 20:56 09.07.2019
5444 Clear 16 1020 71 10000 2.1 80 20:56 09.07.2019
5445 Clear 16 1020 71 10000 2.1 80 20:36 09.07.2019
5446 Clear 16 1020 71 10000 1.5 60 20:18 09.07.2019
5447 Clear 16 1020 71 10000 1.5 60 19:37 09.07.2019
5448 Clear 16 1021 62 10000 1 20 19:19 09.07.2019
5449 Clear 15 1021 62 10000 1 20 18:39 09.07.2019
5450 Clear 15 1022 58 10000 1.5 30 18:19 09.07.2019
5451 Clear 15 1022 58 10000 1.5 30 17:44 09.07.2019
5452 Clear 15 1022 58 10000 1.5 30 17:44 09.07.2019
5453 Clear 14 1023 76 10000 2.1 20 17:22 09.07.2019
5454 Clear 13 1023 76 10000 2.1 20 16:58 09.07.2019
5455 Clear 13 1023 76 10000 2.1 20 16:39 09.07.2019
5456 Clear 13 1023 76 10000 2.1 20 16:21 09.07.2019
5457 Clear 12 1022 76 10000 2.1 20 15:41 09.07.2019
5458 Clear 12 1022 76 10000 2.1 20 15:22 09.07.2019
5459 Clear 11 1022 76 10000 2.1 10 14:43 09.07.2019
5460 Clear 11 1022 66 10000 1.5 50 14:23 09.07.2019
5461 Clear 10 1022 76 10000 2.1 10 13:47 09.07.2019
5462 Clear 10 1022 76 10000 2.1 10 13:28 09.07.2019
5463 Clear 10 1021 71 10000 1 0 12:59 09.07.2019
5464 Clear 10 1021 71 10000 1 0 12:38 09.07.2019
5465 Clear 10 1021 71 10000 2.1 330 12:18 09.07.2019
5466 Clear 10 1021 71 10000 2.1 330 11:41 09.07.2019
5467 Clear 10 1021 71 10000 2.1 330 11:22 09.07.2019
5468 Clear 10 1021 76 10000 2.6 330 10:58 09.07.2019
5469 Clear 10 1021 76 10000 2.6 330 10:36 09.07.2019
5470 Clear 10 1021 81 10000 2.6 340 09:59 09.07.2019
5471 Clear 10 1021 81 10000 2.6 340 09:38 09.07.2019
5472 Clear 10 1021 71 10000 3.6 360 09:20 09.07.2019
5473 Clear 10 1021 71 10000 3.6 360 08:44 09.07.2019
5474 Clear 5 1023 70 10000 3.6 220 04:19 05.07.2019
5475 Clear 5 1023 70 10000 3.6 220 03:39 05.07.2019
5476 Clear 5 1023 70 10000 3.6 220 03:21 05.07.2019
5477 Clear 5 1023 56 10000 2.6 230 02:52 05.07.2019
5478 Clear 6 1022 52 10000 2.6 230 01:56 05.07.2019
5479 Clear 6 1022 52 10000 2.6 230 01:28 05.07.2019
5480 Clouds 7 1022 52 10000 3.6 230 00:51 05.07.2019
5481 Clouds 7 1022 52 10000 3.6 230 00:29 05.07.2019
5482 Clouds 7 1021 49 10000 4.1 240 23:39 04.07.2019
5483 Clouds 8 1020 39 10000 3.6 230 23:18 04.07.2019
5484 Clouds 8 1020 39 10000 3.6 230 22:41 04.07.2019
5485 Clouds 9 1020 43 10000 5.1 220 22:20 04.07.2019
5486 Clouds 9 1020 43 10000 5.1 220 21:44 04.07.2019
5487 Clouds 9 1020 43 10000 5.1 220 21:26 04.07.2019
5488 Clouds 9 1020 39 10000 5.7 230 20:59 04.07.2019
5489 Clouds 9 1020 39 10000 5.7 230 20:37 04.07.2019
5490 Clear 9 1020 43 10000 3.6 240 20:19 04.07.2019
5491 Clear 10 1020 43 10000 3.6 240 19:41 04.07.2019
5492 Clear 9 1020 49 10000 4.6 220 19:21 04.07.2019
5493 Clear 9 1020 49 10000 4.6 220 18:47 04.07.2019
5494 Clear 9 1020 49 10000 4.6 220 18:28 04.07.2019
5495 Clear 8 1020 52 10000 3.6 230 17:58 04.07.2019
5496 Clear 8 1020 52 10000 3.6 230 17:40 04.07.2019
5497 Clear 8 1020 56 10000 4.1 230 17:18 04.07.2019
5498 Clear 6 1020 45 10000 3.6 220 15:45 04.07.2019
5499 Clear 6 1020 56 10000 3.6 220 15:25 04.07.2019
5500 Clear 6 1019 56 10000 3.1 220 14:59 04.07.2019
5501 Clear 5 1019 56 10000 3.1 220 14:39 04.07.2019
5502 Clear 5 1018 65 10000 4.1 220 14:19 04.07.2019
5503 Clear 4 1018 65 10000 4.1 220 13:56 04.07.2019
5504 Clear 4 1018 65 10000 4.1 220 13:38 04.07.2019
5505 Clear 4 1018 65 10000 2.6 220 13:19 04.07.2019
5506 Clear 4 1018 65 10000 2.6 220 12:38 04.07.2019
5507 Clear 3 1017 55 10000 2.6 220 12:19 04.07.2019
5508 Clear 3 1017 55 10000 2.6 220 11:43 04.07.2019
5509 Clear 3 1016 55 10000 2.6 230 11:20 04.07.2019
5510 Clear 3 1016 55 10000 2.6 230 10:46 04.07.2019
5511 Clear 4 1016 55 10000 2.6 230 10:27 04.07.2019
5512 Clear 4 1016 60 10000 2.6 200 09:56 04.07.2019
5513 Clear 4 1016 60 10000 2.6 200 09:38 04.07.2019
5514 Clear 4 1016 56 10000 2.6 220 09:18 04.07.2019
5515 Clear 5 1016 56 10000 2.6 220 08:42 04.07.2019
5516 Clear 4 1016 56 10000 2.6 220 08:18 04.07.2019
5517 Clear 4 1016 56 10000 2.6 220 07:38 04.07.2019
5518 Clear 5 1016 50 10000 2.1 230 07:18 04.07.2019
5519 Clear 5 1016 47 10000 2.1 230 06:20 04.07.2019
5520 Clear 5 1016 47 10000 2.1 230 05:41 04.07.2019
5521 Clear 6 1015 47 10000 2.6 240 04:18 04.07.2019
5522 Clear 7 1014 48 10000 2.6 260 01:52 04.07.2019
5523 Clear 7 1014 47 10000 2.6 260 01:26 04.07.2019
5524 Clear 8 1013 47 10000 2.6 260 00:39 04.07.2019
5525 Clear 8 1013 46 10000 4.1 250 23:52 03.07.2019
5526 Clear 8 1013 46 10000 4.1 250 23:52 03.07.2019
5527 Clear 9 1013 46 10000 5.1 230 23:20 03.07.2019
5528 Clear 9 1013 46 10000 5.1 230 22:56 03.07.2019
5529 Clear 10 1012 43 10000 3.1 260 22:37 03.07.2019
5530 Clouds 10 1012 43 10000 8.2 230 22:18 03.07.2019
5531 Clouds 10 1012 43 10000 8.2 230 21:50 03.07.2019
5532 Clouds 11 1012 40 10000 3.1 240 21:31 03.07.2019
5533 Clouds 11 1012 43 10000 4.6 250 20:47 03.07.2019
5534 Clouds 11 1012 43 10000 4.6 250 20:29 03.07.2019
5535 Clouds 11 1012 43 10000 4.6 250 20:29 03.07.2019
5536 Clouds 10 1012 43 10000 4.1 230 19:57 03.07.2019
5537 Clouds 10 1012 43 10000 4.1 230 19:39 03.07.2019
5538 Clear 10 1013 43 10000 3.6 250 18:55 03.07.2019
5539 Clear 10 1013 43 10000 3.6 250 18:37 03.07.2019
5540 Clear 9 1013 51 10000 5.1 240 18:18 03.07.2019
5541 Clear 9 1013 51 10000 5.1 240 17:45 03.07.2019
5542 Clear 8 1014 51 10000 4.1 240 17:18 03.07.2019
5543 Clear 8 1014 51 10000 4.1 240 16:44 03.07.2019
5544 Clear 7 1013 60 10000 4.6 250 16:23 03.07.2019
5545 Clear 7 1014 51 10000 4.1 240 16:23 03.07.2019
5546 Clear 6 1013 60 10000 4.6 250 15:50 03.07.2019
5547 Clear 6 1013 60 10000 4.6 250 15:31 03.07.2019
5548 Clear 5 1013 60 10000 4.1 270 14:58 03.07.2019
5549 Clear 5 1013 60 10000 4.1 270 14:39 03.07.2019
5550 Clear 4 1012 65 10000 3.6 250 14:19 03.07.2019
5551 Clear 4 1012 65 10000 3.6 250 13:42 03.07.2019
5552 Clear 4 1011 56 10000 3.6 260 13:23 03.07.2019
5553 Clear 4 1011 56 10000 3.6 260 12:45 03.07.2019
5554 Clear 4 1011 56 10000 4.1 270 12:18 03.07.2019
5555 Clear 4 1011 56 10000 4.1 270 11:43 03.07.2019
5556 Clear 4 1011 56 10000 4.1 270 11:22 03.07.2019
5557 Clear 5 1010 52 10000 3.6 260 10:43 03.07.2019
5558 Clear 5 1010 52 10000 3.6 260 10:24 03.07.2019
5559 Clear 5 1010 52 10000 4.1 250 09:56 03.07.2019
5560 Clear 5 1010 52 10000 4.1 250 09:38 03.07.2019
5561 Clear 5 1011 41 10000 3.1 270 09:19 03.07.2019
5562 Clear 6 1010 49 10000 4.1 250 08:47 03.07.2019
5563 Clear 6 1010 49 10000 4.1 250 08:25 03.07.2019
5564 Clear 6 1010 49 10000 4.6 250 07:39 03.07.2019
5565 Clear 7 1010 45 10000 4.1 250 07:18 03.07.2019
5566 Clear 7 1010 45 10000 4.1 240 06:19 03.07.2019
5567 Clear 7 1010 45 10000 4.1 240 05:29 03.07.2019
5568 Clear 8 1009 43 10000 4.1 250 04:27 03.07.2019
5569 Clear 10 1008 40 10000 4.1 250 02:58 03.07.2019
5570 Clear 11 1007 34 10000 3.6 250 01:40 03.07.2019
5571 Clear 12 1007 34 10000 3.6 250 01:21 03.07.2019
5572 Clear 12 1007 71 10000 5.1 240 00:40 03.07.2019
5573 Clear 13 1005 41 10000 4.1 270 23:57 02.07.2019
5574 Clear 13 1005 41 10000 4.1 270 23:37 02.07.2019
5575 Clear 14 1005 47 10000 3.6 290 23:19 02.07.2019
5576 Clear 14 1005 47 10000 3.6 290 22:42 02.07.2019
5577 Clear 14 1004 62 10000 6.2 290 22:24 02.07.2019
5578 Clear 14 1004 54 10000 5.1 310 21:58 02.07.2019
5579 Clear 14 1004 54 10000 5.1 310 21:39 02.07.2019
5580 Clear 14 1004 58 10000 6.7 310 21:20 02.07.2019
5581 Clear 14 1004 54 10000 3.6 300 20:57 02.07.2019
5582 Clear 13 1004 54 10000 3.6 300 20:38 02.07.2019
5583 Clear 14 1004 54 10000 3.6 300 20:19 02.07.2019
5584 Clear 13 1005 58 10000 3.6 290 19:41 02.07.2019
5585 Clear 13 1006 58 10000 4.1 290 19:22 02.07.2019
5586 Clear 13 1006 58 10000 4.1 290 18:46 02.07.2019
5587 Clear 12 1006 58 10000 4.1 290 18:18 02.07.2019
5588 Clear 12 1007 62 10000 4.6 290 17:41 02.07.2019
5589 Clear 11 1007 66 10000 3.6 280 17:22 02.07.2019
5590 Clear 11 1007 66 10000 3.6 280 16:49 02.07.2019
5591 Clear 11 1007 66 10000 3.6 280 16:31 02.07.2019
5592 Clouds 10 1007 71 10000 4.6 290 15:46 02.07.2019
5593 Clouds 10 1007 71 10000 4.6 290 15:25 02.07.2019
5594 Clouds 10 1007 71 10000 4.6 290 15:25 02.07.2019
5595 Clouds 9 1006 71 10000 4.6 280 14:54 02.07.2019
5596 Clouds 9 1006 71 10000 4.6 280 14:36 02.07.2019
5597 Clear 9 1006 76 10000 5.7 300 13:56 02.07.2019
5598 Clear 9 1006 76 10000 5.7 300 13:36 02.07.2019
5599 Clear 9 1006 76 10000 5.7 300 13:18 02.07.2019
5600 Clear 9 1006 81 10000 4.1 290 12:43 02.07.2019
5601 Clear 9 1006 81 10000 4.1 290 12:21 02.07.2019
5602 Clear 9 1006 81 10000 5.1 300 11:42 02.07.2019
5603 Clear 9 1006 76 10000 5.7 310 11:22 02.07.2019
5604 Clear 9 1006 76 10000 5.7 310 10:51 02.07.2019
5605 Clear 9 1007 70 10000 5.7 310 10:26 02.07.2019
5606 Clear 9 1007 70 10000 5.7 310 09:49 02.07.2019
5607 Clear 9 1008 70 10000 6.7 310 09:22 02.07.2019
5608 Clear 9 1008 70 10000 6.7 310 08:52 02.07.2019
5609 Clear 9 1008 70 10000 6.7 310 08:34 02.07.2019
5610 Clear 9 1009 70 10000 5.1 310 07:55 02.07.2019
5611 Clear 9 1009 70 10000 5.1 310 07:21 02.07.2019
5612 Clear 9 1009 70 10000 5.7 310 06:53 02.07.2019
5613 Clear 9 1009 70 10000 5.7 310 06:35 02.07.2019
5614 Clear 9 1010 70 10000 5.7 330 04:58 02.07.2019
5615 Clear 9 1011 61 10000 5.1 310 02:26 02.07.2019
5616 Clear 10 1013 53 10000 4.6 320 23:55 01.07.2019
5617 Clear 11 1013 53 10000 4.6 320 23:24 01.07.2019
5618 Clear 12 1014 50 10000 5.7 320 22:47 01.07.2019
5619 Clear 12 1015 50 10000 6.2 320 22:27 01.07.2019
5620 Clear 12 1015 50 10000 6.2 320 21:48 01.07.2019
5621 Clear 12 1015 50 10000 6.2 320 21:28 01.07.2019
5622 Clear 12 1016 54 10000 4.6 320 20:53 01.07.2019
5623 Clear 12 1018 76 10000 4.1 300 20:23 01.07.2019
5624 Clear 11 1018 76 10000 4.1 300 19:59 01.07.2019
5625 Clear 11 1018 76 10000 4.1 300 19:40 01.07.2019
5626 Clear 11 1019 53 10000 4.1 290 19:22 01.07.2019
5627 Clear 11 1019 53 10000 4.1 290 18:53 01.07.2019
5628 Clear 10 1019 53 10000 4.1 290 18:31 01.07.2019
5629 Clear 10 1021 53 10000 3.6 320 17:59 01.07.2019
5630 Clear 10 1021 53 10000 3.6 320 17:41 01.07.2019
5631 Clear 9 1021 53 10000 3.6 320 17:21 01.07.2019
5632 Clear 8 1021 61 10000 2.1 290 16:47 01.07.2019
5633 Clear 7 1022 70 10000 2.6 320 16:25 01.07.2019
5634 Clear 6 1022 70 10000 2.6 320 15:47 01.07.2019
5635 Clear 6 1022 70 10000 2.6 320 15:28 01.07.2019
5636 Clear 5 1022 70 10000 1 250 14:59 01.07.2019
5637 Clear 5 1022 70 10000 1 250 14:39 01.07.2019
5638 Fog 4 1022 75 10000 1 250 14:19 01.07.2019
5639 Fog 3 1022 75 10000 1 250 13:40 01.07.2019
5640 Fog 3 1022 75 10000 1 250 13:21 01.07.2019
5641 Clear 3 1021 75 10000 1 250 12:42 01.07.2019
5642 Clear 3 1021 75 10000 1 250 12:23 01.07.2019
5643 Clear 3 1021 75 10000 1.5 250 11:58 01.07.2019
5644 Clear 3 1021 75 10000 1.5 250 11:38 01.07.2019
5645 Clear 3 1022 75 10000 2.1 230 11:18 01.07.2019
5646 Clear 4 1022 75 10000 2.1 230 10:42 01.07.2019
5647 Clear 4 1022 75 10000 2.1 230 10:21 01.07.2019
5648 Clear 4 1022 75 10000 2.1 230 09:45 01.07.2019
5649 Clear 4 1022 75 10000 2.1 230 09:26 01.07.2019
5650 Clear 4 1023 86 10000 2.1 230 08:44 01.07.2019
5651 Clear 5 1023 86 10000 2.1 230 08:25 01.07.2019
5652 Clear 5 1022 75 10000 2.6 230 07:35 01.07.2019
5653 Clear 6 1022 70 10000 2.6 230 06:51 01.07.2019
5654 Clear 7 1021 75 10000 1.5 220 04:44 01.07.2019
5655 Clouds 8 1020 66 10000 1.5 270 01:20 01.07.2019
5656 Clouds 8 1020 70 10000 3.1 230 00:41 01.07.2019
5657 Clouds 9 1020 66 10000 2.6 250 00:20 01.07.2019
5658 Clouds 10 1019 71 10000 3.1 230 23:25 30.06.2019
5659 Clouds 10 1019 62 10000 3.1 250 22:56 30.06.2019
5660 Clouds 10 1018 71 10000 3.1 230 22:24 30.06.2019
5661 Clouds 10 1018 71 10000 3.1 230 21:59 30.06.2019
5662 Clouds 10 1018 71 10000 3.1 230 21:41 30.06.2019
5663 Clouds 10 1018 71 10000 3.1 230 21:18 30.06.2019
5664 Clouds 10 1018 76 10000 3.6 240 20:41 30.06.2019
5665 Clouds 10 1018 76 10000 3.6 240 20:23 30.06.2019
5666 Clouds 10 1018 71 10000 2.6 250 19:51 30.06.2019
5667 Clouds 10 1018 71 10000 2.6 250 19:26 30.06.2019
5668 Clouds 10 1019 76 10000 3.6 250 18:53 30.06.2019
5669 Clouds 10 1019 76 10000 3.6 250 18:23 30.06.2019
5670 Clouds 10 1019 76 10000 2.1 240 17:41 30.06.2019
5671 Clouds 10 1019 87 10000 3.1 250 17:20 30.06.2019
5672 Clouds 9 1019 87 10000 3.1 250 16:56 30.06.2019
5673 Clouds 9 1019 81 10000 2.1 240 16:37 30.06.2019
5674 Clouds 9 1018 81 10000 3.6 240 16:18 30.06.2019
5675 Clouds 9 1018 81 10000 3.6 240 15:36 30.06.2019
5676 Clouds 9 1017 81 10000 2.6 240 15:18 30.06.2019
5677 Clouds 9 1017 81 10000 2.6 240 14:45 30.06.2019
5678 Clouds 9 1017 100 10000 3.6 250 14:27 30.06.2019
5679 Clouds 9 1017 87 10000 2.6 220 13:43 30.06.2019
5680 Clouds 9 1017 87 10000 2.6 220 13:23 30.06.2019
5681 Clouds 9 1016 87 10000 3.1 220 12:48 30.06.2019
5682 Clouds 9 1015 93 10000 3.1 220 12:25 30.06.2019
5683 Clouds 9 1015 93 10000 3.1 220 11:55 30.06.2019
5684 Clouds 9 1015 93 10000 3.1 220 11:36 30.06.2019
5685 Clouds 9 1015 93 10000 3.1 220 11:18 30.06.2019
5686 Clouds 9 1015 93 10000 4.1 230 10:38 30.06.2019
5687 Clouds 9 1014 93 10000 4.1 230 10:19 30.06.2019
5688 Clouds 9 1014 93 10000 4.1 230 09:44 30.06.2019
5689 Clouds 9 1014 93 10000 4.1 230 09:44 30.06.2019
5690 Clouds 9 1014 93 10000 4.1 230 09:23 30.06.2019
5691 Clouds 9 1013 93 10000 3.1 230 08:58 30.06.2019
5692 Clouds 9 1013 93 10000 3.1 230 08:32 30.06.2019
5693 Drizzle 10 1013 93 10000 3.6 230 07:58 30.06.2019
5694 Drizzle 10 1013 87 7000 3.1 210 07:29 30.06.2019
5695 Clouds 10 1011 93 10000 2.6 190 06:41 30.06.2019
5696 Drizzle 11 1011 93 5000 4.1 210 05:33 30.06.2019
5697 Drizzle 11 1010 100 2000 2.6 220 02:52 30.06.2019
5698 Drizzle 12 1009 100 800 3.6 200 01:28 30.06.2019
5699 Drizzle 12 1008 100 1500 2.6 210 00:32 30.06.2019
5700 Drizzle 13 1008 100 1000 1.5 200 23:55 29.06.2019
5701 Drizzle 13 1007 100 2000 2.6 200 23:24 29.06.2019
5702 Drizzle 13 1008 93 1200 2.6 180 22:57 29.06.2019
5703 Drizzle 13 1008 93 1200 2.1 180 22:37 29.06.2019
5704 Drizzle 13 1008 93 1200 2.1 180 22:18 29.06.2019
5705 Drizzle 13 1007 93 2600 2.1 180 21:41 29.06.2019
5706 Drizzle 13 1007 93 2600 2.1 180 21:22 29.06.2019
5707 Drizzle 13 1007 93 1500 2.1 180 20:41 29.06.2019
5708 Drizzle 13 1007 87 2000 3.1 160 20:22 29.06.2019
5709 Drizzle 13 1007 93 6000 2.1 170 19:48 29.06.2019
5710 Drizzle 13 1007 93 5000 2.1 170 19:23 29.06.2019
5711 Drizzle 13 1008 93 3000 2.6 170 18:49 29.06.2019
5712 Drizzle 13 1008 93 3000 2.6 170 18:25 29.06.2019
5713 Drizzle 13 1009 100 3000 4.1 140 17:42 29.06.2019
5714 Drizzle 13 1009 100 3000 4.1 140 17:22 29.06.2019
5715 Clouds 13 1008 82 10000 5.7 130 16:54 29.06.2019
5716 Clouds 13 1008 82 10000 5.7 130 16:29 29.06.2019
5717 Drizzle 13 1009 82 10000 5.7 130 15:42 29.06.2019
5718 Drizzle 13 1009 82 10000 5.7 130 15:23 29.06.2019
5719 Drizzle 13 1009 87 10000 4.6 130 14:43 29.06.2019
5720 Drizzle 13 1009 87 10000 4.6 130 14:25 29.06.2019
5721 Clouds 13 1010 87 10000 3.6 140 13:46 29.06.2019
5722 Clouds 13 1010 87 10000 3.6 140 13:26 29.06.2019
5723 Drizzle 12 1008 87 10000 4.6 130 12:49 29.06.2019
5724 Drizzle 12 1008 87 10000 4.6 130 12:31 29.06.2019
5725 Drizzle 13 1008 100 9000 3.6 120 11:53 29.06.2019
5726 Drizzle 13 1008 87 10000 3.1 140 11:31 29.06.2019
5727 Drizzle 13 1009 87 10000 4.1 140 10:53 29.06.2019
5728 Drizzle 13 1009 87 10000 4.1 140 10:32 29.06.2019
5729 Drizzle 13 1009 82 10000 4.6 130 09:59 29.06.2019
5730 Drizzle 13 1009 82 10000 4.6 130 09:36 29.06.2019
5731 Drizzle 12 1008 93 10000 4.6 140 08:41 29.06.2019
5732 Mist 13 1009 93 6000 4.6 120 07:46 29.06.2019
5733 Mist 13 1009 93 6000 4.6 120 07:21 29.06.2019
5734 Drizzle 13 1009 93 6000 3.1 150 06:43 29.06.2019
5735 Drizzle 13 1009 100 4000 2.6 110 06:21 29.06.2019
5736 Drizzle 13 1008 93 5000 2.6 160 02:37 29.06.2019
5737 Drizzle 13 1007 93 7000 0.5 150 00:57 29.06.2019
5738 Drizzle 13 1008 93 5000 3.1 140 00:23 29.06.2019
5739 Mist 14 1007 93 3000 3.6 140 23:26 28.06.2019
5740 Mist 14 1007 93 3000 3.6 140 22:53 28.06.2019
5741 Drizzle 14 1007 93 1500 2.6 150 22:33 28.06.2019
5742 Mist 14 1007 93 1500 1.5 120 21:48 28.06.2019
5743 Mist 13 1007 100 3500 2.1 110 21:21 28.06.2019
5744 Mist 14 1007 100 4500 3.1 130 20:46 28.06.2019
5745 Mist 13 1007 100 4500 3.1 130 20:26 28.06.2019
5746 Rain 14 1007 93 3000 3.6 120 19:53 28.06.2019
5747 Drizzle 14 1007 93 3500 3.1 80 19:28 28.06.2019
5748 Rain 14 1008 87 9000 2.6 80 18:57 28.06.2019
5749 Drizzle 14 1008 93 10000 3.1 90 18:38 28.06.2019
5750 Clouds 14 1009 87 10000 3.1 80 18:20 28.06.2019
5751 Clouds 14 1009 87 10000 3.1 80 17:29 28.06.2019
5752 Clouds 14 1010 87 10000 1.5 80 16:50 28.06.2019
5753 Clouds 14 1010 87 10000 1.5 80 16:27 28.06.2019
5754 Clouds 14 1010 87 10000 2.6 10 15:48 28.06.2019
5755 Clouds 14 1010 87 10000 2.6 10 15:23 28.06.2019
5756 Clouds 13 1009 93 10000 2.6 10 14:43 28.06.2019
5757 Clouds 13 1009 93 10000 2.6 10 14:22 28.06.2019
5758 Mist 12 1009 87 10000 3.1 20 13:56 28.06.2019
5759 Mist 12 1009 87 10000 3.1 20 13:37 28.06.2019
5760 Clouds 13 1009 87 10000 3.1 20 13:19 28.06.2019
5761 Clouds 13 1009 87 10000 3.1 20 12:44 28.06.2019
5762 Clouds 13 1009 87 10000 3.1 20 11:54 28.06.2019
5763 Clouds 12 1009 87 10000 3.1 20 11:22 28.06.2019
5764 Clouds 12 1009 82 10000 3.1 10 10:44 28.06.2019
5765 Clouds 12 1009 82 10000 3.1 10 10:44 28.06.2019
5766 Clouds 12 1009 82 10000 3.1 10 10:21 28.06.2019
5767 Clear 12 1010 76 10000 3.1 20 09:47 28.06.2019
5768 Clear 12 1010 76 10000 3.1 20 09:29 28.06.2019
5769 Clear 12 1010 76 10000 3.1 20 08:45 28.06.2019
5770 Clear 12 1010 76 10000 3.1 20 08:25 28.06.2019
5771 Clear 11 1010 76 10000 2.6 10 07:46 28.06.2019
5772 Clear 11 1011 76 10000 3.1 20 06:57 28.06.2019
5773 Clear 11 1011 76 10000 2.6 20 05:42 28.06.2019
5774 Clear 12 1011 67 10000 4.1 60 01:22 28.06.2019
5775 Clear 12 1011 58 10000 3.1 50 00:26 28.06.2019
5776 Clear 13 1010 54 10000 3.1 20 23:48 27.06.2019
5777 Clear 13 1010 54 10000 3.1 20 23:25 27.06.2019
5778 Clear 14 1011 50 10000 3.6 20 22:54 27.06.2019
5779 Clear 14 1011 50 10000 3.6 20 22:36 27.06.2019
5780 Clear 14 1011 50 10000 3.6 20 22:18 27.06.2019
5781 Clear 15 1010 38 10000 3.6 20 21:42 27.06.2019
5782 Clear 15 1010 38 10000 3.6 20 21:24 27.06.2019
5783 Clear 15 1011 54 10000 4.1 10 20:50 27.06.2019
5784 Clear 15 1011 54 10000 4.1 10 20:31 27.06.2019
5785 Clear 14 1012 47 10000 4.6 10 19:57 27.06.2019
5786 Clear 14 1012 47 10000 4.6 10 19:57 27.06.2019
5787 Clear 14 1012 47 10000 4.6 10 19:39 27.06.2019
5788 Clear 14 1013 50 10000 5.7 350 19:21 27.06.2019
5789 Clear 13 1013 50 10000 5.7 350 18:41 27.06.2019
5790 Clear 13 1013 50 10000 5.7 350 18:19 27.06.2019
5791 Clear 12 1014 54 10000 5.7 340 17:39 27.06.2019
5792 Clear 12 1014 53 10000 6.7 340 17:21 27.06.2019
5793 Clear 11 1014 53 10000 6.7 340 16:39 27.06.2019
5794 Clear 10 1015 57 10000 6.2 340 16:19 27.06.2019
5795 Clear 10 1015 57 10000 6.2 340 15:47 27.06.2019
5796 Clear 9 1015 57 10000 6.2 340 15:26 27.06.2019
5797 Clear 8 1014 65 10000 4.1 330 14:52 27.06.2019
5798 Clear 8 1014 65 10000 4.1 330 14:52 27.06.2019
5799 Clear 8 1014 65 10000 4.1 330 14:30 27.06.2019
5800 Clear 8 1013 65 10000 5.7 350 13:50 27.06.2019
5801 Clear 8 1013 65 10000 5.7 350 13:32 27.06.2019
5802 Clear 8 1013 65 10000 5.7 350 12:58 27.06.2019
5803 Clear 8 1013 65 10000 5.7 350 12:38 27.06.2019
5804 Clear 8 1013 65 10000 5.7 350 12:19 27.06.2019
5805 Clear 8 1012 61 10000 6.2 340 11:42 27.06.2019
5806 Clear 8 1012 61 10000 6.2 340 11:21 27.06.2019
5807 Clear 8 1012 61 10000 6.7 320 10:55 27.06.2019
5808 Clear 9 1012 61 10000 6.7 320 10:36 27.06.2019
5809 Clear 9 1012 61 10000 6.2 330 10:18 27.06.2019
5810 Clear 9 1012 61 10000 6.2 330 09:36 27.06.2019
5811 Clear 9 1012 61 10000 6.2 330 09:18 27.06.2019
5812 Clear 9 1013 66 10000 6.7 330 08:41 27.06.2019
5813 Clear 9 1013 66 10000 6.7 330 08:19 27.06.2019
5814 Clear 9 1013 66 10000 6.2 330 07:38 27.06.2019
5815 Clear 9 1014 66 10000 5.7 320 06:54 27.06.2019
5816 Clear 9 1014 66 10000 5.7 320 06:24 27.06.2019
5817 Clear 10 1014 62 10000 5.7 340 03:21 27.06.2019
5818 Clear 10 1014 58 10000 6.2 340 02:30 27.06.2019
5819 Clear 11 1014 54 10000 4.1 330 00:59 27.06.2019
5820 Clear 11 1014 54 10000 4.1 330 00:41 27.06.2019
5821 Clear 11 1014 46 10000 5.7 320 00:19 27.06.2019
5822 Clear 11 1014 46 10000 5.7 320 23:40 26.06.2019
5823 Clear 12 1014 46 10000 5.7 320 23:21 26.06.2019
5824 Clear 13 1013 49 10000 6.7 310 22:45 26.06.2019
5825 Clear 13 1013 49 10000 6.7 310 22:27 26.06.2019
5826 Clear 14 1013 49 10000 5.1 310 21:59 26.06.2019
5827 Clear 14 1013 49 10000 5.1 310 21:38 26.06.2019
5828 Clear 14 1014 42 10000 5.1 330 21:19 26.06.2019
5829 Clear 14 1014 42 10000 5.1 330 21:19 26.06.2019
5830 Clear 13 1014 43 10000 5.1 330 20:44 26.06.2019
5831 Clear 13 1014 43 10000 5.1 330 20:26 26.06.2019
5832 Clear 12 1015 43 10000 5.1 300 19:50 26.06.2019
5833 Clear 12 1015 43 10000 4.1 300 19:31 26.06.2019
5834 Clouds 11 1015 46 10000 4.6 300 18:57 26.06.2019
5835 Clouds 11 1015 46 10000 4.6 300 18:57 26.06.2019
5836 Clouds 11 1015 46 10000 4.6 300 18:39 26.06.2019
5837 Clouds 10 1016 43 10000 3.6 300 18:19 26.06.2019
5838 Clouds 10 1016 43 10000 3.6 300 17:43 26.06.2019
5839 Clouds 10 1016 43 10000 3.6 300 17:23 26.06.2019
5840 Clouds 10 1016 37 10000 3.6 290 16:51 26.06.2019
5841 Clouds 10 1016 37 10000 3.6 290 16:28 26.06.2019
5842 Clouds 8 1015 45 10000 3.6 290 15:51 26.06.2019
5843 Clouds 9 1015 45 10000 3.6 290 15:28 26.06.2019
5844 Clouds 7 1015 49 10000 2.6 280 14:42 26.06.2019
5845 Clear 5 1014 52 10000 2.6 280 14:21 26.06.2019
5846 Clear 5 1014 52 10000 2.6 280 13:45 26.06.2019
5847 Clear 4 1014 56 10000 3.1 270 13:21 26.06.2019
5848 Clear 4 1014 56 10000 3.1 270 12:52 26.06.2019
5849 Clear 4 1014 56 10000 3.1 270 12:33 26.06.2019
5850 Clear 4 1013 60 10000 1.5 260 11:55 26.06.2019
5851 Clear 4 1013 60 10000 1.5 260 11:24 26.06.2019
5852 Clear 4 1014 60 10000 2.1 270 10:49 26.06.2019
5853 Clear 4 1014 60 10000 2.1 270 10:31 26.06.2019
5854 Clear 4 1014 60 10000 2.1 270 10:31 26.06.2019
5855 Clear 5 1014 56 10000 2.1 270 09:51 26.06.2019
5856 Clear 5 1014 56 10000 2.1 270 09:27 26.06.2019
5857 Clear 5 1015 46 10000 2.6 270 08:52 26.06.2019
5858 Clear 5 1015 47 10000 2.6 270 08:21 26.06.2019
5859 Clear 6 1015 47 10000 3.1 280 07:55 26.06.2019
5860 Clear 6 1015 47 10000 3.1 280 07:35 26.06.2019
5861 Clear 6 1015 47 10000 2.6 280 06:32 26.06.2019
5862 Clear 9 1014 41 10000 3.6 280 01:36 26.06.2019
5863 Clear 10 1014 46 10000 3.1 270 00:27 26.06.2019
5864 Clear 10 1012 40 10000 5.1 270 23:49 25.06.2019
5865 Clear 11 1012 37 10000 4.1 270 23:29 25.06.2019
5866 Clear 11 1012 37 10000 4.1 270 22:59 25.06.2019
5867 Clear 11 1012 37 10000 4.1 270 22:40 25.06.2019
5868 Clear 11 1012 37 10000 4.1 270 22:21 25.06.2019
5869 Clear 11 1011 54 10000 4.6 250 21:45 25.06.2019
5870 Clear 11 1011 54 10000 4.6 250 21:24 25.06.2019
5871 Clear 11 1011 54 10000 5.1 250 20:47 25.06.2019
5872 Clear 11 1011 54 10000 5.1 250 20:47 25.06.2019
5873 Clear 11 1011 54 10000 5.1 250 20:47 25.06.2019
5874 Clear 11 1011 54 10000 5.1 250 20:47 25.06.2019
5875 Clear 11 1011 54 10000 5.1 250 20:47 25.06.2019
5876 Clear 11 1011 54 10000 5.1 250 20:23 25.06.2019
5877 Clear 11 1010 37 10000 5.7 250 19:54 25.06.2019
5878 Clear 11 1010 37 10000 5.7 250 19:36 25.06.2019
5879 Clear 11 1010 32 10000 7.7 240 19:18 25.06.2019
5880 Clear 11 1010 32 10000 7.7 240 19:18 25.06.2019
5881 Clear 11 1010 32 10000 7.7 240 18:40 25.06.2019
5882 Clear 10 1011 46 10000 5.1 250 18:21 25.06.2019
5883 -273 0 0 0 0 0 17:37 25.06.2019
5884 Clear 9 1012 61 10000 10.3 220 17:19 25.06.2019
5885 Clear 9 1012 61 10000 10.3 220 17:19 25.06.2019
5886 Clear 9 1011 57 10000 5.1 250 16:42 25.06.2019
5887 Clear 9 1011 57 10000 5.1 250 16:24 25.06.2019
5888 Clouds 8 1010 61 10000 5.7 250 15:43 25.06.2019
5889 Clouds 8 1010 61 10000 5.7 250 15:24 25.06.2019
5890 Clouds 8 1010 70 10000 9.8 230 14:55 25.06.2019
5891 Clouds 8 1010 70 10000 9.8 230 14:35 25.06.2019
5892 Clouds 9 1007 71 10000 4.6 250 13:47 25.06.2019
5893 Clouds 9 1007 71 10000 4.6 250 13:47 25.06.2019
5894 Clouds 9 1007 71 10000 4.6 250 13:47 25.06.2019
5895 Clouds 9 1007 71 10000 4.6 250 13:29 25.06.2019
5896 Clear 9 1007 76 10000 11.3 220 12:55 25.06.2019
5897 Clear 9 1007 76 10000 7.7 240 12:37 25.06.2019
5898 Clear 9 1007 76 10000 7.7 240 12:18 25.06.2019
5899 Clouds 10 1006 76 10000 9.3 200 11:43 25.06.2019
5900 Clouds 10 1006 76 10000 9.3 200 11:21 25.06.2019
5901 Rain 10 1003 87 10000 5.7 210 11:21 25.06.2019
5902 Rain 10 1003 87 10000 5.7 210 10:45 25.06.2019
5903 Rain 10 1003 87 10000 5.7 210 10:23 25.06.2019
5904 Rain 11 1005 93 5000 8.2 210 09:55 25.06.2019
5905 Clouds 11 1004 87 10000 9.8 250 09:37 25.06.2019
5906 Clouds 12 1002 87 10000 3.1 180 09:18 25.06.2019
5907 Clouds 12 1002 87 10000 3.1 180 08:43 25.06.2019
5908 Clouds 12 1002 87 10000 3.1 180 08:24 25.06.2019
5909 Clouds 12 1001 87 10000 3.1 180 07:40 25.06.2019
5910 Thunderstorm 12 1000 93 10000 4.6 160 06:57 25.06.2019
5911 Thunderstorm 12 1000 93 10000 4.6 160 06:39 25.06.2019
5912 Mist 15 1000 93 1500 4.1 130 02:47 25.06.2019
5913 Mist 15 1000 93 5000 5.1 110 01:41 25.06.2019
5914 Clouds 15 1000 93 8000 6.7 100 00:37 25.06.2019
5915 Mist 15 1000 87 7000 3.6 70 23:56 24.06.2019
5916 Mist 15 1001 93 7000 7.7 110 23:38 24.06.2019
5917 Mist 15 1001 93 7000 7.7 110 23:20 24.06.2019
5918 Mist 15 1002 93 9000 4.6 130 22:41 24.06.2019
5919 Mist 14 1002 87 9000 4.6 130 22:19 24.06.2019
5920 Mist 14 1002 87 9000 4.6 130 21:39 24.06.2019
5921 Mist 14 1002 87 9000 4.6 130 21:19 24.06.2019
5922 Drizzle 14 1003 93 3000 4.6 90 20:56 24.06.2019
5923 Drizzle 15 1003 87 9000 5.7 100 20:37 24.06.2019
5924 Drizzle 15 1003 87 9000 5.7 100 20:19 24.06.2019
5925 Clouds 15 1004 87 10000 5.7 100 19:43 24.06.2019
5926 Clouds 15 1006 87 10000 4.6 100 19:21 24.06.2019
5927 Clouds 15 1006 87 10000 4.6 100 18:44 24.06.2019
5928 Clouds 15 1006 87 10000 4.6 100 18:25 24.06.2019
5929 Mist 15 1007 87 10000 5.1 100 17:47 24.06.2019
5930 Mist 14 1007 87 10000 5.1 100 17:25 24.06.2019
5931 Clouds 14 1009 87 10000 5.1 100 16:46 24.06.2019
5932 Clouds 14 1009 87 10000 4.1 90 16:20 24.06.2019
5933 Clouds 13 1009 87 10000 4.1 90 15:48 24.06.2019
5934 Clouds 13 1009 87 10000 4.1 90 15:29 24.06.2019
5935 Clouds 12 1010 93 10000 3.6 90 14:43 24.06.2019
5936 Clouds 12 1010 93 10000 3.6 90 14:24 24.06.2019
5937 Fog 10 1010 87 10000 2.6 120 13:46 24.06.2019
5938 Mist 10 1010 100 5000 1 0 13:24 24.06.2019
5939 Clouds 11 1009 93 7000 3.38 110.647 12:43 24.06.2019
5940 Fog 10 1009 100 800 1 0 12:21 24.06.2019
5941 Clear 11 1009 82 10000 1 0 11:46 24.06.2019
5942 Fog 10 1009 82 10000 1 0 11:28 24.06.2019
5943 Fog 10 1010 82 10000 1.5 190 10:55 24.06.2019
5944 Fog 10 1010 82 10000 1.5 190 10:36 24.06.2019
5945 Fog 11 1010 82 10000 1.5 190 10:18 24.06.2019
5946 Fog 11 1010 87 9000 1.5 190 09:43 24.06.2019
5947 Fog 11 1011 100 10000 1.5 180 09:19 24.06.2019
5948 Fog 11 1011 87 7000 1 0 08:50 24.06.2019
5949 Mist 11 1011 87 5000 1.5 220 08:18 24.06.2019
5950 Mist 12 1011 93 3000 1.5 0 07:41 24.06.2019
5951 Mist 12 1011 93 3000 1.5 0 07:22 24.06.2019
5952 Mist 13 1011 100 50 1.9 225.085 06:24 24.06.2019
5953 Mist 13 1011 100 1200 2.1 180 05:41 24.06.2019
5954 Mist 14 1011 93 4000 1.5 200 04:43 24.06.2019
5955 Fog 15 1011 100 800 3.6 190 03:48 24.06.2019
5956 Mist 15 1010 100 800 2.6 240 02:47 24.06.2019
5957 Mist 16 1011 100 2500 2.1 200 01:55 24.06.2019
5958 Mist 16 1010 93 1500 1.5 230 01:33 24.06.2019
5959 Fog 17 1010 88 8000 1 0 00:50 24.06.2019
5960 Mist 17 1010 93 6000 2.1 250 00:20 24.06.2019
5961 Mist 17 1010 93 6000 2.1 250 23:48 23.06.2019
5962 Mist 17 1009 88 5000 1.5 210 23:28 23.06.2019
5963 Mist 17 1009 88 5000 1.5 210 23:28 23.06.2019
5964 Mist 17 1009 100 3000 1 300 22:58 23.06.2019
5965 Mist 17 1010 88 3500 1 0 22:39 23.06.2019
5966 Mist 18 1010 88 3500 1 0 22:19 23.06.2019
5967 Drizzle 17 1009 93 900 1.5 240 21:41 23.06.2019
5968 Drizzle 18 1009 93 900 1.5 240 21:22 23.06.2019
5969 Drizzle 18 1009 93 900 1.5 240 21:22 23.06.2019
5970 Mist 19 1009 88 1300 3.6 240 20:49 23.06.2019
5971 Mist 19 1009 88 1500 4.1 220 20:29 23.06.2019
5972 Mist 19 1009 93 1500 2.6 230 19:46 23.06.2019
5973 Mist 20 1009 93 1500 2.6 230 19:23 23.06.2019
5974 Mist 19 1010 83 10000 4.6 310 18:55 23.06.2019
5975 Mist 19 1010 93 10000 2.1 340 18:27 23.06.2019
5976 Mist 19 1010 93 10000 2.1 340 17:59 23.06.2019
5977 Mist 19 1010 93 10000 2.1 340 17:38 23.06.2019
5978 Mist 19 1010 100 3000 1.5 40 17:19 23.06.2019
5979 Mist 19 1011 88 9000 2.1 20 16:43 23.06.2019
5980 Mist 19 1011 88 9000 2.1 20 16:23 23.06.2019
5981 Clouds 18 1012 88 9000 1 0 15:41 23.06.2019
5982 -273 0 0 0 0 0 15:22 23.06.2019
5983 Mist 17 1012 93 3500 2.1 70 14:42 23.06.2019
5984 Mist 17 1012 93 3500 2.1 70 14:24 23.06.2019
5985 Mist 16 1011 93 5000 1 0 13:59 23.06.2019
5986 Mist 16 1011 93 10000 1 0 13:41 23.06.2019
5987 Mist 16 1012 100 3800 1.5 160 13:19 23.06.2019
5988 Mist 16 1011 93 10000 1 0 12:46 23.06.2019
5989 Mist 16 1011 93 10000 2.1 330 12:23 23.06.2019
5990 Mist 16 1011 93 10000 2.1 330 11:57 23.06.2019
5991 Mist 16 1011 93 10000 2.1 330 11:38 23.06.2019
5992 Mist 16 1011 93 10000 2.1 330 11:19 23.06.2019
5993 Mist 16 1013 93 10000 2.6 320 10:44 23.06.2019
5994 Mist 17 1013 93 10000 2.6 320 10:19 23.06.2019
5995 Clouds 17 1013 100 6000 1 20 09:42 23.06.2019
5996 Clear 17 1013 93 10000 1.5 280 09:21 23.06.2019
5997 Clear 17 1013 88 10000 2.03 317.74 08:45 23.06.2019
5998 Mist 16 1013 88 10000 1.9 316.494 08:27 23.06.2019
5999 Clear 16 1014 93 10000 1 220 07:54 23.06.2019
6000 Clear 16 1015 93 10000 1.5 90 07:21 23.06.2019
6001 Clear 16 1015 93 10000 1.5 90 06:54 23.06.2019
6002 Clear 16 1016 93 10000 1 18.959 05:55 23.06.2019
6003 Clear 16 1016 93 10000 1 18.959 04:30 23.06.2019
6004 Clear 16 1017 87 10000 2.1 110 01:54 23.06.2019
6005 Clear 16 1017 87 10000 2.1 110 01:35 23.06.2019
6006 Smoke 16 1017 87 10000 2.6 130 00:36 23.06.2019
6007 Clear 17 1017 87 10000 2.6 130 23:54 22.06.2019
6008 Clear 17 1017 87 10000 2.6 130 23:27 22.06.2019
6009 Clear 18 1017 82 10000 3.6 100 22:50 22.06.2019
6010 Clear 18 1017 82 10000 3.6 100 22:31 22.06.2019
6011 Clouds 18 1018 72 10000 3.1 100 21:59 22.06.2019
6012 Clouds 19 1018 72 10000 3.1 100 21:37 22.06.2019
6013 Clouds 19 1018 77 10000 2.6 90 21:18 22.06.2019
6014 Clouds 19 1018 77 10000 2.6 90 20:50 22.06.2019
6015 Clouds 19 1018 77 10000 2.6 90 20:25 22.06.2019
6016 Clouds 19 1018 88 10000 1.5 40 19:46 22.06.2019
6017 Clouds 19 1018 88 10000 1.5 40 19:22 22.06.2019
6018 Clouds 18 1019 88 10000 1.5 60 18:48 22.06.2019
6019 Clouds 18 1019 88 10000 1.5 60 18:30 22.06.2019
6020 Clouds 18 1020 88 10000 2.1 60 17:56 22.06.2019
6021 Clouds 18 1020 88 10000 2.1 60 17:34 22.06.2019
6022 Clouds 18 1020 93 10000 1 0 16:50 22.06.2019
6023 Clouds 17 1020 93 10000 1 0 16:24 22.06.2019
6024 Clouds 17 1019 93 10000 1 120 15:55 22.06.2019
6025 Clouds 16 1019 93 10000 1 120 15:34 22.06.2019
6026 Clouds 15 1019 100 6000 1 50 14:58 22.06.2019
6027 Clouds 15 1019 100 6000 1 50 14:34 22.06.2019
6028 Fog 15 1019 93 10000 1.44 175.362 13:59 22.06.2019
6029 Fog 15 1019 93 10000 1.44 175.362 13:40 22.06.2019
6030 Clouds 14 1019 87 10000 1.86 189.043 13:19 22.06.2019
6031 Clouds 15 1019 87 10000 1.86 189.043 12:47 22.06.2019
6032 Clouds 15 1019 87 10000 1.86 189.043 12:29 22.06.2019
6033 Clouds 15 1019 87 10000 1.5 10 11:53 22.06.2019
6034 Clouds 15 1019 87 10000 1.5 10 11:29 22.06.2019
6035 Clouds 15 1019 87 10000 1 0 10:47 22.06.2019
6036 Clouds 15 1019 82 10000 1 270 10:19 22.06.2019
6037 Clouds 15 1019 82 10000 1 270 09:42 22.06.2019
6038 Clouds 15 1019 82 10000 1 290 08:56 22.06.2019
6039 Clouds 15 1019 82 10000 1 290 08:37 22.06.2019
6040 Clear 15 1019 87 10000 1 300 07:53 22.06.2019
6041 Clear 15 1019 87 10000 1 300 07:29 22.06.2019
6042 Clear 15 1020 82 10000 1 300 06:44 22.06.2019
6043 Clouds 15 1019 87 10000 2.6 10 04:37 22.06.2019
6044 Clear 15 1019 87 10000 2.1 90 02:26 22.06.2019
6045 Clear 15 1018 87 10000 1 70 00:54 22.06.2019
6046 Clear 15 1018 87 10000 1 70 00:31 22.06.2019
6047 Clouds 15 1018 87 10000 1.5 30 23:50 21.06.2019
6048 Clouds 15 1018 87 10000 1.5 30 23:24 21.06.2019
6049 Clear 15 1018 87 10000 1.5 360 22:57 21.06.2019
6050 Clear 15 1018 87 10000 1.5 360 22:39 21.06.2019
6051 Clear 16 1018 82 10000 2.1 10 22:19 21.06.2019
6052 Clear 16 1018 72 10000 1.5 360 21:39 21.06.2019
6053 Clear 16 1018 82 10000 2.6 20 21:20 21.06.2019
6054 Clear 16 1018 82 10000 2.6 20 20:48 21.06.2019
6055 Clear 16 1018 82 10000 2.6 20 20:26 21.06.2019
6056 Clear 16 1019 82 10000 2.1 20 19:48 21.06.2019
6057 Clear 16 1019 82 10000 2.1 20 19:21 21.06.2019
6058 Clear 15 1019 82 10000 2.1 20 18:40 21.06.2019
6059 Clear 15 1020 82 10000 3.6 10 18:22 21.06.2019
6060 Clear 15 1020 82 10000 3.6 10 17:31 21.06.2019
6061 Clear 14 1021 82 10000 3.6 10 16:43 21.06.2019
6062 Clear 14 1021 82 10000 3.6 360 16:23 21.06.2019
6063 Clear 13 1021 82 10000 3.6 360 15:58 21.06.2019
6064 Clear 13 1021 82 10000 3.6 360 15:36 21.06.2019
6065 Clear 12 1020 87 10000 3.1 10 14:54 21.06.2019
6066 Clear 11 1020 87 10000 3.1 10 14:32 21.06.2019
6067 Clear 10 1020 82 10000 2.6 20 13:59 21.06.2019
6068 Clear 10 1020 82 10000 2.6 20 13:37 21.06.2019
6069 Clear 10 1019 100 10000 3.86 1.5 13:19 21.06.2019
6070 Clear 11 1019 82 10000 2.6 20 12:42 21.06.2019
6071 Clear 11 1019 82 10000 2.6 20 12:22 21.06.2019
6072 Fog 10 1019 82 10000 2.6 10 11:48 21.06.2019
6073 Fog 10 1019 82 10000 2.6 10 11:27 21.06.2019
6074 Fog 10 1020 71 10000 3.6 360 10:56 21.06.2019
6075 Fog 10 1020 71 10000 3.6 360 10:38 21.06.2019
6076 Fog 10 1020 71 10000 3.6 360 10:19 21.06.2019
6077 Fog 10 1020 82 10000 3.1 350 09:41 21.06.2019
6078 Fog 10 1020 82 10000 3.1 350 09:21 21.06.2019
6079 Clear 10 1020 93 10000 1.5 30 08:44 21.06.2019
6080 Clear 10 1020 76 10000 4.1 350 08:24 21.06.2019
6081 Clear 11 1020 82 10000 3.6 360 07:54 21.06.2019
6082 Clear 11 1020 82 10000 3.6 360 07:54 21.06.2019
6083 Clear 11 1020 82 10000 3.6 360 07:36 21.06.2019
6084 Clear 11 1021 76 10000 2.6 10 06:54 21.06.2019
6085 Clear 11 1021 76 10000 2.6 10 06:23 21.06.2019
6086 Clear 12 1021 76 10000 2.6 10 05:30 21.06.2019
6087 Clear 12 1021 82 10000 2.6 10 04:30 21.06.2019
6088 Clear 12 1021 76 10000 3.1 10 03:34 21.06.2019
6089 Clear 12 1021 87 10000 2.1 30 02:53 21.06.2019
6090 Clear 12 1021 76 10000 2.6 360 01:53 21.06.2019
6091 Clear 13 1021 67 10000 3.1 350 00:56 21.06.2019
6092 Clear 12 1021 76 10000 1.5 50 00:23 21.06.2019
6093 Clear 13 1021 67 10000 2.6 330 23:49 20.06.2019
6094 Clear 13 1021 67 10000 2.6 330 23:23 20.06.2019
6095 Clear 14 1021 72 10000 2.6 30 22:58 20.06.2019
6096 Clear 14 1021 72 10000 2.6 30 22:58 20.06.2019
6097 Clear 14 1021 72 10000 2.6 30 22:38 20.06.2019
6098 Clear 14 1021 72 10000 2.6 30 22:20 20.06.2019
6099 Clear 15 1021 76 10000 2.1 50 21:48 20.06.2019
6100 Clear 15 1021 76 10000 2.1 50 21:19 20.06.2019
6101 Clear 16 1022 72 10000 2.1 40 20:50 20.06.2019
6102 Clear 16 1022 72 10000 2.1 40 20:27 20.06.2019
6103 Clear 16 1022 67 10000 2.6 20 19:58 20.06.2019
6104 Clear 16 1022 67 10000 2.6 20 19:39 20.06.2019
6105 Clear 16 1023 67 10000 2.6 360 19:18 20.06.2019
6106 Clear 16 1023 67 10000 2.6 360 18:43 20.06.2019
6107 Clear 15 1023 67 10000 2.6 360 18:23 20.06.2019
6108 Clear 15 1023 71 10000 2.1 40 17:56 20.06.2019
6109 Clear 15 1023 71 10000 2.1 40 17:38 20.06.2019
6110 Clear 14 1024 67 10000 1.5 30 16:57 20.06.2019
6111 Clear 14 1024 67 10000 1.5 30 16:39 20.06.2019
6112 Clear 14 1023 66 10000 1 140 16:18 20.06.2019
6113 Clear 13 1023 66 10000 1 140 15:41 20.06.2019
6114 Clear 11 1023 66 10000 1 140 15:22 20.06.2019
6115 Clear 9 1023 71 10000 0.5 0 14:47 20.06.2019
6116 Clear 8 1023 71 10000 0.5 0 14:23 20.06.2019
6117 Fog 7 1022 87 10000 1 230 13:42 20.06.2019
6118 Fog 7 1022 87 10000 1 230 13:42 20.06.2019
6119 Fog 6 1022 87 10000 1 230 13:21 20.06.2019
6120 Fog 6 1022 93 10000 0.56 254.905 12:50 20.06.2019
6121 Fog 6 1022 87 10000 1.5 0 12:25 20.06.2019
6122 Fog 7 1022 87 10000 1 270 11:58 20.06.2019
6123 Fog 7 1022 87 10000 1 270 11:38 20.06.2019
6124 Fog 7 1022 87 10000 1 270 11:20 20.06.2019
6125 Clear 7 1022 81 10000 1.5 270 10:41 20.06.2019
6126 Clear 8 1022 81 10000 1.5 270 10:22 20.06.2019
6127 Clear 8 1021 71 10000 1 270 09:40 20.06.2019
6128 Clear 8 1021 71 10000 1 270 09:22 20.06.2019
6129 Clear 8 1021 71 10000 1 230 08:47 20.06.2019
6130 Clear 8 1021 71 10000 1 230 08:27 20.06.2019
6131 Clear 9 1021 66 10000 1.5 230 07:55 20.06.2019
6132 Clear 9 1021 66 10000 1.5 230 07:31 20.06.2019
6133 Clear 9 1021 62 10000 2.6 230 06:43 20.06.2019
6134 Clear 9 1020 62 10000 2.1 220 06:18 20.06.2019
6135 Clear 11 1019 62 10000 2.6 250 03:37 20.06.2019
6136 Clear 13 1017 58 10000 2.6 270 00:34 20.06.2019
6137 Clear 14 1017 62 10000 5.1 250 23:59 19.06.2019
6138 Clear 14 1017 54 10000 4.1 270 23:41 19.06.2019
6139 Clear 14 1017 62 10000 5.1 250 23:23 19.06.2019
6140 Clear 15 1016 51 10000 4.1 260 22:47 19.06.2019
6141 Clear 16 1016 59 10000 6.7 270 22:20 19.06.2019
6142 Clear 16 1015 51 10000 3.6 260 21:46 19.06.2019
6143 Clear 16 1015 51 10000 3.6 260 21:25 19.06.2019
6144 Clear 17 1015 48 10000 4.6 280 20:56 19.06.2019
6145 Clear 17 1015 48 10000 4.6 280 20:37 19.06.2019
6146 Clear 17 1015 48 10000 4.6 280 20:37 19.06.2019
6147 Clear 17 1015 48 10000 4.6 280 20:37 19.06.2019
6148 Clear 17 1015 48 10000 4.6 280 20:19 19.06.2019
6149 Clear 16 1015 51 10000 4.1 260 19:41 19.06.2019
6150 Clear 16 1015 51 10000 4.1 260 19:20 19.06.2019
6151 Clear 16 1015 51 10000 4.1 260 18:48 19.06.2019
6152 Clear 16 1015 51 10000 4.1 260 18:21 19.06.2019
6153 Clear 14 1015 54 10000 4.1 260 17:38 19.06.2019
6154 Clear 14 1015 58 10000 5.1 260 16:59 19.06.2019
6155 Clear 13 1015 58 10000 5.1 260 16:39 19.06.2019
6156 Clouds 13 1014 62 10000 4.6 260 16:21 19.06.2019
6157 Clouds 13 1014 62 10000 4.6 260 15:53 19.06.2019
6158 Clouds 13 1014 62 10000 4.6 260 15:27 19.06.2019
6159 Clear 12 1013 66 10000 4.6 280 14:51 19.06.2019
6160 Clear 12 1013 66 10000 4.6 280 14:32 19.06.2019
6161 Clear 12 1012 71 10000 3.6 290 13:59 19.06.2019
6162 Clear 11 1012 71 10000 3.6 290 13:41 19.06.2019
6163 Clear 12 1012 71 10000 4.1 280 13:21 19.06.2019
6164 Clear 12 1012 71 10000 4.1 280 12:44 19.06.2019
6165 Clear 12 1012 71 10000 4.1 280 12:21 19.06.2019
6166 Clouds 12 1011 71 10000 5.7 300 11:45 19.06.2019
6167 Clouds 12 1011 71 10000 5.7 300 11:26 19.06.2019
6168 Clouds 12 1010 66 10000 5.7 290 10:58 19.06.2019
6169 Clouds 12 1010 66 10000 5.7 290 10:40 19.06.2019
6170 Clouds 12 1010 66 10000 5.7 290 10:40 19.06.2019
6171 Clouds 12 1010 66 10000 5.7 290 10:22 19.06.2019
6172 Clouds 12 1010 66 10000 6.2 300 09:39 19.06.2019
6173 Clouds 12 1010 66 10000 6.2 300 09:19 19.06.2019
6174 Clouds 12 1011 62 10000 6.2 300 08:49 19.06.2019
6175 Clouds 12 1011 62 10000 6.2 300 08:28 19.06.2019
6176 Clear 12 1011 54 10000 6.2 300 07:47 19.06.2019
6177 Clear 12 1011 54 10000 6.2 300 07:47 19.06.2019
6178 Clear 12 1011 54 10000 6.2 300 07:23 19.06.2019
6179 Clear 12 1011 50 10000 6.7 300 06:52 19.06.2019
6180 Clear 12 1011 50 10000 6.7 300 06:26 19.06.2019
6181 Clear 12 1010 58 10000 5.1 320 05:49 19.06.2019
6182 Clear 12 1010 62 10000 5.7 320 04:34 19.06.2019
6183 Clear 12 1010 62 10000 5.1 320 03:30 19.06.2019
6184 Clear 12 1010 66 10000 5.1 320 01:53 19.06.2019
6185 Clear 12 1010 66 10000 5.7 310 01:18 19.06.2019
6186 Clear 12 1010 66 10000 5.7 310 00:43 19.06.2019
6187 Clear 12 1010 66 10000 5.7 310 00:20 19.06.2019
6188 Clear 12 1010 66 10000 5.7 300 23:52 18.06.2019
6189 Clouds 13 1009 71 10000 6.7 290 23:27 18.06.2019
6190 Clouds 13 1009 71 10000 6.7 290 22:46 18.06.2019
6191 Clouds 13 1009 81 10000 5.7 300 22:24 18.06.2019
6192 Clouds 13 1009 81 10000 5.7 300 21:57 18.06.2019
6193 Clouds 13 1009 81 10000 5.7 300 21:38 18.06.2019
6194 Clouds 12 1009 76 10000 8.2 300 21:20 18.06.2019
6195 Clouds 12 1009 81 10000 7.2 310 20:43 18.06.2019
6196 Clouds 11 1009 81 10000 7.2 310 20:25 18.06.2019
6197 Clouds 11 1010 81 10000 9.3 310 19:41 18.06.2019
6198 Clouds 11 1010 81 10000 9.3 310 19:23 18.06.2019
6199 Clouds 11 1009 87 10000 8.2 320 18:57 18.06.2019
6200 Clouds 12 1010 76 10000 8.7 310 18:28 18.06.2019
6201 Clouds 12 1011 76 10000 8.2 300 17:59 18.06.2019
6202 Clouds 12 1011 76 10000 8.2 300 17:38 18.06.2019
6203 Clouds 12 1011 76 10000 8.2 300 17:19 18.06.2019
6204 Clouds 12 1012 87 10000 5.7 310 16:42 18.06.2019
6205 Clouds 12 1012 87 10000 5.7 310 16:22 18.06.2019
6206 Clouds 12 1012 87 10000 5.7 310 16:22 18.06.2019
6207 Clouds 11 1012 93 10000 4.6 310 15:43 18.06.2019
6208 Clouds 11 1012 93 10000 4.6 310 15:23 18.06.2019
6209 Clouds 11 1012 93 10000 4.1 320 14:57 18.06.2019
6210 Clouds 11 1012 93 10000 2.6 300 14:39 18.06.2019
6211 Rain 11 1011 100 10000 4.1 310 14:19 18.06.2019
6212 Rain 11 1011 100 10000 4.1 310 13:50 18.06.2019
6213 Rain 11 1012 93 6000 3.1 290 13:30 18.06.2019
6214 Thunderstorm 11 1011 100 5000 2.6 270 12:46 18.06.2019
6215 Thunderstorm 11 1011 100 5000 2.6 270 12:28 18.06.2019
6216 Thunderstorm 11 1012 93 10000 3.6 270 11:54 18.06.2019
6217 Thunderstorm 11 1011 100 4400 2.6 270 11:36 18.06.2019
6218 Thunderstorm 11 1011 93 1500 3.6 280 11:18 18.06.2019
6219 Thunderstorm 11 1011 93 5000 1.5 260 10:41 18.06.2019
6220 Thunderstorm 11 1012 93 3000 3.1 280 10:21 18.06.2019
6221 Thunderstorm 11 1012 93 3000 3.1 280 09:51 18.06.2019
6222 Thunderstorm 12 1011 100 1500 2.6 280 09:24 18.06.2019
6223 Thunderstorm 12 1012 100 1500 3.1 280 08:49 18.06.2019
6224 Thunderstorm 12 1012 100 1500 3.6 300 08:22 18.06.2019
6225 Thunderstorm 13 1013 100 1000 3.1 360 07:46 18.06.2019
6226 Thunderstorm 13 1012 93 5000 2.1 280 07:24 18.06.2019
6227 Thunderstorm 13 1013 93 4000 2.1 320 06:48 18.06.2019
6228 Rain 13 1014 100 7000 2.1 40 05:24 18.06.2019
6229 Drizzle 13 1014 93 4000 1 360 04:21 18.06.2019
6230 Rain 13 1015 100 8000 2.1 310 02:45 18.06.2019
6231 Rain 13 1016 100 5000 1.5 310 01:26 18.06.2019
6232 Rain 14 1015 100 10000 2.1 340 00:57 18.06.2019
6233 Rain 14 1016 100 5000 2.1 320 00:30 18.06.2019
6234 Rain 14 1016 93 10000 2.1 330 23:42 17.06.2019
6235 Rain 14 1016 93 10000 2.1 330 23:22 17.06.2019
6236 Rain 14 1016 100 5000 1 350 22:58 17.06.2019
6237 Rain 14 1016 100 9000 2.6 280 22:38 17.06.2019
6238 Rain 14 1016 100 9000 2.6 280 22:20 17.06.2019
6239 Rain 14 1016 100 1300 3.6 300 21:42 17.06.2019
6240 Rain 14 1016 100 1300 3.6 300 21:23 17.06.2019
6241 Rain 15 1016 100 2500 2.6 280 20:39 17.06.2019
6242 Rain 15 1016 100 2500 2.6 280 20:20 17.06.2019
6243 Rain 15 1016 100 3000 2.6 280 19:54 17.06.2019
6244 Rain 16 1017 100 1300 3.6 320 19:36 17.06.2019
6245 Drizzle 16 1018 93 2600 3.1 300 19:18 17.06.2019
6246 Drizzle 16 1017 93 3000 2.6 300 18:38 17.06.2019
6247 Rain 16 1018 100 2000 3.1 340 18:18 17.06.2019
6248 Rain 16 1018 100 2000 3.1 340 17:47 17.06.2019
6249 Rain 16 1018 100 2000 3.1 340 17:29 17.06.2019
6250 Drizzle 16 1019 100 7000 3.1 340 16:55 17.06.2019
6251 Drizzle 17 1018 100 8000 3.6 340 16:37 17.06.2019
6252 Drizzle 17 1019 100 3000 2.6 350 16:19 17.06.2019
6253 Drizzle 17 1019 93 1400 2.6 10 15:43 17.06.2019
6254 Drizzle 17 1019 93 1500 1.5 20 15:20 17.06.2019
6255 Drizzle 17 1019 93 1500 1.5 20 15:20 17.06.2019
6256 Drizzle 17 1019 93 1500 1.5 20 14:55 17.06.2019
6257 Drizzle 17 1019 100 1000 2.6 340 14:34 17.06.2019
6258 Drizzle 17 1019 100 3000 4.6 60 13:58 17.06.2019
6259 Drizzle 17 1019 100 1400 3.6 80 13:40 17.06.2019
6260 Drizzle 17 1019 100 2000 3.6 70 13:20 17.06.2019
6261 Drizzle 17 1019 100 4000 5.7 100 12:39 17.06.2019
6262 Drizzle 17 1019 100 4000 5.1 80 12:19 17.06.2019
6263 Drizzle 17 1019 100 6000 6.2 110 11:43 17.06.2019
6264 Rain 17 1019 100 5000 5.1 90 11:24 17.06.2019
6265 Rain 17 1020 93 4500 6.2 100 10:47 17.06.2019
6266 Drizzle 17 1020 93 10000 6.2 110 10:28 17.06.2019
6267 Drizzle 17 1020 93 10000 6.2 110 09:56 17.06.2019
6268 Drizzle 17 1020 93 10000 6.2 110 09:56 17.06.2019
6269 Drizzle 17 1020 93 10000 6.2 110 09:56 17.06.2019
6270 Rain 17 1020 93 5000 6.2 110 09:33 17.06.2019
6271 Drizzle 17 1021 93 10000 6.2 120 08:48 17.06.2019
6272 Drizzle 17 1021 93 10000 6.2 120 08:25 17.06.2019
6273 Drizzle 17 1021 100 10000 4.6 90 07:57 17.06.2019
6274 Drizzle 17 1021 93 10000 6.2 100 07:32 17.06.2019
6275 Drizzle 17 1021 100 2000 5.1 90 06:53 17.06.2019
6276 Drizzle 17 1021 100 10000 5.1 90 06:18 17.06.2019
6277 Drizzle 17 1021 100 8000 4.6 80 05:20 17.06.2019
6278 Drizzle 17 1021 93 2700 4.6 90 04:23 17.06.2019
6279 Drizzle 17 1021 93 3500 6.2 120 03:31 17.06.2019
6280 Drizzle 17 1021 93 8000 6.2 120 02:43 17.06.2019
6281 Clouds 16 1020 100 7000 4.6 110 02:25 17.06.2019
6282 Mist 16 1020 100 8000 6.2 120 01:35 17.06.2019
6283 Drizzle 16 1020 93 8000 5.7 120 00:57 17.06.2019
6284 Drizzle 16 1020 93 8000 5.7 120 00:36 17.06.2019
6285 Drizzle 17 1020 100 4000 4.6 110 00:18 17.06.2019
6286 Drizzle 17 1020 100 10000 3.1 90 23:39 16.06.2019
6287 Drizzle 17 1020 100 5000 5.1 110 23:19 16.06.2019
6288 Rain 17 1020 100 2100 4.6 100 22:44 16.06.2019
6289 Rain 17 1020 93 7000 6.2 120 22:20 16.06.2019
6290 Rain 17 1020 93 7000 6.2 120 22:20 16.06.2019
6291 Rain 17 1020 93 7000 6.2 120 21:57 16.06.2019
6292 Rain 17 1020 93 7000 6.2 120 21:39 16.06.2019
6293 Rain 17 1019 100 4000 6.7 120 21:20 16.06.2019
6294 Rain 17 1019 100 10000 4.1 110 20:39 16.06.2019
6295 Rain 17 1019 93 3000 3.6 90 20:19 16.06.2019
6296 Rain 17 1019 93 3000 3.6 90 20:19 16.06.2019
6297 Rain 17 1019 93 3000 3.6 90 19:58 16.06.2019
6298 Rain 17 1020 100 1500 5.7 120 19:39 16.06.2019
6299 Rain 17 1020 93 1500 6.7 120 19:19 16.06.2019
6300 Rain 17 1020 93 2500 6.7 110 18:41 16.06.2019
6301 Rain 16 1021 100 1500 3.6 110 18:21 16.06.2019
6302 Rain 16 1021 93 2500 7.7 110 17:49 16.06.2019
6303 Rain 16 1021 93 2500 7.7 110 17:25 16.06.2019
6304 Thunderstorm 16 1020 100 4500 9.8 120 16:58 16.06.2019
6305 Thunderstorm 16 1020 100 3200 7.7 80 16:40 16.06.2019
6306 Thunderstorm 16 1020 100 1300 9.8 120 16:21 16.06.2019
6307 Thunderstorm 16 1020 100 1300 9.8 120 15:57 16.06.2019
6308 Rain 16 1021 93 2600 8.2 130 15:38 16.06.2019
6309 Rain 16 1020 100 1100 10.3 120 15:19 16.06.2019
6310 Rain 16 1020 100 1400 9.3 120 14:37 16.06.2019
6311 Rain 16 1020 93 1500 9.8 130 14:19 16.06.2019
6312 Rain 15 1019 100 800 7.7 130 13:46 16.06.2019
6313 Rain 15 1019 100 800 7.7 130 13:25 16.06.2019
6314 Rain 15 1019 93 3000 9.3 120 12:45 16.06.2019
6315 Rain 15 1017 93 2000 8.7 90 12:23 16.06.2019
6316 Rain 15 1017 93 2000 8.7 90 11:56 16.06.2019
6317 Rain 15 1018 93 8000 10.8 120 11:38 16.06.2019
6318 Rain 15 1019 100 3000 5.1 130 11:18 16.06.2019
6319 Drizzle 15 1019 93 10000 9.8 140 10:44 16.06.2019
6320 Drizzle 15 1019 93 10000 10.8 140 10:19 16.06.2019
6321 Drizzle 14 1019 93 3000 10.8 140 09:43 16.06.2019
6322 Drizzle 15 1019 100 2500 9.8 120 09:23 16.06.2019
6323 Drizzle 14 1019 100 2500 9.8 120 08:46 16.06.2019
6324 Drizzle 14 1020 100 3000 5.1 120 08:21 16.06.2019
6325 Drizzle 14 1020 93 2500 9.3 140 07:45 16.06.2019
6326 Drizzle 14 1020 93 2500 9.3 140 07:27 16.06.2019
6327 Drizzle 13 1019 100 6000 10.3 130 06:53 16.06.2019
6328 Drizzle 14 1020 100 2400 10.3 130 05:56 16.06.2019
6329 Drizzle 13 1020 93 2200 7.7 110 05:22 16.06.2019
6330 Drizzle 13 1020 100 3500 6.2 110 04:21 16.06.2019
6331 Drizzle 13 1019 93 4000 8.7 140 03:40 16.06.2019
6332 Drizzle 13 1020 93 2500 7.7 130 03:20 16.06.2019
6333 Drizzle 13 1020 93 5000 5.7 140 01:48 16.06.2019
6334 Clouds 13 1019 87 10000 7.2 130 01:30 16.06.2019
6335 Clouds 13 1019 87 10000 7.2 130 00:43 16.06.2019
6336 Clouds 13 1018 93 10000 7.7 140 00:25 16.06.2019
6337 Clouds 13 1018 93 10000 7.7 140 23:56 15.06.2019
6338 Drizzle 13 1018 93 10000 6.7 140 23:38 15.06.2019
6339 Drizzle 12 1018 93 8000 6.2 140 23:19 15.06.2019
6340 Drizzle 13 1018 93 5000 7.7 140 22:43 15.06.2019
6341 Drizzle 13 1018 93 5000 7.7 140 22:25 15.06.2019
6342 Drizzle 13 1018 93 2500 7.7 150 21:44 15.06.2019
6343 Drizzle 12 1018 93 10000 6.7 130 21:21 15.06.2019
6344 Drizzle 12 1018 93 5000 4.6 140 20:45 15.06.2019
6345 Drizzle 12 1018 100 4000 5.1 140 20:23 15.06.2019
6346 Drizzle 12 1018 93 7000 5.7 140 19:50 15.06.2019
6347 Rain 12 1018 93 7000 5.7 140 19:28 15.06.2019
6348 Rain 12 1018 100 4000 5.7 140 18:44 15.06.2019
6349 Rain 12 1018 100 4000 5.7 140 18:25 15.06.2019
6350 Rain 11 1019 93 1500 7.2 160 17:45 15.06.2019
6351 Rain 11 1019 93 1500 7.2 160 17:27 15.06.2019
6352 Rain 11 1019 93 3000 5.1 160 16:49 15.06.2019
6353 Rain 11 1020 93 5000 5.7 170 16:22 15.06.2019
6354 Rain 11 1020 93 5000 5.7 170 15:56 15.06.2019
6355 Rain 11 1020 100 3000 5.7 170 15:37 15.06.2019
6356 Rain 11 1020 87 1500 5.1 230 15:18 15.06.2019
6357 Rain 11 1021 100 5000 3.1 270 14:37 15.06.2019
6358 Rain 11 1018 100 6000 5.1 170 14:18 15.06.2019
6359 Rain 11 1018 93 3000 10.3 140 13:42 15.06.2019
6360 Thunderstorm 11 1018 93 1500 5.7 140 13:20 15.06.2019
6361 Rain 11 1017 87 5000 8.2 140 12:53 15.06.2019
6362 Rain 11 1017 87 5000 8.2 140 12:28 15.06.2019
6363 Rain 11 1016 87 5000 8.7 140 11:59 15.06.2019
6364 Clouds 11 1017 93 10000 6.2 130 11:41 15.06.2019
6365 Drizzle 12 1017 100 9000 6.7 140 11:23 15.06.2019
6366 Drizzle 12 1017 93 10000 5.7 140 10:41 15.06.2019
6367 Drizzle 12 1018 100 4000 3.6 150 10:23 15.06.2019
6368 Drizzle 12 1017 93 10000 4.6 150 09:44 15.06.2019
6369 Drizzle 12 1017 93 10000 4.6 150 09:25 15.06.2019
6370 Drizzle 13 1018 100 5000 5.1 140 08:54 15.06.2019
6371 Drizzle 13 1018 87 10000 3.6 140 08:32 15.06.2019
6372 Drizzle 13 1019 87 8000 3.1 110 07:50 15.06.2019
6373 Drizzle 13 1019 87 8000 3.1 110 07:50 15.06.2019
6374 Drizzle 13 1019 87 8000 3.1 110 07:25 15.06.2019
6375 Drizzle 13 1019 87 10000 4.6 130 06:41 15.06.2019
6376 Clouds 13 1019 87 10000 5.1 130 06:18 15.06.2019
6377 Clouds 14 1019 87 10000 5.1 130 05:25 15.06.2019
6378 Clouds 14 1018 87 10000 4.6 130 04:44 15.06.2019
6379 Clouds 14 1018 87 10000 4.6 130 04:44 15.06.2019
6380 Clouds 14 1018 87 10000 4.6 130 04:44 15.06.2019
6381 Clouds 13 1019 87 10000 3.1 130 03:42 15.06.2019
6382 Drizzle 13 1018 93 7000 2.6 150 02:56 15.06.2019
6383 Drizzle 13 1018 93 10000 3.1 150 02:21 15.06.2019
6384 Drizzle 13 1018 93 10000 3.1 150 01:43 15.06.2019
6385 Drizzle 13 1017 100 7000 3.1 180 00:48 15.06.2019
6386 Drizzle 13 1017 100 7000 3.1 180 00:29 15.06.2019
6387 Mist 13 1016 87 8000 2.1 200 23:54 14.06.2019
6388 Mist 13 1016 87 8000 2.1 200 23:25 14.06.2019
6389 Mist 13 1015 87 8000 3.1 190 22:43 14.06.2019
6390 Mist 13 1015 87 8000 3.1 190 22:23 14.06.2019
6391 Mist 13 1015 87 8000 3.1 190 22:23 14.06.2019
6392 Mist 13 1015 93 8000 2.1 230 21:58 14.06.2019
6393 Mist 13 1015 93 8000 2.1 230 21:39 14.06.2019
6394 Clouds 14 1016 100 6000 2.1 230 21:21 14.06.2019
6395 Clouds 14 1015 93 9000 3.6 210 20:42 14.06.2019
6396 Drizzle 14 1015 82 10000 1.5 210 20:18 14.06.2019
6397 Drizzle 14 1015 82 10000 1.5 210 19:51 14.06.2019
6398 Drizzle 14 1016 87 10000 2.6 220 19:23 14.06.2019
6399 Drizzle 14 1016 87 10000 2.6 220 19:23 14.06.2019
6400 Drizzle 14 1016 87 10000 2.6 220 18:58 14.06.2019
6401 Drizzle 14 1016 93 9000 2.6 220 18:40 14.06.2019
6402 Drizzle 14 1016 100 8000 2.6 250 18:22 14.06.2019
6403 Drizzle 14 1016 93 9000 3.1 230 17:46 14.06.2019
6404 Drizzle 14 1016 93 9000 3.1 230 17:27 14.06.2019
6405 Drizzle 14 1016 93 5000 3.1 220 16:56 14.06.2019
6406 Drizzle 14 1016 100 7000 3.6 220 16:38 14.06.2019
6407 Drizzle 14 1014 100 5000 3.6 220 16:18 14.06.2019
6408 Mist 14 1014 87 10000 3.6 200 15:39 14.06.2019
6409 Mist 14 1014 93 5000 4.1 190 15:21 14.06.2019
6410 Drizzle 14 1013 100 6000 3.1 230 14:53 14.06.2019
6411 Drizzle 14 1013 100 6000 3.1 230 14:32 14.06.2019
6412 Drizzle 14 1014 100 5000 2.6 230 13:55 14.06.2019
6413 Drizzle 14 1013 93 2500 4.6 230 13:55 14.06.2019
6414 Drizzle 14 1013 93 2500 4.6 230 13:36 14.06.2019
6415 Drizzle 14 1014 93 2800 5.1 200 13:18 14.06.2019
6416 Drizzle 14 1013 93 4000 4.6 240 12:41 14.06.2019
6417 Drizzle 15 1013 100 5000 4.6 220 12:22 14.06.2019
6418 Drizzle 15 1011 93 2800 3.6 250 11:44 14.06.2019
6419 Mist 15 1012 100 4000 4.1 220 11:24 14.06.2019
6420 Mist 16 1011 100 4000 3.1 240 10:50 14.06.2019
6421 Mist 16 1011 100 4000 3.1 240 10:23 14.06.2019
6422 Mist 16 1010 100 8000 2.1 250 09:56 14.06.2019
6423 Mist 17 1010 100 8000 2.1 250 09:38 14.06.2019
6424 Drizzle 18 1010 100 8000 2.1 240 09:19 14.06.2019
6425 Mist 18 1010 93 1200 2.6 230 08:41 14.06.2019
6426 Mist 18 1009 93 1100 2.1 230 08:18 14.06.2019
6427 Mist 18 1009 93 2000 1 260 07:45 14.06.2019
6428 Drizzle 18 1010 100 3000 1.5 230 07:19 14.06.2019
6429 Drizzle 18 1010 93 2600 1 0 06:27 14.06.2019
6430 Drizzle 18 1010 93 2600 1 0 06:27 14.06.2019
6431 Mist 18 1009 93 10000 2.1 100 05:53 14.06.2019
6432 Clouds 18 1009 93 10000 1.5 60 04:56 14.06.2019
6433 Clouds 18 1009 93 10000 1.5 70 04:31 14.06.2019
6434 Clouds 18 1009 100 10000 3.6 120 03:41 14.06.2019
6435 Drizzle 18 1009 100 10000 4.6 60 03:23 14.06.2019
6436 Drizzle 18 1009 100 8000 3.1 110 02:41 14.06.2019
6437 Drizzle 19 1008 100 5000 3.6 80 01:53 14.06.2019
6438 Thunderstorm 19 1008 93 10000 3.6 90 00:41 14.06.2019
6439 Thunderstorm 19 1008 93 10000 3.1 90 00:22 14.06.2019
6440 Thunderstorm 19 1008 100 5000 3.6 80 23:51 13.06.2019
6441 Thunderstorm 19 1008 100 5000 3.6 80 23:26 13.06.2019
6442 Thunderstorm 19 1008 93 9000 2.1 90 22:57 13.06.2019
6443 Thunderstorm 19 1008 100 1500 3.6 110 22:37 13.06.2019
6444 Thunderstorm 19 1007 93 9000 5.1 100 22:18 13.06.2019
6445 Thunderstorm 19 1008 93 10000 3.6 110 21:38 13.06.2019
6446 Clouds 19 1008 93 10000 3.1 110 21:19 13.06.2019
6447 Clouds 19 1008 93 10000 3.1 110 20:45 13.06.2019
6448 Drizzle 19 1009 93 10000 3.1 60 20:20 13.06.2019
6449 Drizzle 18 1009 93 9000 4.6 110 19:43 13.06.2019
6450 Drizzle 18 1010 93 10000 5.1 90 19:25 13.06.2019
6451 Drizzle 18 1010 93 10000 5.1 90 19:00 13.06.2019
6452 Drizzle 18 1010 93 10000 5.1 90 18:41 13.06.2019
6453 Drizzle 17 1011 100 9000 7.7 110 18:22 13.06.2019
6454 Drizzle 17 1011 100 9000 7.7 110 17:45 13.06.2019
6455 Thunderstorm 16 1012 100 600 8.7 110 17:22 13.06.2019
6456 Thunderstorm 16 1012 100 600 8.7 110 16:59 13.06.2019
6457 Rain 16 1012 93 1000 7.7 60 16:41 13.06.2019
6458 Thunderstorm 16 1013 93 5000 9.3 110 16:20 13.06.2019
6459 Thunderstorm 16 1012 93 8000 9.8 110 15:41 13.06.2019
6460 Thunderstorm 16 1013 93 4500 8.2 110 15:22 13.06.2019
6461 Thunderstorm 16 1012 100 1500 7.7 90 14:52 13.06.2019
6462 Thunderstorm 16 1012 100 1500 7.7 90 14:31 13.06.2019
6463 Mist 15 1012 100 4500 5.7 120 13:57 13.06.2019
6464 Mist 15 1012 100 4500 5.7 120 13:57 13.06.2019
6465 Mist 15 1011 100 3000 4.1 120 13:39 13.06.2019
6466 Mist 15 1012 100 5000 4.1 140 13:20 13.06.2019
6467 Mist 15 1012 100 2000 6.7 130 12:41 13.06.2019
6468 Mist 16 1011 93 2800 3.1 130 12:21 13.06.2019
6469 Mist 16 1011 93 2800 3.1 130 11:45 13.06.2019
6470 Mist 16 1011 93 3000 3.6 140 11:26 13.06.2019
6471 Mist 16 1011 93 3000 3.6 140 10:51 13.06.2019
6472 Mist 16 1011 93 3000 3.6 140 10:31 13.06.2019
6473 Mist 16 1012 93 4800 3.1 160 09:55 13.06.2019
6474 Mist 16 1012 93 4800 3.1 160 09:55 13.06.2019
6475 Mist 16 1012 93 4800 3.1 160 09:55 13.06.2019
6476 Mist 16 1012 93 4800 3.1 160 09:36 13.06.2019
6477 Mist 16 1013 100 2500 1 140 09:18 13.06.2019
6478 Mist 16 1013 100 2500 1 140 08:43 13.06.2019
6479 Mist 16 1013 100 2300 1 180 08:22 13.06.2019
6480 Mist 17 1013 100 2300 1 180 07:39 13.06.2019
6481 Mist 17 1013 100 2000 2.88 134.817 07:21 13.06.2019
6482 Mist 17 1013 93 2500 1 110 06:40 13.06.2019
6483 Mist 17 1013 100 3000 2.6 180 06:22 13.06.2019
6484 Mist 17 1013 100 3000 2.6 180 05:44 13.06.2019
6485 Fog 17 1012 93 3700 2.1 140 05:26 13.06.2019
6486 Mist 17 1012 93 3000 1.5 130 03:50 13.06.2019
6487 Clouds 19 1011 93 8000 1.5 170 02:20 13.06.2019
6488 Clouds 19 1011 93 8000 1.5 60 00:36 13.06.2019
6489 Clouds 19 1009 93 7000 1 100 23:38 12.06.2019
6490 Clouds 20 1009 88 8000 1.5 100 23:20 12.06.2019
6491 Clouds 20 1009 88 8000 1.5 100 22:41 12.06.2019
6492 Clouds 21 1009 78 9000 1 0 22:22 12.06.2019
6493 Clouds 21 1009 78 9000 1 0 21:47 12.06.2019
6494 Clouds 21 1009 78 9000 1 0 21:28 12.06.2019
6495 Clouds 21 1009 78 9000 2.1 0 20:49 12.06.2019
6496 Clouds 21 1009 78 9000 2.1 0 20:31 12.06.2019
6497 Clouds 21 1008 78 10000 2.6 250 19:59 12.06.2019
6498 Clouds 22 1008 78 10000 2.6 250 19:40 12.06.2019
6499 Mist 21 1008 78 10000 2.6 250 19:22 12.06.2019
6500 Mist 21 1009 83 10000 2.6 270 18:49 12.06.2019
6501 Mist 21 1009 83 10000 2.6 270 18:28 12.06.2019
6502 Clouds 21 1009 83 10000 1.5 270 17:51 12.06.2019
6503 Clouds 20 1010 93 10000 1.5 230 17:23 12.06.2019
6504 Clouds 20 1010 93 10000 1.5 230 16:59 12.06.2019
6505 Clouds 20 1010 93 10000 1.5 230 16:39 12.06.2019
6506 Rain 19 1010 93 9000 3.1 340 16:20 12.06.2019
6507 Rain 19 1010 93 9000 3.1 340 15:46 12.06.2019
6508 Rain 19 1010 93 9000 3.1 340 15:28 12.06.2019
6509 Clouds 18 1009 93 10000 2.6 330 14:39 12.06.2019
6510 Clouds 18 1009 93 9000 2.1 330 14:20 12.06.2019
6511 Clouds 18 1009 93 9000 2.1 330 13:42 12.06.2019
6512 Clouds 18 1008 93 9000 2.6 330 13:20 12.06.2019
6513 Clouds 18 1008 93 9000 2.6 330 12:56 12.06.2019
6514 Clouds 18 1008 93 9000 2.6 330 12:37 12.06.2019
6515 Clouds 18 1008 93 9000 2.1 330 12:18 12.06.2019
6516 -273 0 0 0 0 0 11:43 12.06.2019
6517 Clouds 18 1008 93 9000 2.1 330 11:43 12.06.2019
6518 Clear 18 1008 100 10000 2.6 350 11:25 12.06.2019
6519 Clear 18 1008 100 10000 2.6 350 10:46 12.06.2019
6520 Clear 18 1009 100 10000 1.5 30 10:23 12.06.2019
6521 Clear 17 1009 100 10000 1.5 30 09:43 12.06.2019
6522 Clear 17 1009 100 10000 1.5 30 09:43 12.06.2019
6523 Mist 17 1009 93 10000 3.1 360 09:23 12.06.2019
6524 Mist 17 1009 93 10000 3.1 360 08:46 12.06.2019
6525 Clouds 17 1010 93 10000 3.6 360 08:20 12.06.2019
6526 Thunderstorm 17 1010 93 10000 4.1 360 07:37 12.06.2019
6527 Thunderstorm 17 1010 100 5000 1.5 60 06:41 12.06.2019
6528 Thunderstorm 17 1010 93 10000 3.6 40 05:27 12.06.2019
6529 Thunderstorm 16 1011 100 6000 3.6 100 03:41 12.06.2019
6530 Rain 16 1013 93 6000 6.2 110 00:54 12.06.2019
6531 Rain 16 1013 93 6000 6.2 110 00:35 12.06.2019
6532 Clouds 16 1013 93 8000 6.7 110 23:44 11.06.2019
6533 Thunderstorm 16 1013 93 10000 5.1 120 23:26 11.06.2019
6534 Thunderstorm 16 1013 93 10000 5.1 120 22:43 11.06.2019
6535 Thunderstorm 16 1013 93 10000 4.1 100 22:18 11.06.2019
6536 Thunderstorm 16 1013 93 10000 4.1 100 21:56 11.06.2019
6537 Thunderstorm 16 1013 93 10000 4.1 100 21:37 11.06.2019
6538 Rain 15 1013 87 10000 4.6 90 21:19 11.06.2019
6539 Rain 15 1014 93 9000 5.7 110 20:46 11.06.2019
6540 Thunderstorm 15 1014 87 10000 4.6 80 20:23 11.06.2019
6541 Clouds 15 1015 87 10000 5.7 110 19:52 11.06.2019
6542 Clouds 15 1016 87 10000 5.7 90 19:29 11.06.2019
6543 Clouds 15 1016 87 10000 5.7 90 18:53 11.06.2019
6544 -273 0 0 0 0 0 18:20 11.06.2019
6545 Clouds 15 1018 87 10000 8.7 100 17:42 11.06.2019
6546 Clouds 15 1018 82 10000 9.8 100 17:22 11.06.2019
6547 Clouds 15 1018 82 10000 9.8 100 16:46 11.06.2019
6548 Clouds 15 1018 82 10000 9.3 100 16:24 11.06.2019
6549 Clouds 15 1018 82 10000 9.3 100 15:59 11.06.2019
6550 Clouds 15 1018 82 10000 9.3 100 15:41 11.06.2019
6551 Clouds 15 1018 82 10000 9.3 100 15:20 11.06.2019
6552 Clouds 15 1018 82 10000 9.3 100 14:44 11.06.2019
6553 Clouds 15 1019 82 10000 8.7 100 14:20 11.06.2019
6554 Clouds 14 1019 82 10000 8.7 100 13:50 11.06.2019
6555 Clouds 14 1018 87 10000 5.7 90 13:23 11.06.2019
6556 Clouds 13 1018 87 10000 5.7 90 12:43 11.06.2019
6557 Clouds 13 1018 87 10000 5.7 90 12:43 11.06.2019
6558 Clouds 13 1018 87 10000 5.7 140 12:22 11.06.2019
6559 Clouds 13 1018 87 10000 5.7 140 11:57 11.06.2019
6560 Clouds 13 1018 87 10000 5.7 140 11:34 11.06.2019
6561 Clouds 12 1018 93 10000 4.1 130 10:58 11.06.2019
6562 Clouds 12 1018 93 10000 4.1 130 10:40 11.06.2019
6563 Clear 12 1018 82 10000 5.7 140 10:21 11.06.2019
6564 Clear 12 1018 82 10000 5.7 140 09:45 11.06.2019
6565 Clear 12 1018 87 10000 4.1 160 09:23 11.06.2019
6566 Clear 12 1018 87 10000 4.1 160 09:23 11.06.2019
6567 Mist 13 1018 87 10000 4.1 160 08:42 11.06.2019
6568 Mist 13 1018 93 5000 3.6 140 08:23 11.06.2019
6569 Mist 13 1018 100 7000 4.1 150 07:36 11.06.2019
6570 Fog 13 1018 93 500 1 170 06:54 11.06.2019
6571 Fog 13 1018 100 100 1.84 138.565 06:23 11.06.2019
6572 Fog 14 1018 93 8000 1.5 150 04:48 11.06.2019
6573 Clouds 17 1018 88 6000 2.6 90 02:27 11.06.2019
6574 Clouds 17 1016 82 8000 1 180 00:54 11.06.2019
6575 Clouds 17 1016 82 8000 1 180 00:31 11.06.2019
6576 Clouds 17 1015 77 8000 1 220 23:46 10.06.2019
6577 Clouds 17 1015 77 10000 1.52 103.284 23:21 10.06.2019
6578 Clouds 17 1015 77 10000 1.52 103.284 22:46 10.06.2019
6579 Clouds 17 1015 77 10000 1 220 22:27 10.06.2019
6580 Clouds 18 1015 77 10000 1 220 21:58 10.06.2019
6581 Clouds 18 1015 77 10000 1 220 21:38 10.06.2019
6582 Clouds 18 1015 77 10000 1 220 21:20 10.06.2019
6583 Clouds 17 1015 77 10000 1 220 20:44 10.06.2019
6584 Drizzle 17 1015 77 10000 1.5 190 20:21 10.06.2019
6585 Drizzle 17 1015 77 10000 1.5 190 19:48 10.06.2019
6586 Clouds 17 1015 82 10000 1.5 240 19:23 10.06.2019
6587 Clouds 17 1015 82 10000 1.5 240 18:58 10.06.2019
6588 Clouds 17 1015 82 10000 1.5 240 18:39 10.06.2019
6589 Clouds 17 1015 82 10000 1.5 240 18:20 10.06.2019
6590 Clouds 17 1015 82 10000 1.5 240 17:44 10.06.2019
6591 Clouds 17 1016 82 10000 2.1 280 17:24 10.06.2019
6592 Clouds 17 1016 82 10000 2.1 280 16:49 10.06.2019
6593 Mist 17 1015 88 10000 2.1 300 16:30 10.06.2019
6594 Mist 17 1015 88 10000 2.1 300 16:30 10.06.2019
6595 Mist 17 1015 88 10000 2.1 300 15:59 10.06.2019
6596 Mist 17 1015 88 10000 2.1 300 15:40 10.06.2019
6597 Mist 17 1015 88 10000 3.1 290 15:22 10.06.2019
6598 Mist 17 1015 88 10000 3.6 330 14:45 10.06.2019
6599 Mist 16 1015 88 10000 3.6 330 14:25 10.06.2019
6600 Clouds 16 1014 88 10000 2.1 290 13:47 10.06.2019
6601 Clouds 16 1014 88 10000 2.1 290 13:28 10.06.2019
6602 Clouds 16 1014 93 10000 3.6 330 12:54 10.06.2019
6603 Clouds 16 1014 93 10000 3.6 330 12:31 10.06.2019
6604 Clouds 16 1014 93 10000 4.6 320 11:58 10.06.2019
6605 Clouds 16 1014 93 10000 4.6 320 11:38 10.06.2019
6606 Clouds 16 1013 88 10000 3.1 300 11:18 10.06.2019
6607 Clouds 16 1013 88 10000 3.1 300 10:41 10.06.2019
6608 Clouds 16 1013 93 10000 1.5 320 10:19 10.06.2019
6609 Clouds 16 1013 93 10000 1.5 320 09:51 10.06.2019
6610 Clouds 16 1013 93 10000 1.5 320 09:29 10.06.2019
6611 Clouds 16 1013 88 10000 3.1 320 08:49 10.06.2019
6612 Clouds 17 1013 88 10000 3.1 320 08:26 10.06.2019
6613 Clouds 17 1014 93 10000 3.6 320 07:41 10.06.2019
6614 Drizzle 17 1013 82 10000 2.6 50 04:43 10.06.2019
6615 Clear 17 1014 68 10000 2.6 100 02:35 10.06.2019
6616 Clouds 16 1013 82 10000 3.6 110 01:50 10.06.2019
6617 Clear 16 1013 72 10000 4.6 120 01:19 10.06.2019
6618 Clear 16 1013 72 10000 4.6 120 00:37 10.06.2019
6619 Clear 17 1013 72 10000 4.1 110 23:46 09.06.2019
6620 Clear 17 1014 55 10000 3.1 100 23:21 09.06.2019
6621 Clear 18 1014 55 10000 3.1 100 22:47 09.06.2019
6622 Clear 19 1014 55 10000 3.1 100 22:26 09.06.2019
6623 Clear 19 1014 52 10000 2.6 100 21:48 09.06.2019
6624 Clear 19 1015 59 10000 2.6 60 21:29 09.06.2019
6625 Clear 19 1015 59 10000 2.6 60 20:58 09.06.2019
6626 Clear 20 1015 59 10000 2.6 60 20:40 09.06.2019
6627 Clear 19 1016 55 10000 2.6 60 20:21 09.06.2019
6628 Clear 20 1016 55 10000 2.6 60 19:43 09.06.2019
6629 Clear 20 1016 55 10000 2.6 60 19:42 09.06.2019
6630 Clear 19 1017 59 10000 3.1 40 19:18 09.06.2019
6631 Clear 19 1017 59 10000 3.1 40 18:43 09.06.2019
6632 Clear 18 1018 45 10000 3.1 360 18:25 09.06.2019
6633 Clear 18 1018 45 10000 3.1 360 17:53 09.06.2019
6634 Clear 18 1018 45 10000 3.1 360 17:30 09.06.2019
6635 Clear 17 1018 67 10000 4.1 360 16:58 09.06.2019
6636 Clear 17 1018 67 10000 4.1 360 16:58 09.06.2019
6637 Clear 16 1018 67 10000 4.1 360 16:39 09.06.2019
6638 Clear 15 1019 76 10000 3.1 340 16:20 09.06.2019
6639 Clear 15 1019 76 10000 3.1 340 16:20 09.06.2019
6640 Clear 14 1019 76 10000 3.1 340 15:49 09.06.2019
6641 Clear 14 1019 76 10000 3.1 340 15:28 09.06.2019
6642 Clear 12 1018 76 10000 2.6 320 14:48 09.06.2019
6643 Clear 12 1018 76 10000 2.6 320 14:29 09.06.2019
6644 Clear 10 1018 87 10000 2.1 320 13:56 09.06.2019
6645 Clear 9 1018 87 10000 2.1 320 13:37 09.06.2019
6646 Clear 8 1018 87 10000 1.5 360 12:46 09.06.2019
6647 Clear 9 1018 71 10000 2.6 310 12:27 09.06.2019
6648 Clear 9 1018 71 10000 2.6 310 11:48 09.06.2019
6649 Clear 10 1018 66 10000 2.6 310 11:29 09.06.2019
6650 Clear 10 1018 66 10000 2.6 310 10:47 09.06.2019
6651 Clear 10 1018 66 10000 2.6 310 10:47 09.06.2019
6652 Clear 10 1018 66 10000 2.6 310 10:25 09.06.2019
6653 Clear 10 1018 66 10000 3.1 320 09:56 09.06.2019
6654 Clear 10 1018 66 10000 3.1 320 09:37 09.06.2019
6655 Clear 10 1019 66 10000 2.1 320 09:18 09.06.2019
6656 Clear 11 1019 66 10000 2.1 320 08:42 09.06.2019
6657 Clear 11 1019 62 10000 5.1 330 07:50 09.06.2019
6658 Clear 12 1019 71 10000 3.1 330 06:33 09.06.2019
6659 Clear 11 1020 71 10000 3.6 340 05:47 09.06.2019
6660 Clear 13 1019 62 10000 3.6 320 02:52 09.06.2019
6661 Clear 14 1019 58 10000 4.1 320 01:36 09.06.2019
6662 Clear 14 1019 58 10000 4.1 320 01:36 09.06.2019
6663 Clear 15 1019 44 10000 2.6 340 01:18 09.06.2019
6664 Clear 15 1018 42 10000 3.1 320 00:21 09.06.2019
6665 Clear 16 1018 42 10000 3.1 320 23:38 08.06.2019
6666 Clear 17 1018 34 10000 4.6 310 23:20 08.06.2019
6667 Clear 18 1018 34 10000 4.6 310 22:43 08.06.2019
6668 Clear 18 1018 29 10000 5.7 310 22:25 08.06.2019
6669 Clear 19 1018 29 10000 5.7 310 21:53 08.06.2019
6670 Clear 19 1018 29 10000 5.7 310 21:34 08.06.2019
6671 Clear 19 1018 29 10000 4.6 290 20:59 08.06.2019
6672 Clear 19 1018 29 10000 4.6 290 20:40 08.06.2019
6673 Clear 19 1018 29 10000 4.6 290 20:40 08.06.2019
6674 Clear 19 1019 32 10000 4.6 290 20:20 08.06.2019
6675 Clear 19 1019 32 10000 4.6 290 19:42 08.06.2019
6676 Clear 18 1020 34 10000 2.6 280 19:22 08.06.2019
6677 Clear 18 1020 34 10000 2.6 280 18:58 08.06.2019
6678 Clear 18 1020 34 10000 2.6 280 18:38 08.06.2019
6679 Clear 17 1021 33 10000 3.6 260 18:18 08.06.2019
6680 Clear 16 1021 33 10000 3.6 260 17:41 08.06.2019
6681 Clear 15 1021 38 10000 3.1 280 17:18 08.06.2019
6682 Clear 15 1021 38 10000 3.1 280 16:44 08.06.2019
6683 Clear 15 1021 38 10000 3.1 280 16:44 08.06.2019
6684 Clear 13 1021 43 10000 3.1 270 16:20 08.06.2019
6685 Clear 12 1021 43 10000 3.1 270 15:38 08.06.2019
6686 Clear 10 1020 43 10000 3.1 260 14:54 08.06.2019
6687 Clear 10 1020 43 10